<?xml version='1.0' encoding='UTF-8'?><gpx version="1.1" creator="JPX - https://github.com/jenetics/jpx" xmlns="http://www.topografix.com/GPX/1/1"><trk><trkseg><trkpt lat="46.15485805157871" lon="9.761487793082747"><ele>271.0</ele><time>2026-04-25T12:58:19.306Z</time></trkpt><trkpt lat="46.15486973807199" lon="9.761581196899268"><ele>271.0</ele><time>2026-04-25T12:58:22.306Z</time></trkpt><trkpt lat="46.15491885370782" lon="9.761654403637051"><ele>271.0</ele><time>2026-04-25T12:58:28.307Z</time></trkpt><trkpt lat="46.15487563198727" lon="9.761731103732156"><ele>271.0</ele><time>2026-04-25T12:58:43.989Z</time></trkpt><trkpt lat="46.154808349043726" lon="9.761834129294815"><ele>271.0</ele><time>2026-04-25T12:59:10.989Z</time></trkpt><trkpt lat="46.15472891349116" lon="9.76183481859586"><ele>271.0</ele><time>2026-04-25T12:59:12.989Z</time></trkpt><trkpt lat="46.15471901797432" lon="9.76172493397138"><ele>271.0</ele><time>2026-04-25T12:59:15.989Z</time></trkpt><trkpt lat="46.15479980506769" lon="9.761788268037515"><ele>271.0</ele><time>2026-04-25T12:59:17.989Z</time></trkpt><trkpt lat="46.15486369952241" lon="9.761796458805378"><ele>271.0</ele><time>2026-04-25T12:59:18.989Z</time></trkpt><trkpt lat="46.15493124113469" lon="9.761789756979622"><ele>271.0</ele><time>2026-04-25T12:59:19.989Z</time></trkpt><trkpt lat="46.15499799610245" lon="9.761769961980805"><ele>271.0</ele><time>2026-04-25T12:59:21.989Z</time></trkpt><trkpt lat="46.15507570544072" lon="9.761768883595783"><ele>271.0</ele><time>2026-04-25T12:59:42.989Z</time></trkpt><trkpt lat="46.155017537791586" lon="9.7618139643475"><ele>271.0</ele><time>2026-04-25T12:59:47.989Z</time></trkpt><trkpt lat="46.15494976294001" lon="9.761797748604621"><ele>271.0</ele><time>2026-04-25T12:59:48.989Z</time></trkpt><trkpt lat="46.15484950109662" lon="9.761793978701771"><ele>271.0</ele><time>2026-04-25T12:59:49.989Z</time></trkpt><trkpt lat="46.15471958519073" lon="9.761788189526264"><ele>271.0</ele><time>2026-04-25T12:59:50.989Z</time></trkpt><trkpt lat="46.154565690589266" lon="9.761782060345435"><ele>271.0</ele><time>2026-04-25T12:59:51.989Z</time></trkpt><trkpt lat="46.15442278396138" lon="9.761779718476678"><ele>271.0</ele><time>2026-04-25T12:59:52.989Z</time></trkpt><trkpt lat="46.154298129138105" lon="9.761779166306153"><ele>271.0</ele><time>2026-04-25T12:59:53.989Z</time></trkpt><trkpt lat="46.15418869136534" lon="9.76177318201145"><ele>271.0</ele><time>2026-04-25T12:59:54.989Z</time></trkpt><trkpt lat="46.15409387223361" lon="9.761773513304972"><ele>271.0</ele><time>2026-04-25T12:59:55.989Z</time></trkpt><trkpt lat="46.15400510802687" lon="9.761776999626676"><ele>271.0</ele><time>2026-04-25T12:59:56.989Z</time></trkpt><trkpt lat="46.15393342480458" lon="9.761773689421142"><ele>271.3333333333333</ele><time>2026-04-25T12:59:57.989Z</time></trkpt><trkpt lat="46.15383043261864" lon="9.761780391803478"><ele>271.66666666666663</ele><time>2026-04-25T12:59:59.989Z</time></trkpt><trkpt lat="46.153776262985716" lon="9.76190807962417"><ele>272.0</ele><time>2026-04-25T13:00:01.989Z</time></trkpt><trkpt lat="46.153779392720324" lon="9.76201225120742"><ele>272.3333333333333</ele><time>2026-04-25T13:00:02.989Z</time></trkpt><trkpt lat="46.15378861669243" lon="9.762124485242927"><ele>272.6666666666667</ele><time>2026-04-25T13:00:03.989Z</time></trkpt><trkpt lat="46.153788158472636" lon="9.762226016915259"><ele>273.0</ele><time>2026-04-25T13:00:04.989Z</time></trkpt><trkpt lat="46.15378524945283" lon="9.762323170568278"><ele>273.4</ele><time>2026-04-25T13:00:05.989Z</time></trkpt><trkpt lat="46.153773705435064" lon="9.762493323258596"><ele>273.8</ele><time>2026-04-25T13:00:07.989Z</time></trkpt><trkpt lat="46.15377138551471" lon="9.762669014991198"><ele>274.2</ele><time>2026-04-25T13:00:09.989Z</time></trkpt><trkpt lat="46.15377076211291" lon="9.76276943242078"><ele>274.6</ele><time>2026-04-25T13:00:10.989Z</time></trkpt><trkpt lat="46.15377097281005" lon="9.762877295807387"><ele>275.0</ele><time>2026-04-25T13:00:11.989Z</time></trkpt><trkpt lat="46.153767261038176" lon="9.76298410318688"><ele>275.33333333333337</ele><time>2026-04-25T13:00:12.988Z</time></trkpt><trkpt lat="46.153768401063296" lon="9.763090675536366"><ele>275.6666666666667</ele><time>2026-04-25T13:00:13.988Z</time></trkpt><trkpt lat="46.15377010189545" lon="9.763201402494875"><ele>276.0</ele><time>2026-04-25T13:00:14.988Z</time></trkpt><trkpt lat="46.15375916942209" lon="9.763317481525348"><ele>276.3333333333333</ele><time>2026-04-25T13:00:15.988Z</time></trkpt><trkpt lat="46.15374702677603" lon="9.763451247151677"><ele>276.66666666666663</ele><time>2026-04-25T13:00:16.988Z</time></trkpt><trkpt lat="46.153735135044194" lon="9.763609793834961"><ele>277.0</ele><time>2026-04-25T13:00:17.988Z</time></trkpt><trkpt lat="46.15372618172307" lon="9.76378520436548"><ele>277.0</ele><time>2026-04-25T13:00:18.988Z</time></trkpt><trkpt lat="46.153710632715224" lon="9.763950794403746"><ele>277.0</ele><time>2026-04-25T13:00:19.988Z</time></trkpt><trkpt lat="46.15371397959821" lon="9.76408292567012"><ele>277.0</ele><time>2026-04-25T13:00:20.988Z</time></trkpt><trkpt lat="46.15371803934076" lon="9.764188932186258"><ele>277.0</ele><time>2026-04-25T13:00:21.988Z</time></trkpt><trkpt lat="46.15372913071536" lon="9.764285014104487"><ele>277.0</ele><time>2026-04-25T13:00:23.988Z</time></trkpt><trkpt lat="46.15381944720383" lon="9.764287339037633"><ele>277.0</ele><time>2026-04-25T13:00:25.988Z</time></trkpt><trkpt lat="46.1538917834154" lon="9.764314820817514"><ele>277.0</ele><time>2026-04-25T13:00:27.989Z</time></trkpt><trkpt lat="46.153959447799885" lon="9.76432842419517"><ele>277.0</ele><time>2026-04-25T13:00:29.989Z</time></trkpt><trkpt lat="46.15398383703638" lon="9.764241440453944"><ele>277.0</ele><time>2026-04-25T13:00:32.99Z</time></trkpt><trkpt lat="46.153919202278274" lon="9.764286037083153"><ele>277.0</ele><time>2026-04-25T13:00:57.988Z</time></trkpt><trkpt lat="46.15385512198589" lon="9.764284076659571"><ele>277.0</ele><time>2026-04-25T13:01:11.988Z</time></trkpt><trkpt lat="46.15374811784954" lon="9.764241276737849"><ele>277.0</ele><time>2026-04-25T13:01:13.988Z</time></trkpt><trkpt lat="46.15369295844118" lon="9.764298177192318"><ele>277.0</ele><time>2026-04-25T13:01:15.987Z</time></trkpt><trkpt lat="46.153782963810926" lon="9.764360252011981"><ele>276.8333333333333</ele><time>2026-04-25T13:01:17.987Z</time></trkpt><trkpt lat="46.15387482828213" lon="9.764387361584745"><ele>276.66666666666663</ele><time>2026-04-25T13:01:18.987Z</time></trkpt><trkpt lat="46.1539637026478" lon="9.764417245148337"><ele>276.5</ele><time>2026-04-25T13:01:19.987Z</time></trkpt><trkpt lat="46.15403586964663" lon="9.76443060417825"><ele>276.3333333333333</ele><time>2026-04-25T13:01:20.987Z</time></trkpt><trkpt lat="46.15411156658939" lon="9.764363532807971"><ele>276.1666666666667</ele><time>2026-04-25T13:01:21.987Z</time></trkpt><trkpt lat="46.15417757170568" lon="9.76438523860145"><ele>276.0</ele><time>2026-04-25T13:01:22.987Z</time></trkpt><trkpt lat="46.15430518080956" lon="9.764406645999513"><ele>275.6666666666667</ele><time>2026-04-25T13:01:24.987Z</time></trkpt><trkpt lat="46.15437270613077" lon="9.76439764647505"><ele>275.33333333333337</ele><time>2026-04-25T13:01:25.987Z</time></trkpt><trkpt lat="46.15448134377828" lon="9.764282891932474"><ele>275.0</ele><time>2026-04-25T13:01:26.987Z</time></trkpt><trkpt lat="46.15464978532005" lon="9.764603710963378"><ele>275.0</ele><time>2026-04-25T13:01:29.987Z</time></trkpt><trkpt lat="46.15471974871233" lon="9.764623884311975"><ele>275.0</ele><time>2026-04-25T13:01:30.987Z</time></trkpt><trkpt lat="46.1547886193117" lon="9.764645898398422"><ele>275.0</ele><time>2026-04-25T13:01:31.987Z</time></trkpt><trkpt lat="46.15485932448469" lon="9.76466490476146"><ele>275.0</ele><time>2026-04-25T13:01:32.987Z</time></trkpt><trkpt lat="46.15492414217287" lon="9.764685738974727"><ele>275.0</ele><time>2026-04-25T13:01:33.987Z</time></trkpt><trkpt lat="46.15499341198186" lon="9.76470382519503"><ele>275.0</ele><time>2026-04-25T13:01:34.987Z</time></trkpt><trkpt lat="46.15506201343902" lon="9.764724377402"><ele>275.0</ele><time>2026-04-25T13:01:35.987Z</time></trkpt><trkpt lat="46.1551297596741" lon="9.764743961383063"><ele>274.83333333333337</ele><time>2026-04-25T13:01:36.987Z</time></trkpt><trkpt lat="46.15519706944193" lon="9.76476083285105"><ele>274.6666666666667</ele><time>2026-04-25T13:01:37.987Z</time></trkpt><trkpt lat="46.15526423402569" lon="9.764783124421887"><ele>274.5</ele><time>2026-04-25T13:01:38.987Z</time></trkpt><trkpt lat="46.155336778771215" lon="9.764800147181704"><ele>274.3333333333333</ele><time>2026-04-25T13:01:39.987Z</time></trkpt><trkpt lat="46.15541811526274" lon="9.764823125799865"><ele>274.16666666666663</ele><time>2026-04-25T13:01:40.987Z</time></trkpt><trkpt lat="46.155499983250444" lon="9.764842803339416"><ele>274.0</ele><time>2026-04-25T13:01:41.987Z</time></trkpt><trkpt lat="46.15558306744845" lon="9.76486774596337"><ele>274.0</ele><time>2026-04-25T13:01:42.987Z</time></trkpt><trkpt lat="46.15567274597574" lon="9.76489445058313"><ele>274.0</ele><time>2026-04-25T13:01:43.987Z</time></trkpt><trkpt lat="46.15576103146086" lon="9.764916730366766"><ele>274.0</ele><time>2026-04-25T13:01:44.987Z</time></trkpt><trkpt lat="46.15583757781016" lon="9.764943817134737"><ele>274.0</ele><time>2026-04-25T13:01:45.987Z</time></trkpt><trkpt lat="46.15590744895669" lon="9.764966473430599"><ele>274.0</ele><time>2026-04-25T13:01:46.987Z</time></trkpt><trkpt lat="46.15597873551232" lon="9.764974860823594"><ele>274.0</ele><time>2026-04-25T13:01:47.987Z</time></trkpt><trkpt lat="46.15605113426882" lon="9.764966014549206"><ele>274.0</ele><time>2026-04-25T13:01:48.987Z</time></trkpt><trkpt lat="46.15616205085029" lon="9.764918160980368"><ele>274.0</ele><time>2026-04-25T13:01:50.987Z</time></trkpt><trkpt lat="46.15620485109147" lon="9.764995790622965"><ele>274.0</ele><time>2026-04-25T13:01:54.987Z</time></trkpt><trkpt lat="46.15618383410247" lon="9.76508319743246"><ele>274.0</ele><time>2026-04-25T13:01:55.987Z</time></trkpt><trkpt lat="46.15616230399856" lon="9.765192263513917"><ele>274.0</ele><time>2026-04-25T13:01:56.987Z</time></trkpt><trkpt lat="46.15613924726542" lon="9.765315394566029"><ele>274.0</ele><time>2026-04-25T13:01:57.987Z</time></trkpt><trkpt lat="46.156125880392544" lon="9.765438946829537"><ele>274.0</ele><time>2026-04-25T13:01:58.987Z</time></trkpt><trkpt lat="46.15611218866966" lon="9.76554791049546"><ele>274.0</ele><time>2026-04-25T13:01:59.987Z</time></trkpt><trkpt lat="46.15609442915043" lon="9.76565691548239"><ele>274.0</ele><time>2026-04-25T13:02:00.987Z</time></trkpt><trkpt lat="46.15607626754797" lon="9.765777425604966"><ele>274.0</ele><time>2026-04-25T13:02:01.987Z</time></trkpt><trkpt lat="46.15604701857358" lon="9.765889176669562"><ele>274.0</ele><time>2026-04-25T13:02:02.987Z</time></trkpt><trkpt lat="46.156007822736015" lon="9.765974611454048"><ele>274.0</ele><time>2026-04-25T13:02:03.987Z</time></trkpt><trkpt lat="46.15595115354456" lon="9.766046144767827"><ele>274.0</ele><time>2026-04-25T13:02:05.987Z</time></trkpt><trkpt lat="46.155854676531476" lon="9.766013091476587"><ele>274.0</ele><time>2026-04-25T13:02:07.987Z</time></trkpt><trkpt lat="46.15576581830993" lon="9.765892596998414"><ele>274.0</ele><time>2026-04-25T13:02:09.987Z</time></trkpt><trkpt lat="46.15571390888214" lon="9.765783096569956"><ele>274.0</ele><time>2026-04-25T13:02:10.987Z</time></trkpt><trkpt lat="46.15565356476744" lon="9.765683368072427"><ele>274.0</ele><time>2026-04-25T13:02:11.987Z</time></trkpt><trkpt lat="46.155580699555244" lon="9.765599375504765"><ele>274.0</ele><time>2026-04-25T13:02:12.987Z</time></trkpt><trkpt lat="46.15549247956932" lon="9.765499107625162"><ele>274.0</ele><time>2026-04-25T13:02:14.987Z</time></trkpt><trkpt lat="46.155432580196134" lon="9.7654467821521"><ele>274.0</ele><time>2026-04-25T13:02:15.987Z</time></trkpt><trkpt lat="46.15536776091557" lon="9.765401714141309"><ele>274.0</ele><time>2026-04-25T13:02:16.987Z</time></trkpt><trkpt lat="46.15527450669607" lon="9.7653413038636"><ele>274.0</ele><time>2026-04-25T13:02:17.987Z</time></trkpt><trkpt lat="46.15517065836891" lon="9.765302922335286"><ele>274.0</ele><time>2026-04-25T13:02:18.987Z</time></trkpt><trkpt lat="46.15508039501065" lon="9.765305471425936"><ele>274.0</ele><time>2026-04-25T13:02:19.987Z</time></trkpt><trkpt lat="46.15498940158153" lon="9.76526722466593"><ele>274.0</ele><time>2026-04-25T13:02:21.987Z</time></trkpt><trkpt lat="46.15485611981868" lon="9.76528033508485"><ele>274.0</ele><time>2026-04-25T13:02:23.987Z</time></trkpt><trkpt lat="46.15478370502386" lon="9.76529672486704"><ele>274.0</ele><time>2026-04-25T13:02:24.987Z</time></trkpt><trkpt lat="46.15472123420916" lon="9.76528125755388"><ele>274.0</ele><time>2026-04-25T13:02:26.987Z</time></trkpt><trkpt lat="46.15465491893013" lon="9.765264045659304"><ele>274.0</ele><time>2026-04-25T13:02:30.986Z</time></trkpt><trkpt lat="46.154579750017824" lon="9.76534590768604"><ele>274.0</ele><time>2026-04-25T13:02:33.988Z</time></trkpt><trkpt lat="46.154478304332706" lon="9.765291165657386"><ele>274.0</ele><time>2026-04-25T13:02:35.987Z</time></trkpt><trkpt lat="46.15440468723444" lon="9.765220444425834"><ele>274.0</ele><time>2026-04-25T13:02:36.987Z</time></trkpt><trkpt lat="46.15432340418141" lon="9.765210418767982"><ele>274.0</ele><time>2026-04-25T13:02:38.987Z</time></trkpt><trkpt lat="46.15424346736651" lon="9.765221677417507"><ele>274.16666666666663</ele><time>2026-04-25T13:02:40.988Z</time></trkpt><trkpt lat="46.15417973054939" lon="9.765192250008727"><ele>274.3333333333333</ele><time>2026-04-25T13:02:41.988Z</time></trkpt><trkpt lat="46.15408572717131" lon="9.765184376636983"><ele>274.5</ele><time>2026-04-25T13:02:43.987Z</time></trkpt><trkpt lat="46.15400560041537" lon="9.765189716181585"><ele>274.6666666666667</ele><time>2026-04-25T13:02:46.987Z</time></trkpt><trkpt lat="46.15394227260217" lon="9.765136864376348"><ele>274.83333333333337</ele><time>2026-04-25T13:02:48.987Z</time></trkpt><trkpt lat="46.15387351079431" lon="9.765111049217646"><ele>275.0</ele><time>2026-04-25T13:02:49.987Z</time></trkpt><trkpt lat="46.15379890286585" lon="9.765108812396031"><ele>275.0</ele><time>2026-04-25T13:02:50.987Z</time></trkpt><trkpt lat="46.15372635158437" lon="9.76510475746841"><ele>275.0</ele><time>2026-04-25T13:02:51.987Z</time></trkpt><trkpt lat="46.153630007108674" lon="9.765128417524824"><ele>275.0</ele><time>2026-04-25T13:02:53.987Z</time></trkpt><trkpt lat="46.15359395250618" lon="9.765246757181675"><ele>275.0</ele><time>2026-04-25T13:02:55.987Z</time></trkpt><trkpt lat="46.15358560895671" lon="9.76534843118181"><ele>275.0</ele><time>2026-04-25T13:02:56.987Z</time></trkpt><trkpt lat="46.153593527782164" lon="9.765453899753465"><ele>275.0</ele><time>2026-04-25T13:02:57.987Z</time></trkpt><trkpt lat="46.15358845538259" lon="9.765549523156004"><ele>275.0</ele><time>2026-04-25T13:02:58.987Z</time></trkpt><trkpt lat="46.153578030525736" lon="9.765643232889495"><ele>275.0</ele><time>2026-04-25T13:02:59.987Z</time></trkpt><trkpt lat="46.153580320563975" lon="9.765750489909857"><ele>275.0</ele><time>2026-04-25T13:03:00.987Z</time></trkpt><trkpt lat="46.15359691851585" lon="9.765860821802049"><ele>275.0</ele><time>2026-04-25T13:03:01.987Z</time></trkpt><trkpt lat="46.15361663707157" lon="9.765965931479073"><ele>275.0</ele><time>2026-04-25T13:03:02.987Z</time></trkpt><trkpt lat="46.15363715230415" lon="9.76608344730736"><ele>275.0</ele><time>2026-04-25T13:03:03.987Z</time></trkpt><trkpt lat="46.15366327427249" lon="9.766197029163894"><ele>274.83333333333337</ele><time>2026-04-25T13:03:04.987Z</time></trkpt><trkpt lat="46.153680007248745" lon="9.766292848279592"><ele>274.6666666666667</ele><time>2026-04-25T13:03:05.987Z</time></trkpt><trkpt lat="46.15369467614966" lon="9.766388407480719"><ele>274.5</ele><time>2026-04-25T13:03:06.987Z</time></trkpt><trkpt lat="46.15370895546086" lon="9.766486743552157"><ele>274.3333333333333</ele><time>2026-04-25T13:03:07.987Z</time></trkpt><trkpt lat="46.153728188232776" lon="9.766578982524184"><ele>274.16666666666663</ele><time>2026-04-25T13:03:08.987Z</time></trkpt><trkpt lat="46.15376616145104" lon="9.766736365291042"><ele>274.0</ele><time>2026-04-25T13:03:10.987Z</time></trkpt><trkpt lat="46.15379210854842" lon="9.766872564741389"><ele>273.59999999999997</ele><time>2026-04-25T13:03:12.987Z</time></trkpt><trkpt lat="46.153846523313426" lon="9.767048299890853"><ele>273.2</ele><time>2026-04-25T13:03:14.987Z</time></trkpt><trkpt lat="46.15387225086559" lon="9.767163792341663"><ele>272.79999999999995</ele><time>2026-04-25T13:03:15.987Z</time></trkpt><trkpt lat="46.1538710909967" lon="9.76730060670137"><ele>272.4</ele><time>2026-04-25T13:03:16.987Z</time></trkpt><trkpt lat="46.153864367787754" lon="9.767437229754368"><ele>272.0</ele><time>2026-04-25T13:03:17.987Z</time></trkpt><trkpt lat="46.15384778756553" lon="9.767574713050085"><ele>271.8</ele><time>2026-04-25T13:03:18.987Z</time></trkpt><trkpt lat="46.153820392968164" lon="9.767709088356465"><ele>271.6</ele><time>2026-04-25T13:03:19.987Z</time></trkpt><trkpt lat="46.15379817153799" lon="9.767839765584824"><ele>271.40000000000003</ele><time>2026-04-25T13:03:20.987Z</time></trkpt><trkpt lat="46.153788389708225" lon="9.767998308930052"><ele>271.2</ele><time>2026-04-25T13:03:21.987Z</time></trkpt><trkpt lat="46.1537791580508" lon="9.76815322736936"><ele>271.0</ele><time>2026-04-25T13:03:22.987Z</time></trkpt><trkpt lat="46.15376933611828" lon="9.768311358217176"><ele>271.0</ele><time>2026-04-25T13:03:23.987Z</time></trkpt><trkpt lat="46.1537634207742" lon="9.768467261257339"><ele>271.0</ele><time>2026-04-25T13:03:24.987Z</time></trkpt><trkpt lat="46.153741374793526" lon="9.768623615493695"><ele>271.0</ele><time>2026-04-25T13:03:25.987Z</time></trkpt><trkpt lat="46.15369820484436" lon="9.76877935844607"><ele>271.0</ele><time>2026-04-25T13:03:26.987Z</time></trkpt><trkpt lat="46.15365116993199" lon="9.768934467610991"><ele>271.0</ele><time>2026-04-25T13:03:27.987Z</time></trkpt><trkpt lat="46.153596317803945" lon="9.76910439121251"><ele>271.0</ele><time>2026-04-25T13:03:28.987Z</time></trkpt><trkpt lat="46.1535375808806" lon="9.769279849284429"><ele>271.0</ele><time>2026-04-25T13:03:29.987Z</time></trkpt><trkpt lat="46.153478973378355" lon="9.769442209322618"><ele>271.0</ele><time>2026-04-25T13:03:30.987Z</time></trkpt><trkpt lat="46.153417101657645" lon="9.769597454515655"><ele>270.75</ele><time>2026-04-25T13:03:31.987Z</time></trkpt><trkpt lat="46.153357017818756" lon="9.76974266080317"><ele>270.5</ele><time>2026-04-25T13:03:32.987Z</time></trkpt><trkpt lat="46.1532995304785" lon="9.769897165171855"><ele>270.25</ele><time>2026-04-25T13:03:33.987Z</time></trkpt><trkpt lat="46.15325205573497" lon="9.770076751053821"><ele>270.0</ele><time>2026-04-25T13:03:34.987Z</time></trkpt><trkpt lat="46.15320924188905" lon="9.77026226772937"><ele>270.5</ele><time>2026-04-25T13:03:35.987Z</time></trkpt><trkpt lat="46.153160924926205" lon="9.770455335939438"><ele>271.0</ele><time>2026-04-25T13:03:36.987Z</time></trkpt><trkpt lat="46.1531287685119" lon="9.770665297605087"><ele>271.5</ele><time>2026-04-25T13:03:37.987Z</time></trkpt><trkpt lat="46.153114008939035" lon="9.770858494840207"><ele>272.0</ele><time>2026-04-25T13:03:38.987Z</time></trkpt><trkpt lat="46.153107421284666" lon="9.771039186522634"><ele>272.0</ele><time>2026-04-25T13:03:39.987Z</time></trkpt><trkpt lat="46.153088135456244" lon="9.771219811187635"><ele>272.0</ele><time>2026-04-25T13:03:40.987Z</time></trkpt><trkpt lat="46.15305353460801" lon="9.771416917642073"><ele>272.0</ele><time>2026-04-25T13:03:41.987Z</time></trkpt><trkpt lat="46.153015623288226" lon="9.771602159963761"><ele>272.0</ele><time>2026-04-25T13:03:42.987Z</time></trkpt><trkpt lat="46.15297879744982" lon="9.771758437174833"><ele>272.0</ele><time>2026-04-25T13:03:43.987Z</time></trkpt><trkpt lat="46.15293888439004" lon="9.771892525096836"><ele>272.0</ele><time>2026-04-25T13:03:44.987Z</time></trkpt><trkpt lat="46.15291986640996" lon="9.772012962378437"><ele>272.0</ele><time>2026-04-25T13:03:45.987Z</time></trkpt><trkpt lat="46.1528947262399" lon="9.772102679174608"><ele>272.0</ele><time>2026-04-25T13:03:46.987Z</time></trkpt><trkpt lat="46.152875799385114" lon="9.77220810022817"><ele>272.0</ele><time>2026-04-25T13:03:48.987Z</time></trkpt><trkpt lat="46.152992139906196" lon="9.772239529017163"><ele>272.0</ele><time>2026-04-25T13:03:50.987Z</time></trkpt><trkpt lat="46.1530795440244" lon="9.772266992240668"><ele>272.0</ele><time>2026-04-25T13:03:51.987Z</time></trkpt><trkpt lat="46.15316846414403" lon="9.772317716101758"><ele>272.0</ele><time>2026-04-25T13:03:52.987Z</time></trkpt><trkpt lat="46.15323071228236" lon="9.772389395243367"><ele>272.0</ele><time>2026-04-25T13:03:53.987Z</time></trkpt><trkpt lat="46.153246543585944" lon="9.772490867197488"><ele>272.0</ele><time>2026-04-25T13:03:54.987Z</time></trkpt><trkpt lat="46.15322153496871" lon="9.77260804961174"><ele>272.0</ele><time>2026-04-25T13:03:55.987Z</time></trkpt><trkpt lat="46.153170870216734" lon="9.772725304238348"><ele>272.0</ele><time>2026-04-25T13:03:56.987Z</time></trkpt><trkpt lat="46.15311422127999" lon="9.772834590628175"><ele>272.0</ele><time>2026-04-25T13:03:57.987Z</time></trkpt><trkpt lat="46.15307028347824" lon="9.772973754804863"><ele>272.0</ele><time>2026-04-25T13:03:58.987Z</time></trkpt><trkpt lat="46.153024410527856" lon="9.773111079891354"><ele>272.0</ele><time>2026-04-25T13:03:59.987Z</time></trkpt><trkpt lat="46.15298267217655" lon="9.773246940501735"><ele>272.0</ele><time>2026-04-25T13:04:00.987Z</time></trkpt><trkpt lat="46.152943127106354" lon="9.773382281419575"><ele>272.0</ele><time>2026-04-25T13:04:01.987Z</time></trkpt><trkpt lat="46.152894702947854" lon="9.773516917821345"><ele>272.0</ele><time>2026-04-25T13:04:02.987Z</time></trkpt><trkpt lat="46.15284482742076" lon="9.77365373532205"><ele>272.0</ele><time>2026-04-25T13:04:03.987Z</time></trkpt><trkpt lat="46.15278551074631" lon="9.77383004394523"><ele>272.0</ele><time>2026-04-25T13:04:04.987Z</time></trkpt><trkpt lat="46.15270244483583" lon="9.774026889000305"><ele>272.0</ele><time>2026-04-25T13:04:05.987Z</time></trkpt><trkpt lat="46.15260917974545" lon="9.774232005371072"><ele>272.0</ele><time>2026-04-25T13:04:06.987Z</time></trkpt><trkpt lat="46.152527063737594" lon="9.774407348551714"><ele>272.0</ele><time>2026-04-25T13:04:07.987Z</time></trkpt><trkpt lat="46.15245598053884" lon="9.774575666133707"><ele>272.0</ele><time>2026-04-25T13:04:08.987Z</time></trkpt><trkpt lat="46.152366768474884" lon="9.774725587906225"><ele>272.0</ele><time>2026-04-25T13:04:09.987Z</time></trkpt><trkpt lat="46.152263075569664" lon="9.774863089437332"><ele>271.6666666666667</ele><time>2026-04-25T13:04:10.987Z</time></trkpt><trkpt lat="46.152150371801945" lon="9.77500946081002"><ele>271.3333333333333</ele><time>2026-04-25T13:04:11.987Z</time></trkpt><trkpt lat="46.15203918227151" lon="9.775189351177879"><ele>271.0</ele><time>2026-04-25T13:04:12.987Z</time></trkpt><trkpt lat="46.1519258033014" lon="9.775377677734499"><ele>271.0</ele><time>2026-04-25T13:04:13.987Z</time></trkpt><trkpt lat="46.15181600960192" lon="9.775536764807308"><ele>271.0</ele><time>2026-04-25T13:04:14.987Z</time></trkpt><trkpt lat="46.151725405909495" lon="9.775692740894685"><ele>271.0</ele><time>2026-04-25T13:04:15.987Z</time></trkpt><trkpt lat="46.15163474342935" lon="9.775863049389848"><ele>271.0</ele><time>2026-04-25T13:04:16.987Z</time></trkpt><trkpt lat="46.15154631822073" lon="9.776018806923911"><ele>272.0</ele><time>2026-04-25T13:04:17.987Z</time></trkpt><trkpt lat="46.15146431624374" lon="9.776163951213181"><ele>273.0</ele><time>2026-04-25T13:04:18.987Z</time></trkpt><trkpt lat="46.15138405170839" lon="9.776328744164067"><ele>274.0</ele><time>2026-04-25T13:04:19.987Z</time></trkpt><trkpt lat="46.15131539461731" lon="9.776510997855581"><ele>275.0</ele><time>2026-04-25T13:04:20.986Z</time></trkpt><trkpt lat="46.151278672691966" lon="9.776688713143718"><ele>275.0</ele><time>2026-04-25T13:04:21.986Z</time></trkpt><trkpt lat="46.15127196416464" lon="9.776847252413653"><ele>275.0</ele><time>2026-04-25T13:04:22.986Z</time></trkpt><trkpt lat="46.15128348126061" lon="9.777024627319001"><ele>275.0</ele><time>2026-04-25T13:04:23.986Z</time></trkpt><trkpt lat="46.15132120291835" lon="9.777214688267046"><ele>275.0</ele><time>2026-04-25T13:04:24.986Z</time></trkpt><trkpt lat="46.15138780467163" lon="9.777408293916933"><ele>275.0</ele><time>2026-04-25T13:04:25.986Z</time></trkpt><trkpt lat="46.151435052768534" lon="9.777585345720224"><ele>275.0</ele><time>2026-04-25T13:04:26.986Z</time></trkpt><trkpt lat="46.15147474026715" lon="9.777761298691404"><ele>275.0</ele><time>2026-04-25T13:04:27.986Z</time></trkpt><trkpt lat="46.15149732654954" lon="9.777933382275272"><ele>275.0</ele><time>2026-04-25T13:04:28.986Z</time></trkpt><trkpt lat="46.15150417238007" lon="9.778074824331533"><ele>275.0</ele><time>2026-04-25T13:04:29.986Z</time></trkpt><trkpt lat="46.151473703076725" lon="9.778187850588274"><ele>275.0</ele><time>2026-04-25T13:04:30.986Z</time></trkpt><trkpt lat="46.151389427723295" lon="9.77826494904264"><ele>275.0</ele><time>2026-04-25T13:04:31.986Z</time></trkpt><trkpt lat="46.15127186459519" lon="9.778314365140226"><ele>275.0</ele><time>2026-04-25T13:04:32.986Z</time></trkpt><trkpt lat="46.15113485353633" lon="9.778353560243135"><ele>275.0</ele><time>2026-04-25T13:04:33.986Z</time></trkpt><trkpt lat="46.15101838901465" lon="9.778401350587497"><ele>275.0</ele><time>2026-04-25T13:04:34.986Z</time></trkpt><trkpt lat="46.15094571685345" lon="9.778447990678055"><ele>275.0</ele><time>2026-04-25T13:04:35.986Z</time></trkpt><trkpt lat="46.151011331202604" lon="9.77858880988543"><ele>275.0</ele><time>2026-04-25T13:04:38.986Z</time></trkpt><trkpt lat="46.151060160711666" lon="9.778715618878765"><ele>275.0</ele><time>2026-04-25T13:04:39.987Z</time></trkpt><trkpt lat="46.1510757386175" lon="9.778880271545557"><ele>275.0</ele><time>2026-04-25T13:04:40.987Z</time></trkpt><trkpt lat="46.15107960488167" lon="9.779049965763232"><ele>274.5</ele><time>2026-04-25T13:04:41.987Z</time></trkpt><trkpt lat="46.15110739463585" lon="9.779227747080634"><ele>274.0</ele><time>2026-04-25T13:04:42.988Z</time></trkpt><trkpt lat="46.151172868654335" lon="9.779423881025687"><ele>273.5</ele><time>2026-04-25T13:04:43.988Z</time></trkpt><trkpt lat="46.15125619344073" lon="9.779624703628599"><ele>273.0</ele><time>2026-04-25T13:04:44.988Z</time></trkpt><trkpt lat="46.1513463264296" lon="9.77980600324783"><ele>272.75</ele><time>2026-04-25T13:04:45.987Z</time></trkpt><trkpt lat="46.15143555028413" lon="9.779978693878226"><ele>272.5</ele><time>2026-04-25T13:04:46.987Z</time></trkpt><trkpt lat="46.151521026598665" lon="9.780144431082375"><ele>272.25</ele><time>2026-04-25T13:04:47.987Z</time></trkpt><trkpt lat="46.151609349199795" lon="9.780318036196055"><ele>272.0</ele><time>2026-04-25T13:04:48.988Z</time></trkpt><trkpt lat="46.15170493871669" lon="9.78047166228877"><ele>273.75</ele><time>2026-04-25T13:04:49.988Z</time></trkpt><trkpt lat="46.151805209714524" lon="9.780631034879956"><ele>275.5</ele><time>2026-04-25T13:04:50.988Z</time></trkpt><trkpt lat="46.1519009570857" lon="9.78077914082522"><ele>277.25</ele><time>2026-04-25T13:04:51.987Z</time></trkpt><trkpt lat="46.15200701522938" lon="9.780924246705949"><ele>279.0</ele><time>2026-04-25T13:04:52.988Z</time></trkpt><trkpt lat="46.15211897105523" lon="9.781064950988764"><ele>280.0</ele><time>2026-04-25T13:04:53.988Z</time></trkpt><trkpt lat="46.152231381889514" lon="9.781213177048292"><ele>281.0</ele><time>2026-04-25T13:04:54.988Z</time></trkpt><trkpt lat="46.15235239381962" lon="9.781372621742978"><ele>282.0</ele><time>2026-04-25T13:04:55.988Z</time></trkpt><trkpt lat="46.1524753509453" lon="9.7815258509051"><ele>282.0</ele><time>2026-04-25T13:04:56.988Z</time></trkpt><trkpt lat="46.152592024702294" lon="9.781676365729346"><ele>282.0</ele><time>2026-04-25T13:04:57.988Z</time></trkpt><trkpt lat="46.152690417303184" lon="9.781831856259831"><ele>282.0</ele><time>2026-04-25T13:04:58.988Z</time></trkpt><trkpt lat="46.152784223636516" lon="9.781971468583992"><ele>282.0</ele><time>2026-04-25T13:04:59.988Z</time></trkpt><trkpt lat="46.1528768355482" lon="9.782098274198786"><ele>282.6</ele><time>2026-04-25T13:05:00.988Z</time></trkpt><trkpt lat="46.15296074373266" lon="9.782222763390969"><ele>283.2</ele><time>2026-04-25T13:05:01.988Z</time></trkpt><trkpt lat="46.15303817619806" lon="9.78235256140218"><ele>283.8</ele><time>2026-04-25T13:05:02.988Z</time></trkpt><trkpt lat="46.153078249350465" lon="9.782482570333555"><ele>284.4</ele><time>2026-04-25T13:05:03.988Z</time></trkpt><trkpt lat="46.15312743746726" lon="9.782606541872065"><ele>285.0</ele><time>2026-04-25T13:05:04.988Z</time></trkpt><trkpt lat="46.15318016903106" lon="9.782748068981505"><ele>281.6666666666667</ele><time>2026-04-25T13:05:05.988Z</time></trkpt><trkpt lat="46.153256168150264" lon="9.782930194269234"><ele>278.33333333333337</ele><time>2026-04-25T13:05:06.988Z</time></trkpt><trkpt lat="46.15331392178142" lon="9.783136019038565"><ele>275.0</ele><time>2026-04-25T13:05:07.988Z</time></trkpt><trkpt lat="46.153385627999974" lon="9.783397759655722"><ele>276.5</ele><time>2026-04-25T13:05:08.988Z</time></trkpt><trkpt lat="46.15346878662116" lon="9.783695924498554"><ele>278.0</ele><time>2026-04-25T13:05:09.988Z</time></trkpt><trkpt lat="46.15353045854311" lon="9.784011216654548"><ele>278.0</ele><time>2026-04-25T13:05:10.988Z</time></trkpt><trkpt lat="46.153590878631746" lon="9.784279540266272"><ele>278.0</ele><time>2026-04-25T13:05:11.988Z</time></trkpt><trkpt lat="46.1536532664747" lon="9.784538014106035"><ele>278.0</ele><time>2026-04-25T13:05:12.988Z</time></trkpt><trkpt lat="46.15371903415997" lon="9.784769268876037"><ele>278.6666666666667</ele><time>2026-04-25T13:05:13.988Z</time></trkpt><trkpt lat="46.15377568220262" lon="9.785014062821864"><ele>279.3333333333333</ele><time>2026-04-25T13:05:14.988Z</time></trkpt><trkpt lat="46.15381460802142" lon="9.785273888553313"><ele>280.0</ele><time>2026-04-25T13:05:15.988Z</time></trkpt><trkpt lat="46.153834865236334" lon="9.785545405016842"><ele>280.66666666666663</ele><time>2026-04-25T13:05:16.988Z</time></trkpt><trkpt lat="46.15383925798226" lon="9.785827983804749"><ele>281.3333333333333</ele><time>2026-04-25T13:05:17.988Z</time></trkpt><trkpt lat="46.1538362521104" lon="9.786108216686879"><ele>282.0</ele><time>2026-04-25T13:05:18.988Z</time></trkpt><trkpt lat="46.15383485811563" lon="9.78638491496725"><ele>282.0</ele><time>2026-04-25T13:05:19.988Z</time></trkpt><trkpt lat="46.15383776298907" lon="9.786659596481346"><ele>282.0</ele><time>2026-04-25T13:05:20.988Z</time></trkpt><trkpt lat="46.15383771203318" lon="9.786928980919052"><ele>282.0</ele><time>2026-04-25T13:05:21.988Z</time></trkpt><trkpt lat="46.15383909810344" lon="9.787210448384867"><ele>280.6666666666667</ele><time>2026-04-25T13:05:22.988Z</time></trkpt><trkpt lat="46.15383761636053" lon="9.787494346306445"><ele>279.33333333333337</ele><time>2026-04-25T13:05:23.988Z</time></trkpt><trkpt lat="46.15382183231371" lon="9.78778488414869"><ele>278.0</ele><time>2026-04-25T13:05:24.987Z</time></trkpt><trkpt lat="46.153786127238526" lon="9.788077257377756"><ele>277.0</ele><time>2026-04-25T13:05:25.987Z</time></trkpt><trkpt lat="46.15373256268521" lon="9.788370488409182"><ele>276.0</ele><time>2026-04-25T13:05:26.987Z</time></trkpt><trkpt lat="46.15366521830875" lon="9.788647616687207"><ele>275.0</ele><time>2026-04-25T13:05:27.987Z</time></trkpt><trkpt lat="46.15359005628243" lon="9.788923649418535"><ele>275.0</ele><time>2026-04-25T13:05:28.987Z</time></trkpt><trkpt lat="46.1535112343024" lon="9.789207923374944"><ele>275.0</ele><time>2026-04-25T13:05:29.987Z</time></trkpt><trkpt lat="46.15343592843072" lon="9.789493129206301"><ele>275.0</ele><time>2026-04-25T13:05:30.987Z</time></trkpt><trkpt lat="46.15336693477052" lon="9.789761134737747"><ele>275.33333333333337</ele><time>2026-04-25T13:05:31.987Z</time></trkpt><trkpt lat="46.153302938102094" lon="9.790007539108771"><ele>275.6666666666667</ele><time>2026-04-25T13:05:32.987Z</time></trkpt><trkpt lat="46.15324616055132" lon="9.7902619645349"><ele>276.0</ele><time>2026-04-25T13:05:33.987Z</time></trkpt><trkpt lat="46.15319941589194" lon="9.790532582990124"><ele>276.0</ele><time>2026-04-25T13:05:34.987Z</time></trkpt><trkpt lat="46.15316516732609" lon="9.790818070639453"><ele>276.0</ele><time>2026-04-25T13:05:35.987Z</time></trkpt><trkpt lat="46.15314510943561" lon="9.791112793072099"><ele>276.0</ele><time>2026-04-25T13:05:36.987Z</time></trkpt><trkpt lat="46.1531378144145" lon="9.79141571315567"><ele>276.5</ele><time>2026-04-25T13:05:37.987Z</time></trkpt><trkpt lat="46.15316244093981" lon="9.79174141023168"><ele>277.0</ele><time>2026-04-25T13:05:38.987Z</time></trkpt><trkpt lat="46.153178901834394" lon="9.792073314247304"><ele>277.0</ele><time>2026-04-25T13:05:39.987Z</time></trkpt><trkpt lat="46.153201926667066" lon="9.792420144111935"><ele>277.0</ele><time>2026-04-25T13:05:40.987Z</time></trkpt><trkpt lat="46.15321842622673" lon="9.792773907047755"><ele>275.0</ele><time>2026-04-25T13:05:41.987Z</time></trkpt><trkpt lat="46.153238150078444" lon="9.793122725288114"><ele>273.0</ele><time>2026-04-25T13:05:42.987Z</time></trkpt><trkpt lat="46.153256818309245" lon="9.793441149220431"><ele>273.0</ele><time>2026-04-25T13:05:43.987Z</time></trkpt><trkpt lat="46.15326743437818" lon="9.793753032206126"><ele>273.0</ele><time>2026-04-25T13:05:44.987Z</time></trkpt><trkpt lat="46.15329523448015" lon="9.79406076332624"><ele>273.0</ele><time>2026-04-25T13:05:45.987Z</time></trkpt><trkpt lat="46.153310451406995" lon="9.79435067859197"><ele>273.0</ele><time>2026-04-25T13:05:46.987Z</time></trkpt><trkpt lat="46.15332488146016" lon="9.794647926397325"><ele>273.0</ele><time>2026-04-25T13:05:47.987Z</time></trkpt><trkpt lat="46.153344739372955" lon="9.794954376292775"><ele>273.0</ele><time>2026-04-25T13:05:48.987Z</time></trkpt><trkpt lat="46.153361567611995" lon="9.795257663476656"><ele>273.0</ele><time>2026-04-25T13:05:49.987Z</time></trkpt><trkpt lat="46.153393220536074" lon="9.795562988688397"><ele>273.0</ele><time>2026-04-25T13:05:50.987Z</time></trkpt><trkpt lat="46.153434000120896" lon="9.795868333427116"><ele>273.0</ele><time>2026-04-25T13:05:51.987Z</time></trkpt><trkpt lat="46.15347650152969" lon="9.79616679163185"><ele>273.3333333333333</ele><time>2026-04-25T13:05:52.987Z</time></trkpt><trkpt lat="46.15351675671885" lon="9.796484169201605"><ele>273.66666666666663</ele><time>2026-04-25T13:05:53.987Z</time></trkpt><trkpt lat="46.15355170842095" lon="9.796796608991368"><ele>274.0</ele><time>2026-04-25T13:05:54.987Z</time></trkpt><trkpt lat="46.15359495493899" lon="9.79709862165364"><ele>274.66666666666663</ele><time>2026-04-25T13:05:55.987Z</time></trkpt><trkpt lat="46.15363439508796" lon="9.797403903618267"><ele>275.3333333333333</ele><time>2026-04-25T13:05:56.987Z</time></trkpt><trkpt lat="46.15367521278501" lon="9.797708456029723"><ele>276.0</ele><time>2026-04-25T13:05:57.987Z</time></trkpt><trkpt lat="46.153710989134495" lon="9.797992138981515"><ele>277.0</ele><time>2026-04-25T13:05:58.987Z</time></trkpt><trkpt lat="46.15374793928249" lon="9.7982703171017"><ele>278.0</ele><time>2026-04-25T13:05:59.987Z</time></trkpt><trkpt lat="46.15379062539663" lon="9.798549749565277"><ele>279.0</ele><time>2026-04-25T13:06:00.987Z</time></trkpt><trkpt lat="46.15383989904412" lon="9.798858107279077"><ele>279.0</ele><time>2026-04-25T13:06:01.987Z</time></trkpt><trkpt lat="46.15391325540155" lon="9.79918971109032"><ele>279.0</ele><time>2026-04-25T13:06:02.987Z</time></trkpt><trkpt lat="46.15398148318762" lon="9.799535192915604"><ele>277.6666666666667</ele><time>2026-04-25T13:06:03.987Z</time></trkpt><trkpt lat="46.15403590954889" lon="9.799851335786402"><ele>276.33333333333337</ele><time>2026-04-25T13:06:04.987Z</time></trkpt><trkpt lat="46.15409288050956" lon="9.800161579214754"><ele>275.0</ele><time>2026-04-25T13:06:05.987Z</time></trkpt><trkpt lat="46.154155267784795" lon="9.800470350310556"><ele>274.0</ele><time>2026-04-25T13:06:06.987Z</time></trkpt><trkpt lat="46.15421032764341" lon="9.800766806093362"><ele>273.0</ele><time>2026-04-25T13:06:07.987Z</time></trkpt><trkpt lat="46.15426709486385" lon="9.801060713198654"><ele>272.0</ele><time>2026-04-25T13:06:08.987Z</time></trkpt><trkpt lat="46.15432351316458" lon="9.801371178125335"><ele>271.5</ele><time>2026-04-25T13:06:09.987Z</time></trkpt><trkpt lat="46.154385629884175" lon="9.801696923673049"><ele>271.0</ele><time>2026-04-25T13:06:10.987Z</time></trkpt><trkpt lat="46.15445223722136" lon="9.802030122163574"><ele>271.66666666666663</ele><time>2026-04-25T13:06:11.987Z</time></trkpt><trkpt lat="46.154507915620364" lon="9.802340969313887"><ele>272.3333333333333</ele><time>2026-04-25T13:06:12.987Z</time></trkpt><trkpt lat="46.154555132133034" lon="9.80263529739029"><ele>273.0</ele><time>2026-04-25T13:06:13.987Z</time></trkpt><trkpt lat="46.154600432320905" lon="9.802906866467808"><ele>273.3333333333333</ele><time>2026-04-25T13:06:14.987Z</time></trkpt><trkpt lat="46.154649638703596" lon="9.803167966054264"><ele>273.66666666666663</ele><time>2026-04-25T13:06:15.987Z</time></trkpt><trkpt lat="46.15469438209515" lon="9.803431571739225"><ele>274.0</ele><time>2026-04-25T13:06:16.987Z</time></trkpt><trkpt lat="46.1547462803351" lon="9.803671123395334"><ele>275.0</ele><time>2026-04-25T13:06:17.987Z</time></trkpt><trkpt lat="46.15479275564501" lon="9.803904561143392"><ele>276.0</ele><time>2026-04-25T13:06:18.987Z</time></trkpt><trkpt lat="46.15482990707771" lon="9.804127919741608"><ele>277.0</ele><time>2026-04-25T13:06:19.987Z</time></trkpt><trkpt lat="46.15486308464103" lon="9.804347179581987"><ele>277.0</ele><time>2026-04-25T13:06:20.987Z</time></trkpt><trkpt lat="46.1548791354789" lon="9.80454915719082"><ele>277.0</ele><time>2026-04-25T13:06:21.987Z</time></trkpt><trkpt lat="46.15488937748027" lon="9.80471847424239"><ele>277.0</ele><time>2026-04-25T13:06:22.987Z</time></trkpt><trkpt lat="46.15489138757425" lon="9.804867082892327"><ele>277.0</ele><time>2026-04-25T13:06:23.987Z</time></trkpt><trkpt lat="46.154867719795874" lon="9.805004478393885"><ele>277.0</ele><time>2026-04-25T13:06:24.987Z</time></trkpt><trkpt lat="46.15484838496627" lon="9.805119772551224"><ele>277.0</ele><time>2026-04-25T13:06:25.987Z</time></trkpt><trkpt lat="46.15485827902357" lon="9.805217419388036"><ele>277.0</ele><time>2026-04-25T13:06:26.987Z</time></trkpt><trkpt lat="46.15500105666163" lon="9.80534184858797"><ele>277.0</ele><time>2026-04-25T13:06:28.987Z</time></trkpt><trkpt lat="46.155110172864134" lon="9.805407049010293"><ele>277.0</ele><time>2026-04-25T13:06:29.987Z</time></trkpt><trkpt lat="46.155219669158136" lon="9.805527533440012"><ele>277.0</ele><time>2026-04-25T13:06:30.987Z</time></trkpt><trkpt lat="46.15525219126006" lon="9.80569571553782"><ele>277.0</ele><time>2026-04-25T13:06:31.987Z</time></trkpt><trkpt lat="46.155318263617154" lon="9.80583749359323"><ele>277.0</ele><time>2026-04-25T13:06:32.987Z</time></trkpt><trkpt lat="46.15536215846548" lon="9.80601932549253"><ele>277.0</ele><time>2026-04-25T13:06:33.987Z</time></trkpt><trkpt lat="46.15541587893956" lon="9.806208648553753"><ele>277.0</ele><time>2026-04-25T13:06:34.987Z</time></trkpt><trkpt lat="46.155465761643256" lon="9.806376614760032"><ele>277.0</ele><time>2026-04-25T13:06:35.987Z</time></trkpt><trkpt lat="46.15551035931223" lon="9.80651898279294"><ele>277.0</ele><time>2026-04-25T13:06:36.987Z</time></trkpt><trkpt lat="46.15555389337132" lon="9.80664409384747"><ele>277.0</ele><time>2026-04-25T13:06:37.987Z</time></trkpt><trkpt lat="46.155560750822886" lon="9.806760662839999"><ele>277.0</ele><time>2026-04-25T13:06:38.987Z</time></trkpt><trkpt lat="46.155557939953425" lon="9.806873270232085"><ele>277.0</ele><time>2026-04-25T13:06:39.987Z</time></trkpt><trkpt lat="46.15556680332604" lon="9.806998883047259"><ele>277.0</ele><time>2026-04-25T13:06:41.987Z</time></trkpt><trkpt lat="46.155673189303215" lon="9.80729142039476"><ele>277.0</ele><time>2026-04-25T13:11:03.987Z</time></trkpt><trkpt lat="46.15570929728379" lon="9.807413160878557"><ele>277.0</ele><time>2026-04-25T13:11:04.988Z</time></trkpt><trkpt lat="46.15580104566107" lon="9.807512639677551"><ele>277.5</ele><time>2026-04-25T13:11:05.988Z</time></trkpt><trkpt lat="46.15576979777092" lon="9.807701225963685"><ele>278.0</ele><time>2026-04-25T13:11:06.988Z</time></trkpt><trkpt lat="46.15581088584363" lon="9.80784150055393"><ele>278.5</ele><time>2026-04-25T13:11:07.987Z</time></trkpt><trkpt lat="46.155867987397386" lon="9.807976605545958"><ele>279.0</ele><time>2026-04-25T13:11:08.987Z</time></trkpt><trkpt lat="46.15592177161169" lon="9.808101732204669"><ele>279.0</ele><time>2026-04-25T13:11:09.988Z</time></trkpt><trkpt lat="46.155974104637586" lon="9.808209583504675"><ele>279.0</ele><time>2026-04-25T13:11:10.987Z</time></trkpt><trkpt lat="46.15602951256838" lon="9.80830337967362"><ele>279.0</ele><time>2026-04-25T13:11:11.987Z</time></trkpt><trkpt lat="46.156079579119314" lon="9.8083873329696"><ele>279.0</ele><time>2026-04-25T13:11:12.987Z</time></trkpt><trkpt lat="46.15612065518432" lon="9.808473933423318"><ele>279.0</ele><time>2026-04-25T13:11:13.987Z</time></trkpt><trkpt lat="46.1561713784327" lon="9.808556861697607"><ele>279.0</ele><time>2026-04-25T13:11:14.987Z</time></trkpt><trkpt lat="46.15622104664245" lon="9.80867035300408"><ele>279.59999999999997</ele><time>2026-04-25T13:11:15.987Z</time></trkpt><trkpt lat="46.15625517193092" lon="9.808800597551771"><ele>280.2</ele><time>2026-04-25T13:11:16.987Z</time></trkpt><trkpt lat="46.156284856462655" lon="9.808947159156634"><ele>280.79999999999995</ele><time>2026-04-25T13:11:17.987Z</time></trkpt><trkpt lat="46.15631969271702" lon="9.809097160639523"><ele>281.4</ele><time>2026-04-25T13:11:18.987Z</time></trkpt><trkpt lat="46.156354143196964" lon="9.80923714871924"><ele>282.0</ele><time>2026-04-25T13:11:19.987Z</time></trkpt><trkpt lat="46.15638331909071" lon="9.809357114555208"><ele>282.3333333333333</ele><time>2026-04-25T13:11:20.987Z</time></trkpt><trkpt lat="46.1563819529373" lon="9.809479874165147"><ele>282.6666666666667</ele><time>2026-04-25T13:11:21.987Z</time></trkpt><trkpt lat="46.156378765343305" lon="9.809606654277772"><ele>283.0</ele><time>2026-04-25T13:11:22.987Z</time></trkpt><trkpt lat="46.15634694898339" lon="9.809707085445531"><ele>283.33333333333337</ele><time>2026-04-25T13:11:23.987Z</time></trkpt><trkpt lat="46.15628377702528" lon="9.809784794899825"><ele>283.6666666666667</ele><time>2026-04-25T13:11:24.987Z</time></trkpt><trkpt lat="46.156188727255525" lon="9.809860988867289"><ele>284.0</ele><time>2026-04-25T13:11:25.987Z</time></trkpt><trkpt lat="46.15608238932838" lon="9.809954405900665"><ele>284.0</ele><time>2026-04-25T13:11:26.987Z</time></trkpt><trkpt lat="46.15596603498925" lon="9.81008124979678"><ele>284.0</ele><time>2026-04-25T13:11:27.987Z</time></trkpt><trkpt lat="46.155850919510954" lon="9.810204493207085"><ele>284.0</ele><time>2026-04-25T13:11:28.987Z</time></trkpt><trkpt lat="46.15571778170398" lon="9.810338421954077"><ele>285.25</ele><time>2026-04-25T13:11:29.987Z</time></trkpt><trkpt lat="46.155602823564344" lon="9.810495229541196"><ele>286.5</ele><time>2026-04-25T13:11:30.987Z</time></trkpt><trkpt lat="46.15549333623048" lon="9.810606711829722"><ele>287.75</ele><time>2026-04-25T13:11:31.987Z</time></trkpt><trkpt lat="46.15539360076854" lon="9.810732473872816"><ele>289.0</ele><time>2026-04-25T13:11:32.987Z</time></trkpt><trkpt lat="46.15530715946054" lon="9.810856681238922"><ele>289.0</ele><time>2026-04-25T13:11:33.987Z</time></trkpt><trkpt lat="46.155220892569886" lon="9.810998886794412"><ele>289.0</ele><time>2026-04-25T13:11:34.987Z</time></trkpt><trkpt lat="46.155152764724875" lon="9.811177230720299"><ele>289.0</ele><time>2026-04-25T13:11:35.987Z</time></trkpt><trkpt lat="46.15506756984165" lon="9.81136878429404"><ele>289.0</ele><time>2026-04-25T13:11:36.987Z</time></trkpt><trkpt lat="46.15498911394762" lon="9.811554205905312"><ele>289.0</ele><time>2026-04-25T13:11:37.987Z</time></trkpt><trkpt lat="46.15488721020676" lon="9.811733727749129"><ele>289.0</ele><time>2026-04-25T13:11:38.987Z</time></trkpt><trkpt lat="46.15479440302348" lon="9.811923314369588"><ele>289.0</ele><time>2026-04-25T13:11:39.987Z</time></trkpt><trkpt lat="46.15471241190462" lon="9.81212773209286"><ele>290.3333333333333</ele><time>2026-04-25T13:11:40.987Z</time></trkpt><trkpt lat="46.154636450073944" lon="9.81232057703607"><ele>291.6666666666667</ele><time>2026-04-25T13:11:41.987Z</time></trkpt><trkpt lat="46.1545644106008" lon="9.812521963726985"><ele>293.0</ele><time>2026-04-25T13:11:42.987Z</time></trkpt><trkpt lat="46.15448792603917" lon="9.812714777792111"><ele>293.25</ele><time>2026-04-25T13:11:43.987Z</time></trkpt><trkpt lat="46.15440332358525" lon="9.812895769203768"><ele>293.5</ele><time>2026-04-25T13:11:44.987Z</time></trkpt><trkpt lat="46.15432427711978" lon="9.813076563984882"><ele>293.75</ele><time>2026-04-25T13:11:45.987Z</time></trkpt><trkpt lat="46.15424249408669" lon="9.813240782110961"><ele>294.0</ele><time>2026-04-25T13:11:46.987Z</time></trkpt><trkpt lat="46.154159963602744" lon="9.81340499192469"><ele>294.25</ele><time>2026-04-25T13:11:47.987Z</time></trkpt><trkpt lat="46.154062366652454" lon="9.813548854268047"><ele>294.5</ele><time>2026-04-25T13:11:48.987Z</time></trkpt><trkpt lat="46.153954210066296" lon="9.813671296667655"><ele>294.75</ele><time>2026-04-25T13:11:49.987Z</time></trkpt><trkpt lat="46.15383865995246" lon="9.81378132058515"><ele>295.0</ele><time>2026-04-25T13:11:50.987Z</time></trkpt><trkpt lat="46.153723448753546" lon="9.813880936942661"><ele>296.4</ele><time>2026-04-25T13:11:51.987Z</time></trkpt><trkpt lat="46.153599838205395" lon="9.813968663742788"><ele>297.8</ele><time>2026-04-25T13:11:52.987Z</time></trkpt><trkpt lat="46.15348288407438" lon="9.81404062503635"><ele>299.2</ele><time>2026-04-25T13:11:53.987Z</time></trkpt><trkpt lat="46.15339257362811" lon="9.814094618443649"><ele>300.6</ele><time>2026-04-25T13:11:54.987Z</time></trkpt><trkpt lat="46.15331743468057" lon="9.814157402101555"><ele>302.0</ele><time>2026-04-25T13:11:55.987Z</time></trkpt><trkpt lat="46.153267414222505" lon="9.814231730248123"><ele>303.0</ele><time>2026-04-25T13:11:56.987Z</time></trkpt><trkpt lat="46.15317740435536" lon="9.814331223222934"><ele>304.0</ele><time>2026-04-25T13:11:58.987Z</time></trkpt><trkpt lat="46.15308623560557" lon="9.814356312031961"><ele>305.0</ele><time>2026-04-25T13:11:59.987Z</time></trkpt><trkpt lat="46.15297883472486" lon="9.814351104798883"><ele>306.0</ele><time>2026-04-25T13:12:00.987Z</time></trkpt><trkpt lat="46.15286292401588" lon="9.814354575945469"><ele>307.0</ele><time>2026-04-25T13:12:01.987Z</time></trkpt><trkpt lat="46.152752347010185" lon="9.814380667876"><ele>307.0</ele><time>2026-04-25T13:12:02.987Z</time></trkpt><trkpt lat="46.152603330905954" lon="9.8143895095788"><ele>307.0</ele><time>2026-04-25T13:12:03.987Z</time></trkpt><trkpt lat="46.15243161341301" lon="9.814386779677246"><ele>307.0</ele><time>2026-04-25T13:12:04.987Z</time></trkpt><trkpt lat="46.152277666647755" lon="9.814396103485915"><ele>308.8</ele><time>2026-04-25T13:12:05.987Z</time></trkpt><trkpt lat="46.15213703171729" lon="9.814391549276968"><ele>310.6</ele><time>2026-04-25T13:12:06.987Z</time></trkpt><trkpt lat="46.15202333552014" lon="9.814407406112535"><ele>312.40000000000003</ele><time>2026-04-25T13:12:07.987Z</time></trkpt><trkpt lat="46.151942660106535" lon="9.814407618930213"><ele>314.2</ele><time>2026-04-25T13:12:08.987Z</time></trkpt><trkpt lat="46.15187645263741" lon="9.814358205020293"><ele>316.0</ele><time>2026-04-25T13:12:10.987Z</time></trkpt><trkpt lat="46.1517638540879" lon="9.814376998448022"><ele>316.0</ele><time>2026-04-25T13:12:15.987Z</time></trkpt><trkpt lat="46.151700400370345" lon="9.814464688947876"><ele>316.0</ele><time>2026-04-25T13:12:16.987Z</time></trkpt><trkpt lat="46.15163638588364" lon="9.81462258238542"><ele>316.0</ele><time>2026-04-25T13:12:17.987Z</time></trkpt><trkpt lat="46.151581724961765" lon="9.814790242241736"><ele>316.0</ele><time>2026-04-25T13:12:18.987Z</time></trkpt><trkpt lat="46.151517536643134" lon="9.81496739180731"><ele>318.0</ele><time>2026-04-25T13:12:19.987Z</time></trkpt><trkpt lat="46.15144121421141" lon="9.815154190354173"><ele>320.0</ele><time>2026-04-25T13:12:20.987Z</time></trkpt><trkpt lat="46.1513503954359" lon="9.815362548588919"><ele>322.0</ele><time>2026-04-25T13:12:21.987Z</time></trkpt><trkpt lat="46.15127141491437" lon="9.815549738700044"><ele>322.0</ele><time>2026-04-25T13:12:22.987Z</time></trkpt><trkpt lat="46.151179867863604" lon="9.81572410853333"><ele>322.0</ele><time>2026-04-25T13:12:23.987Z</time></trkpt><trkpt lat="46.151074176813324" lon="9.815896816390381"><ele>322.0</ele><time>2026-04-25T13:12:24.987Z</time></trkpt><trkpt lat="46.15097887656555" lon="9.816083710462214"><ele>321.5</ele><time>2026-04-25T13:12:25.987Z</time></trkpt><trkpt lat="46.15089452787998" lon="9.81626260950446"><ele>321.0</ele><time>2026-04-25T13:12:26.987Z</time></trkpt><trkpt lat="46.150830598691584" lon="9.816437923664797"><ele>320.5</ele><time>2026-04-25T13:12:27.987Z</time></trkpt><trkpt lat="46.15079097088709" lon="9.816617580368433"><ele>320.0</ele><time>2026-04-25T13:12:28.987Z</time></trkpt><trkpt lat="46.150771587605774" lon="9.81681325215278"><ele>320.75</ele><time>2026-04-25T13:12:29.987Z</time></trkpt><trkpt lat="46.150767099791416" lon="9.817022072092316"><ele>321.5</ele><time>2026-04-25T13:12:30.987Z</time></trkpt><trkpt lat="46.150762188464604" lon="9.817221461237237"><ele>322.25</ele><time>2026-04-25T13:12:31.987Z</time></trkpt><trkpt lat="46.150749686170684" lon="9.817423054753643"><ele>323.0</ele><time>2026-04-25T13:12:32.987Z</time></trkpt><trkpt lat="46.15075652349097" lon="9.817633818115482"><ele>323.33333333333337</ele><time>2026-04-25T13:12:33.987Z</time></trkpt><trkpt lat="46.15076736409259" lon="9.817865843277794"><ele>323.6666666666667</ele><time>2026-04-25T13:12:34.987Z</time></trkpt><trkpt lat="46.15077081337327" lon="9.818091496859696"><ele>324.0</ele><time>2026-04-25T13:12:35.987Z</time></trkpt><trkpt lat="46.15078595741099" lon="9.818307771937162"><ele>324.25</ele><time>2026-04-25T13:12:36.987Z</time></trkpt><trkpt lat="46.150781062806345" lon="9.818505692512641"><ele>324.5</ele><time>2026-04-25T13:12:37.987Z</time></trkpt><trkpt lat="46.15077335393872" lon="9.818690548531274"><ele>324.75</ele><time>2026-04-25T13:12:38.987Z</time></trkpt><trkpt lat="46.15076676672377" lon="9.81888501222193"><ele>325.0</ele><time>2026-04-25T13:12:39.987Z</time></trkpt><trkpt lat="46.15076036606194" lon="9.819103770624503"><ele>325.0</ele><time>2026-04-25T13:12:40.986Z</time></trkpt><trkpt lat="46.15074285724821" lon="9.819302617847105"><ele>325.0</ele><time>2026-04-25T13:12:41.986Z</time></trkpt><trkpt lat="46.150731556822" lon="9.819480627022124"><ele>325.0</ele><time>2026-04-25T13:12:42.986Z</time></trkpt><trkpt lat="46.15072327680725" lon="9.81966620765742"><ele>325.0</ele><time>2026-04-25T13:12:43.986Z</time></trkpt><trkpt lat="46.150703807540324" lon="9.819867080608581"><ele>326.5</ele><time>2026-04-25T13:12:44.986Z</time></trkpt><trkpt lat="46.15068431392673" lon="9.820075650758895"><ele>328.0</ele><time>2026-04-25T13:12:45.986Z</time></trkpt><trkpt lat="46.15064606274105" lon="9.820281015451192"><ele>329.5</ele><time>2026-04-25T13:12:46.986Z</time></trkpt><trkpt lat="46.15059774437335" lon="9.820491257100787"><ele>331.0</ele><time>2026-04-25T13:12:47.986Z</time></trkpt><trkpt lat="46.15054697095563" lon="9.820706427398465"><ele>333.3333333333333</ele><time>2026-04-25T13:12:48.986Z</time></trkpt><trkpt lat="46.15050057278627" lon="9.820930490370234"><ele>335.6666666666667</ele><time>2026-04-25T13:12:49.986Z</time></trkpt><trkpt lat="46.150460189266596" lon="9.821160585094363"><ele>338.0</ele><time>2026-04-25T13:12:50.986Z</time></trkpt><trkpt lat="46.150435996176945" lon="9.821398164268338"><ele>341.33333333333337</ele><time>2026-04-25T13:12:51.986Z</time></trkpt><trkpt lat="46.1504287220829" lon="9.821629174158566"><ele>344.6666666666667</ele><time>2026-04-25T13:12:52.986Z</time></trkpt><trkpt lat="46.15043162763426" lon="9.821851680466738"><ele>348.0</ele><time>2026-04-25T13:12:53.986Z</time></trkpt><trkpt lat="46.1504456311662" lon="9.822055981547152"><ele>350.75</ele><time>2026-04-25T13:12:54.986Z</time></trkpt><trkpt lat="46.150453488883855" lon="9.822273051043906"><ele>353.5</ele><time>2026-04-25T13:12:55.986Z</time></trkpt><trkpt lat="46.15045760054379" lon="9.822503573881022"><ele>356.25</ele><time>2026-04-25T13:12:56.986Z</time></trkpt><trkpt lat="46.15046211080725" lon="9.822703766191491"><ele>359.0</ele><time>2026-04-25T13:12:57.986Z</time></trkpt><trkpt lat="46.15046170882425" lon="9.822886121791553"><ele>360.4</ele><time>2026-04-25T13:12:58.986Z</time></trkpt><trkpt lat="46.150490285129735" lon="9.823030934406443"><ele>361.79999999999995</ele><time>2026-04-25T13:12:59.986Z</time></trkpt><trkpt lat="46.15049923035451" lon="9.823141027692383"><ele>363.20000000000005</ele><time>2026-04-25T13:13:00.986Z</time></trkpt><trkpt lat="46.150532691880606" lon="9.823289965345063"><ele>364.6</ele><time>2026-04-25T13:13:02.986Z</time></trkpt><trkpt lat="46.15042689653993" lon="9.823243690195255"><ele>366.0</ele><time>2026-04-25T13:13:04.988Z</time></trkpt><trkpt lat="46.15041702168921" lon="9.823133038353276"><ele>366.0</ele><time>2026-04-25T13:13:05.988Z</time></trkpt><trkpt lat="46.15040609217657" lon="9.82296892153703"><ele>366.0</ele><time>2026-04-25T13:13:06.987Z</time></trkpt><trkpt lat="46.15037128423138" lon="9.822768088176373"><ele>366.0</ele><time>2026-04-25T13:13:07.987Z</time></trkpt><trkpt lat="46.15033337348871" lon="9.822546483141249"><ele>366.0</ele><time>2026-04-25T13:13:08.987Z</time></trkpt><trkpt lat="46.150296593440274" lon="9.822316467267743"><ele>364.25</ele><time>2026-04-25T13:13:09.987Z</time></trkpt><trkpt lat="46.150235193133646" lon="9.822102206227775"><ele>362.5</ele><time>2026-04-25T13:13:10.987Z</time></trkpt><trkpt lat="46.15017346022679" lon="9.821910081448978"><ele>360.75</ele><time>2026-04-25T13:13:11.987Z</time></trkpt><trkpt lat="46.150110036971036" lon="9.821764911044562"><ele>359.0</ele><time>2026-04-25T13:13:12.987Z</time></trkpt><trkpt lat="46.150053055085856" lon="9.821666387612762"><ele>357.1666666666667</ele><time>2026-04-25T13:13:13.987Z</time></trkpt><trkpt lat="46.1499759356898" lon="9.821581052773789"><ele>355.33333333333337</ele><time>2026-04-25T13:13:14.987Z</time></trkpt><trkpt lat="46.14988779501678" lon="9.821515357015942"><ele>353.5</ele><time>2026-04-25T13:13:15.988Z</time></trkpt><trkpt lat="46.149817660309814" lon="9.821467925288916"><ele>351.6666666666667</ele><time>2026-04-25T13:13:16.988Z</time></trkpt><trkpt lat="46.14974765551601" lon="9.821463002302357"><ele>349.8333333333333</ele><time>2026-04-25T13:13:18.988Z</time></trkpt><trkpt lat="46.14973021984556" lon="9.821579302986281"><ele>348.0</ele><time>2026-04-25T13:13:21.988Z</time></trkpt><trkpt lat="46.1496677490859" lon="9.821640075992757"><ele>352.59999999999997</ele><time>2026-04-25T13:13:26.988Z</time></trkpt><trkpt lat="46.14962455763623" lon="9.821765009601256"><ele>357.2</ele><time>2026-04-25T13:13:30.988Z</time></trkpt><trkpt lat="46.14960967909865" lon="9.82188673177483"><ele>361.8</ele><time>2026-04-25T13:13:32.988Z</time></trkpt><trkpt lat="46.14961925748973" lon="9.822058902414616"><ele>366.4</ele><time>2026-04-25T13:13:34.988Z</time></trkpt><trkpt lat="46.14963811072219" lon="9.822190507235677"><ele>371.0</ele><time>2026-04-25T13:13:36.988Z</time></trkpt><trkpt lat="46.14965987272222" lon="9.822401771115409"><ele>373.83333333333337</ele><time>2026-04-25T13:13:38.988Z</time></trkpt><trkpt lat="46.149643908894376" lon="9.82250762847791"><ele>376.6666666666667</ele><time>2026-04-25T13:13:39.988Z</time></trkpt><trkpt lat="46.14963446841472" lon="9.822678385452356"><ele>379.5</ele><time>2026-04-25T13:13:41.988Z</time></trkpt><trkpt lat="46.14961585599471" lon="9.822765707071909"><ele>382.33333333333337</ele><time>2026-04-25T13:13:42.988Z</time></trkpt><trkpt lat="46.14960071398694" lon="9.82289322932016"><ele>385.1666666666667</ele><time>2026-04-25T13:13:44.988Z</time></trkpt><trkpt lat="46.14960400419157" lon="9.823012834665693"><ele>388.0</ele><time>2026-04-25T13:13:48.988Z</time></trkpt><trkpt lat="46.149608918899325" lon="9.823107983575538"><ele>390.0</ele><time>2026-04-25T13:13:50.988Z</time></trkpt><trkpt lat="46.149574147968984" lon="9.823235936945762"><ele>392.0</ele><time>2026-04-25T13:13:52.988Z</time></trkpt><trkpt lat="46.14951440886334" lon="9.823350903549253"><ele>394.0</ele><time>2026-04-25T13:13:54.988Z</time></trkpt><trkpt lat="46.14945437804784" lon="9.823430077830546"><ele>396.0</ele><time>2026-04-25T13:13:56.988Z</time></trkpt><trkpt lat="46.14946185661251" lon="9.823582787931107"><ele>398.0</ele><time>2026-04-25T13:13:58.988Z</time></trkpt><trkpt lat="46.14947376140052" lon="9.823734462513107"><ele>401.5</ele><time>2026-04-25T13:13:59.988Z</time></trkpt><trkpt lat="46.14952091034222" lon="9.823891510577829"><ele>405.0</ele><time>2026-04-25T13:14:00.988Z</time></trkpt><trkpt lat="46.149571811016905" lon="9.82405712859922"><ele>408.5</ele><time>2026-04-25T13:14:01.988Z</time></trkpt><trkpt lat="46.14963009913213" lon="9.824198758989068"><ele>412.0</ele><time>2026-04-25T13:14:02.988Z</time></trkpt><trkpt lat="46.14966192506943" lon="9.824324120321712"><ele>414.00000000000006</ele><time>2026-04-25T13:14:03.988Z</time></trkpt><trkpt lat="46.14965402089407" lon="9.82443371664471"><ele>416.0</ele><time>2026-04-25T13:14:04.988Z</time></trkpt><trkpt lat="46.149655041241" lon="9.824544609831385"><ele>418.0</ele><time>2026-04-25T13:14:05.988Z</time></trkpt><trkpt lat="46.14964736301524" lon="9.824675823328182"><ele>420.0</ele><time>2026-04-25T13:14:06.988Z</time></trkpt><trkpt lat="46.149637878038085" lon="9.824809125353532"><ele>422.00000000000006</ele><time>2026-04-25T13:14:07.988Z</time></trkpt><trkpt lat="46.14962790482071" lon="9.824933194217547"><ele>424.0</ele><time>2026-04-25T13:14:08.988Z</time></trkpt><trkpt lat="46.149622830657925" lon="9.825074028641117"><ele>424.75</ele><time>2026-04-25T13:14:09.988Z</time></trkpt><trkpt lat="46.14961763738456" lon="9.825243540092359"><ele>425.5</ele><time>2026-04-25T13:14:10.988Z</time></trkpt><trkpt lat="46.14960922503358" lon="9.82541473303713"><ele>426.25</ele><time>2026-04-25T13:14:11.988Z</time></trkpt><trkpt lat="46.14958494109087" lon="9.82558792630551"><ele>427.0</ele><time>2026-04-25T13:14:12.988Z</time></trkpt><trkpt lat="46.149573551821845" lon="9.825748964119851"><ele>427.0</ele><time>2026-04-25T13:14:13.988Z</time></trkpt><trkpt lat="46.149541759222316" lon="9.825896645251298"><ele>427.00000000000006</ele><time>2026-04-25T13:14:14.988Z</time></trkpt><trkpt lat="46.14948906061941" lon="9.826036409046969"><ele>427.00000000000006</ele><time>2026-04-25T13:14:15.988Z</time></trkpt><trkpt lat="46.1494596749106" lon="9.82617357572611"><ele>427.0</ele><time>2026-04-25T13:14:16.988Z</time></trkpt><trkpt lat="46.14944449713277" lon="9.826295372122024"><ele>427.0</ele><time>2026-04-25T13:14:17.988Z</time></trkpt><trkpt lat="46.14943953799376" lon="9.826408093681996"><ele>427.50000000000006</ele><time>2026-04-25T13:14:18.988Z</time></trkpt><trkpt lat="46.149439669964096" lon="9.826531559934825"><ele>428.0</ele><time>2026-04-25T13:14:20.988Z</time></trkpt><trkpt lat="46.14934798852523" lon="9.82649304686716"><ele>428.5</ele><time>2026-04-25T13:14:23.988Z</time></trkpt><trkpt lat="46.1493117542928" lon="9.826400594235638"><ele>429.0</ele><time>2026-04-25T13:14:25.988Z</time></trkpt><trkpt lat="46.14925322298964" lon="9.826480972935112"><ele>429.50000000000006</ele><time>2026-04-25T13:14:27.987Z</time></trkpt><trkpt lat="46.149223123364465" lon="9.826564095876014"><ele>430.0</ele><time>2026-04-25T13:14:28.987Z</time></trkpt><trkpt lat="46.14918324138372" lon="9.826736500325067"><ele>430.33333333333337</ele><time>2026-04-25T13:14:30.987Z</time></trkpt><trkpt lat="46.14914404471055" lon="9.826827764641628"><ele>430.6666666666667</ele><time>2026-04-25T13:14:31.987Z</time></trkpt><trkpt lat="46.149098642751945" lon="9.82696561365385"><ele>431.0</ele><time>2026-04-25T13:14:33.987Z</time></trkpt><trkpt lat="46.149052894547545" lon="9.827061137303076"><ele>431.33333333333337</ele><time>2026-04-25T13:14:34.987Z</time></trkpt><trkpt lat="46.14899683739195" lon="9.827139909633964"><ele>431.6666666666667</ele><time>2026-04-25T13:14:35.987Z</time></trkpt><trkpt lat="46.14895798409523" lon="9.827213976524732"><ele>432.0</ele><time>2026-04-25T13:14:36.987Z</time></trkpt><trkpt lat="46.14889132147543" lon="9.827325848332872"><ele>439.0</ele><time>2026-04-25T13:14:38.987Z</time></trkpt><trkpt lat="46.14883732500473" lon="9.827467013669235"><ele>446.00000000000006</ele><time>2026-04-25T13:14:40.987Z</time></trkpt><trkpt lat="46.148768664942985" lon="9.827562823315558"><ele>453.00000000000006</ele><time>2026-04-25T13:14:42.987Z</time></trkpt><trkpt lat="46.14868474589572" lon="9.827657155858732"><ele>460.0</ele><time>2026-04-25T13:14:44.987Z</time></trkpt><trkpt lat="46.14862453610949" lon="9.827779898097644"><ele>467.0</ele><time>2026-04-25T13:14:45.987Z</time></trkpt><trkpt lat="46.14854588990094" lon="9.827934331088933"><ele>467.0</ele><time>2026-04-25T13:14:46.987Z</time></trkpt><trkpt lat="46.14845709383038" lon="9.828111414532826"><ele>467.0</ele><time>2026-04-25T13:14:47.987Z</time></trkpt><trkpt lat="46.14836919662718" lon="9.828311272756592"><ele>467.0</ele><time>2026-04-25T13:14:48.987Z</time></trkpt><trkpt lat="46.14830639209542" lon="9.82851063439391"><ele>466.5</ele><time>2026-04-25T13:14:49.987Z</time></trkpt><trkpt lat="46.14826990753697" lon="9.828671731571468"><ele>466.0</ele><time>2026-04-25T13:14:50.987Z</time></trkpt><trkpt lat="46.14825027584967" lon="9.828823887119865"><ele>465.5</ele><time>2026-04-25T13:14:51.987Z</time></trkpt><trkpt lat="46.148250549002455" lon="9.829001085501162"><ele>465.0</ele><time>2026-04-25T13:14:52.987Z</time></trkpt><trkpt lat="46.14825983906258" lon="9.829170770803513"><ele>465.0</ele><time>2026-04-25T13:14:53.987Z</time></trkpt><trkpt lat="46.14825178950639" lon="9.82932340280694"><ele>465.0</ele><time>2026-04-25T13:14:54.987Z</time></trkpt><trkpt lat="46.148259187633734" lon="9.829489334316724"><ele>465.0</ele><time>2026-04-25T13:14:55.987Z</time></trkpt><trkpt lat="46.148258811214795" lon="9.82966224622472"><ele>465.0</ele><time>2026-04-25T13:14:56.987Z</time></trkpt><trkpt lat="46.14825639787605" lon="9.829837226140771"><ele>465.0</ele><time>2026-04-25T13:14:57.987Z</time></trkpt><trkpt lat="46.14824742366115" lon="9.829979582480824"><ele>465.0</ele><time>2026-04-25T13:14:58.987Z</time></trkpt><trkpt lat="46.148254095669344" lon="9.83010182433619"><ele>465.0</ele><time>2026-04-25T13:14:59.987Z</time></trkpt><trkpt lat="46.14824576671883" lon="9.830257346809663"><ele>465.0</ele><time>2026-04-25T13:15:01.987Z</time></trkpt><trkpt lat="46.14817638304289" lon="9.830284597937881"><ele>465.0</ele><time>2026-04-25T13:15:04.987Z</time></trkpt><trkpt lat="46.14813357917014" lon="9.830135102729306"><ele>472.4</ele><time>2026-04-25T13:15:06.987Z</time></trkpt><trkpt lat="46.14811262716283" lon="9.82998265006309"><ele>479.8</ele><time>2026-04-25T13:15:07.987Z</time></trkpt><trkpt lat="46.148091478700124" lon="9.829828016668367"><ele>487.20000000000005</ele><time>2026-04-25T13:15:08.987Z</time></trkpt><trkpt lat="46.14808983921535" lon="9.829691135007664"><ele>494.6</ele><time>2026-04-25T13:15:09.988Z</time></trkpt><trkpt lat="46.148091407255635" lon="9.829589402460584"><ele>502.0</ele><time>2026-04-25T13:15:10.987Z</time></trkpt><trkpt lat="46.1480058754602" lon="9.829508298791444"><ele>502.0</ele><time>2026-04-25T13:15:12.987Z</time></trkpt><trkpt lat="46.14794809650216" lon="9.829676625199456"><ele>502.0</ele><time>2026-04-25T13:15:14.987Z</time></trkpt><trkpt lat="46.14793637167443" lon="9.829838178906424"><ele>502.0</ele><time>2026-04-25T13:15:15.987Z</time></trkpt><trkpt lat="46.1479199199247" lon="9.829991846684042"><ele>502.0</ele><time>2026-04-25T13:15:16.987Z</time></trkpt><trkpt lat="46.147898755588585" lon="9.830161261743617"><ele>502.0</ele><time>2026-04-25T13:15:17.987Z</time></trkpt><trkpt lat="46.14787475236374" lon="9.830327823577948"><ele>502.0</ele><time>2026-04-25T13:15:18.987Z</time></trkpt><trkpt lat="46.14785857335696" lon="9.830518228945577"><ele>502.0</ele><time>2026-04-25T13:15:19.987Z</time></trkpt><trkpt lat="46.14784257182872" lon="9.830718397719572"><ele>502.0</ele><time>2026-04-25T13:15:20.987Z</time></trkpt><trkpt lat="46.147820701742916" lon="9.830905855131956"><ele>502.0</ele><time>2026-04-25T13:15:21.988Z</time></trkpt><trkpt lat="46.147792781542584" lon="9.831071371470317"><ele>502.0</ele><time>2026-04-25T13:15:22.988Z</time></trkpt><trkpt lat="46.14776193962163" lon="9.831238304011455"><ele>502.0</ele><time>2026-04-25T13:15:23.988Z</time></trkpt><trkpt lat="46.14771682973678" lon="9.831396860573092"><ele>502.0</ele><time>2026-04-25T13:15:24.988Z</time></trkpt><trkpt lat="46.14767070961689" lon="9.831578330297061"><ele>502.0</ele><time>2026-04-25T13:15:25.988Z</time></trkpt><trkpt lat="46.147607306596605" lon="9.831741538610574"><ele>502.0</ele><time>2026-04-25T13:15:26.988Z</time></trkpt><trkpt lat="46.14754295286626" lon="9.831902620371967"><ele>502.0</ele><time>2026-04-25T13:15:27.988Z</time></trkpt><trkpt lat="46.14747063638341" lon="9.83206305387113"><ele>502.0</ele><time>2026-04-25T13:15:28.988Z</time></trkpt><trkpt lat="46.14741859405406" lon="9.832203403287052"><ele>512.1666666666667</ele><time>2026-04-25T13:15:29.988Z</time></trkpt><trkpt lat="46.14737378046653" lon="9.832325075953085"><ele>522.3333333333334</ele><time>2026-04-25T13:15:30.988Z</time></trkpt><trkpt lat="46.14734796746299" lon="9.832438358471656"><ele>532.5</ele><time>2026-04-25T13:15:31.988Z</time></trkpt><trkpt lat="46.14731884122082" lon="9.832520429529154"><ele>542.6666666666666</ele><time>2026-04-25T13:15:32.988Z</time></trkpt><trkpt lat="46.1472549131504" lon="9.832511377505135"><ele>552.8333333333333</ele><time>2026-04-25T13:15:33.988Z</time></trkpt><trkpt lat="46.147212913379725" lon="9.832400787942971"><ele>563.0</ele><time>2026-04-25T13:15:34.987Z</time></trkpt><trkpt lat="46.14721506812096" lon="9.832255615258552"><ele>563.0</ele><time>2026-04-25T13:15:35.987Z</time></trkpt><trkpt lat="46.147223393430096" lon="9.832111346871724"><ele>563.0</ele><time>2026-04-25T13:15:36.987Z</time></trkpt><trkpt lat="46.147225403393584" lon="9.831966067183183"><ele>563.0</ele><time>2026-04-25T13:15:37.987Z</time></trkpt><trkpt lat="46.14718793275479" lon="9.83180666283797"><ele>563.0</ele><time>2026-04-25T13:15:38.987Z</time></trkpt><trkpt lat="46.147140909495" lon="9.831639228124194"><ele>563.0</ele><time>2026-04-25T13:15:39.987Z</time></trkpt><trkpt lat="46.14708265541791" lon="9.831469086361366"><ele>561.5</ele><time>2026-04-25T13:15:40.987Z</time></trkpt><trkpt lat="46.14702433995729" lon="9.83130570038573"><ele>560.0</ele><time>2026-04-25T13:15:41.987Z</time></trkpt><trkpt lat="46.14696975388058" lon="9.831152850675535"><ele>558.5</ele><time>2026-04-25T13:15:42.987Z</time></trkpt><trkpt lat="46.14692543881922" lon="9.830987670751139"><ele>557.0</ele><time>2026-04-25T13:15:43.987Z</time></trkpt><trkpt lat="46.14691512650264" lon="9.830803328023592"><ele>554.75</ele><time>2026-04-25T13:15:44.987Z</time></trkpt><trkpt lat="46.146883590811846" lon="9.830624863229053"><ele>552.5</ele><time>2026-04-25T13:15:45.987Z</time></trkpt><trkpt lat="46.146828336963736" lon="9.830461149771107"><ele>550.25</ele><time>2026-04-25T13:15:46.987Z</time></trkpt><trkpt lat="46.14676893269637" lon="9.830309264446308"><ele>548.0</ele><time>2026-04-25T13:15:47.987Z</time></trkpt><trkpt lat="46.146712182492486" lon="9.8301466593613"><ele>545.0</ele><time>2026-04-25T13:15:48.987Z</time></trkpt><trkpt lat="46.146656153237366" lon="9.829964182156957"><ele>542.0</ele><time>2026-04-25T13:15:49.987Z</time></trkpt><trkpt lat="46.14661867043206" lon="9.829765411388216"><ele>539.0</ele><time>2026-04-25T13:15:50.987Z</time></trkpt><trkpt lat="46.146605972957836" lon="9.829579020574737"><ele>536.0</ele><time>2026-04-25T13:15:51.987Z</time></trkpt><trkpt lat="46.14659286751797" lon="9.829401880646277"><ele>534.6</ele><time>2026-04-25T13:15:52.987Z</time></trkpt><trkpt lat="46.14657015623279" lon="9.829244808161341"><ele>533.2</ele><time>2026-04-25T13:15:53.987Z</time></trkpt><trkpt lat="46.14652673020083" lon="9.829088477980775"><ele>531.8</ele><time>2026-04-25T13:15:54.987Z</time></trkpt><trkpt lat="46.14648029255416" lon="9.828959462726944"><ele>530.4</ele><time>2026-04-25T13:15:55.987Z</time></trkpt><trkpt lat="46.14642870503772" lon="9.828865211766475"><ele>529.0</ele><time>2026-04-25T13:15:56.987Z</time></trkpt><trkpt lat="46.14637518738671" lon="9.828787300198156"><ele>533.2857142857143</ele><time>2026-04-25T13:15:57.987Z</time></trkpt><trkpt lat="46.14631216973739" lon="9.828772830526784"><ele>537.5714285714286</ele><time>2026-04-25T13:15:58.987Z</time></trkpt><trkpt lat="46.146230918993794" lon="9.828782860667156"><ele>541.8571428571429</ele><time>2026-04-25T13:16:00.987Z</time></trkpt><trkpt lat="46.1461970246395" lon="9.828861544108177"><ele>546.1428571428571</ele><time>2026-04-25T13:16:01.987Z</time></trkpt><trkpt lat="46.14616578406027" lon="9.828960598231065"><ele>550.4285714285714</ele><time>2026-04-25T13:16:02.987Z</time></trkpt><trkpt lat="46.14613449527576" lon="9.829061291927042"><ele>554.7142857142858</ele><time>2026-04-25T13:16:03.987Z</time></trkpt><trkpt lat="46.1461094726392" lon="9.82916172768084"><ele>559.0</ele><time>2026-04-25T13:16:04.987Z</time></trkpt><trkpt lat="46.1460840149029" lon="9.829266993616708"><ele>560.5714285714286</ele><time>2026-04-25T13:16:05.987Z</time></trkpt><trkpt lat="46.14604925750058" lon="9.829365329214374"><ele>562.1428571428572</ele><time>2026-04-25T13:16:06.987Z</time></trkpt><trkpt lat="46.146004205714085" lon="9.829452301260211"><ele>563.7142857142858</ele><time>2026-04-25T13:16:07.987Z</time></trkpt><trkpt lat="46.145953569083574" lon="9.829533016542344"><ele>565.2857142857143</ele><time>2026-04-25T13:16:08.987Z</time></trkpt><trkpt lat="46.14589099466409" lon="9.829587772619963"><ele>566.8571428571429</ele><time>2026-04-25T13:16:09.987Z</time></trkpt><trkpt lat="46.145826692984706" lon="9.829642365620591"><ele>568.4285714285714</ele><time>2026-04-25T13:16:10.987Z</time></trkpt><trkpt lat="46.14578491939018" lon="9.829714653130546"><ele>570.0</ele><time>2026-04-25T13:16:11.987Z</time></trkpt><trkpt lat="46.14575124997153" lon="9.829863199498163"><ele>570.0</ele><time>2026-04-25T13:16:13.987Z</time></trkpt><trkpt lat="46.145724723158594" lon="9.829964301322788"><ele>570.0</ele><time>2026-04-25T13:16:14.987Z</time></trkpt><trkpt lat="46.1456930347978" lon="9.830079261323064"><ele>570.0</ele><time>2026-04-25T13:16:15.987Z</time></trkpt><trkpt lat="46.145681916922264" lon="9.830195146432978"><ele>570.0</ele><time>2026-04-25T13:16:16.987Z</time></trkpt><trkpt lat="46.14564598957246" lon="9.830282422164073"><ele>570.0</ele><time>2026-04-25T13:16:17.987Z</time></trkpt><trkpt lat="46.14556577908193" lon="9.830415327042948"><ele>570.0</ele><time>2026-04-25T13:16:19.987Z</time></trkpt><trkpt lat="46.14550862687044" lon="9.830478747669224"><ele>579.6</ele><time>2026-04-25T13:16:20.987Z</time></trkpt><trkpt lat="46.14545570054864" lon="9.830531224862627"><ele>589.2</ele><time>2026-04-25T13:16:21.987Z</time></trkpt><trkpt lat="46.145375940784525" lon="9.830621330907288"><ele>598.8</ele><time>2026-04-25T13:16:23.987Z</time></trkpt><trkpt lat="46.14538736694396" lon="9.830779810232519"><ele>608.4</ele><time>2026-04-25T13:16:25.987Z</time></trkpt><trkpt lat="46.14531510270618" lon="9.830902161554418"><ele>618.0</ele><time>2026-04-25T13:16:27.987Z</time></trkpt><trkpt lat="46.14526434581568" lon="9.831014939801246"><ele>621.1999999999999</ele><time>2026-04-25T13:16:29.987Z</time></trkpt><trkpt lat="46.1452159227671" lon="9.831121331243397"><ele>624.4</ele><time>2026-04-25T13:16:32.987Z</time></trkpt><trkpt lat="46.14524758200538" lon="9.83125397441363"><ele>627.5999999999999</ele><time>2026-04-25T13:16:36.987Z</time></trkpt><trkpt lat="46.145235962950295" lon="9.831371043310675"><ele>630.8</ele><time>2026-04-25T13:16:38.987Z</time></trkpt><trkpt lat="46.14519224929315" lon="9.831527615856674"><ele>634.0</ele><time>2026-04-25T13:16:40.987Z</time></trkpt><trkpt lat="46.14514257224769" lon="9.83166073393131"><ele>634.0</ele><time>2026-04-25T13:16:42.987Z</time></trkpt><trkpt lat="46.14512140670021" lon="9.831772905014358"><ele>634.0</ele><time>2026-04-25T13:16:44.987Z</time></trkpt><trkpt lat="46.14511501885716" lon="9.831869107978063"><ele>634.0</ele><time>2026-04-25T13:16:46.987Z</time></trkpt><trkpt lat="46.14508820192471" lon="9.832040516631638"><ele>634.0</ele><time>2026-04-25T13:16:49.987Z</time></trkpt><trkpt lat="46.14503693660013" lon="9.832189529152203"><ele>634.0</ele><time>2026-04-25T13:16:51.987Z</time></trkpt><trkpt lat="46.14506415010557" lon="9.83233593576135"><ele>636.6666666666667</ele><time>2026-04-25T13:16:54.987Z</time></trkpt><trkpt lat="46.14512573021731" lon="9.832420132229926"><ele>639.3333333333334</ele><time>2026-04-25T13:16:56.987Z</time></trkpt><trkpt lat="46.14506888072202" lon="9.832499456011828"><ele>642.0</ele><time>2026-04-25T13:16:58.987Z</time></trkpt><trkpt lat="46.14501054106256" lon="9.832549799835304"><ele>644.6666666666666</ele><time>2026-04-25T13:16:59.987Z</time></trkpt><trkpt lat="46.144943509199976" lon="9.83258869904915"><ele>647.3333333333333</ele><time>2026-04-25T13:17:03.987Z</time></trkpt><trkpt lat="46.14491344558413" lon="9.832707769000155"><ele>650.0</ele><time>2026-04-25T13:17:05.987Z</time></trkpt><trkpt lat="46.1448444776552" lon="9.832801383215678"><ele>656.6</ele><time>2026-04-25T13:17:07.987Z</time></trkpt><trkpt lat="46.14484036677711" lon="9.832960218367107"><ele>663.2</ele><time>2026-04-25T13:17:09.987Z</time></trkpt><trkpt lat="46.14484420197358" lon="9.83309347640567"><ele>669.8</ele><time>2026-04-25T13:17:10.987Z</time></trkpt><trkpt lat="46.14481811387802" lon="9.833229509263521"><ele>676.4</ele><time>2026-04-25T13:17:12.987Z</time></trkpt><trkpt lat="46.14475005747566" lon="9.833344016145325"><ele>683.0</ele><time>2026-04-25T13:17:14.987Z</time></trkpt><trkpt lat="46.144733909047176" lon="9.833461650695462"><ele>683.0</ele><time>2026-04-25T13:17:16.987Z</time></trkpt><trkpt lat="46.14472816912564" lon="9.833582992346182"><ele>683.0</ele><time>2026-04-25T13:17:18.988Z</time></trkpt><trkpt lat="46.14465537861632" lon="9.833678935723453"><ele>683.0</ele><time>2026-04-25T13:17:20.987Z</time></trkpt><trkpt lat="46.144623717251804" lon="9.833789797820035"><ele>683.0</ele><time>2026-04-25T13:17:21.987Z</time></trkpt><trkpt lat="46.14459970714634" lon="9.833887467792662"><ele>683.0</ele><time>2026-04-25T13:17:22.987Z</time></trkpt><trkpt lat="46.144557960041226" lon="9.833993305229498"><ele>683.0</ele><time>2026-04-25T13:17:24.988Z</time></trkpt><trkpt lat="46.14453904138608" lon="9.834081825422944"><ele>683.0</ele><time>2026-04-25T13:17:25.987Z</time></trkpt><trkpt lat="46.144517504368494" lon="9.834184779669284"><ele>683.0</ele><time>2026-04-25T13:17:26.987Z</time></trkpt><trkpt lat="46.144495934467336" lon="9.834330728033908"><ele>683.0</ele><time>2026-04-25T13:17:28.987Z</time></trkpt><trkpt lat="46.14443750727523" lon="9.834439262040371"><ele>683.0</ele><time>2026-04-25T13:17:30.987Z</time></trkpt><trkpt lat="46.144388592985855" lon="9.834582015999784"><ele>683.0</ele><time>2026-04-25T13:17:32.987Z</time></trkpt><trkpt lat="46.14437740421157" lon="9.834680799575336"><ele>683.0</ele><time>2026-04-25T13:17:35.987Z</time></trkpt><trkpt lat="46.14436548734982" lon="9.834791549046022"><ele>683.0</ele><time>2026-04-25T13:17:36.987Z</time></trkpt><trkpt lat="46.144354160950726" lon="9.834976371941918"><ele>683.0</ele><time>2026-04-25T13:17:37.987Z</time></trkpt><trkpt lat="46.14431839308811" lon="9.83515794043604"><ele>683.0</ele><time>2026-04-25T13:17:38.987Z</time></trkpt><trkpt lat="46.14427324241658" lon="9.83531284980756"><ele>683.2</ele><time>2026-04-25T13:17:39.987Z</time></trkpt><trkpt lat="46.14423084806056" lon="9.835417871163745"><ele>683.4</ele><time>2026-04-25T13:17:40.987Z</time></trkpt><trkpt lat="46.144145307012636" lon="9.83544278501491"><ele>683.6</ele><time>2026-04-25T13:17:41.987Z</time></trkpt><trkpt lat="46.144059952138846" lon="9.835451346306382"><ele>683.8000000000001</ele><time>2026-04-25T13:17:42.987Z</time></trkpt><trkpt lat="46.14394315484822" lon="9.835431838858256"><ele>684.0</ele><time>2026-04-25T13:17:43.987Z</time></trkpt><trkpt lat="46.14383005853961" lon="9.835370363637942"><ele>689.4000000000001</ele><time>2026-04-25T13:17:44.987Z</time></trkpt><trkpt lat="46.14374304590063" lon="9.835294912871248"><ele>694.8</ele><time>2026-04-25T13:17:45.987Z</time></trkpt><trkpt lat="46.14367951547421" lon="9.835166113909922"><ele>700.2</ele><time>2026-04-25T13:17:46.987Z</time></trkpt><trkpt lat="46.14365246533" lon="9.835011908544681"><ele>705.5999999999999</ele><time>2026-04-25T13:17:47.987Z</time></trkpt><trkpt lat="46.14363707447181" lon="9.83485845877154"><ele>711.0</ele><time>2026-04-25T13:17:48.987Z</time></trkpt><trkpt lat="46.14362645407041" lon="9.834728640163442"><ele>711.0</ele><time>2026-04-25T13:17:49.987Z</time></trkpt><trkpt lat="46.14361019190376" lon="9.834618857214013"><ele>711.0</ele><time>2026-04-25T13:17:50.987Z</time></trkpt><trkpt lat="46.14361110570158" lon="9.834526155674489"><ele>711.0</ele><time>2026-04-25T13:17:51.987Z</time></trkpt><trkpt lat="46.14357640805846" lon="9.83444412685961"><ele>711.0</ele><time>2026-04-25T13:17:53.987Z</time></trkpt><trkpt lat="46.143509851240296" lon="9.834402324513643"><ele>711.0</ele><time>2026-04-25T13:17:54.987Z</time></trkpt><trkpt lat="46.14344877036213" lon="9.834317074942899"><ele>711.0</ele><time>2026-04-25T13:17:56.987Z</time></trkpt><trkpt lat="46.14334183444931" lon="9.834297127366721"><ele>710.6666666666666</ele><time>2026-04-25T13:17:59.987Z</time></trkpt><trkpt lat="46.14326181865128" lon="9.83417816185638"><ele>710.3333333333334</ele><time>2026-04-25T13:18:01.987Z</time></trkpt><trkpt lat="46.1432390119333" lon="9.834089733201884"><ele>710.0</ele><time>2026-04-25T13:18:02.987Z</time></trkpt><trkpt lat="46.143214331562916" lon="9.834005655810705"><ele>709.6666666666667</ele><time>2026-04-25T13:18:03.987Z</time></trkpt><trkpt lat="46.14318759206703" lon="9.833917143812283"><ele>709.3333333333334</ele><time>2026-04-25T13:18:04.987Z</time></trkpt><trkpt lat="46.143168870048235" lon="9.83378854992634"><ele>709.0</ele><time>2026-04-25T13:18:05.987Z</time></trkpt><trkpt lat="46.14313970074525" lon="9.833616251724761"><ele>714.2</ele><time>2026-04-25T13:18:06.987Z</time></trkpt><trkpt lat="46.14311864199793" lon="9.833436666135194"><ele>719.4000000000001</ele><time>2026-04-25T13:18:07.987Z</time></trkpt><trkpt lat="46.14309990442046" lon="9.833324291676748"><ele>724.6</ele><time>2026-04-25T13:18:08.987Z</time></trkpt><trkpt lat="46.14303081344153" lon="9.833223812051164"><ele>729.8</ele><time>2026-04-25T13:18:10.987Z</time></trkpt><trkpt lat="46.14294056724644" lon="9.833345116170198"><ele>735.0</ele><time>2026-04-25T13:18:12.987Z</time></trkpt><trkpt lat="46.14290253551699" lon="9.83346975292269"><ele>735.6666666666666</ele><time>2026-04-25T13:18:13.987Z</time></trkpt><trkpt lat="46.14283445996002" lon="9.833556212564385"><ele>736.3333333333334</ele><time>2026-04-25T13:18:14.987Z</time></trkpt><trkpt lat="46.142748152497475" lon="9.83357664613205"><ele>737.0</ele><time>2026-04-25T13:18:15.987Z</time></trkpt><trkpt lat="46.142670674985446" lon="9.833549262493424"><ele>737.6666666666667</ele><time>2026-04-25T13:18:16.987Z</time></trkpt><trkpt lat="46.14261661415815" lon="9.833500414076214"><ele>738.3333333333334</ele><time>2026-04-25T13:18:18.987Z</time></trkpt><trkpt lat="46.142557774940705" lon="9.833549937265857"><ele>739.0</ele><time>2026-04-25T13:18:56.987Z</time></trkpt><trkpt lat="46.14251117537327" lon="9.833679275810882"><ele>739.0</ele><time>2026-04-25T13:18:59.987Z</time></trkpt><trkpt lat="46.14253504859881" lon="9.833798323873458"><ele>739.0</ele><time>2026-04-25T13:19:02.987Z</time></trkpt><trkpt lat="46.14257946966174" lon="9.833724455819837"><ele>739.0</ele><time>2026-04-25T13:19:05.987Z</time></trkpt><trkpt lat="46.14258551759795" lon="9.833609916213979"><ele>739.0</ele><time>2026-04-25T13:19:08.986Z</time></trkpt><trkpt lat="46.14252008012532" lon="9.83352412905783"><ele>739.0</ele><time>2026-04-25T13:19:11.986Z</time></trkpt><trkpt lat="46.14245614889046" lon="9.833426508060729"><ele>739.0</ele><time>2026-04-25T13:19:13.986Z</time></trkpt><trkpt lat="46.14238044840691" lon="9.833401689931986"><ele>745.8333333333334</ele><time>2026-04-25T13:19:15.986Z</time></trkpt><trkpt lat="46.142285344048226" lon="9.833427839671952"><ele>752.6666666666667</ele><time>2026-04-25T13:19:17.986Z</time></trkpt><trkpt lat="46.14220579192082" lon="9.833468104396799"><ele>759.5</ele><time>2026-04-25T13:19:19.986Z</time></trkpt><trkpt lat="46.14212762470318" lon="9.833547263013932"><ele>766.3333333333334</ele><time>2026-04-25T13:19:42.987Z</time></trkpt><trkpt lat="46.142052197974046" lon="9.833512857398585"><ele>773.1666666666666</ele><time>2026-04-25T13:19:51.986Z</time></trkpt><trkpt lat="46.14200244469258" lon="9.833400384262083"><ele>780.0</ele><time>2026-04-25T13:19:57.986Z</time></trkpt><trkpt lat="46.141942808302815" lon="9.833332960902599"><ele>780.0</ele><time>2026-04-25T13:20:05.986Z</time></trkpt><trkpt lat="46.141875589370834" lon="9.833253174989606"><ele>780.0</ele><time>2026-04-25T13:20:07.986Z</time></trkpt><trkpt lat="46.14179048452657" lon="9.833284855073083"><ele>780.0</ele><time>2026-04-25T13:20:10.986Z</time></trkpt><trkpt lat="46.141760748334285" lon="9.833168643595265"><ele>780.0</ele><time>2026-04-25T13:20:13.986Z</time></trkpt><trkpt lat="46.14174938289427" lon="9.833062940233546"><ele>780.0</ele><time>2026-04-25T13:20:15.986Z</time></trkpt><trkpt lat="46.141720883286204" lon="9.832969346847234"><ele>780.0</ele><time>2026-04-25T13:20:17.986Z</time></trkpt><trkpt lat="46.14165175518424" lon="9.83296612001872"><ele>780.0</ele><time>2026-04-25T13:20:20.985Z</time></trkpt><trkpt lat="46.141612337302305" lon="9.8330618819197"><ele>780.0</ele><time>2026-04-25T13:20:23.985Z</time></trkpt><trkpt lat="46.14157832841887" lon="9.83314417724097"><ele>780.0</ele><time>2026-04-25T13:20:28.985Z</time></trkpt><trkpt lat="46.14151853657078" lon="9.833230128129145"><ele>780.0</ele><time>2026-04-25T13:20:32.985Z</time></trkpt><trkpt lat="46.141452769221914" lon="9.83328841242175"><ele>780.0</ele><time>2026-04-25T13:20:38.985Z</time></trkpt><trkpt lat="46.14138628901981" lon="9.833350608812475"><ele>780.0</ele><time>2026-04-25T13:20:47.985Z</time></trkpt><trkpt lat="46.14138204862157" lon="9.833445064251087"><ele>788.8333333333334</ele><time>2026-04-25T13:21:03.985Z</time></trkpt><trkpt lat="46.14142391640562" lon="9.83354034296703"><ele>797.6666666666667</ele><time>2026-04-25T13:21:06.985Z</time></trkpt><trkpt lat="46.14144121074068" lon="9.83365302126249"><ele>806.5</ele><time>2026-04-25T13:21:15.985Z</time></trkpt><trkpt lat="46.14143817178074" lon="9.833768149428973"><ele>815.3333333333334</ele><time>2026-04-25T13:21:22.985Z</time></trkpt><trkpt lat="46.14137917995314" lon="9.833814992189614"><ele>824.1666666666667</ele><time>2026-04-25T13:21:27.985Z</time></trkpt><trkpt lat="46.141429339637206" lon="9.83387836049902"><ele>833.0</ele><time>2026-04-25T13:21:31.985Z</time></trkpt><trkpt lat="46.141368092237975" lon="9.833975459077774"><ele>833.0000000000001</ele><time>2026-04-25T13:21:33.985Z</time></trkpt><trkpt lat="46.14139186903862" lon="9.834075203111542"><ele>833.0</ele><time>2026-04-25T13:21:45.985Z</time></trkpt><trkpt lat="46.14141662247814" lon="9.834183588362231"><ele>833.0</ele><time>2026-04-25T13:21:49.985Z</time></trkpt><trkpt lat="46.14141794951388" lon="9.83429352686315"><ele>833.0</ele><time>2026-04-25T13:21:53.985Z</time></trkpt><trkpt lat="46.14137455563898" lon="9.83436440414797"><ele>833.0000000000001</ele><time>2026-04-25T13:21:58.985Z</time></trkpt><trkpt lat="46.141365220657924" lon="9.834504956815115"><ele>833.0</ele><time>2026-04-25T13:22:10.985Z</time></trkpt><trkpt lat="46.1413873619169" lon="9.834602323522322"><ele>834.5000000000001</ele><time>2026-04-25T13:22:20.985Z</time></trkpt><trkpt lat="46.14140486187948" lon="9.834697368044019"><ele>836.0</ele><time>2026-04-25T13:22:31.985Z</time></trkpt><trkpt lat="46.14142133620646" lon="9.834806097829205"><ele>837.5</ele><time>2026-04-25T13:22:37.985Z</time></trkpt><trkpt lat="46.141389524116214" lon="9.834913373065342"><ele>839.0</ele><time>2026-04-25T13:22:44.129Z</time></trkpt><trkpt lat="46.14140208843326" lon="9.83502158226191"><ele>840.5000000000001</ele><time>2026-04-25T13:23:03.984Z</time></trkpt><trkpt lat="46.14141432089442" lon="9.835124457635322"><ele>842.0</ele><time>2026-04-25T13:23:18.984Z</time></trkpt><trkpt lat="46.14141675116214" lon="9.835250814045235"><ele>842.8333333333334</ele><time>2026-04-25T13:23:36.984Z</time></trkpt><trkpt lat="46.14143796615654" lon="9.83533847424145"><ele>843.6666666666667</ele><time>2026-04-25T13:23:40.985Z</time></trkpt><trkpt lat="46.141488538715535" lon="9.83540334458996"><ele>844.5</ele><time>2026-04-25T13:23:47.984Z</time></trkpt><trkpt lat="46.14144685445839" lon="9.835501722434714"><ele>845.3333333333333</ele><time>2026-04-25T13:23:54.986Z</time></trkpt><trkpt lat="46.14142853329009" lon="9.835597118475931"><ele>846.1666666666666</ele><time>2026-04-25T13:23:59.985Z</time></trkpt><trkpt lat="46.14151079284383" lon="9.835720016704792"><ele>847.0</ele><time>2026-04-25T13:24:01.985Z</time></trkpt><trkpt lat="46.14158808616751" lon="9.835804211431292"><ele>847.0</ele><time>2026-04-25T13:24:03.985Z</time></trkpt><trkpt lat="46.14151353298482" lon="9.835796725249413"><ele>847.0</ele><time>2026-04-25T13:24:06.985Z</time></trkpt><trkpt lat="46.141447161315384" lon="9.835780129306137"><ele>847.0</ele><time>2026-04-25T13:24:18.985Z</time></trkpt><trkpt lat="46.14138307404708" lon="9.83573438910553"><ele>847.0</ele><time>2026-04-25T13:24:24.985Z</time></trkpt><trkpt lat="46.14140456146277" lon="9.835832873362207"><ele>847.0</ele><time>2026-04-25T13:25:06.985Z</time></trkpt><trkpt lat="46.141468418461734" lon="9.835807635686043"><ele>847.0</ele><time>2026-04-25T13:25:33.985Z</time></trkpt><trkpt lat="46.141546927831854" lon="9.835772080007509"><ele>847.0</ele><time>2026-04-25T13:25:37.985Z</time></trkpt><trkpt lat="46.14153868404008" lon="9.835679691627554"><ele>846.9999999999999</ele><time>2026-04-25T13:25:42.985Z</time></trkpt><trkpt lat="46.141520037851116" lon="9.835572618273796"><ele>847.0</ele><time>2026-04-25T13:25:45.985Z</time></trkpt><trkpt lat="46.14155893383105" lon="9.835474169321849"><ele>847.0</ele><time>2026-04-25T13:25:54.984Z</time></trkpt><trkpt lat="46.14150068915528" lon="9.83540743460481"><ele>847.0</ele><time>2026-04-25T13:25:57.985Z</time></trkpt><trkpt lat="46.1414582826468" lon="9.835288306038409"><ele>846.9999999999999</ele><time>2026-04-25T13:26:02.985Z</time></trkpt><trkpt lat="46.141411656348" lon="9.835352219948222"><ele>847.0</ele><time>2026-04-25T13:26:26.984Z</time></trkpt><trkpt lat="46.14143233040963" lon="9.835451114961666"><ele>847.0</ele><time>2026-04-25T13:26:36.984Z</time></trkpt><trkpt lat="46.14142404395692" lon="9.835558769774424"><ele>847.0</ele><time>2026-04-25T13:26:40.984Z</time></trkpt><trkpt lat="46.14136242932833" lon="9.83549816048691"><ele>847.0</ele><time>2026-04-25T13:26:42.984Z</time></trkpt><trkpt lat="46.14137780350059" lon="9.835402832838763"><ele>847.0</ele><time>2026-04-25T13:26:52.984Z</time></trkpt><trkpt lat="46.14130931767494" lon="9.835441274390373"><ele>847.0</ele><time>2026-04-25T13:26:56.984Z</time></trkpt><trkpt lat="46.14138635847554" lon="9.835438722676558"><ele>847.0</ele><time>2026-04-25T13:27:02.984Z</time></trkpt><trkpt lat="46.14137446857737" lon="9.835542069264202"><ele>847.0</ele><time>2026-04-25T13:27:03.984Z</time></trkpt><trkpt lat="46.14136945355876" lon="9.835651047266063"><ele>847.0</ele><time>2026-04-25T13:27:07.984Z</time></trkpt><trkpt lat="46.14137562443698" lon="9.835752690583487"><ele>847.0</ele><time>2026-04-25T13:27:10.984Z</time></trkpt><trkpt lat="46.14138618349829" lon="9.835846951885001"><ele>847.0</ele><time>2026-04-25T13:27:14.984Z</time></trkpt><trkpt lat="46.14137349751915" lon="9.835950652435695"><ele>847.0</ele><time>2026-04-25T13:27:21.984Z</time></trkpt><trkpt lat="46.141338867944924" lon="9.836032547481082"><ele>847.0</ele><time>2026-04-25T13:27:25.984Z</time></trkpt><trkpt lat="46.14133652464147" lon="9.836124952812177"><ele>847.0</ele><time>2026-04-25T13:27:28.984Z</time></trkpt><trkpt lat="46.14140789822211" lon="9.836213669690167"><ele>847.0</ele><time>2026-04-25T13:27:31.984Z</time></trkpt><trkpt lat="46.14135115419136" lon="9.83629706888753"><ele>848.6</ele><time>2026-04-25T13:27:34.984Z</time></trkpt><trkpt lat="46.14131971926537" lon="9.836426614525944"><ele>850.2</ele><time>2026-04-25T13:27:38.984Z</time></trkpt><trkpt lat="46.1413342545392" lon="9.836593998683115"><ele>851.8</ele><time>2026-04-25T13:27:45.984Z</time></trkpt><trkpt lat="46.14132825377761" lon="9.836717774013037"><ele>853.4</ele><time>2026-04-25T13:27:51.128Z</time></trkpt><trkpt lat="46.14143533107239" lon="9.836765865257126"><ele>855.0</ele><time>2026-04-25T13:27:54.127Z</time></trkpt><trkpt lat="46.14147115575712" lon="9.83686221650019"><ele>855.3333333333334</ele><time>2026-04-25T13:27:56.128Z</time></trkpt><trkpt lat="46.141478704248335" lon="9.836972934618423"><ele>855.6666666666667</ele><time>2026-04-25T13:28:01.127Z</time></trkpt><trkpt lat="46.14143782297353" lon="9.837120477751348"><ele>856.0</ele><time>2026-04-25T13:28:03.984Z</time></trkpt><trkpt lat="46.141538392713485" lon="9.83716363884969"><ele>856.3333333333334</ele><time>2026-04-25T13:28:05.984Z</time></trkpt><trkpt lat="46.14159206402058" lon="9.837235226953016"><ele>856.6666666666667</ele><time>2026-04-25T13:28:06.984Z</time></trkpt><trkpt lat="46.14157522499517" lon="9.837341892706316"><ele>857.0</ele><time>2026-04-25T13:28:07.984Z</time></trkpt><trkpt lat="46.1411635179796" lon="9.840566968109702"><ele>852.2</ele><time>2026-04-25T13:28:09.985Z</time></trkpt><trkpt lat="46.14106436036892" lon="9.84063873311858"><ele>847.4000000000001</ele><time>2026-04-25T13:28:10.984Z</time></trkpt><trkpt lat="46.141007640321064" lon="9.840686563491856"><ele>842.5999999999999</ele><time>2026-04-25T13:28:11.984Z</time></trkpt><trkpt lat="46.140935942325385" lon="9.840759648667381"><ele>837.8</ele><time>2026-04-25T13:28:13.985Z</time></trkpt><trkpt lat="46.14082264623986" lon="9.840806479876376"><ele>833.0</ele><time>2026-04-25T13:28:15.984Z</time></trkpt><trkpt lat="46.140724299999185" lon="9.840839768999697"><ele>845.6666666666667</ele><time>2026-04-25T13:28:17.984Z</time></trkpt><trkpt lat="46.140658404628965" lon="9.840930098585119"><ele>858.3333333333333</ele><time>2026-04-25T13:28:19.984Z</time></trkpt><trkpt lat="46.14061930744889" lon="9.841046116349563"><ele>871.0</ele><time>2026-04-25T13:28:20.984Z</time></trkpt><trkpt lat="46.140518011262095" lon="9.838700041818553"><ele>872.3333333333333</ele><time>2026-04-25T13:28:21.984Z</time></trkpt><trkpt lat="46.140572014358895" lon="9.838926001256356"><ele>873.6666666666667</ele><time>2026-04-25T13:28:22.984Z</time></trkpt><trkpt lat="46.14056896988895" lon="9.839127658876647"><ele>875.0</ele><time>2026-04-25T13:28:23.984Z</time></trkpt><trkpt lat="46.14063138694375" lon="9.839439174324866"><ele>875.0</ele><time>2026-04-25T13:28:24.984Z</time></trkpt><trkpt lat="46.14064853512636" lon="9.839650313662034"><ele>875.0</ele><time>2026-04-25T13:28:25.984Z</time></trkpt><trkpt lat="46.140645203683064" lon="9.839814857994297"><ele>875.0</ele><time>2026-04-25T13:28:26.984Z</time></trkpt><trkpt lat="46.14063675204818" lon="9.84000765182324"><ele>875.0</ele><time>2026-04-25T13:28:27.984Z</time></trkpt><trkpt lat="46.14061769096288" lon="9.84033255575919"><ele>874.0</ele><time>2026-04-25T13:28:28.984Z</time></trkpt><trkpt lat="46.14060817973722" lon="9.840567881729022"><ele>873.0</ele><time>2026-04-25T13:28:29.984Z</time></trkpt><trkpt lat="46.14060622267057" lon="9.840975156751766"><ele>872.0</ele><time>2026-04-25T13:28:30.984Z</time></trkpt><trkpt lat="46.14057541560984" lon="9.840709611716358"><ele>872.0</ele><time>2026-04-25T13:28:31.984Z</time></trkpt><trkpt lat="46.14057761179884" lon="9.840941026276548"><ele>872.0</ele><time>2026-04-25T13:28:32.984Z</time></trkpt><trkpt lat="46.14056447543725" lon="9.841110175039512"><ele>872.0</ele><time>2026-04-25T13:28:33.984Z</time></trkpt><trkpt lat="46.1405690465787" lon="9.841303010690016"><ele>872.0</ele><time>2026-04-25T13:28:34.984Z</time></trkpt><trkpt lat="46.140568968557766" lon="9.841464650060852"><ele>872.0</ele><time>2026-04-25T13:28:35.984Z</time></trkpt><trkpt lat="46.14053633721196" lon="9.84183186622123"><ele>872.0</ele><time>2026-04-25T13:28:36.984Z</time></trkpt><trkpt lat="46.14050963539452" lon="9.842106343041735"><ele>872.0</ele><time>2026-04-25T13:28:37.984Z</time></trkpt><trkpt lat="46.14049135665361" lon="9.842342584160585"><ele>872.0</ele><time>2026-04-25T13:28:38.984Z</time></trkpt><trkpt lat="46.1404769809041" lon="9.842542764043904"><ele>872.0</ele><time>2026-04-25T13:28:39.984Z</time></trkpt><trkpt lat="46.14045434637727" lon="9.842796933595723"><ele>872.0</ele><time>2026-04-25T13:28:40.984Z</time></trkpt><trkpt lat="46.1404266168551" lon="9.84315732609852"><ele>873.3333333333334</ele><time>2026-04-25T13:28:41.984Z</time></trkpt><trkpt lat="46.140385334674455" lon="9.843437432786539"><ele>874.6666666666667</ele><time>2026-04-25T13:28:42.984Z</time></trkpt><trkpt lat="46.14035677464933" lon="9.84367765225506"><ele>876.0</ele><time>2026-04-25T13:28:43.984Z</time></trkpt><trkpt lat="46.14033965381166" lon="9.843898315223635"><ele>876.3333333333333</ele><time>2026-04-25T13:28:44.984Z</time></trkpt><trkpt lat="46.140295619833374" lon="9.844127719367615"><ele>876.6666666666666</ele><time>2026-04-25T13:28:45.984Z</time></trkpt><trkpt lat="46.14022260868269" lon="9.844365321988667"><ele>877.0</ele><time>2026-04-25T13:28:46.984Z</time></trkpt><trkpt lat="46.140140386184854" lon="9.84460743221805"><ele>877.0</ele><time>2026-04-25T13:28:47.984Z</time></trkpt><trkpt lat="46.14008456245324" lon="9.844814682631707"><ele>877.0</ele><time>2026-04-25T13:28:48.984Z</time></trkpt><trkpt lat="46.14005941007385" lon="9.845031671382262"><ele>877.0</ele><time>2026-04-25T13:28:49.984Z</time></trkpt><trkpt lat="46.14002259774042" lon="9.8452302171481"><ele>877.0</ele><time>2026-04-25T13:28:50.984Z</time></trkpt><trkpt lat="46.13994537167304" lon="9.845350381171961"><ele>877.0</ele><time>2026-04-25T13:28:52.984Z</time></trkpt><trkpt lat="46.13988371566892" lon="9.845380370293531"><ele>877.0</ele><time>2026-04-25T13:28:53.984Z</time></trkpt><trkpt lat="46.139787434251744" lon="9.845416115653714"><ele>877.0</ele><time>2026-04-25T13:28:54.984Z</time></trkpt><trkpt lat="46.13975233467389" lon="9.845498895956649"><ele>877.0</ele><time>2026-04-25T13:28:55.984Z</time></trkpt><trkpt lat="46.139712820140474" lon="9.845656597059323"><ele>877.0</ele><time>2026-04-25T13:28:56.984Z</time></trkpt><trkpt lat="46.13969357652098" lon="9.845817073574263"><ele>882.0</ele><time>2026-04-25T13:28:57.984Z</time></trkpt><trkpt lat="46.1396416864115" lon="9.845956053446944"><ele>887.0</ele><time>2026-04-25T13:28:58.984Z</time></trkpt><trkpt lat="46.139592234854454" lon="9.846077130459784"><ele>892.0</ele><time>2026-04-25T13:28:59.984Z</time></trkpt><trkpt lat="46.139539768780104" lon="9.846228721407078"><ele>897.0</ele><time>2026-04-25T13:29:00.984Z</time></trkpt><trkpt lat="46.13947036600463" lon="9.846366574866934"><ele>902.0</ele><time>2026-04-25T13:29:01.984Z</time></trkpt><trkpt lat="46.13941263963469" lon="9.846493542899426"><ele>902.5</ele><time>2026-04-25T13:29:02.984Z</time></trkpt><trkpt lat="46.139346576228924" lon="9.846634788190746"><ele>903.0</ele><time>2026-04-25T13:29:03.984Z</time></trkpt><trkpt lat="46.13928565283539" lon="9.84678975321981"><ele>903.5</ele><time>2026-04-25T13:29:04.984Z</time></trkpt><trkpt lat="46.13923672815672" lon="9.846963709333608"><ele>904.0</ele><time>2026-04-25T13:29:05.984Z</time></trkpt><trkpt lat="46.1391985907538" lon="9.847123656843584"><ele>904.75</ele><time>2026-04-25T13:29:06.984Z</time></trkpt><trkpt lat="46.13915444538896" lon="9.847341798817041"><ele>905.5</ele><time>2026-04-25T13:29:07.984Z</time></trkpt><trkpt lat="46.139094141635866" lon="9.84753461987727"><ele>906.25</ele><time>2026-04-25T13:29:08.984Z</time></trkpt><trkpt lat="46.139031110579566" lon="9.847696322809108"><ele>907.0</ele><time>2026-04-25T13:29:09.984Z</time></trkpt><trkpt lat="46.13895679065299" lon="9.847847357589037"><ele>910.75</ele><time>2026-04-25T13:29:10.984Z</time></trkpt><trkpt lat="46.138883099948586" lon="9.847958300101597"><ele>914.5</ele><time>2026-04-25T13:29:11.984Z</time></trkpt><trkpt lat="46.1387821373875" lon="9.848072574044197"><ele>918.25</ele><time>2026-04-25T13:29:12.983Z</time></trkpt><trkpt lat="46.13870824737918" lon="9.848246728945865"><ele>922.0</ele><time>2026-04-25T13:29:13.983Z</time></trkpt><trkpt lat="46.13867401041352" lon="9.848426449510665"><ele>921.75</ele><time>2026-04-25T13:29:14.983Z</time></trkpt><trkpt lat="46.13862351878139" lon="9.848550841056065"><ele>921.5</ele><time>2026-04-25T13:29:15.983Z</time></trkpt><trkpt lat="46.13856702384286" lon="9.848672516526511"><ele>921.25</ele><time>2026-04-25T13:29:16.983Z</time></trkpt><trkpt lat="46.138476434395415" lon="9.84881589509954"><ele>921.0</ele><time>2026-04-25T13:29:17.983Z</time></trkpt><trkpt lat="46.13842477381219" lon="9.848997365268291"><ele>921.0</ele><time>2026-04-25T13:29:18.983Z</time></trkpt><trkpt lat="46.13835996882774" lon="9.849145009383001"><ele>921.0</ele><time>2026-04-25T13:29:19.983Z</time></trkpt><trkpt lat="46.13827861467581" lon="9.849305825704738"><ele>921.0</ele><time>2026-04-25T13:29:20.983Z</time></trkpt><trkpt lat="46.138194122700796" lon="9.849480720867605"><ele>921.0</ele><time>2026-04-25T13:29:21.983Z</time></trkpt><trkpt lat="46.13812235895504" lon="9.8495994732865"><ele>925.8333333333334</ele><time>2026-04-25T13:29:22.983Z</time></trkpt><trkpt lat="46.138061642685145" lon="9.849708337899235"><ele>930.6666666666667</ele><time>2026-04-25T13:29:23.983Z</time></trkpt><trkpt lat="46.13800828277139" lon="9.849800781862056"><ele>935.5</ele><time>2026-04-25T13:29:24.983Z</time></trkpt><trkpt lat="46.13796474004781" lon="9.849869103068176"><ele>940.3333333333334</ele><time>2026-04-25T13:29:25.983Z</time></trkpt><trkpt lat="46.13790184873783" lon="9.849809096892876"><ele>945.1666666666667</ele><time>2026-04-25T13:29:28.983Z</time></trkpt><trkpt lat="46.137908685796646" lon="9.849685414333159"><ele>950.0</ele><time>2026-04-25T13:29:29.983Z</time></trkpt><trkpt lat="46.13794144948999" lon="9.84956831938305"><ele>950.0</ele><time>2026-04-25T13:29:30.983Z</time></trkpt><trkpt lat="46.13800001352603" lon="9.849423840709512"><ele>950.0</ele><time>2026-04-25T13:29:31.983Z</time></trkpt><trkpt lat="46.1380493456215" lon="9.849247893290533"><ele>950.0</ele><time>2026-04-25T13:29:32.983Z</time></trkpt><trkpt lat="46.13811273844079" lon="9.849085040163928"><ele>950.0</ele><time>2026-04-25T13:29:33.983Z</time></trkpt><trkpt lat="46.1381694757113" lon="9.848945001567387"><ele>943.0</ele><time>2026-04-25T13:29:34.983Z</time></trkpt><trkpt lat="46.13822915089451" lon="9.848800573217634"><ele>936.0</ele><time>2026-04-25T13:29:35.983Z</time></trkpt><trkpt lat="46.13829080459673" lon="9.848647162663509"><ele>929.0</ele><time>2026-04-25T13:29:36.983Z</time></trkpt><trkpt lat="46.13833741350394" lon="9.848484138150496"><ele>922.0</ele><time>2026-04-25T13:29:37.983Z</time></trkpt><trkpt lat="46.13836128409572" lon="9.848340213254382"><ele>922.0</ele><time>2026-04-25T13:29:38.983Z</time></trkpt><trkpt lat="46.13837467236887" lon="9.848193334940655"><ele>922.0</ele><time>2026-04-25T13:29:39.983Z</time></trkpt><trkpt lat="46.138383101081324" lon="9.848061854422987"><ele>922.0</ele><time>2026-04-25T13:29:40.983Z</time></trkpt><trkpt lat="46.1384055005724" lon="9.847917221990771"><ele>922.0</ele><time>2026-04-25T13:29:41.983Z</time></trkpt><trkpt lat="46.13841990242037" lon="9.847773071192025"><ele>922.0</ele><time>2026-04-25T13:29:42.983Z</time></trkpt><trkpt lat="46.138434348584774" lon="9.847623724770674"><ele>922.4999999999999</ele><time>2026-04-25T13:29:43.983Z</time></trkpt><trkpt lat="46.13843997106074" lon="9.847495621062103"><ele>923.0</ele><time>2026-04-25T13:29:44.983Z</time></trkpt><trkpt lat="46.13844540770966" lon="9.847354986676692"><ele>923.5</ele><time>2026-04-25T13:29:45.983Z</time></trkpt><trkpt lat="46.138442007708214" lon="9.847229516315174"><ele>924.0</ele><time>2026-04-25T13:29:46.983Z</time></trkpt><trkpt lat="46.13843211236437" lon="9.847113209042169"><ele>924.4999999999999</ele><time>2026-04-25T13:29:47.983Z</time></trkpt><trkpt lat="46.138450266590986" lon="9.847019917335704"><ele>925.0</ele><time>2026-04-25T13:29:48.983Z</time></trkpt><trkpt lat="46.13851366761811" lon="9.846877532951408"><ele>925.8</ele><time>2026-04-25T13:29:50.983Z</time></trkpt><trkpt lat="46.13848857748918" lon="9.846694662900584"><ele>926.6</ele><time>2026-04-25T13:29:52.983Z</time></trkpt><trkpt lat="46.138452802247336" lon="9.846610537895803"><ele>927.4000000000001</ele><time>2026-04-25T13:29:53.983Z</time></trkpt><trkpt lat="46.138440739353484" lon="9.846515176385251"><ele>928.2</ele><time>2026-04-25T13:29:54.983Z</time></trkpt><trkpt lat="46.13844777317081" lon="9.84637169532848"><ele>929.0</ele><time>2026-04-25T13:29:55.983Z</time></trkpt><trkpt lat="46.13844390659906" lon="9.846245669786176"><ele>929.0</ele><time>2026-04-25T13:29:56.983Z</time></trkpt><trkpt lat="46.13843894206048" lon="9.846114298625137"><ele>929.0000000000001</ele><time>2026-04-25T13:29:57.983Z</time></trkpt><trkpt lat="46.138436180671526" lon="9.845966314233772"><ele>929.0000000000001</ele><time>2026-04-25T13:29:58.983Z</time></trkpt><trkpt lat="46.13845086331286" lon="9.845797509257824"><ele>929.0</ele><time>2026-04-25T13:29:59.983Z</time></trkpt><trkpt lat="46.138459585492484" lon="9.845649138653123"><ele>929.0</ele><time>2026-04-25T13:30:00.983Z</time></trkpt><trkpt lat="46.138465882617716" lon="9.845510800748789"><ele>929.0000000000001</ele><time>2026-04-25T13:30:01.983Z</time></trkpt><trkpt lat="46.13846853013045" lon="9.845420018041644"><ele>929.0</ele><time>2026-04-25T13:30:02.983Z</time></trkpt><trkpt lat="46.138418926999684" lon="9.845339031361487"><ele>929.0</ele><time>2026-04-25T13:30:04.983Z</time></trkpt><trkpt lat="46.13833707733809" lon="9.845372082996471"><ele>929.0</ele><time>2026-04-25T13:30:06.983Z</time></trkpt><trkpt lat="46.138286194294395" lon="9.845509898979984"><ele>929.0000000000001</ele><time>2026-04-25T13:30:08.983Z</time></trkpt><trkpt lat="46.138240690071896" lon="9.84561944340956"><ele>929.0</ele><time>2026-04-25T13:30:09.983Z</time></trkpt><trkpt lat="46.13818838522336" lon="9.845749046369566"><ele>935.75</ele><time>2026-04-25T13:30:10.983Z</time></trkpt><trkpt lat="46.13812889465247" lon="9.845885395706665"><ele>942.5</ele><time>2026-04-25T13:30:11.984Z</time></trkpt><trkpt lat="46.138059681044325" lon="9.846019164870171"><ele>949.25</ele><time>2026-04-25T13:30:12.984Z</time></trkpt><trkpt lat="46.1379801686443" lon="9.846141091229535"><ele>956.0</ele><time>2026-04-25T13:30:13.984Z</time></trkpt><trkpt lat="46.13791218886393" lon="9.846270073409023"><ele>956.0</ele><time>2026-04-25T13:30:14.984Z</time></trkpt><trkpt lat="46.13783444675217" lon="9.846391488030893"><ele>956.0</ele><time>2026-04-25T13:30:15.984Z</time></trkpt><trkpt lat="46.1377595380103" lon="9.846522722860911"><ele>956.0</ele><time>2026-04-25T13:30:16.984Z</time></trkpt><trkpt lat="46.137671261367885" lon="9.846648477922797"><ele>956.0</ele><time>2026-04-25T13:30:17.984Z</time></trkpt><trkpt lat="46.13761030418368" lon="9.84677992679698"><ele>956.0000000000001</ele><time>2026-04-25T13:30:18.984Z</time></trkpt><trkpt lat="46.137562038004916" lon="9.84687531796312"><ele>956.0</ele><time>2026-04-25T13:30:19.984Z</time></trkpt><trkpt lat="46.13749099183639" lon="9.84698215618726"><ele>956.0</ele><time>2026-04-25T13:30:20.983Z</time></trkpt><trkpt lat="46.137435161960234" lon="9.847095619909672"><ele>956.0</ele><time>2026-04-25T13:30:21.983Z</time></trkpt><trkpt lat="46.137380868082126" lon="9.847168051224676"><ele>956.0000000000001</ele><time>2026-04-25T13:30:22.984Z</time></trkpt><trkpt lat="46.13732786618971" lon="9.84724633779653"><ele>956.0</ele><time>2026-04-25T13:30:23.983Z</time></trkpt><trkpt lat="46.13726592889369" lon="9.847289341383684"><ele>965.4</ele><time>2026-04-25T13:30:24.983Z</time></trkpt><trkpt lat="46.13719911270003" lon="9.84729357411512"><ele>974.8</ele><time>2026-04-25T13:30:26.983Z</time></trkpt><trkpt lat="46.13708586785566" lon="9.847141450821022"><ele>984.1999999999999</ele><time>2026-04-25T13:30:28.983Z</time></trkpt><trkpt lat="46.137007577140835" lon="9.847053406782358"><ele>993.5999999999999</ele><time>2026-04-25T13:30:29.983Z</time></trkpt><trkpt lat="46.13695089630568" lon="9.846940351469367"><ele>1003.0</ele><time>2026-04-25T13:30:31.983Z</time></trkpt><trkpt lat="46.13686262801573" lon="9.846905010194437"><ele>1002.9999999999999</ele><time>2026-04-25T13:30:34.983Z</time></trkpt><trkpt lat="46.136809736304556" lon="9.847001774829389"><ele>1003.0</ele><time>2026-04-25T13:30:36.983Z</time></trkpt><trkpt lat="46.13677055639554" lon="9.847125756537705"><ele>1003.0</ele><time>2026-04-25T13:30:37.983Z</time></trkpt><trkpt lat="46.13675383921989" lon="9.847234114114304"><ele>1003.0</ele><time>2026-04-25T13:30:38.983Z</time></trkpt><trkpt lat="46.13672037078797" lon="9.847334319527507"><ele>1002.9999999999999</ele><time>2026-04-25T13:30:39.983Z</time></trkpt><trkpt lat="46.13668411408527" lon="9.847440470226895"><ele>1003.0</ele><time>2026-04-25T13:30:40.983Z</time></trkpt><trkpt lat="46.13662038668828" lon="9.847541629402524"><ele>1003.1666666666666</ele><time>2026-04-25T13:30:41.983Z</time></trkpt><trkpt lat="46.13659070156863" lon="9.847640997117617"><ele>1003.3333333333333</ele><time>2026-04-25T13:30:42.983Z</time></trkpt><trkpt lat="46.13655199102855" lon="9.847725243017981"><ele>1003.5</ele><time>2026-04-25T13:30:43.983Z</time></trkpt><trkpt lat="46.136522500285274" lon="9.847838700788332"><ele>1003.6666666666667</ele><time>2026-04-25T13:30:44.983Z</time></trkpt><trkpt lat="46.13650770309382" lon="9.847931758393214"><ele>1003.8333333333334</ele><time>2026-04-25T13:30:45.983Z</time></trkpt><trkpt lat="46.13648338223635" lon="9.84808999299811"><ele>1004.0</ele><time>2026-04-25T13:30:47.983Z</time></trkpt><trkpt lat="46.136463699011756" lon="9.848237672433035"><ele>1015.2</ele><time>2026-04-25T13:30:48.983Z</time></trkpt><trkpt lat="46.13646477076923" lon="9.848375892635081"><ele>1026.4</ele><time>2026-04-25T13:30:49.983Z</time></trkpt><trkpt lat="46.13645628695227" lon="9.848519557325043"><ele>1037.6</ele><time>2026-04-25T13:30:50.983Z</time></trkpt><trkpt lat="46.136436144378536" lon="9.848625127579226"><ele>1048.8</ele><time>2026-04-25T13:30:51.983Z</time></trkpt><trkpt lat="46.13636602016104" lon="9.8487404279771"><ele>1060.0</ele><time>2026-04-25T13:30:52.983Z</time></trkpt><trkpt lat="46.136315532862234" lon="9.848865614854503"><ele>1060.0</ele><time>2026-04-25T13:30:53.983Z</time></trkpt><trkpt lat="46.136263369237206" lon="9.849040496161232"><ele>1060.0</ele><time>2026-04-25T13:30:54.983Z</time></trkpt><trkpt lat="46.13624197247899" lon="9.849172712260053"><ele>1060.0</ele><time>2026-04-25T13:30:55.983Z</time></trkpt><trkpt lat="46.136190803405434" lon="9.84932891122264"><ele>1060.0</ele><time>2026-04-25T13:30:56.983Z</time></trkpt><trkpt lat="46.136128791181086" lon="9.849490966000282"><ele>1058.75</ele><time>2026-04-25T13:30:57.983Z</time></trkpt><trkpt lat="46.13608573097803" lon="9.849665365159993"><ele>1057.5</ele><time>2026-04-25T13:30:58.983Z</time></trkpt><trkpt lat="46.13601233122393" lon="9.84980939824919"><ele>1056.25</ele><time>2026-04-25T13:30:59.983Z</time></trkpt><trkpt lat="46.135976309608445" lon="9.849936808137578"><ele>1055.0</ele><time>2026-04-25T13:31:00.983Z</time></trkpt><trkpt lat="46.13591997307633" lon="9.850066020304707"><ele>1052.8333333333335</ele><time>2026-04-25T13:31:01.983Z</time></trkpt><trkpt lat="46.13588596719346" lon="9.850171098621344"><ele>1050.6666666666667</ele><time>2026-04-25T13:31:02.983Z</time></trkpt><trkpt lat="46.1358723044764" lon="9.850280138047438"><ele>1048.5</ele><time>2026-04-25T13:31:03.983Z</time></trkpt><trkpt lat="46.13585544761141" lon="9.850394137885946"><ele>1046.3333333333333</ele><time>2026-04-25T13:31:04.983Z</time></trkpt><trkpt lat="46.13580894206803" lon="9.850470430950608"><ele>1044.1666666666665</ele><time>2026-04-25T13:31:05.983Z</time></trkpt><trkpt lat="46.135764530489396" lon="9.850552422082385"><ele>1042.0</ele><time>2026-04-25T13:31:06.983Z</time></trkpt><trkpt lat="46.13571400040813" lon="9.85068023704839"><ele>1043.6666666666665</ele><time>2026-04-25T13:31:07.983Z</time></trkpt><trkpt lat="46.135598384882236" lon="9.850767419404137"><ele>1045.3333333333333</ele><time>2026-04-25T13:31:08.983Z</time></trkpt><trkpt lat="46.13556294638458" lon="9.850876783872883"><ele>1047.0</ele><time>2026-04-25T13:31:09.983Z</time></trkpt><trkpt lat="46.135505710697984" lon="9.850948808267331"><ele>1048.6666666666667</ele><time>2026-04-25T13:31:10.983Z</time></trkpt><trkpt lat="46.13546499823601" lon="9.851044441470695"><ele>1050.3333333333335</ele><time>2026-04-25T13:31:11.983Z</time></trkpt><trkpt lat="46.135402160245235" lon="9.85107881232337"><ele>1052.0</ele><time>2026-04-25T13:31:12.983Z</time></trkpt><trkpt lat="46.13532647940639" lon="9.851140054841055"><ele>1052.0</ele><time>2026-04-25T13:31:13.983Z</time></trkpt><trkpt lat="46.135240001666894" lon="9.851200852377316"><ele>1052.0</ele><time>2026-04-25T13:31:14.983Z</time></trkpt><trkpt lat="46.13515264943992" lon="9.851240714364176"><ele>1052.0</ele><time>2026-04-25T13:31:15.983Z</time></trkpt><trkpt lat="46.135057611847486" lon="9.851218013549849"><ele>1052.0</ele><time>2026-04-25T13:31:16.983Z</time></trkpt><trkpt lat="46.13497998437701" lon="9.851267667365386"><ele>1052.0</ele><time>2026-04-25T13:31:17.983Z</time></trkpt><trkpt lat="46.13491365246782" lon="9.851322593788428"><ele>1052.0</ele><time>2026-04-25T13:31:18.983Z</time></trkpt><trkpt lat="46.134824222033544" lon="9.851376096735002"><ele>1058.4</ele><time>2026-04-25T13:31:19.983Z</time></trkpt><trkpt lat="46.134731146405535" lon="9.851403900093421"><ele>1064.8000000000002</ele><time>2026-04-25T13:31:20.983Z</time></trkpt><trkpt lat="46.13463747854938" lon="9.851408440328147"><ele>1071.2</ele><time>2026-04-25T13:31:21.983Z</time></trkpt><trkpt lat="46.13453032934188" lon="9.851250849967975"><ele>1077.6000000000001</ele><time>2026-04-25T13:31:23.983Z</time></trkpt><trkpt lat="46.1344665126505" lon="9.851250863888799"><ele>1084.0</ele><time>2026-04-25T13:31:24.983Z</time></trkpt><trkpt lat="46.13439483214408" lon="9.851230640251925"><ele>1084.0</ele><time>2026-04-25T13:31:25.983Z</time></trkpt><trkpt lat="46.13430669971877" lon="9.851188196047053"><ele>1084.0</ele><time>2026-04-25T13:31:26.983Z</time></trkpt><trkpt lat="46.134237115203106" lon="9.851148973945548"><ele>1084.0</ele><time>2026-04-25T13:31:27.983Z</time></trkpt><trkpt lat="46.13413529394656" lon="9.851166655326262"><ele>1084.0</ele><time>2026-04-25T13:31:28.983Z</time></trkpt><trkpt lat="46.134021056688646" lon="9.851162918584775"><ele>1084.0</ele><time>2026-04-25T13:31:29.983Z</time></trkpt><trkpt lat="46.13395159208662" lon="9.851171639544505"><ele>1091.3333333333333</ele><time>2026-04-25T13:31:30.983Z</time></trkpt><trkpt lat="46.1338780509558" lon="9.851226352352512"><ele>1098.6666666666665</ele><time>2026-04-25T13:31:31.983Z</time></trkpt><trkpt lat="46.133817157801325" lon="9.851280742171829"><ele>1106.0</ele><time>2026-04-25T13:31:32.983Z</time></trkpt><trkpt lat="46.13375841169096" lon="9.851402277992811"><ele>1113.3333333333333</ele><time>2026-04-25T13:31:33.983Z</time></trkpt><trkpt lat="46.13370140353978" lon="9.851464229308451"><ele>1120.6666666666667</ele><time>2026-04-25T13:31:34.983Z</time></trkpt><trkpt lat="46.13364597635181" lon="9.851513129884177"><ele>1128.0</ele><time>2026-04-25T13:31:35.983Z</time></trkpt><trkpt lat="46.13355660296366" lon="9.85159833197499"><ele>1128.0</ele><time>2026-04-25T13:31:37.983Z</time></trkpt><trkpt lat="46.13344465706616" lon="9.851659524061708"><ele>1128.0</ele><time>2026-04-25T13:31:39.983Z</time></trkpt><trkpt lat="46.13336738519102" lon="9.851722182401279"><ele>1128.0</ele><time>2026-04-25T13:31:45.983Z</time></trkpt><trkpt lat="46.13330818286194" lon="9.851778300451981"><ele>1128.0</ele><time>2026-04-25T13:31:46.983Z</time></trkpt><trkpt lat="46.1332150180224" lon="9.851911700673663"><ele>1128.0</ele><time>2026-04-25T13:31:48.983Z</time></trkpt><trkpt lat="46.13313907750288" lon="9.851891746120085"><ele>1132.8</ele><time>2026-04-25T13:31:50.983Z</time></trkpt><trkpt lat="46.13303718444412" lon="9.851830728270311"><ele>1137.6</ele><time>2026-04-25T13:31:52.983Z</time></trkpt><trkpt lat="46.13304987685072" lon="9.851652280789978"><ele>1142.4</ele><time>2026-04-25T13:31:55.983Z</time></trkpt><trkpt lat="46.133038650250384" lon="9.851539040568385"><ele>1147.2</ele><time>2026-04-25T13:31:56.983Z</time></trkpt><trkpt lat="46.13301231227401" lon="9.851395845223243"><ele>1152.0</ele><time>2026-04-25T13:31:58.983Z</time></trkpt><trkpt lat="46.13301804483549" lon="9.851260425852951"><ele>1152.0</ele><time>2026-04-25T13:32:00.983Z</time></trkpt><trkpt lat="46.133030588605756" lon="9.85116474816932"><ele>1152.0</ele><time>2026-04-25T13:32:02.128Z</time></trkpt><trkpt lat="46.13305477799599" lon="9.851014778743728"><ele>1152.0</ele><time>2026-04-25T13:32:04.127Z</time></trkpt><trkpt lat="46.13309564907806" lon="9.850917340810488"><ele>1152.0</ele><time>2026-04-25T13:32:05.983Z</time></trkpt><trkpt lat="46.133194359795745" lon="9.850871717826415"><ele>1152.0</ele><time>2026-04-25T13:32:06.983Z</time></trkpt><trkpt lat="46.13325925144871" lon="9.850727090206751"><ele>1152.0</ele><time>2026-04-25T13:32:08.983Z</time></trkpt><trkpt lat="46.13323819723537" lon="9.85060559758791"><ele>1152.0</ele><time>2026-04-25T13:32:10.983Z</time></trkpt><trkpt lat="46.13322590170989" lon="9.850489282534587"><ele>1152.0</ele><time>2026-04-25T13:32:12.983Z</time></trkpt><trkpt lat="46.133247109563925" lon="9.850386006261441"><ele>1152.0</ele><time>2026-04-25T13:32:14.983Z</time></trkpt><trkpt lat="46.133286965856115" lon="9.85031539121606"><ele>1152.0</ele><time>2026-04-25T13:32:17.983Z</time></trkpt><trkpt lat="46.133387859805694" lon="9.85018950408813"><ele>1152.0</ele><time>2026-04-25T13:32:19.983Z</time></trkpt><trkpt lat="46.133412759665916" lon="9.850053154852727"><ele>1156.3333333333333</ele><time>2026-04-25T13:32:21.983Z</time></trkpt><trkpt lat="46.133438819287335" lon="9.84995278841919"><ele>1160.6666666666667</ele><time>2026-04-25T13:32:22.984Z</time></trkpt><trkpt lat="46.133459059468244" lon="9.849860992956948"><ele>1165.0</ele><time>2026-04-25T13:32:23.983Z</time></trkpt><trkpt lat="46.133434294781964" lon="9.849734240243325"><ele>1169.3333333333335</ele><time>2026-04-25T13:32:25.983Z</time></trkpt><trkpt lat="46.13341874607423" lon="9.849623714189713"><ele>1173.6666666666667</ele><time>2026-04-25T13:32:27.983Z</time></trkpt><trkpt lat="46.13348150512425" lon="9.849541797624722"><ele>1178.0</ele><time>2026-04-25T13:32:29.983Z</time></trkpt><trkpt lat="46.13345451334525" lon="9.849449622705016"><ele>1178.0</ele><time>2026-04-25T13:32:32.983Z</time></trkpt><trkpt lat="46.133392446662" lon="9.84937530806372"><ele>1178.0</ele><time>2026-04-25T13:32:34.983Z</time></trkpt><trkpt lat="46.133418473770384" lon="9.849232778780332"><ele>1178.0</ele><time>2026-04-25T13:32:36.983Z</time></trkpt><trkpt lat="46.13343888586035" lon="9.849075337072316"><ele>1178.0</ele><time>2026-04-25T13:32:38.983Z</time></trkpt><trkpt lat="46.1334789205777" lon="9.848934368451138"><ele>1178.0</ele><time>2026-04-25T13:32:40.983Z</time></trkpt><trkpt lat="46.133505078003296" lon="9.848837478910541"><ele>1180.5</ele><time>2026-04-25T13:32:42.983Z</time></trkpt><trkpt lat="46.133432444432536" lon="9.848780227788996"><ele>1183.0</ele><time>2026-04-25T13:32:44.983Z</time></trkpt><trkpt lat="46.13345661115369" lon="9.848608246034843"><ele>1185.5</ele><time>2026-04-25T13:32:46.983Z</time></trkpt><trkpt lat="46.13351421419057" lon="9.84850646111047"><ele>1188.0</ele><time>2026-04-25T13:32:47.983Z</time></trkpt><trkpt lat="46.13353244104952" lon="9.848415642078987"><ele>1190.5</ele><time>2026-04-25T13:32:48.983Z</time></trkpt><trkpt lat="46.1335505077813" lon="9.848303226504873"><ele>1193.0</ele><time>2026-04-25T13:32:50.983Z</time></trkpt><trkpt lat="46.13354917150864" lon="9.848182261213998"><ele>1196.0</ele><time>2026-04-25T13:32:53.983Z</time></trkpt><trkpt lat="46.133547541391195" lon="9.848081027565849"><ele>1199.0</ele><time>2026-04-25T13:33:15.983Z</time></trkpt><trkpt lat="46.133578930203875" lon="9.847914900111055"><ele>1202.0</ele><time>2026-04-25T13:33:17.983Z</time></trkpt><trkpt lat="46.13358420197687" lon="9.84778491735827"><ele>1205.0</ele><time>2026-04-25T13:33:18.983Z</time></trkpt><trkpt lat="46.13360355449708" lon="9.847631811455857"><ele>1208.0</ele><time>2026-04-25T13:33:19.983Z</time></trkpt><trkpt lat="46.13361621009829" lon="9.847528086403154"><ele>1211.5</ele><time>2026-04-25T13:33:20.983Z</time></trkpt><trkpt lat="46.13363335532632" lon="9.847401352818324"><ele>1215.0</ele><time>2026-04-25T13:33:21.983Z</time></trkpt><trkpt lat="46.133657401768275" lon="9.847284121298058"><ele>1218.5</ele><time>2026-04-25T13:33:22.983Z</time></trkpt><trkpt lat="46.13367790971713" lon="9.847178110986585"><ele>1222.0</ele><time>2026-04-25T13:33:23.983Z</time></trkpt><trkpt lat="46.133701545697704" lon="9.847071108098591"><ele>1225.5</ele><time>2026-04-25T13:33:24.983Z</time></trkpt><trkpt lat="46.13375640053635" lon="9.846959730568413"><ele>1229.0</ele><time>2026-04-25T13:33:25.983Z</time></trkpt><trkpt lat="46.1338203702788" lon="9.846879594236242"><ele>1229.0</ele><time>2026-04-25T13:33:26.983Z</time></trkpt><trkpt lat="46.13388398639703" lon="9.846805597809336"><ele>1229.0</ele><time>2026-04-25T13:33:27.983Z</time></trkpt><trkpt lat="46.13398365975095" lon="9.846811962092513"><ele>1229.0</ele><time>2026-04-25T13:33:29.983Z</time></trkpt><trkpt lat="46.13394153531716" lon="9.846734984193816"><ele>1229.0</ele><time>2026-04-25T13:33:32.983Z</time></trkpt><trkpt lat="46.13392284048244" lon="9.84661729996747"><ele>1229.0</ele><time>2026-04-25T13:33:35.983Z</time></trkpt><trkpt lat="46.133916824747395" lon="9.846500798702422"><ele>1229.0</ele><time>2026-04-25T13:33:37.983Z</time></trkpt><trkpt lat="46.133934190508995" lon="9.846396950430883"><ele>1233.4</ele><time>2026-04-25T13:33:40.983Z</time></trkpt><trkpt lat="46.13389805183015" lon="9.846221371448706"><ele>1237.8000000000002</ele><time>2026-04-25T13:33:43.983Z</time></trkpt><trkpt lat="46.13385958736102" lon="9.846108781606912"><ele>1242.1999999999998</ele><time>2026-04-25T13:33:46.983Z</time></trkpt><trkpt lat="46.13383643960271" lon="9.846005082753479"><ele>1246.6</ele><time>2026-04-25T13:33:48.983Z</time></trkpt><trkpt lat="46.13379736478275" lon="9.845887250419675"><ele>1251.0</ele><time>2026-04-25T13:33:50.983Z</time></trkpt><trkpt lat="46.13381774519507" lon="9.845784222121353"><ele>1252.8333333333333</ele><time>2026-04-25T13:33:52.983Z</time></trkpt><trkpt lat="46.1338234804352" lon="9.845677097140968"><ele>1254.6666666666667</ele><time>2026-04-25T13:33:54.983Z</time></trkpt><trkpt lat="46.133797150644696" lon="9.845571170796712"><ele>1256.5</ele><time>2026-04-25T13:33:56.983Z</time></trkpt><trkpt lat="46.13378011961694" lon="9.845463171552142"><ele>1258.3333333333335</ele><time>2026-04-25T13:34:00.983Z</time></trkpt><trkpt lat="46.13374841110251" lon="9.84537344018035"><ele>1260.1666666666667</ele><time>2026-04-25T13:34:02.983Z</time></trkpt><trkpt lat="46.13380387072742" lon="9.845322731892905"><ele>1262.0</ele><time>2026-04-25T13:34:13.983Z</time></trkpt><trkpt lat="46.133709880532464" lon="9.845295525201037"><ele>1262.0</ele><time>2026-04-25T13:34:29.983Z</time></trkpt><trkpt lat="46.13368719668982" lon="9.845208430073932"><ele>1262.0</ele><time>2026-04-25T13:34:32.983Z</time></trkpt><trkpt lat="46.13362565971376" lon="9.84516716322692"><ele>1262.0</ele><time>2026-04-25T13:34:34.983Z</time></trkpt><trkpt lat="46.13356789531489" lon="9.845097656205862"><ele>1262.0</ele><time>2026-04-25T13:34:37.982Z</time></trkpt><trkpt lat="46.13347681892217" lon="9.845154397146082"><ele>1262.0</ele><time>2026-04-25T13:34:40.982Z</time></trkpt><trkpt lat="46.13343164008283" lon="9.845221871161062"><ele>1262.0</ele><time>2026-04-25T13:34:42.982Z</time></trkpt><trkpt lat="46.133422624520044" lon="9.845354132194357"><ele>1262.0</ele><time>2026-04-25T13:34:47.982Z</time></trkpt><trkpt lat="46.13340919662926" lon="9.8454430108356"><ele>1262.0</ele><time>2026-04-25T13:34:49.982Z</time></trkpt><trkpt lat="46.13338405677928" lon="9.845552911689529"><ele>1262.0</ele><time>2026-04-25T13:34:51.982Z</time></trkpt><trkpt lat="46.13330412775216" lon="9.845614655933742"><ele>1262.0</ele><time>2026-04-25T13:35:03.982Z</time></trkpt><trkpt lat="46.13325580187948" lon="9.845708235092541"><ele>1262.0</ele><time>2026-04-25T13:35:06.982Z</time></trkpt><trkpt lat="46.13318780674889" lon="9.845789426549143"><ele>1262.0</ele><time>2026-04-25T13:35:08.982Z</time></trkpt><trkpt lat="46.13310707227326" lon="9.845775503554618"><ele>1268.1666666666667</ele><time>2026-04-25T13:35:12.982Z</time></trkpt><trkpt lat="46.13304361715709" lon="9.845837994478114"><ele>1274.3333333333335</ele><time>2026-04-25T13:35:14.982Z</time></trkpt><trkpt lat="46.13297583470385" lon="9.845865743940745"><ele>1280.5</ele><time>2026-04-25T13:35:16.982Z</time></trkpt><trkpt lat="46.132918652503214" lon="9.845936067175192"><ele>1286.6666666666667</ele><time>2026-04-25T13:35:18.982Z</time></trkpt><trkpt lat="46.13288436601538" lon="9.84581414446984"><ele>1292.8333333333333</ele><time>2026-04-25T13:35:22.982Z</time></trkpt><trkpt lat="46.132834231098734" lon="9.845736196196496"><ele>1299.0</ele><time>2026-04-25T13:35:28.982Z</time></trkpt><trkpt lat="46.13275746557338" lon="9.845705750581088"><ele>1299.0</ele><time>2026-04-25T13:35:36.982Z</time></trkpt><trkpt lat="46.132723740016225" lon="9.845573426774564"><ele>1299.0</ele><time>2026-04-25T13:35:39.982Z</time></trkpt><trkpt lat="46.132727322746135" lon="9.845481546990221"><ele>1299.0</ele><time>2026-04-25T13:35:40.982Z</time></trkpt><trkpt lat="46.13275549206716" lon="9.845347639721922"><ele>1299.0</ele><time>2026-04-25T13:35:42.982Z</time></trkpt><trkpt lat="46.13275188878613" lon="9.845226408669507"><ele>1299.0</ele><time>2026-04-25T13:35:50.982Z</time></trkpt><trkpt lat="46.132694101516606" lon="9.845113379022612"><ele>1299.0</ele><time>2026-04-25T13:35:53.982Z</time></trkpt><trkpt lat="46.1326227494235" lon="9.845070248219676"><ele>1299.0</ele><time>2026-04-25T13:35:55.982Z</time></trkpt><trkpt lat="46.13256194356451" lon="9.845143294334237"><ele>1299.0</ele><time>2026-04-25T13:36:11.982Z</time></trkpt><trkpt lat="46.13258516323121" lon="9.8452427507916"><ele>1299.0</ele><time>2026-04-25T13:36:19.982Z</time></trkpt><trkpt lat="46.132568631216195" lon="9.845343651268314"><ele>1299.0</ele><time>2026-04-25T13:36:22.982Z</time></trkpt><trkpt lat="46.13250395754058" lon="9.845425997789262"><ele>1299.0</ele><time>2026-04-25T13:36:26.982Z</time></trkpt><trkpt lat="46.13243061104104" lon="9.84542571611639"><ele>1299.0</ele><time>2026-04-25T13:36:30.982Z</time></trkpt><trkpt lat="46.13234330044608" lon="9.845397945168624"><ele>1306.6</ele><time>2026-04-25T13:36:33.982Z</time></trkpt><trkpt lat="46.13225692139388" lon="9.845386293460704"><ele>1314.2</ele><time>2026-04-25T13:36:35.983Z</time></trkpt><trkpt lat="46.132254844511245" lon="9.845567176312036"><ele>1321.8</ele><time>2026-04-25T13:36:36.983Z</time></trkpt><trkpt lat="46.132169829283455" lon="9.845598248788573"><ele>1329.3999999999999</ele><time>2026-04-25T13:36:41.983Z</time></trkpt><trkpt lat="46.13207131596595" lon="9.845612711701706"><ele>1337.0</ele><time>2026-04-25T13:36:45.983Z</time></trkpt><trkpt lat="46.13199216590515" lon="9.845545829226863"><ele>1337.0</ele><time>2026-04-25T13:36:50.983Z</time></trkpt><trkpt lat="46.13192913081536" lon="9.845536146381994"><ele>1337.0</ele><time>2026-04-25T13:36:57.983Z</time></trkpt><trkpt lat="46.131863916074714" lon="9.84574811185363"><ele>1337.0</ele><time>2026-04-25T13:37:05.983Z</time></trkpt><trkpt lat="46.131715402794754" lon="9.845748906328073"><ele>1337.0</ele><time>2026-04-25T13:37:14.983Z</time></trkpt><trkpt lat="46.131694174817376" lon="9.845843168172674"><ele>1337.0</ele><time>2026-04-25T13:37:22.983Z</time></trkpt><trkpt lat="46.13167910395334" lon="9.845955893046375"><ele>1338.1666666666667</ele><time>2026-04-25T13:37:27.983Z</time></trkpt><trkpt lat="46.13171692241659" lon="9.84604543175758"><ele>1339.3333333333335</ele><time>2026-04-25T13:37:30.983Z</time></trkpt><trkpt lat="46.131644022597015" lon="9.846046123286715"><ele>1340.5</ele><time>2026-04-25T13:37:32.983Z</time></trkpt><trkpt lat="46.131550656558744" lon="9.846128721720989"><ele>1341.6666666666667</ele><time>2026-04-25T13:37:34.983Z</time></trkpt><trkpt lat="46.131498652157546" lon="9.846218933858687"><ele>1342.8333333333333</ele><time>2026-04-25T13:37:37.983Z</time></trkpt><trkpt lat="46.13143470510107" lon="9.846213220736793"><ele>1344.0</ele><time>2026-04-25T13:37:39.983Z</time></trkpt><trkpt lat="46.13137955409158" lon="9.846264978190417"><ele>1348.5</ele><time>2026-04-25T13:37:41.983Z</time></trkpt><trkpt lat="46.13131165062271" lon="9.846333258050532"><ele>1353.0</ele><time>2026-04-25T13:37:44.983Z</time></trkpt><trkpt lat="46.131237587038626" lon="9.846383323555967"><ele>1357.5</ele><time>2026-04-25T13:37:47.983Z</time></trkpt><trkpt lat="46.131188400790066" lon="9.84647206131924"><ele>1362.0</ele><time>2026-04-25T13:37:50.983Z</time></trkpt><trkpt lat="46.13112541793476" lon="9.846499006248994"><ele>1366.5</ele><time>2026-04-25T13:37:52.983Z</time></trkpt><trkpt lat="46.13104551104424" lon="9.846516853009357"><ele>1371.0</ele><time>2026-04-25T13:37:57.983Z</time></trkpt><trkpt lat="46.130946096535425" lon="9.846551956272961"><ele>1371.0</ele><time>2026-04-25T13:38:21.982Z</time></trkpt><trkpt lat="46.130865535386356" lon="9.846490533561647"><ele>1371.0</ele><time>2026-04-25T13:38:35.983Z</time></trkpt><trkpt lat="46.13079536210369" lon="9.846454606127807"><ele>1371.0</ele><time>2026-04-25T13:38:38.983Z</time></trkpt><trkpt lat="46.130742338201784" lon="9.846506851814935"><ele>1371.0</ele><time>2026-04-25T13:38:40.982Z</time></trkpt><trkpt lat="46.13066861541809" lon="9.84654680395108"><ele>1371.0</ele><time>2026-04-25T13:38:43.982Z</time></trkpt><trkpt lat="46.130608880680825" lon="9.846582630155053"><ele>1371.0</ele><time>2026-04-25T13:38:45.982Z</time></trkpt><trkpt lat="46.13057433686531" lon="9.84667768079381"><ele>1371.0</ele><time>2026-04-25T13:38:47.983Z</time></trkpt><trkpt lat="46.13049838382622" lon="9.84674405575854"><ele>1373.3333333333333</ele><time>2026-04-25T13:38:50.983Z</time></trkpt><trkpt lat="46.130413649089085" lon="9.846769459943838"><ele>1375.6666666666667</ele><time>2026-04-25T13:38:58.982Z</time></trkpt><trkpt lat="46.13033572620272" lon="9.846851581589886"><ele>1378.0</ele><time>2026-04-25T13:39:01.982Z</time></trkpt><trkpt lat="46.130298395095345" lon="9.846933373770339"><ele>1380.3333333333335</ele><time>2026-04-25T13:39:02.982Z</time></trkpt><trkpt lat="46.13027858677222" lon="9.847047728359733"><ele>1382.6666666666667</ele><time>2026-04-25T13:39:03.982Z</time></trkpt><trkpt lat="46.13025687987777" lon="9.847171240864938"><ele>1385.0</ele><time>2026-04-25T13:39:04.982Z</time></trkpt><trkpt lat="46.13023640724503" lon="9.84726548079322"><ele>1387.4285714285713</ele><time>2026-04-25T13:39:05.982Z</time></trkpt><trkpt lat="46.13020833094329" lon="9.84737082273971"><ele>1389.857142857143</ele><time>2026-04-25T13:39:07.982Z</time></trkpt><trkpt lat="46.130182411290626" lon="9.847471531955158"><ele>1392.2857142857142</ele><time>2026-04-25T13:39:10.982Z</time></trkpt><trkpt lat="46.13012744954449" lon="9.84755261620657"><ele>1394.7142857142858</ele><time>2026-04-25T13:39:12.982Z</time></trkpt><trkpt lat="46.130058729892696" lon="9.84757551275865"><ele>1397.142857142857</ele><time>2026-04-25T13:39:17.982Z</time></trkpt><trkpt lat="46.129978393878766" lon="9.84758482462987"><ele>1399.5714285714287</ele><time>2026-04-25T13:39:19.982Z</time></trkpt><trkpt lat="46.129945944509764" lon="9.847664695795926"><ele>1402.0</ele><time>2026-04-25T13:39:32.982Z</time></trkpt><trkpt lat="46.129900749806964" lon="9.847763887520944"><ele>1408.3333333333333</ele><time>2026-04-25T13:39:35.982Z</time></trkpt><trkpt lat="46.129873181620184" lon="9.847850377298089"><ele>1414.6666666666665</ele><time>2026-04-25T13:39:39.982Z</time></trkpt><trkpt lat="46.129857444735094" lon="9.847966577025415"><ele>1421.0</ele><time>2026-04-25T13:39:43.982Z</time></trkpt><trkpt lat="46.12980101381503" lon="9.848066976486939"><ele>1427.3333333333333</ele><time>2026-04-25T13:39:45.982Z</time></trkpt><trkpt lat="46.129760388391304" lon="9.848138681113957"><ele>1433.6666666666667</ele><time>2026-04-25T13:39:49.982Z</time></trkpt><trkpt lat="46.12967692169522" lon="9.848083048036225"><ele>1440.0</ele><time>2026-04-25T13:39:53.982Z</time></trkpt><trkpt lat="46.129600016627656" lon="9.848110405837135"><ele>1440.0</ele><time>2026-04-25T13:39:59.982Z</time></trkpt><trkpt lat="46.12952436142969" lon="9.848207317009702"><ele>1440.0</ele><time>2026-04-25T13:40:01.982Z</time></trkpt><trkpt lat="46.12949349547249" lon="9.848122848487105"><ele>1440.0</ele><time>2026-04-25T13:40:03.982Z</time></trkpt><trkpt lat="46.12943090406962" lon="9.848170038781653"><ele>1440.0</ele><time>2026-04-25T13:40:14.982Z</time></trkpt><trkpt lat="46.12942126365479" lon="9.848300660071972"><ele>1440.0</ele><time>2026-04-25T13:40:19.982Z</time></trkpt><trkpt lat="46.129477258905126" lon="9.848345306054963"><ele>1440.0</ele><time>2026-04-25T13:40:20.982Z</time></trkpt><trkpt lat="46.12941627153916" lon="9.848087665416458"><ele>1440.0</ele><time>2026-04-25T13:40:24.982Z</time></trkpt><trkpt lat="46.129408621952926" lon="9.847943802578865"><ele>1440.0</ele><time>2026-04-25T13:40:26.982Z</time></trkpt><trkpt lat="46.12938864465733" lon="9.84782369108589"><ele>1440.0</ele><time>2026-04-25T13:40:27.982Z</time></trkpt><trkpt lat="46.12934001743907" lon="9.847756257974208"><ele>1440.0</ele><time>2026-04-25T13:40:28.982Z</time></trkpt><trkpt lat="46.12927962043525" lon="9.847701883780003"><ele>1440.0</ele><time>2026-04-25T13:40:38.982Z</time></trkpt><trkpt lat="46.129283940746056" lon="9.847884670171196"><ele>1440.0</ele><time>2026-04-25T13:40:44.982Z</time></trkpt><trkpt lat="46.12927053121008" lon="9.84797348230508"><ele>1440.0</ele><time>2026-04-25T13:40:45.982Z</time></trkpt><trkpt lat="46.129312646351316" lon="9.84805679001651"><ele>1440.0</ele><time>2026-04-25T13:40:48.982Z</time></trkpt><trkpt lat="46.1293149381401" lon="9.84816405562699"><ele>1440.0</ele><time>2026-04-25T13:40:54.981Z</time></trkpt><trkpt lat="46.129296774380364" lon="9.847990078000121"><ele>1440.0</ele><time>2026-04-25T13:41:01.981Z</time></trkpt><trkpt lat="46.12928197353478" lon="9.847885920304504"><ele>1440.0</ele><time>2026-04-25T13:41:03.981Z</time></trkpt><trkpt lat="46.12929029622673" lon="9.84775392769063"><ele>1440.0</ele><time>2026-04-25T13:42:36.981Z</time></trkpt><trkpt lat="46.12926686114534" lon="9.847646682820965"><ele>1440.0</ele><time>2026-04-25T13:42:38.981Z</time></trkpt><trkpt lat="46.129218786565616" lon="9.84757392728232"><ele>1440.0</ele><time>2026-04-25T13:42:42.981Z</time></trkpt><trkpt lat="46.12915054513865" lon="9.847543192298788"><ele>1440.0</ele><time>2026-04-25T13:42:43.981Z</time></trkpt><trkpt lat="46.12901933700218" lon="9.847437364954917"><ele>1440.0</ele><time>2026-04-25T13:42:45.981Z</time></trkpt><trkpt lat="46.12891301862905" lon="9.84736076929753"><ele>1443.8333333333333</ele><time>2026-04-25T13:42:46.982Z</time></trkpt><trkpt lat="46.12881249511129" lon="9.847294353000223"><ele>1447.6666666666667</ele><time>2026-04-25T13:42:47.982Z</time></trkpt><trkpt lat="46.12874462999437" lon="9.847338983141881"><ele>1451.5</ele><time>2026-04-25T13:42:49.982Z</time></trkpt><trkpt lat="46.12868432403985" lon="9.847305590698225"><ele>1455.3333333333335</ele><time>2026-04-25T13:42:51.982Z</time></trkpt><trkpt lat="46.12861403265241" lon="9.847248912546458"><ele>1459.1666666666667</ele><time>2026-04-25T13:42:53.981Z</time></trkpt><trkpt lat="46.12857637285321" lon="9.847127653332226"><ele>1463.0</ele><time>2026-04-25T13:42:55.982Z</time></trkpt><trkpt lat="46.12855645171992" lon="9.847008139626787"><ele>1463.0</ele><time>2026-04-25T13:42:56.982Z</time></trkpt><trkpt lat="46.128531137720955" lon="9.846898834332446"><ele>1463.0</ele><time>2026-04-25T13:42:57.982Z</time></trkpt><trkpt lat="46.12847674040781" lon="9.846802050461374"><ele>1463.0</ele><time>2026-04-25T13:42:58.981Z</time></trkpt><trkpt lat="46.1284180435568" lon="9.846710362626778"><ele>1463.0</ele><time>2026-04-25T13:42:59.981Z</time></trkpt><trkpt lat="46.128351654292935" lon="9.84666696860218"><ele>1463.0</ele><time>2026-04-25T13:43:00.981Z</time></trkpt><trkpt lat="46.12828286146006" lon="9.846607185412116"><ele>1463.0</ele><time>2026-04-25T13:43:01.981Z</time></trkpt><trkpt lat="46.12817531826014" lon="9.84655016878137"><ele>1464.5</ele><time>2026-04-25T13:43:03.981Z</time></trkpt><trkpt lat="46.12808992011076" lon="9.84646630550516"><ele>1466.0</ele><time>2026-04-25T13:43:05.981Z</time></trkpt><trkpt lat="46.12799856031545" lon="9.846411249272977"><ele>1467.5</ele><time>2026-04-25T13:43:09.981Z</time></trkpt><trkpt lat="46.12791824775266" lon="9.846383961130313"><ele>1469.0</ele><time>2026-04-25T13:43:11.981Z</time></trkpt><trkpt lat="46.12786331029491" lon="9.846319240313795"><ele>1470.5</ele><time>2026-04-25T13:43:12.981Z</time></trkpt><trkpt lat="46.127818658795455" lon="9.846251590104856"><ele>1472.0</ele><time>2026-04-25T13:43:13.981Z</time></trkpt><trkpt lat="46.12771853290728" lon="9.846180169124551"><ele>1472.0</ele><time>2026-04-25T13:43:15.981Z</time></trkpt><trkpt lat="46.127663781519445" lon="9.846086485700773"><ele>1472.0</ele><time>2026-04-25T13:43:16.981Z</time></trkpt><trkpt lat="46.12760492931262" lon="9.845979522890257"><ele>1472.0</ele><time>2026-04-25T13:43:17.981Z</time></trkpt><trkpt lat="46.1275333113214" lon="9.845921743360641"><ele>1472.0</ele><time>2026-04-25T13:43:18.981Z</time></trkpt><trkpt lat="46.12744951637759" lon="9.845876013404453"><ele>1472.0</ele><time>2026-04-25T13:43:19.981Z</time></trkpt><trkpt lat="46.127350869731806" lon="9.845876831555161"><ele>1469.6666666666667</ele><time>2026-04-25T13:43:20.981Z</time></trkpt><trkpt lat="46.12727079778199" lon="9.845904903004708"><ele>1467.3333333333335</ele><time>2026-04-25T13:43:21.981Z</time></trkpt><trkpt lat="46.12718848327801" lon="9.845926405917"><ele>1465.0</ele><time>2026-04-25T13:43:22.981Z</time></trkpt><trkpt lat="46.12708757467128" lon="9.845908999536201"><ele>1462.6666666666667</ele><time>2026-04-25T13:43:23.981Z</time></trkpt><trkpt lat="46.1270116419857" lon="9.845847390572963"><ele>1460.3333333333333</ele><time>2026-04-25T13:43:24.981Z</time></trkpt><trkpt lat="46.12692520331618" lon="9.845809829938696"><ele>1458.0</ele><time>2026-04-25T13:43:25.981Z</time></trkpt><trkpt lat="46.126861039820845" lon="9.845742488670428"><ele>1458.0</ele><time>2026-04-25T13:43:26.981Z</time></trkpt><trkpt lat="46.126799966896776" lon="9.845684840950303"><ele>1458.0</ele><time>2026-04-25T13:43:27.981Z</time></trkpt><trkpt lat="46.1267063122067" lon="9.845718736916671"><ele>1458.0</ele><time>2026-04-25T13:43:29.981Z</time></trkpt><trkpt lat="46.126626979027556" lon="9.84572973146289"><ele>1458.0</ele><time>2026-04-25T13:43:30.981Z</time></trkpt><trkpt lat="46.1265550595082" lon="9.84573276682384"><ele>1458.0</ele><time>2026-04-25T13:43:31.981Z</time></trkpt><trkpt lat="46.12648306826446" lon="9.845777468194354"><ele>1458.0</ele><time>2026-04-25T13:43:32.981Z</time></trkpt><trkpt lat="46.12639754856911" lon="9.845820381484907"><ele>1457.6666666666667</ele><time>2026-04-25T13:43:33.981Z</time></trkpt><trkpt lat="46.12632941394177" lon="9.845870972798636"><ele>1457.3333333333333</ele><time>2026-04-25T13:43:34.981Z</time></trkpt><trkpt lat="46.12626915946104" lon="9.845898037443673"><ele>1457.0</ele><time>2026-04-25T13:43:35.981Z</time></trkpt><trkpt lat="46.126197841445794" lon="9.845956513668995"><ele>1456.6666666666665</ele><time>2026-04-25T13:43:36.981Z</time></trkpt><trkpt lat="46.12611391774179" lon="9.846003714834781"><ele>1456.3333333333333</ele><time>2026-04-25T13:43:37.981Z</time></trkpt><trkpt lat="46.12604094374899" lon="9.846051192928922"><ele>1456.0</ele><time>2026-04-25T13:43:38.981Z</time></trkpt><trkpt lat="46.125968162722586" lon="9.846101943895102"><ele>1462.0</ele><time>2026-04-25T13:43:39.981Z</time></trkpt><trkpt lat="46.125904524585565" lon="9.846163699973008"><ele>1468.0</ele><time>2026-04-25T13:43:40.981Z</time></trkpt><trkpt lat="46.125838412335156" lon="9.846215961336574"><ele>1474.0</ele><time>2026-04-25T13:43:42.121Z</time></trkpt><trkpt lat="46.12576956639074" lon="9.846284799145105"><ele>1480.0</ele><time>2026-04-25T13:43:43.151Z</time></trkpt><trkpt lat="46.125702539838" lon="9.846341313648411"><ele>1486.0</ele><time>2026-04-25T13:43:44.121Z</time></trkpt><trkpt lat="46.12563184678603" lon="9.84639955333559"><ele>1492.0</ele><time>2026-04-25T13:43:45.122Z</time></trkpt><trkpt lat="46.12556194199048" lon="9.84646172833911"><ele>1496.0</ele><time>2026-04-25T13:43:46.121Z</time></trkpt><trkpt lat="46.12463784200458" lon="9.846763755662192"><ele>1496.0</ele><time>2026-04-25T13:43:55.124Z</time></trkpt><trkpt lat="46.124536513759566" lon="9.8466540122827"><ele>1496.0</ele><time>2026-04-25T13:43:56.981Z</time></trkpt><trkpt lat="46.1244562580115" lon="9.84667217103045"><ele>1496.0</ele><time>2026-04-25T13:44:00.981Z</time></trkpt><trkpt lat="46.124570052773194" lon="9.846738799696286"><ele>1496.0</ele><time>2026-04-25T13:44:08.981Z</time></trkpt><trkpt lat="46.124623749938" lon="9.846796500807324"><ele>1496.0</ele><time>2026-04-25T13:44:11.981Z</time></trkpt><trkpt lat="46.124736020395616" lon="9.846811160773202"><ele>1503.1999999999998</ele><time>2026-04-25T13:44:14.981Z</time></trkpt><trkpt lat="46.124692078298494" lon="9.846878225197592"><ele>1510.3999999999999</ele><time>2026-04-25T13:44:19.981Z</time></trkpt><trkpt lat="46.124745765030426" lon="9.846980224457347"><ele>1517.6</ele><time>2026-04-25T13:44:24.981Z</time></trkpt><trkpt lat="46.1246812586398" lon="9.847078485746401"><ele>1524.8</ele><time>2026-04-25T13:44:33.121Z</time></trkpt><trkpt lat="46.12481449176711" lon="9.847228700979588"><ele>1532.0</ele><time>2026-04-25T13:44:35.98Z</time></trkpt><trkpt lat="46.12485385955489" lon="9.847316460057678"><ele>1532.25</ele><time>2026-04-25T13:44:36.98Z</time></trkpt><trkpt lat="46.12490502591171" lon="9.847403296771937"><ele>1532.5</ele><time>2026-04-25T13:44:38.98Z</time></trkpt><trkpt lat="46.12503123305522" lon="9.847535224412995"><ele>1532.75</ele><time>2026-04-25T13:44:43.98Z</time></trkpt><trkpt lat="46.12509551270387" lon="9.847569138254947"><ele>1533.0</ele><time>2026-04-25T13:44:45.98Z</time></trkpt><trkpt lat="46.12525958537909" lon="9.847619832287531"><ele>1540.4</ele><time>2026-04-25T13:44:57.981Z</time></trkpt><trkpt lat="46.125333546448424" lon="9.847671565503761"><ele>1547.8000000000002</ele><time>2026-04-25T13:44:59.981Z</time></trkpt><trkpt lat="46.12546431156023" lon="9.847705659031018"><ele>1555.2</ele><time>2026-04-25T13:45:05.981Z</time></trkpt><trkpt lat="46.12554040239105" lon="9.847740171648873"><ele>1562.6</ele><time>2026-04-25T13:45:08.981Z</time></trkpt><trkpt lat="46.12568076174435" lon="9.84778218254602"><ele>1570.0</ele><time>2026-04-25T13:45:10.981Z</time></trkpt><trkpt lat="46.12575279706543" lon="9.847841340363903"><ele>1570.0</ele><time>2026-04-25T13:45:12.981Z</time></trkpt><trkpt lat="46.12581963171857" lon="9.847862000462849"><ele>1570.0</ele><time>2026-04-25T13:45:13.981Z</time></trkpt><trkpt lat="46.12594761562703" lon="9.847909701058798"><ele>1570.0</ele><time>2026-04-25T13:45:15.981Z</time></trkpt><trkpt lat="46.126011701975266" lon="9.847980659733153"><ele>1570.0</ele><time>2026-04-25T13:45:17.981Z</time></trkpt><trkpt lat="46.12602094853772" lon="9.848096259131008"><ele>1570.0</ele><time>2026-04-25T13:45:19.981Z</time></trkpt><trkpt lat="46.126030150329676" lon="9.848236327880246"><ele>1570.0000000000002</ele><time>2026-04-25T13:45:21.981Z</time></trkpt><trkpt lat="46.126055147419976" lon="9.848387133415818"><ele>1570.0</ele><time>2026-04-25T13:45:23.981Z</time></trkpt><trkpt lat="46.126017681518874" lon="9.84846310667107"><ele>1570.0</ele><time>2026-04-25T13:45:25.981Z</time></trkpt><trkpt lat="46.12595943176017" lon="9.848506371820404"><ele>1570.0</ele><time>2026-04-25T13:45:28.981Z</time></trkpt><trkpt lat="46.12587734485592" lon="9.848554364960794"><ele>1570.0000000000002</ele><time>2026-04-25T13:45:33.981Z</time></trkpt><trkpt lat="46.1258155158124" lon="9.84865428597819"><ele>1570.0</ele><time>2026-04-25T13:45:35.981Z</time></trkpt><trkpt lat="46.12576991044841" lon="9.848776108913135"><ele>1576.8333333333335</ele><time>2026-04-25T13:45:37.981Z</time></trkpt><trkpt lat="46.125720367914276" lon="9.848846781173652"><ele>1583.6666666666667</ele><time>2026-04-25T13:45:39.981Z</time></trkpt><trkpt lat="46.125638565488366" lon="9.848905012555328"><ele>1590.5</ele><time>2026-04-25T13:46:11.981Z</time></trkpt><trkpt lat="46.125568088140035" lon="9.848910728631749"><ele>1597.3333333333335</ele><time>2026-04-25T13:46:13.98Z</time></trkpt><trkpt lat="46.12549466303792" lon="9.848962331868748"><ele>1604.1666666666667</ele><time>2026-04-25T13:46:17.98Z</time></trkpt><trkpt lat="46.12544268882951" lon="9.84905834265127"><ele>1611.0</ele><time>2026-04-25T13:46:20.98Z</time></trkpt><trkpt lat="46.12535873356647" lon="9.849081769254049"><ele>1611.0</ele><time>2026-04-25T13:46:24.98Z</time></trkpt><trkpt lat="46.12528856309325" lon="9.84916728965453"><ele>1611.0</ele><time>2026-04-25T13:46:29.98Z</time></trkpt><trkpt lat="46.125222016224235" lon="9.84921066250872"><ele>1611.0</ele><time>2026-04-25T13:46:33.98Z</time></trkpt><trkpt lat="46.12515682739755" lon="9.849274558406748"><ele>1611.0</ele><time>2026-04-25T13:46:38.98Z</time></trkpt><trkpt lat="46.12508707503878" lon="9.849322657322695"><ele>1611.0</ele><time>2026-04-25T13:46:40.98Z</time></trkpt><trkpt lat="46.12504387095632" lon="9.849408040451435"><ele>1611.0</ele><time>2026-04-25T13:46:46.98Z</time></trkpt><trkpt lat="46.12512500479898" lon="9.849532577974745"><ele>1615.8333333333333</ele><time>2026-04-25T13:46:50.98Z</time></trkpt><trkpt lat="46.12512498208731" lon="9.849640723260093"><ele>1620.6666666666665</ele><time>2026-04-25T13:46:53.98Z</time></trkpt><trkpt lat="46.125091142214046" lon="9.849728180422606"><ele>1625.5</ele><time>2026-04-25T13:46:56.98Z</time></trkpt><trkpt lat="46.12504457325167" lon="9.849825544684096"><ele>1630.3333333333333</ele><time>2026-04-25T13:46:59.98Z</time></trkpt><trkpt lat="46.12502415962029" lon="9.849927859355853"><ele>1635.1666666666665</ele><time>2026-04-25T13:47:01.98Z</time></trkpt><trkpt lat="46.12503933453671" lon="9.850100014314048"><ele>1640.0</ele><time>2026-04-25T13:47:05.981Z</time></trkpt><trkpt lat="46.12498195456345" lon="9.850062442479603"><ele>1639.9999999999998</ele><time>2026-04-25T13:47:17.98Z</time></trkpt><trkpt lat="46.12491600825359" lon="9.850056798633991"><ele>1640.0</ele><time>2026-04-25T13:47:21.98Z</time></trkpt><trkpt lat="46.12485166508134" lon="9.850174169208037"><ele>1640.0</ele><time>2026-04-25T13:47:30.98Z</time></trkpt><trkpt lat="46.12482379954601" lon="9.850296597766285"><ele>1640.0</ele><time>2026-04-25T13:47:34.98Z</time></trkpt><trkpt lat="46.12485575158426" lon="9.85037921472211"><ele>1639.9999999999998</ele><time>2026-04-25T13:47:36.98Z</time></trkpt><trkpt lat="46.124792470158845" lon="9.850487116364105"><ele>1640.0</ele><time>2026-04-25T13:47:38.98Z</time></trkpt><trkpt lat="46.12471915247234" lon="9.850508333105909"><ele>1648.0</ele><time>2026-04-25T13:47:40.98Z</time></trkpt><trkpt lat="46.1246270528844" lon="9.850512122353498"><ele>1656.0</ele><time>2026-04-25T13:47:42.98Z</time></trkpt><trkpt lat="46.124549665286146" lon="9.850553726538172"><ele>1664.0</ele><time>2026-04-25T13:47:44.98Z</time></trkpt><trkpt lat="46.124486782288095" lon="9.850637888769533"><ele>1672.0</ele><time>2026-04-25T13:47:45.98Z</time></trkpt><trkpt lat="46.124424615062225" lon="9.850623567568741"><ele>1680.0</ele><time>2026-04-25T13:47:46.98Z</time></trkpt><trkpt lat="46.12433635090399" lon="9.850759527718473"><ele>1680.0</ele><time>2026-04-25T13:47:48.98Z</time></trkpt><trkpt lat="46.12442385806586" lon="9.85081254546676"><ele>1680.0</ele><time>2026-04-25T13:47:49.98Z</time></trkpt><trkpt lat="46.12436086772255" lon="9.850856513153525"><ele>1680.0</ele><time>2026-04-25T13:48:07.98Z</time></trkpt><trkpt lat="46.12433523186651" lon="9.850939796081487"><ele>1680.0</ele><time>2026-04-25T13:48:28.98Z</time></trkpt><trkpt lat="46.12441255210215" lon="9.850953522857525"><ele>1680.0</ele><time>2026-04-25T13:49:27.979Z</time></trkpt><trkpt lat="46.1243462773565" lon="9.850888601619703"><ele>1680.0</ele><time>2026-04-25T13:49:54.979Z</time></trkpt><trkpt lat="46.124424552244456" lon="9.850887300415302"><ele>1680.0</ele><time>2026-04-25T13:50:07.979Z</time></trkpt><trkpt lat="46.12448213815947" lon="9.85083753884983"><ele>1680.0</ele><time>2026-04-25T13:50:17.979Z</time></trkpt><trkpt lat="46.12436639367809" lon="9.850789747115499"><ele>1680.0</ele><time>2026-04-25T13:50:20.979Z</time></trkpt><trkpt lat="46.12434357334495" lon="9.850941271691608"><ele>1680.0</ele><time>2026-04-25T13:50:22.979Z</time></trkpt><trkpt lat="46.124274467624204" lon="9.850977532449248"><ele>1680.0</ele><time>2026-04-25T13:50:28.979Z</time></trkpt><trkpt lat="46.12420670638938" lon="9.851021949229239"><ele>1680.0</ele><time>2026-04-25T13:50:33.979Z</time></trkpt><trkpt lat="46.12415065629259" lon="9.851067544566316"><ele>1683.1666666666667</ele><time>2026-04-25T13:50:34.979Z</time></trkpt><trkpt lat="46.124089722353446" lon="9.85110585687424"><ele>1686.3333333333335</ele><time>2026-04-25T13:50:37.979Z</time></trkpt><trkpt lat="46.12405009682901" lon="9.851189481559517"><ele>1689.5</ele><time>2026-04-25T13:50:40.979Z</time></trkpt><trkpt lat="46.1239957103461" lon="9.851239433208503"><ele>1692.6666666666667</ele><time>2026-04-25T13:50:50.979Z</time></trkpt><trkpt lat="46.123946383077566" lon="9.851341855817346"><ele>1695.8333333333335</ele><time>2026-04-25T13:50:58.978Z</time></trkpt><trkpt lat="46.12384016525374" lon="9.85137014347687"><ele>1699.0</ele><time>2026-04-25T13:51:00.978Z</time></trkpt><trkpt lat="46.12377093723316" lon="9.851405327549372"><ele>1700.0</ele><time>2026-04-25T13:51:02.978Z</time></trkpt><trkpt lat="46.12369910241985" lon="9.851426323949191"><ele>1701.0</ele><time>2026-04-25T13:51:05.978Z</time></trkpt><trkpt lat="46.123601711446945" lon="9.851502543219762"><ele>1702.0</ele><time>2026-04-25T13:51:07.978Z</time></trkpt><trkpt lat="46.12354736483842" lon="9.851664936351874"><ele>1703.0</ele><time>2026-04-25T13:51:09.978Z</time></trkpt><trkpt lat="46.12346031765194" lon="9.851809500212736"><ele>1704.0</ele><time>2026-04-25T13:51:11.979Z</time></trkpt><trkpt lat="46.123428898802565" lon="9.851724686866163"><ele>1706.5</ele><time>2026-04-25T13:51:12.979Z</time></trkpt><trkpt lat="46.12338822783449" lon="9.851811985122605"><ele>1709.0</ele><time>2026-04-25T13:51:14.978Z</time></trkpt><trkpt lat="46.1233195464726" lon="9.851850294779876"><ele>1711.5</ele><time>2026-04-25T13:51:18.979Z</time></trkpt><trkpt lat="46.12324280485232" lon="9.851814983335457"><ele>1714.0</ele><time>2026-04-25T13:51:20.979Z</time></trkpt><trkpt lat="46.12317571937921" lon="9.851800383507122"><ele>1716.5</ele><time>2026-04-25T13:51:21.979Z</time></trkpt><trkpt lat="46.12311717477555" lon="9.851864700059727"><ele>1719.0</ele><time>2026-04-25T13:51:23.979Z</time></trkpt><trkpt lat="46.12301180399412" lon="9.851952636965349"><ele>1719.6666666666667</ele><time>2026-04-25T13:51:25.979Z</time></trkpt><trkpt lat="46.12297377240045" lon="9.852043828011404"><ele>1720.3333333333335</ele><time>2026-04-25T13:51:26.979Z</time></trkpt><trkpt lat="46.12292523518764" lon="9.852140773481585"><ele>1721.0</ele><time>2026-04-25T13:51:27.979Z</time></trkpt><trkpt lat="46.12287023000004" lon="9.852227782318996"><ele>1721.6666666666667</ele><time>2026-04-25T13:51:29.979Z</time></trkpt><trkpt lat="46.122800718539644" lon="9.852265439075609"><ele>1722.3333333333335</ele><time>2026-04-25T13:51:30.979Z</time></trkpt><trkpt lat="46.12271352736881" lon="9.852334187801562"><ele>1723.0</ele><time>2026-04-25T13:51:32.979Z</time></trkpt><trkpt lat="46.12263710049759" lon="9.852335547877775"><ele>1723.0</ele><time>2026-04-25T13:51:35.979Z</time></trkpt><trkpt lat="46.122584208156226" lon="9.852443681472716"><ele>1723.0000000000002</ele><time>2026-04-25T13:51:38.979Z</time></trkpt><trkpt lat="46.1225218717433" lon="9.852504402954715"><ele>1723.0000000000002</ele><time>2026-04-25T13:51:40.979Z</time></trkpt><trkpt lat="46.122439545235395" lon="9.852527679295493"><ele>1723.0</ele><time>2026-04-25T13:51:43.979Z</time></trkpt><trkpt lat="46.122320920350006" lon="9.852585049784615"><ele>1723.0</ele><time>2026-04-25T13:51:46.979Z</time></trkpt><trkpt lat="46.12223644412439" lon="9.85256121734236"><ele>1725.0</ele><time>2026-04-25T13:51:52.979Z</time></trkpt><trkpt lat="46.12212021103805" lon="9.852631725086239"><ele>1727.0000000000002</ele><time>2026-04-25T13:51:55.979Z</time></trkpt><trkpt lat="46.122060025813745" lon="9.852708183768383"><ele>1729.0000000000002</ele><time>2026-04-25T13:51:57.979Z</time></trkpt><trkpt lat="46.121950075859516" lon="9.852758566988825"><ele>1731.0</ele><time>2026-04-25T13:52:00.978Z</time></trkpt><trkpt lat="46.121886081941774" lon="9.852779314613478"><ele>1733.0</ele><time>2026-04-25T13:52:02.978Z</time></trkpt><trkpt lat="46.121828777279205" lon="9.852726899242704"><ele>1733.0</ele><time>2026-04-25T13:52:03.978Z</time></trkpt><trkpt lat="46.121760307600006" lon="9.852776670371753"><ele>1733.0000000000002</ele><time>2026-04-25T13:52:05.978Z</time></trkpt><trkpt lat="46.121693030546986" lon="9.852811879416784"><ele>1733.0000000000002</ele><time>2026-04-25T13:52:07.978Z</time></trkpt><trkpt lat="46.12162747755441" lon="9.852786118986737"><ele>1733.0</ele><time>2026-04-25T13:52:09.978Z</time></trkpt><trkpt lat="46.12144947107891" lon="9.852903031977018"><ele>1733.0</ele><time>2026-04-25T13:52:11.978Z</time></trkpt><trkpt lat="46.12134085895619" lon="9.852901998901295"><ele>1733.1666666666665</ele><time>2026-04-25T13:52:13.978Z</time></trkpt><trkpt lat="46.12127275810955" lon="9.852915859094473"><ele>1733.3333333333333</ele><time>2026-04-25T13:52:14.978Z</time></trkpt><trkpt lat="46.12120808952054" lon="9.852932141009394"><ele>1733.5</ele><time>2026-04-25T13:52:15.978Z</time></trkpt><trkpt lat="46.121098281169026" lon="9.852871887226112"><ele>1733.6666666666665</ele><time>2026-04-25T13:52:17.978Z</time></trkpt><trkpt lat="46.121033502394816" lon="9.85284355251647"><ele>1733.8333333333333</ele><time>2026-04-25T13:52:19.122Z</time></trkpt><trkpt lat="46.12093428556126" lon="9.852897872906558"><ele>1734.0</ele><time>2026-04-25T13:52:21.121Z</time></trkpt><trkpt lat="46.12095397028594" lon="9.852628729558976"><ele>1732.0</ele><time>2026-04-25T13:52:25.978Z</time></trkpt><trkpt lat="46.12085853453099" lon="9.852616328587404"><ele>1730.0</ele><time>2026-04-25T13:52:26.978Z</time></trkpt><trkpt lat="46.12076107847953" lon="9.852566607968424"><ele>1728.0</ele><time>2026-04-25T13:52:28.978Z</time></trkpt><trkpt lat="46.12071401523227" lon="9.852445989599934"><ele>1726.0</ele><time>2026-04-25T13:52:30.978Z</time></trkpt><trkpt lat="46.12065659289432" lon="9.852386793826712"><ele>1724.0</ele><time>2026-04-25T13:52:32.978Z</time></trkpt><trkpt lat="46.12061485535704" lon="9.85248346629018"><ele>1722.0</ele><time>2026-04-25T13:52:35.978Z</time></trkpt><trkpt lat="46.12058261328523" lon="9.852618861133095"><ele>1725.0</ele><time>2026-04-25T13:52:37.978Z</time></trkpt><trkpt lat="46.120534141611174" lon="9.852686080483519"><ele>1728.0</ele><time>2026-04-25T13:52:39.978Z</time></trkpt><trkpt lat="46.12046445354776" lon="9.852740418426706"><ele>1731.0</ele><time>2026-04-25T13:52:41.978Z</time></trkpt><trkpt lat="46.12039685728231" lon="9.852818044186451"><ele>1734.0</ele><time>2026-04-25T13:52:43.978Z</time></trkpt><trkpt lat="46.120376048481006" lon="9.852945560182686"><ele>1737.0</ele><time>2026-04-25T13:52:46.978Z</time></trkpt><trkpt lat="46.12034887941311" lon="9.85309875796562"><ele>1740.0</ele><time>2026-04-25T13:52:48.978Z</time></trkpt><trkpt lat="46.12031257212476" lon="9.853230811192608"><ele>1740.0</ele><time>2026-04-25T13:52:56.978Z</time></trkpt><trkpt lat="46.120329908528106" lon="9.853339714997075"><ele>1740.0</ele><time>2026-04-25T13:52:59.978Z</time></trkpt><trkpt lat="46.12033178110532" lon="9.853452144176646"><ele>1740.0</ele><time>2026-04-25T13:53:01.978Z</time></trkpt><trkpt lat="46.12025243045534" lon="9.853502359703175"><ele>1740.0</ele><time>2026-04-25T13:53:03.978Z</time></trkpt><trkpt lat="46.12019203032655" lon="9.853562698469897"><ele>1740.0</ele><time>2026-04-25T13:53:06.978Z</time></trkpt><trkpt lat="46.12004481967873" lon="9.853578028341323"><ele>1745.2</ele><time>2026-04-25T13:53:08.978Z</time></trkpt><trkpt lat="46.11994041105665" lon="9.853484065459076"><ele>1750.4</ele><time>2026-04-25T13:53:09.978Z</time></trkpt><trkpt lat="46.119884683310936" lon="9.85360279746772"><ele>1755.6</ele><time>2026-04-25T13:53:11.978Z</time></trkpt><trkpt lat="46.11979985392921" lon="9.853592346890707"><ele>1760.8</ele><time>2026-04-25T13:53:13.978Z</time></trkpt><trkpt lat="46.11972175609839" lon="9.85359862992451"><ele>1766.0</ele><time>2026-04-25T13:53:15.978Z</time></trkpt><trkpt lat="46.11969444714139" lon="9.853702263275332"><ele>1766.3333333333333</ele><time>2026-04-25T13:53:19.977Z</time></trkpt><trkpt lat="46.11962265937526" lon="9.853703563981888"><ele>1766.6666666666665</ele><time>2026-04-25T13:53:21.978Z</time></trkpt><trkpt lat="46.119519172893085" lon="9.853718698932699"><ele>1767.0</ele><time>2026-04-25T13:53:23.978Z</time></trkpt><trkpt lat="46.11942017061885" lon="9.853723087795926"><ele>1767.3333333333335</ele><time>2026-04-25T13:53:25.978Z</time></trkpt><trkpt lat="46.11941932868811" lon="9.853841064235258"><ele>1767.6666666666667</ele><time>2026-04-25T13:53:33.978Z</time></trkpt><trkpt lat="46.11936497145042" lon="9.853770899075075"><ele>1768.0</ele><time>2026-04-25T13:54:24.978Z</time></trkpt><trkpt lat="46.11929311797197" lon="9.853837948375604"><ele>1768.0000000000002</ele><time>2026-04-25T13:54:28.978Z</time></trkpt><trkpt lat="46.11922562558215" lon="9.853893435967777"><ele>1768.0</ele><time>2026-04-25T13:54:31.978Z</time></trkpt><trkpt lat="46.11916021089777" lon="9.853927771466712"><ele>1768.0</ele><time>2026-04-25T13:54:34.978Z</time></trkpt><trkpt lat="46.11906939623984" lon="9.853997696847397"><ele>1768.0</ele><time>2026-04-25T13:54:37.978Z</time></trkpt><trkpt lat="46.118981319568725" lon="9.854003174607323"><ele>1768.0000000000002</ele><time>2026-04-25T13:54:40.978Z</time></trkpt><trkpt lat="46.11890479238721" lon="9.854039538241413"><ele>1768.0</ele><time>2026-04-25T13:54:43.978Z</time></trkpt><trkpt lat="46.1188401955985" lon="9.85403884133098"><ele>1767.6666666666667</ele><time>2026-04-25T13:54:45.978Z</time></trkpt><trkpt lat="46.11877332174736" lon="9.854095447497679"><ele>1767.3333333333335</ele><time>2026-04-25T13:54:48.978Z</time></trkpt><trkpt lat="46.11870738016966" lon="9.854100887636402"><ele>1767.0</ele><time>2026-04-25T13:54:51.978Z</time></trkpt><trkpt lat="46.11862436600624" lon="9.854152777110672"><ele>1766.6666666666665</ele><time>2026-04-25T13:54:54.978Z</time></trkpt><trkpt lat="46.11856649915025" lon="9.85419003725559"><ele>1766.3333333333333</ele><time>2026-04-25T13:54:56.978Z</time></trkpt><trkpt lat="46.11850331028662" lon="9.854257182354463"><ele>1766.0</ele><time>2026-04-25T13:54:59.978Z</time></trkpt><trkpt lat="46.1184846329519" lon="9.854360105747833"><ele>1769.7142857142858</ele><time>2026-04-25T13:55:08.977Z</time></trkpt><trkpt lat="46.11845170226886" lon="9.854446664520085"><ele>1773.4285714285713</ele><time>2026-04-25T13:55:12.977Z</time></trkpt><trkpt lat="46.118500942850844" lon="9.854507933928947"><ele>1777.142857142857</ele><time>2026-04-25T13:55:18.977Z</time></trkpt><trkpt lat="46.11852009028184" lon="9.854615461311951"><ele>1780.857142857143</ele><time>2026-04-25T13:55:23.978Z</time></trkpt><trkpt lat="46.11844604717944" lon="9.854674560704147"><ele>1784.5714285714284</ele><time>2026-04-25T13:55:25.978Z</time></trkpt><trkpt lat="46.118386348522556" lon="9.85462183235634"><ele>1788.2857142857142</ele><time>2026-04-25T13:55:29.977Z</time></trkpt><trkpt lat="46.11832757752933" lon="9.85469121358129"><ele>1792.0</ele><time>2026-04-25T13:55:32.978Z</time></trkpt><trkpt lat="46.118332199928716" lon="9.854801628298693"><ele>1792.0</ele><time>2026-04-25T13:55:34.978Z</time></trkpt><trkpt lat="46.11837098282584" lon="9.854909765664646"><ele>1791.9999999999998</ele><time>2026-04-25T13:55:39.978Z</time></trkpt><trkpt lat="46.11833300998027" lon="9.855005969720903"><ele>1791.9999999999998</ele><time>2026-04-25T13:55:45.977Z</time></trkpt><trkpt lat="46.11824916118156" lon="9.854936844506394"><ele>1792.0</ele><time>2026-04-25T13:55:48.977Z</time></trkpt><trkpt lat="46.11807771698823" lon="9.854930584219424"><ele>1792.0</ele><time>2026-04-25T13:55:59.977Z</time></trkpt><trkpt lat="46.11802954922206" lon="9.854839613345739"><ele>1793.2857142857142</ele><time>2026-04-25T13:56:03.977Z</time></trkpt><trkpt lat="46.117947760232994" lon="9.854840438125377"><ele>1794.5714285714284</ele><time>2026-04-25T13:56:08.977Z</time></trkpt><trkpt lat="46.11788177812436" lon="9.85484672104329"><ele>1795.857142857143</ele><time>2026-04-25T13:56:10.977Z</time></trkpt><trkpt lat="46.11780942118756" lon="9.854880972457952"><ele>1797.142857142857</ele><time>2026-04-25T13:56:16.977Z</time></trkpt><trkpt lat="46.11773376701056" lon="9.854906332374721"><ele>1798.4285714285713</ele><time>2026-04-25T13:56:20.977Z</time></trkpt><trkpt lat="46.11767400231846" lon="9.854982056369105"><ele>1799.7142857142858</ele><time>2026-04-25T13:56:22.977Z</time></trkpt><trkpt lat="46.11760750615338" lon="9.8549699639551"><ele>1801.0</ele><time>2026-04-25T13:56:31.977Z</time></trkpt><trkpt lat="46.11753455625135" lon="9.854998105049416"><ele>1801.0</ele><time>2026-04-25T13:56:33.977Z</time></trkpt><trkpt lat="46.117484540425295" lon="9.854935990583492"><ele>1801.0</ele><time>2026-04-25T13:56:35.977Z</time></trkpt><trkpt lat="46.117416211479664" lon="9.854918645315761"><ele>1801.0</ele><time>2026-04-25T13:56:39.977Z</time></trkpt><trkpt lat="46.11735192187807" lon="9.854899153473003"><ele>1801.0</ele><time>2026-04-25T13:56:43.977Z</time></trkpt><trkpt lat="46.117286697830174" lon="9.854887383690453"><ele>1801.0</ele><time>2026-04-25T13:56:47.977Z</time></trkpt><trkpt lat="46.11722499085047" lon="9.854799772747437"><ele>1801.0</ele><time>2026-04-25T13:56:51.977Z</time></trkpt><trkpt lat="46.11714449626986" lon="9.854823016159408"><ele>1801.0</ele><time>2026-04-25T13:56:54.977Z</time></trkpt><trkpt lat="46.11708018514276" lon="9.854828028571283"><ele>1802.3333333333335</ele><time>2026-04-25T13:56:56.977Z</time></trkpt><trkpt lat="46.117017183616554" lon="9.8548394079557"><ele>1803.6666666666667</ele><time>2026-04-25T13:56:58.977Z</time></trkpt><trkpt lat="46.11694824440067" lon="9.854859965969835"><ele>1805.0</ele><time>2026-04-25T13:57:01.977Z</time></trkpt><trkpt lat="46.11686078097454" lon="9.854908951914844"><ele>1806.3333333333335</ele><time>2026-04-25T13:57:04.977Z</time></trkpt><trkpt lat="46.116776784718766" lon="9.85492522614315"><ele>1807.6666666666667</ele><time>2026-04-25T13:57:06.977Z</time></trkpt><trkpt lat="46.11671427746779" lon="9.854899863933433"><ele>1809.0</ele><time>2026-04-25T13:57:10.977Z</time></trkpt><trkpt lat="46.11662431930152" lon="9.854921728189312"><ele>1810.6</ele><time>2026-04-25T13:57:13.977Z</time></trkpt><trkpt lat="46.116509470354025" lon="9.85487764396427"><ele>1812.2</ele><time>2026-04-25T13:57:15.977Z</time></trkpt><trkpt lat="46.11637252143895" lon="9.854871810155919"><ele>1813.7999999999997</ele><time>2026-04-25T13:57:17.977Z</time></trkpt><trkpt lat="46.116309206274785" lon="9.854914957051925"><ele>1815.3999999999999</ele><time>2026-04-25T13:57:18.977Z</time></trkpt><trkpt lat="46.116211993430184" lon="9.854921856360187"><ele>1817.0</ele><time>2026-04-25T13:57:20.977Z</time></trkpt><trkpt lat="46.11613159893318" lon="9.854949542794781"><ele>1816.9999999999998</ele><time>2026-04-25T13:57:21.977Z</time></trkpt><trkpt lat="46.11606059060347" lon="9.854982893439876"><ele>1817.0</ele><time>2026-04-25T13:57:22.977Z</time></trkpt><trkpt lat="46.1159892567918" lon="9.85506160630261"><ele>1817.0</ele><time>2026-04-25T13:57:24.977Z</time></trkpt><trkpt lat="46.11589440888939" lon="9.854954374194563"><ele>1817.0</ele><time>2026-04-25T13:57:26.977Z</time></trkpt><trkpt lat="46.11582462761844" lon="9.855036556627361"><ele>1816.9999999999998</ele><time>2026-04-25T13:57:29.977Z</time></trkpt><trkpt lat="46.115756588903956" lon="9.855016175734352"><ele>1817.0</ele><time>2026-04-25T13:57:32.978Z</time></trkpt><trkpt lat="46.115658334438606" lon="9.854968890158963"><ele>1821.0</ele><time>2026-04-25T13:57:35.977Z</time></trkpt><trkpt lat="46.11558845889585" lon="9.854926861543339"><ele>1824.9999999999998</ele><time>2026-04-25T13:57:37.978Z</time></trkpt><trkpt lat="46.11548097911971" lon="9.854896369290806"><ele>1828.9999999999998</ele><time>2026-04-25T13:57:41.977Z</time></trkpt><trkpt lat="46.11542686606134" lon="9.854840869848337"><ele>1833.0</ele><time>2026-04-25T13:57:42.977Z</time></trkpt><trkpt lat="46.11527976413094" lon="9.854785519777097"><ele>1837.0</ele><time>2026-04-25T13:57:45.977Z</time></trkpt><trkpt lat="46.11521947098025" lon="9.854839022296213"><ele>1837.0000000000002</ele><time>2026-04-25T13:57:47.977Z</time></trkpt><trkpt lat="46.11515393108958" lon="9.854807133166931"><ele>1837.0</ele><time>2026-04-25T13:57:48.977Z</time></trkpt><trkpt lat="46.115080486981206" lon="9.854802951082906"><ele>1837.0</ele><time>2026-04-25T13:57:50.977Z</time></trkpt><trkpt lat="46.11501250448186" lon="9.854807752848142"><ele>1837.0</ele><time>2026-04-25T13:57:53.977Z</time></trkpt><trkpt lat="46.11495495235048" lon="9.854847647265027"><ele>1837.0000000000002</ele><time>2026-04-25T13:57:59.977Z</time></trkpt><trkpt lat="46.11498839437622" lon="9.854760810565178"><ele>1837.0</ele><time>2026-04-25T13:58:21.977Z</time></trkpt><trkpt lat="46.11489887590455" lon="9.854676639244577"><ele>1837.0000000000002</ele><time>2026-04-25T13:58:23.977Z</time></trkpt><trkpt lat="46.114954398780995" lon="9.854728221621107"><ele>1837.0</ele><time>2026-04-25T13:58:26.977Z</time></trkpt><trkpt lat="46.11504322719201" lon="9.854690038617779"><ele>1837.0</ele><time>2026-04-25T13:58:28.977Z</time></trkpt><trkpt lat="46.11495878173576" lon="9.854792829173427"><ele>1837.0</ele><time>2026-04-25T13:58:32.977Z</time></trkpt><trkpt lat="46.1149090966183" lon="9.854848598040553"><ele>1837.0000000000002</ele><time>2026-04-25T13:59:05.977Z</time></trkpt><trkpt lat="46.11498159263852" lon="9.854884448949488"><ele>1837.0</ele><time>2026-04-25T13:59:14.977Z</time></trkpt><trkpt lat="46.1149616033501" lon="9.854983924289646"><ele>1838.0000000000002</ele><time>2026-04-25T13:59:44.977Z</time></trkpt><trkpt lat="46.114893161946945" lon="9.854896225675137"><ele>1839.0</ele><time>2026-04-25T13:59:58.977Z</time></trkpt><trkpt lat="46.11481333169511" lon="9.854904803430154"><ele>1840.0</ele><time>2026-04-25T14:00:01.977Z</time></trkpt><trkpt lat="46.11473215710473" lon="9.854914763871527"><ele>1841.0</ele><time>2026-04-25T14:00:03.977Z</time></trkpt><trkpt lat="46.11464866095245" lon="9.854964094346427"><ele>1842.0000000000002</ele><time>2026-04-25T14:00:05.977Z</time></trkpt><trkpt lat="46.11458602512914" lon="9.85503924049555"><ele>1843.0</ele><time>2026-04-25T14:00:06.977Z</time></trkpt><trkpt lat="46.11452809646542" lon="9.855083149910774"><ele>1843.0000000000002</ele><time>2026-04-25T14:00:07.977Z</time></trkpt><trkpt lat="46.11445571147034" lon="9.85507370824034"><ele>1843.0</ele><time>2026-04-25T14:00:09.977Z</time></trkpt><trkpt lat="46.11439425577659" lon="9.855104592064754"><ele>1843.0</ele><time>2026-04-25T14:00:12.977Z</time></trkpt><trkpt lat="46.11431258452813" lon="9.855125822455086"><ele>1843.0</ele><time>2026-04-25T14:00:13.977Z</time></trkpt><trkpt lat="46.114219042409296" lon="9.855167959926098"><ele>1843.0000000000002</ele><time>2026-04-25T14:00:15.977Z</time></trkpt><trkpt lat="46.11411087612996" lon="9.855188435728135"><ele>1843.0</ele><time>2026-04-25T14:00:17.977Z</time></trkpt><trkpt lat="46.11401521925493" lon="9.85513726384139"><ele>1846.6666666666667</ele><time>2026-04-25T14:00:19.977Z</time></trkpt><trkpt lat="46.1139199071162" lon="9.855142483503965"><ele>1850.3333333333335</ele><time>2026-04-25T14:00:21.977Z</time></trkpt><trkpt lat="46.113862927969954" lon="9.855186722256681"><ele>1854.0</ele><time>2026-04-25T14:00:22.977Z</time></trkpt><trkpt lat="46.113800244938965" lon="9.855258798496173"><ele>1857.6666666666665</ele><time>2026-04-25T14:00:23.977Z</time></trkpt><trkpt lat="46.11372408807779" lon="9.855344317403995"><ele>1861.3333333333333</ele><time>2026-04-25T14:00:25.977Z</time></trkpt><trkpt lat="46.11365914493496" lon="9.8553889909622"><ele>1865.0</ele><time>2026-04-25T14:00:27.977Z</time></trkpt><trkpt lat="46.11356975494327" lon="9.855452931590436"><ele>1864.9999999999998</ele><time>2026-04-25T14:00:29.977Z</time></trkpt><trkpt lat="46.113525569394376" lon="9.855532565379892"><ele>1865.0</ele><time>2026-04-25T14:00:31.977Z</time></trkpt><trkpt lat="46.11345220344556" lon="9.855570190474767"><ele>1865.0</ele><time>2026-04-25T14:00:34.977Z</time></trkpt><trkpt lat="46.11338291342349" lon="9.855672413711561"><ele>1865.0</ele><time>2026-04-25T14:00:37.977Z</time></trkpt><trkpt lat="46.11334021664261" lon="9.855776527892628"><ele>1864.9999999999998</ele><time>2026-04-25T14:00:40.977Z</time></trkpt><trkpt lat="46.11329931166486" lon="9.855903098662521"><ele>1865.0</ele><time>2026-04-25T14:00:43.977Z</time></trkpt><trkpt lat="46.11328311512001" lon="9.856026988233955"><ele>1869.2</ele><time>2026-04-25T14:00:46.977Z</time></trkpt><trkpt lat="46.11326490054923" lon="9.856162787616242"><ele>1873.4</ele><time>2026-04-25T14:00:48.977Z</time></trkpt><trkpt lat="46.113188798827174" lon="9.85627846201268"><ele>1877.6</ele><time>2026-04-25T14:00:50.977Z</time></trkpt><trkpt lat="46.11313237333177" lon="9.856329423996042"><ele>1881.8</ele><time>2026-04-25T14:00:51.977Z</time></trkpt><trkpt lat="46.113078140857446" lon="9.85645325025654"><ele>1886.0</ele><time>2026-04-25T14:00:53.977Z</time></trkpt><trkpt lat="46.11302489801871" lon="9.856599139104363"><ele>1886.6666666666665</ele><time>2026-04-25T14:00:55.977Z</time></trkpt><trkpt lat="46.11299081280929" lon="9.856678497525772"><ele>1887.3333333333333</ele><time>2026-04-25T14:00:56.977Z</time></trkpt><trkpt lat="46.112905249110035" lon="9.85676100481452"><ele>1888.0</ele><time>2026-04-25T14:00:58.977Z</time></trkpt><trkpt lat="46.1128362100541" lon="9.856853186289548"><ele>1888.6666666666665</ele><time>2026-04-25T14:01:00.977Z</time></trkpt><trkpt lat="46.11278262192951" lon="9.856944701266771"><ele>1889.3333333333333</ele><time>2026-04-25T14:01:02.977Z</time></trkpt><trkpt lat="46.112721115051635" lon="9.857032953839054"><ele>1890.0</ele><time>2026-04-25T14:01:04.977Z</time></trkpt><trkpt lat="46.11266581975748" lon="9.857129276396199"><ele>1893.1666666666667</ele><time>2026-04-25T14:01:06.977Z</time></trkpt><trkpt lat="46.112606567265836" lon="9.857202029271829"><ele>1896.3333333333335</ele><time>2026-04-25T14:01:08.977Z</time></trkpt><trkpt lat="46.112551525996324" lon="9.857301489731451"><ele>1899.5</ele><time>2026-04-25T14:01:10.977Z</time></trkpt><trkpt lat="46.11249012464333" lon="9.857384104493198"><ele>1902.6666666666667</ele><time>2026-04-25T14:01:12.977Z</time></trkpt><trkpt lat="46.11243902997464" lon="9.857521592322048"><ele>1905.8333333333335</ele><time>2026-04-25T14:01:14.977Z</time></trkpt><trkpt lat="46.112383175638634" lon="9.857623290650304"><ele>1909.0</ele><time>2026-04-25T14:01:16.977Z</time></trkpt><trkpt lat="46.112307631995165" lon="9.857687943470308"><ele>1913.5714285714284</ele><time>2026-04-25T14:01:18.977Z</time></trkpt><trkpt lat="46.112237668790655" lon="9.857713415002774"><ele>1918.1428571428573</ele><time>2026-04-25T14:01:21.977Z</time></trkpt><trkpt lat="46.1121742073338" lon="9.857711173204747"><ele>1922.7142857142858</ele><time>2026-04-25T14:01:23.977Z</time></trkpt><trkpt lat="46.112096723755165" lon="9.857708753798402"><ele>1927.2857142857142</ele><time>2026-04-25T14:01:26.977Z</time></trkpt><trkpt lat="46.11203838654359" lon="9.857754949494732"><ele>1931.8571428571427</ele><time>2026-04-25T14:01:28.977Z</time></trkpt><trkpt lat="46.11198446809534" lon="9.857810684925438"><ele>1936.4285714285716</ele><time>2026-04-25T14:01:30.977Z</time></trkpt><trkpt lat="46.111916709067316" lon="9.857867894614227"><ele>1941.0</ele><time>2026-04-25T14:01:33.977Z</time></trkpt><trkpt lat="46.111863934182246" lon="9.857924260740884"><ele>1941.0</ele><time>2026-04-25T14:01:57.976Z</time></trkpt><trkpt lat="46.111809607312985" lon="9.858021661524365"><ele>1941.0</ele><time>2026-04-25T14:02:12.976Z</time></trkpt><trkpt lat="46.111789227778054" lon="9.858113688282446"><ele>1941.0</ele><time>2026-04-25T14:02:15.976Z</time></trkpt><trkpt lat="46.111766230642715" lon="9.858225202194431"><ele>1941.0</ele><time>2026-04-25T14:02:17.976Z</time></trkpt><trkpt lat="46.11175356650537" lon="9.85833433591272"><ele>1941.0</ele><time>2026-04-25T14:02:19.976Z</time></trkpt><trkpt lat="46.111744775817705" lon="9.858430251126673"><ele>1941.0</ele><time>2026-04-25T14:02:21.976Z</time></trkpt><trkpt lat="46.111706499522306" lon="9.858511842933954"><ele>1941.0</ele><time>2026-04-25T14:02:23.976Z</time></trkpt><trkpt lat="46.111797397761705" lon="9.858500027744364"><ele>1945.2857142857142</ele><time>2026-04-25T14:03:25.976Z</time></trkpt><trkpt lat="46.11172255306808" lon="9.85856146861722"><ele>1949.5714285714284</ele><time>2026-04-25T14:03:55.976Z</time></trkpt><trkpt lat="46.111747414827086" lon="9.858655815761677"><ele>1953.8571428571427</ele><time>2026-04-25T14:04:18.977Z</time></trkpt><trkpt lat="46.11172562750174" lon="9.858747751236695"><ele>1958.142857142857</ele><time>2026-04-25T14:05:01.976Z</time></trkpt><trkpt lat="46.11166369243174" lon="9.858833710000958"><ele>1962.428571428571</ele><time>2026-04-25T14:05:07.976Z</time></trkpt><trkpt lat="46.11160732822209" lon="9.858875761658998"><ele>1966.7142857142856</ele><time>2026-04-25T14:05:46.976Z</time></trkpt><trkpt lat="46.11167014924041" lon="9.858881937090004"><ele>1971.0</ele><time>2026-04-25T14:06:02.976Z</time></trkpt><trkpt lat="46.11171431814533" lon="9.8589565503533"><ele>1971.0</ele><time>2026-04-25T14:06:47.975Z</time></trkpt><trkpt lat="46.1117393296714" lon="9.859044563374207"><ele>1971.0</ele><time>2026-04-25T14:06:54.975Z</time></trkpt><trkpt lat="46.1116928939556" lon="9.85891534941891"><ele>1971.0</ele><time>2026-04-25T14:07:12.975Z</time></trkpt><trkpt lat="46.111754026702584" lon="9.858944586040499"><ele>1971.0</ele><time>2026-04-25T14:07:23.975Z</time></trkpt><trkpt lat="46.111671726072196" lon="9.859001055321416"><ele>1971.0</ele><time>2026-04-25T14:07:27.975Z</time></trkpt><trkpt lat="46.111623633117475" lon="9.859066644462327"><ele>1971.0</ele><time>2026-04-25T14:07:32.975Z</time></trkpt><trkpt lat="46.11156104914968" lon="9.859079642297266"><ele>1973.142857142857</ele><time>2026-04-25T14:08:00.975Z</time></trkpt><trkpt lat="46.11149167936492" lon="9.85909931297119"><ele>1975.2857142857142</ele><time>2026-04-25T14:08:02.975Z</time></trkpt><trkpt lat="46.11141588450801" lon="9.85912733310462"><ele>1977.4285714285713</ele><time>2026-04-25T14:08:06.976Z</time></trkpt><trkpt lat="46.11134066101397" lon="9.859187675562998"><ele>1979.5714285714284</ele><time>2026-04-25T14:08:08.975Z</time></trkpt><trkpt lat="46.11128613152419" lon="9.859237726449761"><ele>1981.7142857142858</ele><time>2026-04-25T14:08:09.975Z</time></trkpt><trkpt lat="46.11121645429731" lon="9.85925592281216"><ele>1983.8571428571427</ele><time>2026-04-25T14:08:11.976Z</time></trkpt><trkpt lat="46.11117657976189" lon="9.859183448740097"><ele>1986.0</ele><time>2026-04-25T14:08:19.976Z</time></trkpt><trkpt lat="46.111100737993766" lon="9.859146638396753"><ele>1986.0</ele><time>2026-04-25T14:08:22.976Z</time></trkpt><trkpt lat="46.111030920752775" lon="9.859096792089165"><ele>1986.0</ele><time>2026-04-25T14:08:24.976Z</time></trkpt><trkpt lat="46.11109171519915" lon="9.859136396842137"><ele>1986.0</ele><time>2026-04-25T14:09:44.975Z</time></trkpt><trkpt lat="46.11107650903929" lon="9.859018561940376"><ele>1986.0</ele><time>2026-04-25T14:10:39.974Z</time></trkpt><trkpt lat="46.1110661655787" lon="9.858926273116033"><ele>1986.0</ele><time>2026-04-25T14:10:44.974Z</time></trkpt><trkpt lat="46.11108120205382" lon="9.858834729031605"><ele>1986.0</ele><time>2026-04-25T14:10:51.974Z</time></trkpt><trkpt lat="46.111052074911015" lon="9.858746040806308"><ele>1986.0</ele><time>2026-04-25T14:10:57.974Z</time></trkpt><trkpt lat="46.11109908618446" lon="9.858818178815955"><ele>1986.0</ele><time>2026-04-25T14:11:55.974Z</time></trkpt><trkpt lat="46.11110963575782" lon="9.858915904161375"><ele>1986.0</ele><time>2026-04-25T14:12:01.974Z</time></trkpt><trkpt lat="46.11107613596367" lon="9.858992995710388"><ele>1986.0</ele><time>2026-04-25T14:12:09.974Z</time></trkpt><trkpt lat="46.11105926758581" lon="9.859081077632476"><ele>1986.0</ele><time>2026-04-25T14:12:21.973Z</time></trkpt><trkpt lat="46.111022996236585" lon="9.859157596448492"><ele>1986.0</ele><time>2026-04-25T14:12:35.973Z</time></trkpt><trkpt lat="46.11097539552436" lon="9.85909493585343"><ele>1986.0</ele><time>2026-04-25T14:13:28.972Z</time></trkpt><trkpt lat="46.11105444349382" lon="9.859114759740638"><ele>1986.0</ele><time>2026-04-25T14:13:38.972Z</time></trkpt><trkpt lat="46.111027596804774" lon="9.859220597221718"><ele>1986.0</ele><time>2026-04-25T14:14:38.973Z</time></trkpt><trkpt lat="46.110933479638256" lon="9.859241369462833"><ele>1986.0</ele><time>2026-04-25T14:14:41.973Z</time></trkpt><trkpt lat="46.11091501104994" lon="9.859359607196991"><ele>1986.0</ele><time>2026-04-25T14:14:44.973Z</time></trkpt><trkpt lat="46.11087543853623" lon="9.859450220801312"><ele>1986.0</ele><time>2026-04-25T14:15:02.973Z</time></trkpt><trkpt lat="46.11094509839044" lon="9.8594734101607"><ele>1986.0</ele><time>2026-04-25T14:15:13.973Z</time></trkpt><trkpt lat="46.11087251427963" lon="9.859519688260079"><ele>1986.0</ele><time>2026-04-25T14:15:18.972Z</time></trkpt><trkpt lat="46.11079866068786" lon="9.859546813312107"><ele>1990.5714285714284</ele><time>2026-04-25T14:15:49.972Z</time></trkpt><trkpt lat="46.11086649712653" lon="9.859534530490054"><ele>1995.1428571428573</ele><time>2026-04-25T14:17:14.972Z</time></trkpt><trkpt lat="46.11093221373543" lon="9.859526800547135"><ele>1999.7142857142858</ele><time>2026-04-25T14:17:29.972Z</time></trkpt><trkpt lat="46.11089094008523" lon="9.859630468128023"><ele>2004.2857142857142</ele><time>2026-04-25T14:18:18.972Z</time></trkpt><trkpt lat="46.11081613004799" lon="9.85963970987809"><ele>2008.8571428571427</ele><time>2026-04-25T14:19:27.971Z</time></trkpt><trkpt lat="46.110875654181974" lon="9.85960979729692"><ele>2013.4285714285716</ele><time>2026-04-25T14:20:13.971Z</time></trkpt><trkpt lat="46.11082189184165" lon="9.85955761239792"><ele>2018.0</ele><time>2026-04-25T14:20:33.971Z</time></trkpt><trkpt lat="46.110812780007635" lon="9.859651152605366"><ele>2017.9999999999998</ele><time>2026-04-25T14:21:04.971Z</time></trkpt><trkpt lat="46.11076930269947" lon="9.85972526567629"><ele>2018.0</ele><time>2026-04-25T14:22:09.971Z</time></trkpt><trkpt lat="46.11071055776086" lon="9.859670134311125"><ele>2018.0</ele><time>2026-04-25T14:22:27.971Z</time></trkpt><trkpt lat="46.11079341271496" lon="9.859671547645691"><ele>2018.0</ele><time>2026-04-25T14:22:38.97Z</time></trkpt><trkpt lat="46.11070869028339" lon="9.85965549507946"><ele>2017.9999999999998</ele><time>2026-04-25T14:22:50.971Z</time></trkpt><trkpt lat="46.1108139654391" lon="9.859736827544713"><ele>2018.0</ele><time>2026-04-25T14:23:02.97Z</time></trkpt><trkpt lat="46.11092624288825" lon="9.85974271072878"><ele>2018.0</ele><time>2026-04-25T14:23:15.97Z</time></trkpt><trkpt lat="46.11086312755448" lon="9.859700181731489"><ele>2018.0</ele><time>2026-04-25T14:23:48.97Z</time></trkpt><trkpt lat="46.110919006764384" lon="9.859747689281377"><ele>2018.0</ele><time>2026-04-25T14:24:00.97Z</time></trkpt><trkpt lat="46.11087165039323" lon="9.859656856089641"><ele>2018.0</ele><time>2026-04-25T14:24:22.97Z</time></trkpt><trkpt lat="46.11093358959444" lon="9.859683291812416"><ele>2018.0</ele><time>2026-04-25T14:25:43.969Z</time></trkpt><trkpt lat="46.11087209363049" lon="9.85972626963438"><ele>2018.0</ele><time>2026-04-25T14:26:12.969Z</time></trkpt><trkpt lat="46.11086645108254" lon="9.859617503687604"><ele>2018.0</ele><time>2026-04-25T14:28:25.968Z</time></trkpt><trkpt lat="46.11081076070275" lon="9.859725022575754"><ele>2018.0</ele><time>2026-04-25T14:28:41.968Z</time></trkpt><trkpt lat="46.11078778690838" lon="9.859632355974487"><ele>2018.0</ele><time>2026-04-25T14:30:34.967Z</time></trkpt><trkpt lat="46.11085411251595" lon="9.859610328439752"><ele>2018.0</ele><time>2026-04-25T14:32:13.967Z</time></trkpt><trkpt lat="46.11077264404573" lon="9.859636165127965"><ele>2018.0</ele><time>2026-04-25T14:32:36.967Z</time></trkpt><trkpt lat="46.110838663924866" lon="9.859634218258515"><ele>2018.0</ele><time>2026-04-25T14:33:04.966Z</time></trkpt><trkpt lat="46.11077187644873" lon="9.859663998543372"><ele>2018.0</ele><time>2026-04-25T14:33:37.967Z</time></trkpt><trkpt lat="46.11085808249094" lon="9.859659499079857"><ele>2018.0</ele><time>2026-04-25T14:37:38.964Z</time></trkpt><trkpt lat="46.110782228951095" lon="9.859640243607938"><ele>2018.0</ele><time>2026-04-25T14:37:59.963Z</time></trkpt><trkpt lat="46.1108094912014" lon="9.859737990653315"><ele>2018.0</ele><time>2026-04-25T14:38:29.963Z</time></trkpt><trkpt lat="46.11088132006946" lon="9.859725984575608"><ele>2018.0</ele><time>2026-04-25T14:38:48.963Z</time></trkpt><trkpt lat="46.11081990385485" lon="9.859754217195528"><ele>2018.0</ele><time>2026-04-25T14:39:51.96Z</time></trkpt><trkpt lat="46.11075401182514" lon="9.859772112907757"><ele>2018.0</ele><time>2026-04-25T14:40:08.96Z</time></trkpt><trkpt lat="46.11079177654558" lon="9.859691469140344"><ele>2018.0</ele><time>2026-04-25T14:41:17.96Z</time></trkpt><trkpt lat="46.11082019695993" lon="9.859582147942815"><ele>2018.0</ele><time>2026-04-25T14:44:42Z</time></trkpt><trkpt lat="46.11087530394118" lon="9.859501331135545"><ele>2017.9999999999998</ele><time>2026-04-25T14:45:11Z</time></trkpt><trkpt lat="46.11090911242708" lon="9.859419409070743"><ele>2018.0</ele><time>2026-04-25T14:45:17Z</time></trkpt><trkpt lat="46.110931597144926" lon="9.85933088872969"><ele>2018.0</ele><time>2026-04-25T14:45:21Z</time></trkpt><trkpt lat="46.11097524191966" lon="9.859254944592518"><ele>2018.0</ele><time>2026-04-25T14:45:25Z</time></trkpt><trkpt lat="46.111022379651324" lon="9.859194081153293"><ele>2017.9999999999998</ele><time>2026-04-25T14:45:27Z</time></trkpt><trkpt lat="46.11109165630636" lon="9.85907719766498"><ele>2018.0</ele><time>2026-04-25T14:45:29Z</time></trkpt><trkpt lat="46.11115923039162" lon="9.859145108459812"><ele>2012.6666666666665</ele><time>2026-04-25T14:46:28Z</time></trkpt><trkpt lat="46.1112348053812" lon="9.85912712737005"><ele>2007.3333333333333</ele><time>2026-04-25T14:46:30Z</time></trkpt><trkpt lat="46.111317591532874" lon="9.859147693162395"><ele>2002.0</ele><time>2026-04-25T14:46:34Z</time></trkpt><trkpt lat="46.11139847495076" lon="9.859134904407021"><ele>1996.6666666666665</ele><time>2026-04-25T14:46:37Z</time></trkpt><trkpt lat="46.11146495161322" lon="9.859058311115756"><ele>1991.3333333333333</ele><time>2026-04-25T14:46:40Z</time></trkpt><trkpt lat="46.11153755582768" lon="9.859011525514124"><ele>1986.0</ele><time>2026-04-25T14:46:43Z</time></trkpt><trkpt lat="46.111611845816775" lon="9.858980501619936"><ele>1983.5</ele><time>2026-04-25T14:46:46Z</time></trkpt><trkpt lat="46.1116728633003" lon="9.858905502169971"><ele>1981.0</ele><time>2026-04-25T14:46:49Z</time></trkpt><trkpt lat="46.11170535542753" lon="9.858810234219735"><ele>1978.5</ele><time>2026-04-25T14:46:52Z</time></trkpt><trkpt lat="46.111735941747035" lon="9.858711915569238"><ele>1976.0</ele><time>2026-04-25T14:46:56Z</time></trkpt><trkpt lat="46.11175532637917" lon="9.858599556600252"><ele>1973.5</ele><time>2026-04-25T14:47:00Z</time></trkpt><trkpt lat="46.11176942211105" lon="9.858481399443436"><ele>1971.0</ele><time>2026-04-25T14:47:04Z</time></trkpt><trkpt lat="46.11181568194598" lon="9.858416225401003"><ele>1965.0</ele><time>2026-04-25T14:47:07Z</time></trkpt><trkpt lat="46.11184451450955" lon="9.858303937515482"><ele>1959.0</ele><time>2026-04-25T14:47:10Z</time></trkpt><trkpt lat="46.111920256885625" lon="9.858122823948618"><ele>1953.0</ele><time>2026-04-25T14:47:13Z</time></trkpt><trkpt lat="46.11193870766056" lon="9.85803098346915"><ele>1947.0</ele><time>2026-04-25T14:47:14Z</time></trkpt><trkpt lat="46.1119574490557" lon="9.857936388099416"><ele>1941.0</ele><time>2026-04-25T14:47:15Z</time></trkpt><trkpt lat="46.11199473654971" lon="9.85778735603257"><ele>1941.0</ele><time>2026-04-25T14:47:17Z</time></trkpt><trkpt lat="46.1120646283816" lon="9.857763045244942"><ele>1941.0</ele><time>2026-04-25T14:47:19Z</time></trkpt><trkpt lat="46.11212223201214" lon="9.857820429562835"><ele>1941.0</ele><time>2026-04-25T14:47:21Z</time></trkpt><trkpt lat="46.11218013436241" lon="9.857909630371873"><ele>1941.0</ele><time>2026-04-25T14:47:23Z</time></trkpt><trkpt lat="46.112289569893896" lon="9.858002800379246"><ele>1941.0</ele><time>2026-04-25T14:47:25Z</time></trkpt><trkpt lat="46.1123785625583" lon="9.858013203931298"><ele>1941.0</ele><time>2026-04-25T14:47:26Z</time></trkpt><trkpt lat="46.11246151756863" lon="9.857997239291041"><ele>1941.0</ele><time>2026-04-25T14:47:27Z</time></trkpt><trkpt lat="46.11253434880028" lon="9.857998642074028"><ele>1941.0</ele><time>2026-04-25T14:47:28Z</time></trkpt><trkpt lat="46.11260152408903" lon="9.857989878918893"><ele>1941.0</ele><time>2026-04-25T14:47:29Z</time></trkpt><trkpt lat="46.11269941759478" lon="9.857984873956935"><ele>1941.0</ele><time>2026-04-25T14:47:31Z</time></trkpt><trkpt lat="46.11281393172961" lon="9.857975736874355"><ele>1941.0</ele><time>2026-04-25T14:47:33Z</time></trkpt><trkpt lat="46.11288551876255" lon="9.857966571724644"><ele>1941.0</ele><time>2026-04-25T14:47:34Z</time></trkpt><trkpt lat="46.112948084306446" lon="9.85794556113098"><ele>1941.0</ele><time>2026-04-25T14:47:35Z</time></trkpt><trkpt lat="46.113022039035926" lon="9.857901656725184"><ele>1941.0</ele><time>2026-04-25T14:47:36Z</time></trkpt><trkpt lat="46.11309756912899" lon="9.85787796291366"><ele>1941.0</ele><time>2026-04-25T14:47:37Z</time></trkpt><trkpt lat="46.113174768930726" lon="9.857856332921788"><ele>1941.0</ele><time>2026-04-25T14:47:38Z</time></trkpt><trkpt lat="46.11325580010315" lon="9.857835222930488"><ele>1941.0</ele><time>2026-04-25T14:47:39Z</time></trkpt><trkpt lat="46.113374143568336" lon="9.857813401772823"><ele>1941.0</ele><time>2026-04-25T14:47:40Z</time></trkpt><trkpt lat="46.113499607546494" lon="9.857788579384275"><ele>1945.25</ele><time>2026-04-25T14:47:41Z</time></trkpt><trkpt lat="46.1136280846591" lon="9.857777490531175"><ele>1949.5</ele><time>2026-04-25T14:47:42Z</time></trkpt><trkpt lat="46.11374294396601" lon="9.857801869324746"><ele>1953.75</ele><time>2026-04-25T14:47:43Z</time></trkpt><trkpt lat="46.11385863609189" lon="9.857824044179598"><ele>1958.0</ele><time>2026-04-25T14:47:44Z</time></trkpt><trkpt lat="46.113972353976386" lon="9.857885151291525"><ele>1958.0</ele><time>2026-04-25T14:47:45Z</time></trkpt><trkpt lat="46.11406963842045" lon="9.857936466733449"><ele>1958.0</ele><time>2026-04-25T14:47:46Z</time></trkpt><trkpt lat="46.11417926756143" lon="9.858012206095914"><ele>1958.0</ele><time>2026-04-25T14:47:47Z</time></trkpt><trkpt lat="46.11429139229549" lon="9.858072557186528"><ele>1958.0</ele><time>2026-04-25T14:47:48Z</time></trkpt><trkpt lat="46.11440070482504" lon="9.858128268424041"><ele>1958.2</ele><time>2026-04-25T14:47:49Z</time></trkpt><trkpt lat="46.11450798339096" lon="9.858185702735712"><ele>1958.4</ele><time>2026-04-25T14:47:50Z</time></trkpt><trkpt lat="46.114600455775744" lon="9.858235391656457"><ele>1958.6000000000001</ele><time>2026-04-25T14:47:51Z</time></trkpt><trkpt lat="46.11467923534464" lon="9.858299507147576"><ele>1958.8000000000002</ele><time>2026-04-25T14:47:52Z</time></trkpt><trkpt lat="46.1147580023364" lon="9.858359783658347"><ele>1959.0</ele><time>2026-04-25T14:47:53Z</time></trkpt><trkpt lat="46.11485379533559" lon="9.858425641563406"><ele>1962.0</ele><time>2026-04-25T14:47:54Z</time></trkpt><trkpt lat="46.114944001439646" lon="9.858499798102983"><ele>1965.0</ele><time>2026-04-25T14:47:55Z</time></trkpt><trkpt lat="46.11505421950781" lon="9.85857591121902"><ele>1968.0</ele><time>2026-04-25T14:47:56Z</time></trkpt><trkpt lat="46.1151531613523" lon="9.85862648077532"><ele>1971.0</ele><time>2026-04-25T14:47:57Z</time></trkpt><trkpt lat="46.115257142008986" lon="9.858666414010544"><ele>1974.0</ele><time>2026-04-25T14:47:58Z</time></trkpt><trkpt lat="46.115357400657054" lon="9.858733572370845"><ele>1974.0</ele><time>2026-04-25T14:47:59Z</time></trkpt><trkpt lat="46.11544787262232" lon="9.85880202586267"><ele>1974.0</ele><time>2026-04-25T14:48:00Z</time></trkpt><trkpt lat="46.11550587254417" lon="9.858859625254548"><ele>1974.0</ele><time>2026-04-25T14:48:01Z</time></trkpt><trkpt lat="46.11556944450806" lon="9.858912434991563"><ele>1974.0</ele><time>2026-04-25T14:48:02Z</time></trkpt><trkpt lat="46.1155050270521" lon="9.858994279645302"><ele>1974.0</ele><time>2026-04-25T14:48:12Z</time></trkpt><trkpt lat="46.115442083078825" lon="9.859027888742816"><ele>1974.0</ele><time>2026-04-25T14:48:14Z</time></trkpt><trkpt lat="46.11557128934123" lon="9.858950919781778"><ele>1974.0</ele><time>2026-04-25T14:48:28Z</time></trkpt><trkpt lat="46.11561762272988" lon="9.858870522355648"><ele>1974.0</ele><time>2026-04-25T14:48:30Z</time></trkpt><trkpt lat="46.115679128054445" lon="9.858827368734593"><ele>1974.0</ele><time>2026-04-25T14:48:57Z</time></trkpt><trkpt lat="46.11575501340239" lon="9.858786931243749"><ele>1974.0</ele><time>2026-04-25T14:49:00Z</time></trkpt><trkpt lat="46.115821150075455" lon="9.858747281294715"><ele>1974.0</ele><time>2026-04-25T14:49:03.001Z</time></trkpt><trkpt lat="46.1158474512304" lon="9.85865334383401"><ele>1974.0</ele><time>2026-04-25T14:49:07.001Z</time></trkpt><trkpt lat="46.11592337986284" lon="9.85859063107375"><ele>1969.0</ele><time>2026-04-25T14:49:11.001Z</time></trkpt><trkpt lat="46.11599075048481" lon="9.858571082906778"><ele>1964.0</ele><time>2026-04-25T14:49:15.001Z</time></trkpt><trkpt lat="46.11606856411932" lon="9.858530720678878"><ele>1959.0</ele><time>2026-04-25T14:49:18.001Z</time></trkpt><trkpt lat="46.11615013634791" lon="9.858520194462649"><ele>1954.0</ele><time>2026-04-25T14:49:22.001Z</time></trkpt><trkpt lat="46.11621626960824" lon="9.858505947168096"><ele>1949.0</ele><time>2026-04-25T14:49:27.001Z</time></trkpt><trkpt lat="46.11628169399486" lon="9.85848024975333"><ele>1944.0</ele><time>2026-04-25T14:49:32.001Z</time></trkpt><trkpt lat="46.11632844490353" lon="9.858408508274836"><ele>1939.0</ele><time>2026-04-25T14:49:37.001Z</time></trkpt><trkpt lat="46.11638312601077" lon="9.858344201113052"><ele>1938.5714285714284</ele><time>2026-04-25T14:49:42.001Z</time></trkpt><trkpt lat="46.11645273429846" lon="9.85828908863854"><ele>1938.142857142857</ele><time>2026-04-25T14:50:27Z</time></trkpt><trkpt lat="46.11649986819433" lon="9.858212965473955"><ele>1937.7142857142858</ele><time>2026-04-25T14:50:57.001Z</time></trkpt><trkpt lat="46.116546251126046" lon="9.858129363146316"><ele>1937.2857142857142</ele><time>2026-04-25T14:51:09.001Z</time></trkpt><trkpt lat="46.116611321237" lon="9.858106321748764"><ele>1936.8571428571427</ele><time>2026-04-25T14:51:12.001Z</time></trkpt><trkpt lat="46.11667283820797" lon="9.85807503410731"><ele>1936.4285714285713</ele><time>2026-04-25T14:51:14.001Z</time></trkpt><trkpt lat="46.11674420035079" lon="9.85805467016455"><ele>1936.0</ele><time>2026-04-25T14:51:18.001Z</time></trkpt><trkpt lat="46.116802328225944" lon="9.858008090441444"><ele>1931.5714285714284</ele><time>2026-04-25T14:51:20.001Z</time></trkpt><trkpt lat="46.116818531358774" lon="9.857919974284233"><ele>1927.1428571428569</ele><time>2026-04-25T14:51:24.001Z</time></trkpt><trkpt lat="46.116850060544" lon="9.857836898911659"><ele>1922.7142857142858</ele><time>2026-04-25T14:51:28.001Z</time></trkpt><trkpt lat="46.11682368406411" lon="9.857922324885402"><ele>1918.2857142857142</ele><time>2026-04-25T14:51:31.001Z</time></trkpt><trkpt lat="46.11688485233485" lon="9.857878327431644"><ele>1913.857142857143</ele><time>2026-04-25T14:51:34.001Z</time></trkpt><trkpt lat="46.116929538114526" lon="9.857804775534701"><ele>1909.4285714285716</ele><time>2026-04-25T14:51:37.001Z</time></trkpt><trkpt lat="46.11699312192208" lon="9.857782300041123"><ele>1905.0000000000002</ele><time>2026-04-25T14:51:39.001Z</time></trkpt><trkpt lat="46.11707793457528" lon="9.857826911278472"><ele>1905.0000000000002</ele><time>2026-04-25T14:51:42.001Z</time></trkpt><trkpt lat="46.11716047025707" lon="9.857814894648072"><ele>1905.0</ele><time>2026-04-25T14:51:46.001Z</time></trkpt><trkpt lat="46.11723822990581" lon="9.857826346914878"><ele>1905.0000000000002</ele><time>2026-04-25T14:51:49.001Z</time></trkpt><trkpt lat="46.11730778821113" lon="9.857843099495991"><ele>1905.0000000000002</ele><time>2026-04-25T14:51:52.001Z</time></trkpt><trkpt lat="46.117363121609586" lon="9.85778597054144"><ele>1905.0</ele><time>2026-04-25T14:51:55.001Z</time></trkpt><trkpt lat="46.11741247174965" lon="9.857710883697507"><ele>1905.0000000000002</ele><time>2026-04-25T14:51:58.001Z</time></trkpt><trkpt lat="46.11747888151426" lon="9.85770361817973"><ele>1905.0000000000002</ele><time>2026-04-25T14:52:00.001Z</time></trkpt><trkpt lat="46.11754869634058" lon="9.857704868851966"><ele>1898.8333333333333</ele><time>2026-04-25T14:52:03.001Z</time></trkpt><trkpt lat="46.117616996310026" lon="9.857715994574836"><ele>1892.6666666666665</ele><time>2026-04-25T14:52:06Z</time></trkpt><trkpt lat="46.11768716355596" lon="9.857718723887377"><ele>1886.5</ele><time>2026-04-25T14:52:09Z</time></trkpt><trkpt lat="46.11774467089705" lon="9.857782526357001"><ele>1880.3333333333333</ele><time>2026-04-25T14:52:12Z</time></trkpt><trkpt lat="46.11781201176347" lon="9.857847546647335"><ele>1874.1666666666665</ele><time>2026-04-25T14:52:15Z</time></trkpt><trkpt lat="46.117880355835666" lon="9.85783652013874"><ele>1868.0</ele><time>2026-04-25T14:52:17Z</time></trkpt><trkpt lat="46.11799023585077" lon="9.857864762532445"><ele>1867.9999999999998</ele><time>2026-04-25T14:52:31Z</time></trkpt><trkpt lat="46.11802391698833" lon="9.857772706547633"><ele>1868.0</ele><time>2026-04-25T14:52:35Z</time></trkpt><trkpt lat="46.11810400784566" lon="9.857710299591071"><ele>1868.0</ele><time>2026-04-25T14:52:39Z</time></trkpt><trkpt lat="46.11815775504138" lon="9.857620206560595"><ele>1868.0</ele><time>2026-04-25T14:52:42Z</time></trkpt><trkpt lat="46.11824155333282" lon="9.857659490934452"><ele>1867.9999999999998</ele><time>2026-04-25T14:52:46Z</time></trkpt><trkpt lat="46.11831368811895" lon="9.85770115158727"><ele>1868.0</ele><time>2026-04-25T14:52:50Z</time></trkpt><trkpt lat="46.11838176648636" lon="9.857758441645169"><ele>1864.4999999999998</ele><time>2026-04-25T14:52:53Z</time></trkpt><trkpt lat="46.11848351769748" lon="9.857763689713126"><ele>1861.0</ele><time>2026-04-25T14:52:55Z</time></trkpt><trkpt lat="46.11857845454447" lon="9.857781583035786"><ele>1857.5</ele><time>2026-04-25T14:52:57Z</time></trkpt><trkpt lat="46.118641726670944" lon="9.857777152121194"><ele>1854.0</ele><time>2026-04-25T14:52:59Z</time></trkpt><trkpt lat="46.11869447821854" lon="9.857704102777896"><ele>1850.4999999999998</ele><time>2026-04-25T14:53:04Z</time></trkpt><trkpt lat="46.11875484027829" lon="9.85766493039639"><ele>1847.0</ele><time>2026-04-25T14:53:09Z</time></trkpt><trkpt lat="46.118821704370504" lon="9.857655908503714"><ele>1845.3333333333333</ele><time>2026-04-25T14:53:20Z</time></trkpt><trkpt lat="46.118891662880266" lon="9.857576790965153"><ele>1843.6666666666665</ele><time>2026-04-25T14:53:28Z</time></trkpt><trkpt lat="46.118967518062824" lon="9.857529450974178"><ele>1842.0</ele><time>2026-04-25T14:53:39Z</time></trkpt><trkpt lat="46.1190495153559" lon="9.857479753856355"><ele>1840.3333333333335</ele><time>2026-04-25T14:53:42Z</time></trkpt><trkpt lat="46.11906026455824" lon="9.857379471481904"><ele>1838.6666666666667</ele><time>2026-04-25T14:53:47Z</time></trkpt><trkpt lat="46.11906107537703" lon="9.857285877494935"><ele>1837.0</ele><time>2026-04-25T14:53:52.001Z</time></trkpt><trkpt lat="46.119071356128224" lon="9.857178671874662"><ele>1837.0</ele><time>2026-04-25T14:53:58.001Z</time></trkpt><trkpt lat="46.11913507116172" lon="9.857118552628078"><ele>1837.0000000000002</ele><time>2026-04-25T14:54:01.001Z</time></trkpt><trkpt lat="46.11916752099844" lon="9.857030587832435"><ele>1837.0</ele><time>2026-04-25T14:54:05.001Z</time></trkpt><trkpt lat="46.11921462471946" lon="9.85694676138906"><ele>1837.0</ele><time>2026-04-25T14:54:13.001Z</time></trkpt><trkpt lat="46.1192646878154" lon="9.85688818189172"><ele>1837.0000000000002</ele><time>2026-04-25T14:54:16.001Z</time></trkpt><trkpt lat="46.119330169985076" lon="9.856881345762941"><ele>1837.0</ele><time>2026-04-25T14:54:18.001Z</time></trkpt><trkpt lat="46.11941008561251" lon="9.85685692361669"><ele>1837.0</ele><time>2026-04-25T14:54:22.001Z</time></trkpt><trkpt lat="46.119488855506674" lon="9.856798670859003"><ele>1837.3333333333335</ele><time>2026-04-25T14:54:25.001Z</time></trkpt><trkpt lat="46.11957386907663" lon="9.856781691297709"><ele>1837.6666666666667</ele><time>2026-04-25T14:54:29Z</time></trkpt><trkpt lat="46.119646906903974" lon="9.856746428492"><ele>1838.0</ele><time>2026-04-25T14:54:31Z</time></trkpt><trkpt lat="46.119720097491516" lon="9.856718724242077"><ele>1838.3333333333335</ele><time>2026-04-25T14:54:34Z</time></trkpt><trkpt lat="46.119805082938676" lon="9.85670666413424"><ele>1838.6666666666667</ele><time>2026-04-25T14:54:38Z</time></trkpt><trkpt lat="46.119890425657815" lon="9.856674467569306"><ele>1839.0</ele><time>2026-04-25T14:54:42Z</time></trkpt><trkpt lat="46.119955933054015" lon="9.85664716835303"><ele>1834.5714285714284</ele><time>2026-04-25T14:54:47Z</time></trkpt><trkpt lat="46.12001872841614" lon="9.856634949505976"><ele>1830.1428571428573</ele><time>2026-04-25T14:54:51Z</time></trkpt><trkpt lat="46.120059759260634" lon="9.856538522883385"><ele>1825.7142857142858</ele><time>2026-04-25T14:54:56.001Z</time></trkpt><trkpt lat="46.12012362356756" lon="9.85649276298618"><ele>1821.2857142857142</ele><time>2026-04-25T14:55:01.001Z</time></trkpt><trkpt lat="46.120205662217955" lon="9.856471067331478"><ele>1816.8571428571427</ele><time>2026-04-25T14:55:06.001Z</time></trkpt><trkpt lat="46.120267557319025" lon="9.856415606118881"><ele>1812.4285714285716</ele><time>2026-04-25T14:55:14.001Z</time></trkpt><trkpt lat="46.12031813374876" lon="9.856335778776266"><ele>1808.0</ele><time>2026-04-25T14:55:18.001Z</time></trkpt><trkpt lat="46.120358919844385" lon="9.856253842159909"><ele>1808.0</ele><time>2026-04-25T14:55:22.001Z</time></trkpt><trkpt lat="46.120416190187115" lon="9.856172227719512"><ele>1808.0</ele><time>2026-04-25T14:55:36.001Z</time></trkpt><trkpt lat="46.12047682053813" lon="9.856144122153053"><ele>1808.0</ele><time>2026-04-25T14:55:40.001Z</time></trkpt><trkpt lat="46.12054058247302" lon="9.856137610528744"><ele>1808.0</ele><time>2026-04-25T14:55:54.001Z</time></trkpt><trkpt lat="46.12057442523311" lon="9.856052064736003"><ele>1808.0</ele><time>2026-04-25T14:56:00.001Z</time></trkpt><trkpt lat="46.12051523797453" lon="9.856095335170316"><ele>1808.0</ele><time>2026-04-25T14:56:03.001Z</time></trkpt><trkpt lat="46.12054099917376" lon="9.856008359944331"><ele>1808.0</ele><time>2026-04-25T14:56:22.001Z</time></trkpt><trkpt lat="46.12059640081643" lon="9.855953846832486"><ele>1807.9999999999998</ele><time>2026-04-25T14:56:30.001Z</time></trkpt><trkpt lat="46.12064843747664" lon="9.8558725354701"><ele>1808.0</ele><time>2026-04-25T14:56:34.001Z</time></trkpt><trkpt lat="46.12071472202718" lon="9.855814457919823"><ele>1808.0</ele><time>2026-04-25T14:56:37.001Z</time></trkpt><trkpt lat="46.120771162805276" lon="9.855773890125809"><ele>1808.0</ele><time>2026-04-25T14:56:40.001Z</time></trkpt><trkpt lat="46.120815501743536" lon="9.855703166921076"><ele>1807.9999999999998</ele><time>2026-04-25T14:56:43.001Z</time></trkpt><trkpt lat="46.12085318153905" lon="9.855566223205546"><ele>1808.0</ele><time>2026-04-25T14:56:47.001Z</time></trkpt><trkpt lat="46.12092004848964" lon="9.855477533858704"><ele>1804.4285714285716</ele><time>2026-04-25T14:56:51.001Z</time></trkpt><trkpt lat="46.120965551112945" lon="9.855381812336304"><ele>1800.8571428571427</ele><time>2026-04-25T14:56:54.001Z</time></trkpt><trkpt lat="46.121040107557356" lon="9.855315264834564"><ele>1797.2857142857142</ele><time>2026-04-25T14:56:57.001Z</time></trkpt><trkpt lat="46.12110670293316" lon="9.855282314329648"><ele>1793.7142857142858</ele><time>2026-04-25T14:57:01.001Z</time></trkpt><trkpt lat="46.121148151355094" lon="9.855211980792646"><ele>1790.1428571428573</ele><time>2026-04-25T14:57:04.001Z</time></trkpt><trkpt lat="46.12120091807744" lon="9.8551447963934"><ele>1786.5714285714284</ele><time>2026-04-25T14:57:08.001Z</time></trkpt><trkpt lat="46.12125654588292" lon="9.85509370193106"><ele>1783.0</ele><time>2026-04-25T14:57:09.001Z</time></trkpt><trkpt lat="46.12133612921211" lon="9.855085583179275"><ele>1783.0000000000002</ele><time>2026-04-25T14:57:13.001Z</time></trkpt><trkpt lat="46.12142480512438" lon="9.855127364070007"><ele>1783.0</ele><time>2026-04-25T14:57:16.001Z</time></trkpt><trkpt lat="46.12149822265487" lon="9.855109059670985"><ele>1783.0</ele><time>2026-04-25T14:57:18.001Z</time></trkpt><trkpt lat="46.12158247985554" lon="9.85514500665062"><ele>1783.0</ele><time>2026-04-25T14:57:21.001Z</time></trkpt><trkpt lat="46.12164846630839" lon="9.855208385378422"><ele>1783.0000000000002</ele><time>2026-04-25T14:57:24.001Z</time></trkpt><trkpt lat="46.12171114746139" lon="9.855219688051534"><ele>1783.0</ele><time>2026-04-25T14:57:26.001Z</time></trkpt><trkpt lat="46.12178185487398" lon="9.855222618132341"><ele>1777.0</ele><time>2026-04-25T14:57:28.001Z</time></trkpt><trkpt lat="46.12181948507372" lon="9.855297386168926"><ele>1771.0</ele><time>2026-04-25T14:57:31.001Z</time></trkpt><trkpt lat="46.12187957285818" lon="9.85534773946485"><ele>1765.0</ele><time>2026-04-25T14:57:34.001Z</time></trkpt><trkpt lat="46.12195253379269" lon="9.855332905926629"><ele>1759.0</ele><time>2026-04-25T14:57:37.001Z</time></trkpt><trkpt lat="46.12198286941572" lon="9.855248879162671"><ele>1753.0</ele><time>2026-04-25T14:57:40.001Z</time></trkpt><trkpt lat="46.122059997423" lon="9.85521488586926"><ele>1747.0</ele><time>2026-04-25T14:57:43.001Z</time></trkpt><trkpt lat="46.12213266931542" lon="9.855178440655115"><ele>1741.0</ele><time>2026-04-25T14:57:46.001Z</time></trkpt><trkpt lat="46.122196143771625" lon="9.855157151519819"><ele>1741.0000000000002</ele><time>2026-04-25T14:57:48.001Z</time></trkpt><trkpt lat="46.12228896297013" lon="9.855152510511621"><ele>1741.0</ele><time>2026-04-25T14:57:50.001Z</time></trkpt><trkpt lat="46.12238215909889" lon="9.855158229267571"><ele>1741.0</ele><time>2026-04-25T14:57:52.001Z</time></trkpt><trkpt lat="46.122460609428046" lon="9.85516116112198"><ele>1741.0</ele><time>2026-04-25T14:57:54.001Z</time></trkpt><trkpt lat="46.12253476087947" lon="9.855153767516239"><ele>1741.0000000000002</ele><time>2026-04-25T14:58:01.001Z</time></trkpt><trkpt lat="46.12255779902575" lon="9.855066798538115"><ele>1741.0</ele><time>2026-04-25T14:58:04.001Z</time></trkpt><trkpt lat="46.122562526003605" lon="9.854953849348016"><ele>1739.3333333333335</ele><time>2026-04-25T14:58:08.001Z</time></trkpt><trkpt lat="46.12261195639933" lon="9.85487922233423"><ele>1737.6666666666667</ele><time>2026-04-25T14:58:11.001Z</time></trkpt><trkpt lat="46.12266548472536" lon="9.854782193820558"><ele>1736.0</ele><time>2026-04-25T14:58:15.001Z</time></trkpt><trkpt lat="46.12274680404849" lon="9.854682318100316"><ele>1734.3333333333335</ele><time>2026-04-25T14:58:18.001Z</time></trkpt><trkpt lat="46.12281773913738" lon="9.85464413549587"><ele>1732.6666666666667</ele><time>2026-04-25T14:58:22.001Z</time></trkpt><trkpt lat="46.12288300639258" lon="9.854606087689975"><ele>1731.0</ele><time>2026-04-25T14:58:26.001Z</time></trkpt><trkpt lat="46.122919911511275" lon="9.854526795962851"><ele>1731.0</ele><time>2026-04-25T14:58:28.001Z</time></trkpt><trkpt lat="46.122964893341184" lon="9.854414241852444"><ele>1731.0</ele><time>2026-04-25T14:58:32.001Z</time></trkpt><trkpt lat="46.12298336431836" lon="9.85432678811268"><ele>1731.0</ele><time>2026-04-25T14:58:34.001Z</time></trkpt><trkpt lat="46.12300113852659" lon="9.854233227359389"><ele>1731.0</ele><time>2026-04-25T14:58:36.001Z</time></trkpt><trkpt lat="46.122957107052265" lon="9.854149143701926"><ele>1731.0</ele><time>2026-04-25T14:58:38.001Z</time></trkpt><trkpt lat="46.12305118151436" lon="9.854078431510176"><ele>1731.0</ele><time>2026-04-25T14:58:41.001Z</time></trkpt><trkpt lat="46.12311570296291" lon="9.854003376704664"><ele>1732.1666666666667</ele><time>2026-04-25T14:58:43.001Z</time></trkpt><trkpt lat="46.12319641255657" lon="9.85392174063545"><ele>1733.3333333333335</ele><time>2026-04-25T14:58:46.001Z</time></trkpt><trkpt lat="46.12326422346707" lon="9.853912246191255"><ele>1734.5</ele><time>2026-04-25T14:58:48.001Z</time></trkpt><trkpt lat="46.123350788244" lon="9.853853517175745"><ele>1735.6666666666667</ele><time>2026-04-25T14:58:50.001Z</time></trkpt><trkpt lat="46.1234205835506" lon="9.853806075928388"><ele>1736.8333333333335</ele><time>2026-04-25T14:58:53.001Z</time></trkpt><trkpt lat="46.12345668471724" lon="9.853713778765865"><ele>1738.0</ele><time>2026-04-25T14:58:58.001Z</time></trkpt><trkpt lat="46.123482335664576" lon="9.853620179728347"><ele>1735.3333333333335</ele><time>2026-04-25T14:59:41.001Z</time></trkpt><trkpt lat="46.123437999961496" lon="9.853528315851614"><ele>1732.6666666666667</ele><time>2026-04-25T15:00:42.001Z</time></trkpt><trkpt lat="46.123366847770434" lon="9.8534963698885"><ele>1730.0</ele><time>2026-04-25T15:00:58Z</time></trkpt><trkpt lat="46.12349296626215" lon="9.853525377917553"><ele>1727.3333333333335</ele><time>2026-04-25T15:01:10Z</time></trkpt><trkpt lat="46.123527205625734" lon="9.85343340421267"><ele>1724.6666666666667</ele><time>2026-04-25T15:01:47Z</time></trkpt><trkpt lat="46.12358576871324" lon="9.85347948209572"><ele>1722.0</ele><time>2026-04-25T15:01:52Z</time></trkpt><trkpt lat="46.12363840628601" lon="9.853405645388811"><ele>1722.0</ele><time>2026-04-25T15:02:34Z</time></trkpt><trkpt lat="46.123652813176264" lon="9.853294461585296"><ele>1722.0</ele><time>2026-04-25T15:02:50Z</time></trkpt><trkpt lat="46.123757384522" lon="9.853272010095607"><ele>1722.0</ele><time>2026-04-25T15:02:58Z</time></trkpt><trkpt lat="46.12382069386944" lon="9.8531855027881"><ele>1722.0</ele><time>2026-04-25T15:03:04Z</time></trkpt><trkpt lat="46.12387517342778" lon="9.853088073753161"><ele>1722.0</ele><time>2026-04-25T15:03:08Z</time></trkpt><trkpt lat="46.12390961626275" lon="9.852997670739631"><ele>1722.0</ele><time>2026-04-25T15:03:10Z</time></trkpt><trkpt lat="46.123950349719536" lon="9.852908058556139"><ele>1722.0</ele><time>2026-04-25T15:03:14Z</time></trkpt><trkpt lat="46.12399407705651" lon="9.852837331199108"><ele>1722.0</ele><time>2026-04-25T15:03:19Z</time></trkpt><trkpt lat="46.124080706418724" lon="9.852758030474812"><ele>1722.0</ele><time>2026-04-25T15:03:22Z</time></trkpt><trkpt lat="46.12414911379763" lon="9.852707643564514"><ele>1722.0</ele><time>2026-04-25T15:03:26Z</time></trkpt><trkpt lat="46.12420638146292" lon="9.852660897786237"><ele>1722.0</ele><time>2026-04-25T15:03:30Z</time></trkpt><trkpt lat="46.124295209153" lon="9.85261976673521"><ele>1722.0</ele><time>2026-04-25T15:03:33Z</time></trkpt><trkpt lat="46.12434628293397" lon="9.852534212526795"><ele>1719.7142857142858</ele><time>2026-04-25T15:03:36Z</time></trkpt><trkpt lat="46.12437250259241" lon="9.852450177287075"><ele>1717.4285714285716</ele><time>2026-04-25T15:03:45Z</time></trkpt><trkpt lat="46.12443634036897" lon="9.852396178216617"><ele>1715.142857142857</ele><time>2026-04-25T15:03:53Z</time></trkpt><trkpt lat="46.12449963774131" lon="9.8523448296511"><ele>1712.857142857143</ele><time>2026-04-25T15:03:57Z</time></trkpt><trkpt lat="46.12454488949665" lon="9.85223795976403"><ele>1710.5714285714287</ele><time>2026-04-25T15:04:01Z</time></trkpt><trkpt lat="46.12458972694621" lon="9.852145101429434"><ele>1708.2857142857142</ele><time>2026-04-25T15:04:08Z</time></trkpt><trkpt lat="46.12461828536042" lon="9.852047004142062"><ele>1706.0</ele><time>2026-04-25T15:04:15Z</time></trkpt><trkpt lat="46.124677151530484" lon="9.851980319308081"><ele>1705.9999999999998</ele><time>2026-04-25T15:04:17Z</time></trkpt><trkpt lat="46.124726693788475" lon="9.851883587754408"><ele>1706.0</ele><time>2026-04-25T15:04:24Z</time></trkpt><trkpt lat="46.124702054508475" lon="9.8517970144314"><ele>1706.0</ele><time>2026-04-25T15:04:28Z</time></trkpt><trkpt lat="46.1247165813482" lon="9.85169317040621"><ele>1706.0</ele><time>2026-04-25T15:04:33Z</time></trkpt><trkpt lat="46.12478015365946" lon="9.85166419002825"><ele>1705.9999999999998</ele><time>2026-04-25T15:04:38Z</time></trkpt><trkpt lat="46.124886278909216" lon="9.851674325738431"><ele>1706.0</ele><time>2026-04-25T15:04:43Z</time></trkpt><trkpt lat="46.124949963649456" lon="9.851626005528372"><ele>1705.0</ele><time>2026-04-25T15:04:45Z</time></trkpt><trkpt lat="46.124895035481494" lon="9.85156595715502"><ele>1704.0</ele><time>2026-04-25T15:04:53Z</time></trkpt><trkpt lat="46.12486990528544" lon="9.851481950404999"><ele>1703.0</ele><time>2026-04-25T15:05:10Z</time></trkpt><trkpt lat="46.124843904510804" lon="9.851338121363728"><ele>1702.0</ele><time>2026-04-25T15:05:13Z</time></trkpt><trkpt lat="46.12482563906845" lon="9.851249083244777"><ele>1701.0</ele><time>2026-04-25T15:05:15Z</time></trkpt><trkpt lat="46.12488219691016" lon="9.851194518945238"><ele>1700.0</ele><time>2026-04-25T15:05:18Z</time></trkpt><trkpt lat="46.12491553262239" lon="9.851099543055337"><ele>1699.0</ele><time>2026-04-25T15:05:27Z</time></trkpt><trkpt lat="46.124835814615516" lon="9.851101276124362"><ele>1699.0</ele><time>2026-04-25T15:05:44Z</time></trkpt><trkpt lat="46.124774969123585" lon="9.851131542088288"><ele>1699.0</ele><time>2026-04-25T15:05:54Z</time></trkpt><trkpt lat="46.12471415630332" lon="9.851192131846181"><ele>1699.0</ele><time>2026-04-25T15:05:57Z</time></trkpt><trkpt lat="46.12467618196166" lon="9.85129280333869"><ele>1699.0</ele><time>2026-04-25T15:06:09Z</time></trkpt><trkpt lat="46.12461545133033" lon="9.851266705057613"><ele>1699.0</ele><time>2026-04-25T15:06:16Z</time></trkpt><trkpt lat="46.124540505802905" lon="9.851225641775992"><ele>1699.0</ele><time>2026-04-25T15:06:25Z</time></trkpt><trkpt lat="46.1244882660491" lon="9.851146621612887"><ele>1699.0</ele><time>2026-04-25T15:06:36Z</time></trkpt><trkpt lat="46.12455606635166" lon="9.851200825001277"><ele>1699.0</ele><time>2026-04-25T15:06:46Z</time></trkpt><trkpt lat="46.12462912824593" lon="9.85118417997704"><ele>1699.0</ele><time>2026-04-25T15:06:50Z</time></trkpt><trkpt lat="46.12465123792279" lon="9.85109070549945"><ele>1699.0</ele><time>2026-04-25T15:06:53Z</time></trkpt><trkpt lat="46.12465856133316" lon="9.850990620719738"><ele>1699.0</ele><time>2026-04-25T15:06:55Z</time></trkpt><trkpt lat="46.12462919194627" lon="9.850891033613816"><ele>1699.0</ele><time>2026-04-25T15:06:57Z</time></trkpt><trkpt lat="46.124558254008036" lon="9.8508491390549"><ele>1699.0</ele><time>2026-04-25T15:07:05Z</time></trkpt><trkpt lat="46.12449352718504" lon="9.850885031902124"><ele>1699.0</ele><time>2026-04-25T15:07:08Z</time></trkpt><trkpt lat="46.124416911189" lon="9.850857348058021"><ele>1695.2</ele><time>2026-04-25T15:07:13Z</time></trkpt><trkpt lat="46.124483191473736" lon="9.850764135159356"><ele>1691.4</ele><time>2026-04-25T15:07:15Z</time></trkpt><trkpt lat="46.12455327466272" lon="9.850690464135715"><ele>1687.6</ele><time>2026-04-25T15:07:17Z</time></trkpt><trkpt lat="46.124654665985936" lon="9.85059167057827"><ele>1683.8</ele><time>2026-04-25T15:07:19Z</time></trkpt><trkpt lat="46.12470507222253" lon="9.85051765687041"><ele>1680.0</ele><time>2026-04-25T15:07:20Z</time></trkpt><trkpt lat="46.12476173497094" lon="9.85043866584717"><ele>1680.0</ele><time>2026-04-25T15:07:22Z</time></trkpt><trkpt lat="46.12481899280883" lon="9.85037500226698"><ele>1680.0</ele><time>2026-04-25T15:07:24Z</time></trkpt><trkpt lat="46.12488191994318" lon="9.850321920789066"><ele>1680.0</ele><time>2026-04-25T15:07:26Z</time></trkpt><trkpt lat="46.124971876158206" lon="9.85023507501643"><ele>1680.0</ele><time>2026-04-25T15:07:28Z</time></trkpt><trkpt lat="46.12502187055753" lon="9.850140793992193"><ele>1680.0</ele><time>2026-04-25T15:07:31Z</time></trkpt><trkpt lat="46.12510600687829" lon="9.850146881251952"><ele>1680.0</ele><time>2026-04-25T15:07:35Z</time></trkpt><trkpt lat="46.12515502440264" lon="9.850056178598315"><ele>1673.3333333333333</ele><time>2026-04-25T15:07:38Z</time></trkpt><trkpt lat="46.12511457041636" lon="9.84992930744599"><ele>1666.6666666666665</ele><time>2026-04-25T15:07:40Z</time></trkpt><trkpt lat="46.1251388333156" lon="9.849814852272248"><ele>1660.0</ele><time>2026-04-25T15:07:42Z</time></trkpt><trkpt lat="46.12511349948662" lon="9.849712329838022"><ele>1653.3333333333333</ele><time>2026-04-25T15:07:44Z</time></trkpt><trkpt lat="46.12510513271165" lon="9.849617093019264"><ele>1646.6666666666665</ele><time>2026-04-25T15:07:46Z</time></trkpt><trkpt lat="46.125148142817345" lon="9.849496305087184"><ele>1640.0</ele><time>2026-04-25T15:07:49Z</time></trkpt><trkpt lat="46.12515568592747" lon="9.849404755961427"><ele>1640.0</ele><time>2026-04-25T15:07:51Z</time></trkpt><trkpt lat="46.12519512873789" lon="9.849306096937703"><ele>1640.0</ele><time>2026-04-25T15:07:56Z</time></trkpt><trkpt lat="46.12526938017535" lon="9.849227817817916"><ele>1640.0</ele><time>2026-04-25T15:08:00Z</time></trkpt><trkpt lat="46.125426370531756" lon="9.849177891871012"><ele>1640.0</ele><time>2026-04-25T15:08:03Z</time></trkpt><trkpt lat="46.125480072222715" lon="9.849106189443194"><ele>1640.0</ele><time>2026-04-25T15:08:04Z</time></trkpt><trkpt lat="46.1255503771024" lon="9.849054046009496"><ele>1635.1666666666665</ele><time>2026-04-25T15:08:07Z</time></trkpt><trkpt lat="46.12561417902153" lon="9.848992813454041"><ele>1630.3333333333333</ele><time>2026-04-25T15:08:09Z</time></trkpt><trkpt lat="46.12567660509735" lon="9.848925958402287"><ele>1625.5</ele><time>2026-04-25T15:08:11Z</time></trkpt><trkpt lat="46.125717248187435" lon="9.848823609272907"><ele>1620.6666666666665</ele><time>2026-04-25T15:08:13Z</time></trkpt><trkpt lat="46.12580983803824" lon="9.848774023811053"><ele>1615.8333333333333</ele><time>2026-04-25T15:08:15Z</time></trkpt><trkpt lat="46.12583490685078" lon="9.84868943074865"><ele>1611.0</ele><time>2026-04-25T15:08:17Z</time></trkpt><trkpt lat="46.12588704653197" lon="9.848638379454316"><ele>1607.5</ele><time>2026-04-25T15:08:19Z</time></trkpt><trkpt lat="46.125958335153435" lon="9.848531884039568"><ele>1604.0</ele><time>2026-04-25T15:08:22Z</time></trkpt><trkpt lat="46.12601790219264" lon="9.848466763268652"><ele>1600.5</ele><time>2026-04-25T15:08:24Z</time></trkpt><trkpt lat="46.126075852083424" lon="9.84843030848312"><ele>1597.0</ele><time>2026-04-25T15:08:25Z</time></trkpt><trkpt lat="46.12612594489808" lon="9.848372697623194"><ele>1593.5</ele><time>2026-04-25T15:08:26Z</time></trkpt><trkpt lat="46.12617891165527" lon="9.84824295075188"><ele>1590.0</ele><time>2026-04-25T15:08:28Z</time></trkpt><trkpt lat="46.12619760715262" lon="9.84810916162847"><ele>1586.6666666666667</ele><time>2026-04-25T15:08:31Z</time></trkpt><trkpt lat="46.12619005979895" lon="9.848007509307875"><ele>1583.3333333333335</ele><time>2026-04-25T15:08:34Z</time></trkpt><trkpt lat="46.12612313971949" lon="9.847933315172362"><ele>1580.0</ele><time>2026-04-25T15:08:37Z</time></trkpt><trkpt lat="46.12604256081107" lon="9.847839358182934"><ele>1576.6666666666667</ele><time>2026-04-25T15:08:39Z</time></trkpt><trkpt lat="46.12593818388356" lon="9.847803926159203"><ele>1573.3333333333335</ele><time>2026-04-25T15:08:41Z</time></trkpt><trkpt lat="46.12587231163098" lon="9.847777894479275"><ele>1570.0</ele><time>2026-04-25T15:08:42Z</time></trkpt><trkpt lat="46.125776768533" lon="9.847718268798115"><ele>1570.0</ele><time>2026-04-25T15:08:44Z</time></trkpt><trkpt lat="46.12570190692475" lon="9.847686342039843"><ele>1570.0</ele><time>2026-04-25T15:08:46Z</time></trkpt><trkpt lat="46.12563293067835" lon="9.84766948368945"><ele>1570.0</ele><time>2026-04-25T15:08:48Z</time></trkpt><trkpt lat="46.12553404945201" lon="9.847704775532844"><ele>1570.0</ele><time>2026-04-25T15:08:50Z</time></trkpt><trkpt lat="46.12541208030319" lon="9.847708312943986"><ele>1570.0</ele><time>2026-04-25T15:08:52Z</time></trkpt><trkpt lat="46.12533096169065" lon="9.847638961284446"><ele>1570.0000000000002</ele><time>2026-04-25T15:08:54Z</time></trkpt><trkpt lat="46.12525967755315" lon="9.847629630959686"><ele>1570.0</ele><time>2026-04-25T15:08:57Z</time></trkpt><trkpt lat="46.12518317521676" lon="9.847603667012482"><ele>1570.0</ele><time>2026-04-25T15:09:02Z</time></trkpt><trkpt lat="46.12512026841467" lon="9.847565783110234"><ele>1570.0</ele><time>2026-04-25T15:09:05Z</time></trkpt><trkpt lat="46.1250138917673" lon="9.84745741366079"><ele>1570.0000000000002</ele><time>2026-04-25T15:09:08Z</time></trkpt><trkpt lat="46.12495273368884" lon="9.847376906965817"><ele>1570.0</ele><time>2026-04-25T15:09:10Z</time></trkpt><trkpt lat="46.12484990963858" lon="9.847306864945152"><ele>1564.5714285714287</ele><time>2026-04-25T15:09:12Z</time></trkpt><trkpt lat="46.12480064624266" lon="9.847246786190318"><ele>1559.142857142857</ele><time>2026-04-25T15:09:15Z</time></trkpt><trkpt lat="46.12486906244953" lon="9.847229880966276"><ele>1553.7142857142858</ele><time>2026-04-25T15:09:17Z</time></trkpt><trkpt lat="46.124844119924376" lon="9.847131562584329"><ele>1548.2857142857142</ele><time>2026-04-25T15:09:21Z</time></trkpt><trkpt lat="46.124802373350384" lon="9.847022955192141"><ele>1542.8571428571427</ele><time>2026-04-25T15:09:23Z</time></trkpt><trkpt lat="46.12484543630486" lon="9.84694406486912"><ele>1537.4285714285713</ele><time>2026-04-25T15:09:25Z</time></trkpt><trkpt lat="46.124847383684944" lon="9.84685029652549"><ele>1532.0</ele><time>2026-04-25T15:09:30Z</time></trkpt><trkpt lat="46.12476220754947" lon="9.846785460287789"><ele>1524.8</ele><time>2026-04-25T15:09:32Z</time></trkpt><trkpt lat="46.12465303741957" lon="9.84676850041279"><ele>1517.6</ele><time>2026-04-25T15:09:34Z</time></trkpt><trkpt lat="46.12458111087637" lon="9.846743118142486"><ele>1510.3999999999999</ele><time>2026-04-25T15:09:36Z</time></trkpt><trkpt lat="46.124490581955996" lon="9.846685684024095"><ele>1503.1999999999998</ele><time>2026-04-25T15:09:38Z</time></trkpt><trkpt lat="46.1244474165903" lon="9.846580089359394"><ele>1496.0</ele><time>2026-04-25T15:09:40Z</time></trkpt><trkpt lat="46.12455526079996" lon="9.846555582913014"><ele>1496.0</ele><time>2026-04-25T15:09:43Z</time></trkpt><trkpt lat="46.12470054965073" lon="9.846521751666092"><ele>1496.0</ele><time>2026-04-25T15:09:45Z</time></trkpt><trkpt lat="46.124779008328936" lon="9.846518721742768"><ele>1496.0</ele><time>2026-04-25T15:09:46Z</time></trkpt><trkpt lat="46.12486114227774" lon="9.846515166665835"><ele>1496.0</ele><time>2026-04-25T15:09:47Z</time></trkpt><trkpt lat="46.12493297288186" lon="9.84649790315969"><ele>1496.0</ele><time>2026-04-25T15:09:48Z</time></trkpt><trkpt lat="46.12500355019619" lon="9.846510805362055"><ele>1495.8333333333335</ele><time>2026-04-25T15:09:49Z</time></trkpt><trkpt lat="46.125103289350335" lon="9.84647646673498"><ele>1495.6666666666667</ele><time>2026-04-25T15:09:51Z</time></trkpt><trkpt lat="46.12516309572556" lon="9.846403583184564"><ele>1495.5</ele><time>2026-04-25T15:09:52Z</time></trkpt><trkpt lat="46.12521147020573" lon="9.846328081261333"><ele>1495.3333333333333</ele><time>2026-04-25T15:09:53Z</time></trkpt><trkpt lat="46.125274379652446" lon="9.846281058726305"><ele>1495.1666666666665</ele><time>2026-04-25T15:09:54Z</time></trkpt><trkpt lat="46.12537834932917" lon="9.846213308940078"><ele>1495.0</ele><time>2026-04-25T15:09:56Z</time></trkpt><trkpt lat="46.12550419208413" lon="9.846202402288155"><ele>1495.0</ele><time>2026-04-25T15:09:58Z</time></trkpt><trkpt lat="46.125657084396394" lon="9.84618351680929"><ele>1495.0</ele><time>2026-04-25T15:10:00Z</time></trkpt><trkpt lat="46.12574322138316" lon="9.846155277630592"><ele>1495.0</ele><time>2026-04-25T15:10:01Z</time></trkpt><trkpt lat="46.125807437487445" lon="9.84612888750984"><ele>1495.0</ele><time>2026-04-25T15:10:02Z</time></trkpt><trkpt lat="46.12593649725505" lon="9.84608220000969"><ele>1495.0</ele><time>2026-04-25T15:10:04Z</time></trkpt><trkpt lat="46.12600629631561" lon="9.846045057061264"><ele>1488.5</ele><time>2026-04-25T15:10:05Z</time></trkpt><trkpt lat="46.126092781246975" lon="9.84595869919921"><ele>1482.0</ele><time>2026-04-25T15:10:06Z</time></trkpt><trkpt lat="46.126154980305344" lon="9.845899739319979"><ele>1475.5</ele><time>2026-04-25T15:10:07Z</time></trkpt><trkpt lat="46.126225272549014" lon="9.84582462110932"><ele>1469.0</ele><time>2026-04-25T15:10:08Z</time></trkpt><trkpt lat="46.1263024461638" lon="9.84577514810174"><ele>1462.5</ele><time>2026-04-25T15:10:09Z</time></trkpt><trkpt lat="46.12639607134471" lon="9.84575102491606"><ele>1456.0</ele><time>2026-04-25T15:10:10Z</time></trkpt><trkpt lat="46.12647701177421" lon="9.845729524675008"><ele>1456.0</ele><time>2026-04-25T15:10:11Z</time></trkpt><trkpt lat="46.126550915289585" lon="9.845684428598268"><ele>1456.0</ele><time>2026-04-25T15:10:12Z</time></trkpt><trkpt lat="46.12662573822717" lon="9.84564931780254"><ele>1456.0</ele><time>2026-04-25T15:10:13Z</time></trkpt><trkpt lat="46.12673084343716" lon="9.845662425132042"><ele>1456.0</ele><time>2026-04-25T15:10:14Z</time></trkpt><trkpt lat="46.126814505828385" lon="9.845676217898788"><ele>1456.0</ele><time>2026-04-25T15:10:15Z</time></trkpt><trkpt lat="46.12688576961597" lon="9.845682022082835"><ele>1456.0</ele><time>2026-04-25T15:10:16Z</time></trkpt><trkpt lat="46.126964020104715" lon="9.845751604259208"><ele>1456.3333333333333</ele><time>2026-04-25T15:10:18Z</time></trkpt><trkpt lat="46.1270301896907" lon="9.845797369684208"><ele>1456.6666666666665</ele><time>2026-04-25T15:10:19Z</time></trkpt><trkpt lat="46.12711557161423" lon="9.845836975162998"><ele>1457.0</ele><time>2026-04-25T15:10:20Z</time></trkpt><trkpt lat="46.12720003566838" lon="9.845838674490809"><ele>1457.3333333333333</ele><time>2026-04-25T15:10:21Z</time></trkpt><trkpt lat="46.12728690045335" lon="9.845872846467934"><ele>1457.6666666666667</ele><time>2026-04-25T15:10:22Z</time></trkpt><trkpt lat="46.127388597681595" lon="9.845875541891601"><ele>1458.0</ele><time>2026-04-25T15:10:23Z</time></trkpt><trkpt lat="46.127461058304895" lon="9.845856936715125"><ele>1456.0</ele><time>2026-04-25T15:10:24Z</time></trkpt><trkpt lat="46.12759131276333" lon="9.845860543808028"><ele>1454.0</ele><time>2026-04-25T15:10:26Z</time></trkpt><trkpt lat="46.12765644029938" lon="9.845922447782641"><ele>1452.0</ele><time>2026-04-25T15:10:27Z</time></trkpt><trkpt lat="46.12769895650041" lon="9.846055012510451"><ele>1450.0</ele><time>2026-04-25T15:10:28Z</time></trkpt><trkpt lat="46.12776412616802" lon="9.846151710353746"><ele>1448.0</ele><time>2026-04-25T15:10:29Z</time></trkpt><trkpt lat="46.127821418386695" lon="9.846241166981512"><ele>1452.8000000000002</ele><time>2026-04-25T15:10:30Z</time></trkpt><trkpt lat="46.12787366682716" lon="9.846327504013322"><ele>1457.6</ele><time>2026-04-25T15:10:31Z</time></trkpt><trkpt lat="46.127941537128876" lon="9.84638556084929"><ele>1462.4</ele><time>2026-04-25T15:10:32Z</time></trkpt><trkpt lat="46.1280213475252" lon="9.846442063543943"><ele>1467.1999999999998</ele><time>2026-04-25T15:10:33Z</time></trkpt><trkpt lat="46.12809426710396" lon="9.846491236562175"><ele>1472.0</ele><time>2026-04-25T15:10:34Z</time></trkpt><trkpt lat="46.12821309244622" lon="9.846556330717396"><ele>1470.5</ele><time>2026-04-25T15:10:36Z</time></trkpt><trkpt lat="46.12826578742624" lon="9.846648328870032"><ele>1469.0</ele><time>2026-04-25T15:10:37Z</time></trkpt><trkpt lat="46.1283229846878" lon="9.846749899043242"><ele>1467.5</ele><time>2026-04-25T15:10:38Z</time></trkpt><trkpt lat="46.12838717640037" lon="9.846811108614627"><ele>1466.0</ele><time>2026-04-25T15:10:39Z</time></trkpt><trkpt lat="46.12846781551101" lon="9.846889274811128"><ele>1464.5</ele><time>2026-04-25T15:10:40Z</time></trkpt><trkpt lat="46.128522430864514" lon="9.846961852377317"><ele>1463.0</ele><time>2026-04-25T15:10:41Z</time></trkpt><trkpt lat="46.12857613757636" lon="9.847026251873398"><ele>1463.0</ele><time>2026-04-25T15:10:42Z</time></trkpt><trkpt lat="46.12859161970823" lon="9.847132746671798"><ele>1463.0</ele><time>2026-04-25T15:10:43Z</time></trkpt><trkpt lat="46.12862731455" lon="9.847247457229471"><ele>1463.0</ele><time>2026-04-25T15:10:44Z</time></trkpt><trkpt lat="46.128696341464824" lon="9.84738160974361"><ele>1463.0</ele><time>2026-04-25T15:10:46Z</time></trkpt><trkpt lat="46.12879928289023" lon="9.847429996950302"><ele>1463.0</ele><time>2026-04-25T15:10:48Z</time></trkpt><trkpt lat="46.12887625162549" lon="9.847427699386254"><ele>1463.0</ele><time>2026-04-25T15:10:49Z</time></trkpt><trkpt lat="46.12893762087012" lon="9.847467492355303"><ele>1463.0</ele><time>2026-04-25T15:10:50Z</time></trkpt><trkpt lat="46.12906828177529" lon="9.8475612648348"><ele>1463.0</ele><time>2026-04-25T15:10:52Z</time></trkpt><trkpt lat="46.129170877718714" lon="9.847640910135485"><ele>1463.0</ele><time>2026-04-25T15:10:54Z</time></trkpt><trkpt lat="46.12928809702317" lon="9.84769855756094"><ele>1459.1666666666667</ele><time>2026-04-25T15:10:56Z</time></trkpt><trkpt lat="46.12932650492261" lon="9.847787164162197"><ele>1455.3333333333335</ele><time>2026-04-25T15:10:59Z</time></trkpt><trkpt lat="46.12930181951428" lon="9.847927414761527"><ele>1451.5</ele><time>2026-04-25T15:11:02Z</time></trkpt><trkpt lat="46.129308785908954" lon="9.84802537231328"><ele>1447.6666666666667</ele><time>2026-04-25T15:11:03Z</time></trkpt><trkpt lat="46.1293112537941" lon="9.848129788571967"><ele>1443.8333333333333</ele><time>2026-04-25T15:11:04Z</time></trkpt><trkpt lat="46.129325084717756" lon="9.848248368724835"><ele>1440.0</ele><time>2026-04-25T15:11:05Z</time></trkpt><trkpt lat="46.12932339448418" lon="9.848382224413527"><ele>1438.8</ele><time>2026-04-25T15:11:06Z</time></trkpt><trkpt lat="46.12930166379579" lon="9.848511257755332"><ele>1437.6</ele><time>2026-04-25T15:11:07Z</time></trkpt><trkpt lat="46.12929418059548" lon="9.848654241297487"><ele>1436.4</ele><time>2026-04-25T15:11:08Z</time></trkpt><trkpt lat="46.12929505321946" lon="9.848766142701296"><ele>1435.2</ele><time>2026-04-25T15:11:09Z</time></trkpt><trkpt lat="46.129294078604744" lon="9.8488599541056"><ele>1434.0</ele><time>2026-04-25T15:11:10Z</time></trkpt><trkpt lat="46.12921401630587" lon="9.848992577187971"><ele>1434.0</ele><time>2026-04-25T15:11:12Z</time></trkpt><trkpt lat="46.129125382253925" lon="9.849081934344042"><ele>1434.0</ele><time>2026-04-25T15:11:14Z</time></trkpt><trkpt lat="46.12906677081586" lon="9.849172923414274"><ele>1434.0</ele><time>2026-04-25T15:11:17Z</time></trkpt><trkpt lat="46.12899222986395" lon="9.849258371026478"><ele>1434.0</ele><time>2026-04-25T15:11:20Z</time></trkpt><trkpt lat="46.12891966935205" lon="9.84943370145676"><ele>1434.0</ele><time>2026-04-25T15:11:22Z</time></trkpt><trkpt lat="46.12887929824357" lon="9.849529769005402"><ele>1434.6</ele><time>2026-04-25T15:11:23Z</time></trkpt><trkpt lat="46.128849799826654" lon="9.849618654711591"><ele>1435.2</ele><time>2026-04-25T15:11:24Z</time></trkpt><trkpt lat="46.1288015880216" lon="9.849684737696728"><ele>1435.8</ele><time>2026-04-25T15:11:25Z</time></trkpt><trkpt lat="46.128743266373846" lon="9.849862484871503"><ele>1436.3999999999999</ele><time>2026-04-25T15:11:27Z</time></trkpt><trkpt lat="46.12870494918441" lon="9.85000448039173"><ele>1437.0</ele><time>2026-04-25T15:11:28Z</time></trkpt><trkpt lat="46.12867256255906" lon="9.850131746857906"><ele>1437.0</ele><time>2026-04-25T15:11:29Z</time></trkpt><trkpt lat="46.12864347398688" lon="9.850262503602094"><ele>1437.0</ele><time>2026-04-25T15:11:30Z</time></trkpt><trkpt lat="46.12861480578576" lon="9.850374946950906"><ele>1437.0</ele><time>2026-04-25T15:11:31Z</time></trkpt><trkpt lat="46.12856286775926" lon="9.850482484885903"><ele>1437.0</ele><time>2026-04-25T15:11:32Z</time></trkpt><trkpt lat="46.12852704225529" lon="9.850644234987143"><ele>1437.0</ele><time>2026-04-25T15:11:33Z</time></trkpt><trkpt lat="46.12845306723793" lon="9.850772204344867"><ele>1437.0</ele><time>2026-04-25T15:11:34Z</time></trkpt><trkpt lat="46.128404865787374" lon="9.850854074723093"><ele>1437.0</ele><time>2026-04-25T15:11:35Z</time></trkpt><trkpt lat="46.12828025090149" lon="9.850875768720154"><ele>1437.0</ele><time>2026-04-25T15:11:37Z</time></trkpt><trkpt lat="46.12819323435285" lon="9.850901386968324"><ele>1437.0</ele><time>2026-04-25T15:11:38Z</time></trkpt><trkpt lat="46.12813465606574" lon="9.850938217301378"><ele>1437.0</ele><time>2026-04-25T15:11:39Z</time></trkpt><trkpt lat="46.12813288251857" lon="9.851066940674233"><ele>1437.0</ele><time>2026-04-25T15:11:40Z</time></trkpt><trkpt lat="46.12812684775959" lon="9.85121286238477"><ele>1444.3999999999999</ele><time>2026-04-25T15:11:41Z</time></trkpt><trkpt lat="46.128104091290844" lon="9.851337440991859"><ele>1451.8</ele><time>2026-04-25T15:11:42Z</time></trkpt><trkpt lat="46.12811126614175" lon="9.85147883837391"><ele>1459.2</ele><time>2026-04-25T15:11:43Z</time></trkpt><trkpt lat="46.12811663865121" lon="9.851591223400758"><ele>1466.6</ele><time>2026-04-25T15:11:44Z</time></trkpt><trkpt lat="46.1280737004326" lon="9.851690113970623"><ele>1474.0</ele><time>2026-04-25T15:11:46Z</time></trkpt><trkpt lat="46.12801462956235" lon="9.8518436616329"><ele>1474.0</ele><time>2026-04-25T15:11:47Z</time></trkpt><trkpt lat="46.12803126041007" lon="9.851997934564759"><ele>1474.0</ele><time>2026-04-25T15:11:48Z</time></trkpt><trkpt lat="46.12802788964744" lon="9.852124234709981"><ele>1474.0</ele><time>2026-04-25T15:11:49Z</time></trkpt><trkpt lat="46.1280166340721" lon="9.852215225460847"><ele>1474.0</ele><time>2026-04-25T15:11:50Z</time></trkpt><trkpt lat="46.127973320543475" lon="9.852307483211538"><ele>1474.0</ele><time>2026-04-25T15:11:51Z</time></trkpt><trkpt lat="46.127904796966014" lon="9.85243518611597"><ele>1474.0</ele><time>2026-04-25T15:11:52Z</time></trkpt><trkpt lat="46.12779181648909" lon="9.852569746336856"><ele>1470.4</ele><time>2026-04-25T15:11:53Z</time></trkpt><trkpt lat="46.12772313864526" lon="9.852702434225161"><ele>1466.8000000000002</ele><time>2026-04-25T15:11:54Z</time></trkpt><trkpt lat="46.12765337168198" lon="9.852851703910442"><ele>1463.1999999999998</ele><time>2026-04-25T15:11:55Z</time></trkpt><trkpt lat="46.12760139449869" lon="9.852969352392789"><ele>1459.6</ele><time>2026-04-25T15:11:56Z</time></trkpt><trkpt lat="46.12759738793183" lon="9.853085831989208"><ele>1456.0</ele><time>2026-04-25T15:11:57Z</time></trkpt><trkpt lat="46.12759465507695" lon="9.853224845137692"><ele>1456.0</ele><time>2026-04-25T15:11:58Z</time></trkpt><trkpt lat="46.12759968866642" lon="9.853388576001674"><ele>1456.0</ele><time>2026-04-25T15:11:59Z</time></trkpt><trkpt lat="46.12755851349483" lon="9.853536318547542"><ele>1456.0</ele><time>2026-04-25T15:12:00Z</time></trkpt><trkpt lat="46.127481870924484" lon="9.85369242817467"><ele>1456.0</ele><time>2026-04-25T15:12:01Z</time></trkpt><trkpt lat="46.127415450997695" lon="9.853842605934716"><ele>1453.25</ele><time>2026-04-25T15:12:02Z</time></trkpt><trkpt lat="46.12740196866101" lon="9.854008115156077"><ele>1450.5</ele><time>2026-04-25T15:12:03Z</time></trkpt><trkpt lat="46.127435546326346" lon="9.854189931267772"><ele>1447.75</ele><time>2026-04-25T15:12:04Z</time></trkpt><trkpt lat="46.127482154105586" lon="9.85436978297305"><ele>1445.0</ele><time>2026-04-25T15:12:05Z</time></trkpt><trkpt lat="46.12752757174299" lon="9.854504780243914"><ele>1442.5</ele><time>2026-04-25T15:12:06Z</time></trkpt><trkpt lat="46.127508564978314" lon="9.854641278305529"><ele>1440.0</ele><time>2026-04-25T15:12:07Z</time></trkpt><trkpt lat="46.12746773621061" lon="9.85480392733775"><ele>1437.5</ele><time>2026-04-25T15:12:08Z</time></trkpt><trkpt lat="46.12740648124701" lon="9.854964441659266"><ele>1435.0</ele><time>2026-04-25T15:12:09Z</time></trkpt><trkpt lat="46.127349116711486" lon="9.855102172898432"><ele>1444.0</ele><time>2026-04-25T15:12:10Z</time></trkpt><trkpt lat="46.12730343828271" lon="9.85523554403092"><ele>1453.0</ele><time>2026-04-25T15:12:11Z</time></trkpt><trkpt lat="46.12723678311197" lon="9.855339228842961"><ele>1462.0</ele><time>2026-04-25T15:12:12Z</time></trkpt><trkpt lat="46.12714491921474" lon="9.855436465519753"><ele>1471.0</ele><time>2026-04-25T15:12:13Z</time></trkpt><trkpt lat="46.1270887307012" lon="9.855543550816174"><ele>1480.0</ele><time>2026-04-25T15:12:14Z</time></trkpt><trkpt lat="46.12709781023948" lon="9.855671827906944"><ele>1480.0</ele><time>2026-04-25T15:12:15Z</time></trkpt><trkpt lat="46.12711486220107" lon="9.85584407431871"><ele>1480.0</ele><time>2026-04-25T15:12:16Z</time></trkpt><trkpt lat="46.12709210459191" lon="9.855987296189618"><ele>1480.0</ele><time>2026-04-25T15:12:17Z</time></trkpt><trkpt lat="46.127066616910376" lon="9.856140279383968"><ele>1480.0</ele><time>2026-04-25T15:12:18Z</time></trkpt><trkpt lat="46.12699595164894" lon="9.85629396447897"><ele>1474.75</ele><time>2026-04-25T15:12:19Z</time></trkpt><trkpt lat="46.1269230803292" lon="9.856476920373858"><ele>1469.5</ele><time>2026-04-25T15:12:20Z</time></trkpt><trkpt lat="46.12686263591535" lon="9.856597713845407"><ele>1464.25</ele><time>2026-04-25T15:12:21Z</time></trkpt><trkpt lat="46.12679504565859" lon="9.856700392611863"><ele>1459.0</ele><time>2026-04-25T15:12:22Z</time></trkpt><trkpt lat="46.12670581123636" lon="9.856809302747594"><ele>1462.0</ele><time>2026-04-25T15:12:23Z</time></trkpt><trkpt lat="46.12661146481782" lon="9.856934062706157"><ele>1465.0</ele><time>2026-04-25T15:12:24Z</time></trkpt><trkpt lat="46.126522971708866" lon="9.8570927528089"><ele>1468.0</ele><time>2026-04-25T15:12:25Z</time></trkpt><trkpt lat="46.1264159667489" lon="9.857287669614198"><ele>1471.0</ele><time>2026-04-25T15:12:26Z</time></trkpt><trkpt lat="46.1263388311146" lon="9.857446344411148"><ele>1471.0</ele><time>2026-04-25T15:12:27Z</time></trkpt><trkpt lat="46.12625422281933" lon="9.857615836160628"><ele>1471.0</ele><time>2026-04-25T15:12:28Z</time></trkpt><trkpt lat="46.12619013141982" lon="9.85777879753237"><ele>1471.0</ele><time>2026-04-25T15:12:29Z</time></trkpt><trkpt lat="46.12613921552532" lon="9.85796816515238"><ele>1471.0</ele><time>2026-04-25T15:12:30Z</time></trkpt><trkpt lat="46.12609598327933" lon="9.858134453894852"><ele>1472.0</ele><time>2026-04-25T15:12:31Z</time></trkpt><trkpt lat="46.12605345111822" lon="9.858257961589324"><ele>1473.0</ele><time>2026-04-25T15:12:32Z</time></trkpt><trkpt lat="46.125998653737064" lon="9.858318299525603"><ele>1474.0</ele><time>2026-04-25T15:12:33Z</time></trkpt><trkpt lat="46.125922570111065" lon="9.858349473071904"><ele>1475.0</ele><time>2026-04-25T15:12:34Z</time></trkpt><trkpt lat="46.1258325449493" lon="9.858381143624982"><ele>1476.0</ele><time>2026-04-25T15:12:35Z</time></trkpt><trkpt lat="46.12573117513746" lon="9.858405219945547"><ele>1477.0</ele><time>2026-04-25T15:12:36Z</time></trkpt><trkpt lat="46.12563237398945" lon="9.858411959626896"><ele>1477.0</ele><time>2026-04-25T15:12:37Z</time></trkpt><trkpt lat="46.12550275098191" lon="9.858368566561053"><ele>1477.0</ele><time>2026-04-25T15:12:38Z</time></trkpt><trkpt lat="46.125366472720785" lon="9.858309897531935"><ele>1477.0</ele><time>2026-04-25T15:12:39Z</time></trkpt><trkpt lat="46.125281335386475" lon="9.858327561833615"><ele>1477.0</ele><time>2026-04-25T15:12:40Z</time></trkpt><trkpt lat="46.12520788439363" lon="9.85843353672296"><ele>1470.25</ele><time>2026-04-25T15:12:41Z</time></trkpt><trkpt lat="46.12518146110056" lon="9.85857704661252"><ele>1463.5</ele><time>2026-04-25T15:12:42Z</time></trkpt><trkpt lat="46.12514730480232" lon="9.858739606953488"><ele>1456.75</ele><time>2026-04-25T15:12:43Z</time></trkpt><trkpt lat="46.12515556483836" lon="9.858938634441236"><ele>1450.0</ele><time>2026-04-25T15:12:44Z</time></trkpt><trkpt lat="46.1251416650456" lon="9.859071116417136"><ele>1450.0</ele><time>2026-04-25T15:12:45Z</time></trkpt><trkpt lat="46.125106527512884" lon="9.859212200407121"><ele>1450.0</ele><time>2026-04-25T15:12:46Z</time></trkpt><trkpt lat="46.12505328173848" lon="9.859353007658912"><ele>1450.0</ele><time>2026-04-25T15:12:47Z</time></trkpt><trkpt lat="46.12500860087064" lon="9.859506883547075"><ele>1450.0</ele><time>2026-04-25T15:12:48Z</time></trkpt><trkpt lat="46.12499407012079" lon="9.859675272578505"><ele>1450.0</ele><time>2026-04-25T15:12:49Z</time></trkpt><trkpt lat="46.12498510834989" lon="9.859858468177672"><ele>1446.8</ele><time>2026-04-25T15:12:50Z</time></trkpt><trkpt lat="46.124967235041986" lon="9.8600005036193"><ele>1443.6</ele><time>2026-04-25T15:12:51Z</time></trkpt><trkpt lat="46.12494951603325" lon="9.860107330495572"><ele>1440.4</ele><time>2026-04-25T15:12:52Z</time></trkpt><trkpt lat="46.12486200139553" lon="9.860156616975647"><ele>1437.2</ele><time>2026-04-25T15:12:53Z</time></trkpt><trkpt lat="46.124753410040896" lon="9.860206020385037"><ele>1434.0</ele><time>2026-04-25T15:12:54Z</time></trkpt><trkpt lat="46.1245908484445" lon="9.860264240600097"><ele>1433.75</ele><time>2026-04-25T15:12:55Z</time></trkpt><trkpt lat="46.124488824895884" lon="9.860335894816233"><ele>1433.5</ele><time>2026-04-25T15:12:56Z</time></trkpt><trkpt lat="46.12437538799274" lon="9.86038733554588"><ele>1433.25</ele><time>2026-04-25T15:12:57Z</time></trkpt><trkpt lat="46.12422701916919" lon="9.860426214525031"><ele>1433.0</ele><time>2026-04-25T15:12:58Z</time></trkpt><trkpt lat="46.12409924411582" lon="9.860400680424965"><ele>1440.1666666666667</ele><time>2026-04-25T15:12:59Z</time></trkpt><trkpt lat="46.124019484748416" lon="9.860427279642675"><ele>1447.3333333333335</ele><time>2026-04-25T15:13:00Z</time></trkpt><trkpt lat="46.12393163338097" lon="9.860478671693548"><ele>1454.5</ele><time>2026-04-25T15:13:01Z</time></trkpt><trkpt lat="46.12384296552306" lon="9.86053784454758"><ele>1461.6666666666667</ele><time>2026-04-25T15:13:02Z</time></trkpt><trkpt lat="46.123769955720995" lon="9.860617731053452"><ele>1468.8333333333333</ele><time>2026-04-25T15:13:03Z</time></trkpt><trkpt lat="46.123749020921935" lon="9.860708171083111"><ele>1476.0</ele><time>2026-04-25T15:13:04Z</time></trkpt><trkpt lat="46.123774237934235" lon="9.860801554699552"><ele>1476.6666666666667</ele><time>2026-04-25T15:13:05Z</time></trkpt><trkpt lat="46.12378622737747" lon="9.860978415435975"><ele>1477.3333333333335</ele><time>2026-04-25T15:13:06Z</time></trkpt><trkpt lat="46.12384324226463" lon="9.861188350265925"><ele>1478.0</ele><time>2026-04-25T15:13:07Z</time></trkpt><trkpt lat="46.12391038664093" lon="9.861430523737074"><ele>1478.0</ele><time>2026-04-25T15:13:08Z</time></trkpt><trkpt lat="46.12398723576655" lon="9.86154714786994"><ele>1478.0</ele><time>2026-04-25T15:13:09Z</time></trkpt><trkpt lat="46.123994262668376" lon="9.861693343268499"><ele>1478.0</ele><time>2026-04-25T15:13:10Z</time></trkpt><trkpt lat="46.12398458081399" lon="9.861848149765338"><ele>1478.0</ele><time>2026-04-25T15:13:11Z</time></trkpt><trkpt lat="46.12397671486714" lon="9.861989869789426"><ele>1478.0</ele><time>2026-04-25T15:13:12Z</time></trkpt><trkpt lat="46.12399556514359" lon="9.862115894848595"><ele>1475.0</ele><time>2026-04-25T15:13:13Z</time></trkpt><trkpt lat="46.124042437740265" lon="9.86220578338994"><ele>1472.0</ele><time>2026-04-25T15:13:14Z</time></trkpt><trkpt lat="46.124076139111615" lon="9.862292982203606"><ele>1469.0</ele><time>2026-04-25T15:13:15Z</time></trkpt><trkpt lat="46.124079078606336" lon="9.862395630433312"><ele>1466.0</ele><time>2026-04-25T15:13:16Z</time></trkpt><trkpt lat="46.12402441289696" lon="9.862545528724976"><ele>1463.0</ele><time>2026-04-25T15:13:17Z</time></trkpt><trkpt lat="46.12397047123589" lon="9.862728404059366"><ele>1458.0</ele><time>2026-04-25T15:13:18Z</time></trkpt><trkpt lat="46.12391188417038" lon="9.862905215239655"><ele>1453.0</ele><time>2026-04-25T15:13:19Z</time></trkpt><trkpt lat="46.12389919248914" lon="9.86309113910624"><ele>1448.0</ele><time>2026-04-25T15:13:20Z</time></trkpt><trkpt lat="46.123900446263576" lon="9.86327682551791"><ele>1443.0</ele><time>2026-04-25T15:13:21Z</time></trkpt><trkpt lat="46.12388998201466" lon="9.86349179634853"><ele>1440.75</ele><time>2026-04-25T15:13:22Z</time></trkpt><trkpt lat="46.12387433795151" lon="9.863693941876681"><ele>1438.5</ele><time>2026-04-25T15:13:23Z</time></trkpt><trkpt lat="46.1238417338511" lon="9.863907250767811"><ele>1436.25</ele><time>2026-04-25T15:13:24Z</time></trkpt><trkpt lat="46.12378170252101" lon="9.864108862016137"><ele>1434.0</ele><time>2026-04-25T15:13:25Z</time></trkpt><trkpt lat="46.12370799364959" lon="9.864300096419262"><ele>1433.0</ele><time>2026-04-25T15:13:26Z</time></trkpt><trkpt lat="46.123631307677016" lon="9.86447939033402"><ele>1432.0</ele><time>2026-04-25T15:13:27Z</time></trkpt><trkpt lat="46.123582814792236" lon="9.864655382128255"><ele>1431.0</ele><time>2026-04-25T15:13:28Z</time></trkpt><trkpt lat="46.12353005308003" lon="9.86481191217822"><ele>1430.0</ele><time>2026-04-25T15:13:29Z</time></trkpt><trkpt lat="46.12349951232878" lon="9.864983029498088"><ele>1427.25</ele><time>2026-04-25T15:13:30Z</time></trkpt><trkpt lat="46.123498892149996" lon="9.865192475040649"><ele>1424.5</ele><time>2026-04-25T15:13:31Z</time></trkpt><trkpt lat="46.123459353798275" lon="9.86537442336962"><ele>1421.75</ele><time>2026-04-25T15:13:32Z</time></trkpt><trkpt lat="46.12344345366941" lon="9.86552413246358"><ele>1419.0</ele><time>2026-04-25T15:13:33Z</time></trkpt><trkpt lat="46.123409557128404" lon="9.865637775494568"><ele>1419.0</ele><time>2026-04-25T15:13:34Z</time></trkpt><trkpt lat="46.12334599685887" lon="9.865804751407946"><ele>1419.0</ele><time>2026-04-25T15:13:35Z</time></trkpt><trkpt lat="46.123259027913996" lon="9.866017810959441"><ele>1419.0</ele><time>2026-04-25T15:13:36Z</time></trkpt><trkpt lat="46.12321041194812" lon="9.86620348247334"><ele>1419.0</ele><time>2026-04-25T15:13:37Z</time></trkpt><trkpt lat="46.12317866929079" lon="9.866351830731467"><ele>1420.2</ele><time>2026-04-25T15:13:38Z</time></trkpt><trkpt lat="46.12317936153387" lon="9.866468682428675"><ele>1421.4</ele><time>2026-04-25T15:13:39Z</time></trkpt><trkpt lat="46.123195232898766" lon="9.866602720753706"><ele>1422.6</ele><time>2026-04-25T15:13:40Z</time></trkpt><trkpt lat="46.123261933837796" lon="9.86676561761308"><ele>1423.8</ele><time>2026-04-25T15:13:41Z</time></trkpt><trkpt lat="46.123309641555416" lon="9.866885693864178"><ele>1425.0</ele><time>2026-04-25T15:13:42Z</time></trkpt><trkpt lat="46.12336653963539" lon="9.867013220532264"><ele>1428.75</ele><time>2026-04-25T15:13:43Z</time></trkpt><trkpt lat="46.12347611904167" lon="9.867121619189671"><ele>1432.5</ele><time>2026-04-25T15:13:44Z</time></trkpt><trkpt lat="46.12361321555257" lon="9.867213014355572"><ele>1436.25</ele><time>2026-04-25T15:13:45Z</time></trkpt><trkpt lat="46.12373124507689" lon="9.867329598806077"><ele>1440.0</ele><time>2026-04-25T15:13:46Z</time></trkpt><trkpt lat="46.123835002940396" lon="9.867410000623446"><ele>1440.0</ele><time>2026-04-25T15:13:47Z</time></trkpt><trkpt lat="46.12393927611808" lon="9.867450019380028"><ele>1440.0</ele><time>2026-04-25T15:13:48Z</time></trkpt><trkpt lat="46.12404811395819" lon="9.867487229759051"><ele>1440.0</ele><time>2026-04-25T15:13:49Z</time></trkpt><trkpt lat="46.12416266845017" lon="9.867523479740624"><ele>1440.0</ele><time>2026-04-25T15:13:50Z</time></trkpt><trkpt lat="46.12427547442497" lon="9.867543339971187"><ele>1436.2</ele><time>2026-04-25T15:13:51Z</time></trkpt><trkpt lat="46.12436155087141" lon="9.867568969006985"><ele>1432.4</ele><time>2026-04-25T15:13:52Z</time></trkpt><trkpt lat="46.124432085032225" lon="9.867613799398024"><ele>1428.6</ele><time>2026-04-25T15:13:53Z</time></trkpt><trkpt lat="46.124509239306114" lon="9.867716487634485"><ele>1424.8</ele><time>2026-04-25T15:13:54Z</time></trkpt><trkpt lat="46.124559999890444" lon="9.867878141546306"><ele>1421.0</ele><time>2026-04-25T15:13:55Z</time></trkpt><trkpt lat="46.12463692565786" lon="9.868035826389972"><ele>1421.0</ele><time>2026-04-25T15:13:56Z</time></trkpt><trkpt lat="46.124707110274294" lon="9.868152893318673"><ele>1421.0</ele><time>2026-04-25T15:13:57Z</time></trkpt><trkpt lat="46.12478098396184" lon="9.868273051058955"><ele>1421.0</ele><time>2026-04-25T15:13:58Z</time></trkpt><trkpt lat="46.12483672158425" lon="9.86841912902972"><ele>1421.0</ele><time>2026-04-25T15:13:59Z</time></trkpt><trkpt lat="46.12490505011851" lon="9.868601638790063"><ele>1418.5</ele><time>2026-04-25T15:14:00Z</time></trkpt><trkpt lat="46.12495850489654" lon="9.868793321560585"><ele>1416.0</ele><time>2026-04-25T15:14:01Z</time></trkpt><trkpt lat="46.1250183746539" lon="9.868958857690577"><ele>1413.5</ele><time>2026-04-25T15:14:02Z</time></trkpt><trkpt lat="46.12506588485681" lon="9.869105960445022"><ele>1411.0</ele><time>2026-04-25T15:14:03Z</time></trkpt><trkpt lat="46.125137078572806" lon="9.869266235168473"><ele>1414.4</ele><time>2026-04-25T15:14:04Z</time></trkpt><trkpt lat="46.12520176346747" lon="9.86939558372827"><ele>1417.8</ele><time>2026-04-25T15:14:05Z</time></trkpt><trkpt lat="46.12527467751247" lon="9.869485980511296"><ele>1421.2</ele><time>2026-04-25T15:14:06Z</time></trkpt><trkpt lat="46.12537753642552" lon="9.869575293261262"><ele>1424.6000000000001</ele><time>2026-04-25T15:14:07Z</time></trkpt><trkpt lat="46.125479721522424" lon="9.86965931886506"><ele>1428.0</ele><time>2026-04-25T15:14:08Z</time></trkpt><trkpt lat="46.12561208988437" lon="9.869704085057089"><ele>1424.0</ele><time>2026-04-25T15:14:09Z</time></trkpt><trkpt lat="46.125735398392095" lon="9.869766264635683"><ele>1420.0</ele><time>2026-04-25T15:14:10Z</time></trkpt><trkpt lat="46.12585692149213" lon="9.869813700303414"><ele>1416.0</ele><time>2026-04-25T15:14:11Z</time></trkpt><trkpt lat="46.12594893313553" lon="9.869844812501013"><ele>1412.0</ele><time>2026-04-25T15:14:12Z</time></trkpt><trkpt lat="46.12604053098802" lon="9.869908136567199"><ele>1412.0</ele><time>2026-04-25T15:14:13Z</time></trkpt><trkpt lat="46.1261139142559" lon="9.869980838082258"><ele>1412.0</ele><time>2026-04-25T15:14:14Z</time></trkpt><trkpt lat="46.12618486720475" lon="9.870025432799883"><ele>1412.0</ele><time>2026-04-25T15:14:15Z</time></trkpt><trkpt lat="46.12626852998795" lon="9.87009785241371"><ele>1412.0</ele><time>2026-04-25T15:14:16Z</time></trkpt><trkpt lat="46.12633375283785" lon="9.870211979629518"><ele>1412.0</ele><time>2026-04-25T15:14:17Z</time></trkpt><trkpt lat="46.12637466828696" lon="9.870379821231886"><ele>1414.1999999999998</ele><time>2026-04-25T15:14:18Z</time></trkpt><trkpt lat="46.12637258077061" lon="9.87053198710035"><ele>1416.4</ele><time>2026-04-25T15:14:19Z</time></trkpt><trkpt lat="46.12636225134551" lon="9.870676813502726"><ele>1418.6</ele><time>2026-04-25T15:14:20Z</time></trkpt><trkpt lat="46.126314011409285" lon="9.870809147518337"><ele>1420.8000000000002</ele><time>2026-04-25T15:14:21Z</time></trkpt><trkpt lat="46.12627515347712" lon="9.870959645653967"><ele>1423.0</ele><time>2026-04-25T15:14:22Z</time></trkpt><trkpt lat="46.126250130752574" lon="9.871079194672332"><ele>1426.6000000000001</ele><time>2026-04-25T15:14:23Z</time></trkpt><trkpt lat="46.12620572325604" lon="9.871176992140395"><ele>1430.2</ele><time>2026-04-25T15:14:24Z</time></trkpt><trkpt lat="46.12621897732814" lon="9.87129670759796"><ele>1433.8</ele><time>2026-04-25T15:14:26Z</time></trkpt><trkpt lat="46.12630171132366" lon="9.871285529332267"><ele>1437.4</ele><time>2026-04-25T15:14:27Z</time></trkpt><trkpt lat="46.12642087903128" lon="9.871221603866397"><ele>1441.0</ele><time>2026-04-25T15:14:28Z</time></trkpt><trkpt lat="46.126524427947565" lon="9.871134530486339"><ele>1440.0</ele><time>2026-04-25T15:14:29Z</time></trkpt><trkpt lat="46.12661332606907" lon="9.871056586310504"><ele>1439.0</ele><time>2026-04-25T15:14:30Z</time></trkpt><trkpt lat="46.12671658559002" lon="9.870951890122376"><ele>1438.0</ele><time>2026-04-25T15:14:31Z</time></trkpt><trkpt lat="46.126823855807416" lon="9.870796667983221"><ele>1437.0</ele><time>2026-04-25T15:14:32Z</time></trkpt><trkpt lat="46.12689545515331" lon="9.870674706532876"><ele>1434.0</ele><time>2026-04-25T15:14:33Z</time></trkpt><trkpt lat="46.12697130898458" lon="9.870592630440331"><ele>1431.0</ele><time>2026-04-25T15:14:34Z</time></trkpt><trkpt lat="46.127063911210364" lon="9.870548278343787"><ele>1428.0</ele><time>2026-04-25T15:14:35Z</time></trkpt><trkpt lat="46.127172667365905" lon="9.870503938838494"><ele>1425.0</ele><time>2026-04-25T15:14:36Z</time></trkpt><trkpt lat="46.12729011444583" lon="9.870473314018655"><ele>1422.0</ele><time>2026-04-25T15:14:37Z</time></trkpt><trkpt lat="46.127422858181156" lon="9.87045988761222"><ele>1422.0</ele><time>2026-04-25T15:14:38Z</time></trkpt><trkpt lat="46.12752344865264" lon="9.870431997274926"><ele>1422.0</ele><time>2026-04-25T15:14:39Z</time></trkpt><trkpt lat="46.127620181673805" lon="9.870422922383714"><ele>1422.0</ele><time>2026-04-25T15:14:40Z</time></trkpt><trkpt lat="46.127718480289374" lon="9.870359909649148"><ele>1422.0</ele><time>2026-04-25T15:14:41Z</time></trkpt><trkpt lat="46.12785143583498" lon="9.870462778326663"><ele>1422.0</ele><time>2026-04-25T15:14:42Z</time></trkpt><trkpt lat="46.127976422543995" lon="9.870498204530904"><ele>1422.0</ele><time>2026-04-25T15:14:43Z</time></trkpt><trkpt lat="46.12809025167706" lon="9.87047390708048"><ele>1422.0</ele><time>2026-04-25T15:14:44Z</time></trkpt><trkpt lat="46.12820433980075" lon="9.87046232933361"><ele>1422.0</ele><time>2026-04-25T15:14:45Z</time></trkpt><trkpt lat="46.12828294642778" lon="9.870407899094335"><ele>1422.0</ele><time>2026-04-25T15:14:46Z</time></trkpt><trkpt lat="46.12839265450246" lon="9.870282459370635"><ele>1423.0</ele><time>2026-04-25T15:14:47Z</time></trkpt><trkpt lat="46.12851427155666" lon="9.870129387313943"><ele>1424.0</ele><time>2026-04-25T15:14:48Z</time></trkpt><trkpt lat="46.12860254756786" lon="9.869988233139328"><ele>1425.0</ele><time>2026-04-25T15:14:49Z</time></trkpt><trkpt lat="46.12868188947305" lon="9.869917907027538"><ele>1426.0</ele><time>2026-04-25T15:14:50Z</time></trkpt><trkpt lat="46.128766931254184" lon="9.869891512877976"><ele>1419.25</ele><time>2026-04-25T15:14:51Z</time></trkpt><trkpt lat="46.128887789333284" lon="9.869928890006708"><ele>1412.5</ele><time>2026-04-25T15:14:52Z</time></trkpt><trkpt lat="46.129024950385904" lon="9.869955137835717"><ele>1405.75</ele><time>2026-04-25T15:14:53Z</time></trkpt><trkpt lat="46.12917656559169" lon="9.869944410693158"><ele>1399.0</ele><time>2026-04-25T15:14:54Z</time></trkpt><trkpt lat="46.12929245839693" lon="9.86995662197953"><ele>1399.0</ele><time>2026-04-25T15:14:55Z</time></trkpt><trkpt lat="46.129409032166876" lon="9.869942657640937"><ele>1399.0</ele><time>2026-04-25T15:14:56Z</time></trkpt><trkpt lat="46.12948508866538" lon="9.869879191178784"><ele>1399.0</ele><time>2026-04-25T15:14:57Z</time></trkpt><trkpt lat="46.1295877154612" lon="9.869768686390593"><ele>1399.0</ele><time>2026-04-25T15:14:58Z</time></trkpt><trkpt lat="46.12967304702947" lon="9.869641634473991"><ele>1399.0</ele><time>2026-04-25T15:14:59Z</time></trkpt><trkpt lat="46.12977239271395" lon="9.869493641210195"><ele>1399.0</ele><time>2026-04-25T15:15:00Z</time></trkpt><trkpt lat="46.129910278193826" lon="9.869379712528671"><ele>1399.0</ele><time>2026-04-25T15:15:01Z</time></trkpt><trkpt lat="46.13002410810151" lon="9.869251079651361"><ele>1399.0</ele><time>2026-04-25T15:15:02Z</time></trkpt><trkpt lat="46.130106939089856" lon="9.869115058728308"><ele>1398.0</ele><time>2026-04-25T15:15:03Z</time></trkpt><trkpt lat="46.13019274294519" lon="9.86898334608992"><ele>1397.0</ele><time>2026-04-25T15:15:04Z</time></trkpt><trkpt lat="46.13023992110704" lon="9.86890662065999"><ele>1396.0</ele><time>2026-04-25T15:15:05Z</time></trkpt><trkpt lat="46.13035022976289" lon="9.868863812943378"><ele>1395.0</ele><time>2026-04-25T15:15:11Z</time></trkpt><trkpt lat="46.130427383907836" lon="9.86887935567329"><ele>1394.0</ele><time>2026-04-25T15:15:14Z</time></trkpt><trkpt lat="46.13043037021145" lon="9.869033085571319"><ele>1394.0</ele><time>2026-04-25T15:15:16Z</time></trkpt><trkpt lat="46.13044036693077" lon="9.869126719807733"><ele>1394.0</ele><time>2026-04-25T15:15:19Z</time></trkpt><trkpt lat="46.130462062195406" lon="9.869216604121759"><ele>1394.0</ele><time>2026-04-25T15:15:21Z</time></trkpt><trkpt lat="46.13046209523189" lon="9.869308812945135"><ele>1394.0</ele><time>2026-04-25T15:15:24Z</time></trkpt><trkpt lat="46.13044819372402" lon="9.869403186461525"><ele>1394.0</ele><time>2026-04-25T15:15:26Z</time></trkpt><trkpt lat="46.13046879305867" lon="9.869527293916441"><ele>1394.0</ele><time>2026-04-25T15:15:28Z</time></trkpt><trkpt lat="46.13042459287497" lon="9.86965828859474"><ele>1398.6</ele><time>2026-04-25T15:15:30Z</time></trkpt><trkpt lat="46.13041749024872" lon="9.869801277232972"><ele>1403.2</ele><time>2026-04-25T15:15:32Z</time></trkpt><trkpt lat="46.13038023968857" lon="9.869927654309981"><ele>1407.8</ele><time>2026-04-25T15:15:34Z</time></trkpt><trkpt lat="46.13036583860965" lon="9.870055002582523"><ele>1412.3999999999999</ele><time>2026-04-25T15:15:36Z</time></trkpt><trkpt lat="46.130473811461" lon="9.870013388042869"><ele>1417.0</ele><time>2026-04-25T15:15:40Z</time></trkpt><trkpt lat="46.13055415230244" lon="9.869936309526771"><ele>1417.0</ele><time>2026-04-25T15:15:41Z</time></trkpt><trkpt lat="46.13067440347831" lon="9.869864683570478"><ele>1417.0</ele><time>2026-04-25T15:15:42Z</time></trkpt><trkpt lat="46.130768933220736" lon="9.869865546617964"><ele>1417.0</ele><time>2026-04-25T15:15:43Z</time></trkpt><trkpt lat="46.130854137070514" lon="9.869948283267057"><ele>1417.0</ele><time>2026-04-25T15:15:44Z</time></trkpt><trkpt lat="46.13087814331967" lon="9.870062486102652"><ele>1417.0</ele><time>2026-04-25T15:15:45Z</time></trkpt><trkpt lat="46.13090892601492" lon="9.870217419728814"><ele>1422.6666666666665</ele><time>2026-04-25T15:15:46Z</time></trkpt><trkpt lat="46.13094711795569" lon="9.870331059350118"><ele>1428.3333333333333</ele><time>2026-04-25T15:15:47Z</time></trkpt><trkpt lat="46.13100121584886" lon="9.870407214040341"><ele>1434.0</ele><time>2026-04-25T15:15:48Z</time></trkpt><trkpt lat="46.131087878924156" lon="9.870447428485855"><ele>1439.6666666666667</ele><time>2026-04-25T15:15:49Z</time></trkpt><trkpt lat="46.131177680922804" lon="9.870457824842948"><ele>1445.3333333333335</ele><time>2026-04-25T15:15:50Z</time></trkpt><trkpt lat="46.131277797375894" lon="9.870473664349827"><ele>1451.0</ele><time>2026-04-25T15:15:51Z</time></trkpt><trkpt lat="46.13134500865606" lon="9.870543679039026"><ele>1451.0</ele><time>2026-04-25T15:15:52Z</time></trkpt><trkpt lat="46.13141579307887" lon="9.870626992581746"><ele>1451.0</ele><time>2026-04-25T15:15:53Z</time></trkpt><trkpt lat="46.13148737355579" lon="9.87071872272849"><ele>1451.0</ele><time>2026-04-25T15:15:54Z</time></trkpt><trkpt lat="46.13154439587369" lon="9.870782859434538"><ele>1451.0</ele><time>2026-04-25T15:15:55Z</time></trkpt><trkpt lat="46.13160262793227" lon="9.87085350896052"><ele>1451.0</ele><time>2026-04-25T15:15:56Z</time></trkpt><trkpt lat="46.13166098446945" lon="9.870936161872772"><ele>1451.0</ele><time>2026-04-25T15:15:57Z</time></trkpt><trkpt lat="46.13171404838412" lon="9.87103601382725"><ele>1451.0</ele><time>2026-04-25T15:15:58Z</time></trkpt><trkpt lat="46.13177621698559" lon="9.871126126920256"><ele>1451.0</ele><time>2026-04-25T15:15:59Z</time></trkpt><trkpt lat="46.13183242907736" lon="9.87118146531407"><ele>1451.0</ele><time>2026-04-25T15:16:00Z</time></trkpt><trkpt lat="46.13191194489659" lon="9.871253201109113"><ele>1451.0</ele><time>2026-04-25T15:16:02Z</time></trkpt><trkpt lat="46.13193470674105" lon="9.871342040695186"><ele>1451.0</ele><time>2026-04-25T15:16:04Z</time></trkpt><trkpt lat="46.131951101247175" lon="9.871452043572631"><ele>1451.0</ele><time>2026-04-25T15:16:06Z</time></trkpt><trkpt lat="46.13198805474754" lon="9.871605375337246"><ele>1451.0</ele><time>2026-04-25T15:16:08Z</time></trkpt><trkpt lat="46.131955924261014" lon="9.871690114370375"><ele>1451.0</ele><time>2026-04-25T15:16:11Z</time></trkpt><trkpt lat="46.131880668301655" lon="9.87178169353979"><ele>1451.0</ele><time>2026-04-25T15:16:13Z</time></trkpt><trkpt lat="46.13180580766033" lon="9.87180362513678"><ele>1451.0</ele><time>2026-04-25T15:16:14Z</time></trkpt><trkpt lat="46.13171434793981" lon="9.871853538629463"><ele>1451.0</ele><time>2026-04-25T15:16:15Z</time></trkpt><trkpt lat="46.13163140133433" lon="9.871899038577816"><ele>1451.0</ele><time>2026-04-25T15:16:16Z</time></trkpt><trkpt lat="46.1315727053748" lon="9.871937378396616"><ele>1451.3333333333335</ele><time>2026-04-25T15:16:17Z</time></trkpt><trkpt lat="46.13153255040966" lon="9.872031967676573"><ele>1451.6666666666667</ele><time>2026-04-25T15:16:19Z</time></trkpt><trkpt lat="46.13153790086135" lon="9.872157271719942"><ele>1452.0</ele><time>2026-04-25T15:16:21Z</time></trkpt><trkpt lat="46.13156485910026" lon="9.87229419866853"><ele>1452.3333333333333</ele><time>2026-04-25T15:16:23Z</time></trkpt><trkpt lat="46.131589927343946" lon="9.872413817111072"><ele>1452.6666666666665</ele><time>2026-04-25T15:16:25Z</time></trkpt><trkpt lat="46.13166146002653" lon="9.872447595995883"><ele>1453.0</ele><time>2026-04-25T15:16:27Z</time></trkpt><trkpt lat="46.1316899618457" lon="9.872334024373181"><ele>1453.0</ele><time>2026-04-25T15:16:30Z</time></trkpt><trkpt lat="46.131629049511425" lon="9.872264408210597"><ele>1453.0</ele><time>2026-04-25T15:16:32Z</time></trkpt><trkpt lat="46.13153774849504" lon="9.872364895968838"><ele>1453.0</ele><time>2026-04-25T15:16:34Z</time></trkpt><trkpt lat="46.13152000572947" lon="9.872473032402636"><ele>1453.0</ele><time>2026-04-25T15:16:35Z</time></trkpt><trkpt lat="46.13159559239989" lon="9.872570938491881"><ele>1453.0</ele><time>2026-04-25T15:16:37Z</time></trkpt><trkpt lat="46.13169707459624" lon="9.872522426913227"><ele>1453.0</ele><time>2026-04-25T15:16:39Z</time></trkpt><trkpt lat="46.13173775882374" lon="9.87243207312192"><ele>1453.0</ele><time>2026-04-25T15:16:41Z</time></trkpt><trkpt lat="46.13175180335019" lon="9.872337168547157"><ele>1453.0</ele><time>2026-04-25T15:17:13Z</time></trkpt><trkpt lat="46.131819105724226" lon="9.87225461190244"><ele>1453.0</ele><time>2026-04-25T15:17:15Z</time></trkpt><trkpt lat="46.131880006533684" lon="9.87215850766889"><ele>1453.0</ele><time>2026-04-25T15:17:18Z</time></trkpt><trkpt lat="46.131925106390774" lon="9.87207985090248"><ele>1453.0</ele><time>2026-04-25T15:17:20Z</time></trkpt><trkpt lat="46.13195850060492" lon="9.871995615027974"><ele>1453.0</ele><time>2026-04-25T15:17:41Z</time></trkpt><trkpt lat="46.131949411665126" lon="9.871825615042077"><ele>1453.0</ele><time>2026-04-25T15:17:44Z</time></trkpt><trkpt lat="46.1319751258696" lon="9.871689022400911"><ele>1453.0</ele><time>2026-04-25T15:17:46Z</time></trkpt><trkpt lat="46.13205356431457" lon="9.871585893575824"><ele>1453.0</ele><time>2026-04-25T15:17:48Z</time></trkpt><trkpt lat="46.132108385551355" lon="9.871469040098347"><ele>1453.0</ele><time>2026-04-25T15:17:50Z</time></trkpt><trkpt lat="46.1320759020167" lon="9.87134490697152"><ele>1452.6000000000001</ele><time>2026-04-25T15:17:53Z</time></trkpt><trkpt lat="46.13203286690761" lon="9.871274342603819"><ele>1452.2</ele><time>2026-04-25T15:17:54Z</time></trkpt><trkpt lat="46.131919678093965" lon="9.871182790207694"><ele>1451.8</ele><time>2026-04-25T15:17:56Z</time></trkpt><trkpt lat="46.13186041162774" lon="9.871134968110708"><ele>1451.4</ele><time>2026-04-25T15:17:57Z</time></trkpt><trkpt lat="46.13174687912804" lon="9.871081369049469"><ele>1451.0</ele><time>2026-04-25T15:17:59Z</time></trkpt><trkpt lat="46.13168401878941" lon="9.870998763603785"><ele>1451.0</ele><time>2026-04-25T15:18:01Z</time></trkpt><trkpt lat="46.131715509076315" lon="9.870891523096775"><ele>1451.0</ele><time>2026-04-25T15:18:04Z</time></trkpt><trkpt lat="46.131783827699735" lon="9.870935735219133"><ele>1451.0</ele><time>2026-04-25T15:18:06Z</time></trkpt><trkpt lat="46.1318388266402" lon="9.8710004342566"><ele>1451.0</ele><time>2026-04-25T15:18:09Z</time></trkpt><trkpt lat="46.13189261010144" lon="9.871057627150279"><ele>1451.0</ele><time>2026-04-25T15:18:37Z</time></trkpt><trkpt lat="46.13193037846038" lon="9.871161655235918"><ele>1451.0</ele><time>2026-04-25T15:18:40Z</time></trkpt><trkpt lat="46.13195853112963" lon="9.87126481919612"><ele>1451.0</ele><time>2026-04-25T15:18:43Z</time></trkpt><trkpt lat="46.13204981066949" lon="9.871324599071913"><ele>1451.0</ele><time>2026-04-25T15:18:45Z</time></trkpt><trkpt lat="46.13213565449923" lon="9.871398084808675"><ele>1451.0</ele><time>2026-04-25T15:18:47Z</time></trkpt><trkpt lat="46.13222009981181" lon="9.871452456210182"><ele>1451.0</ele><time>2026-04-25T15:18:49Z</time></trkpt><trkpt lat="46.132288947684" lon="9.871528616937274"><ele>1451.0</ele><time>2026-04-25T15:18:51Z</time></trkpt><trkpt lat="46.13233001318153" lon="9.871599842536636"><ele>1451.0</ele><time>2026-04-25T15:18:52Z</time></trkpt><trkpt lat="46.13236737854778" lon="9.871681295575142"><ele>1451.3333333333335</ele><time>2026-04-25T15:18:53Z</time></trkpt><trkpt lat="46.13239800799958" lon="9.871774011019433"><ele>1451.6666666666667</ele><time>2026-04-25T15:18:54Z</time></trkpt><trkpt lat="46.132387244983256" lon="9.871881363344292"><ele>1452.0</ele><time>2026-04-25T15:18:55Z</time></trkpt><trkpt lat="46.132369276936835" lon="9.87202122205683"><ele>1452.3333333333333</ele><time>2026-04-25T15:18:56Z</time></trkpt><trkpt lat="46.132367673950675" lon="9.872146788654815"><ele>1452.6666666666665</ele><time>2026-04-25T15:18:57Z</time></trkpt><trkpt lat="46.132352395959515" lon="9.872275685227892"><ele>1453.0</ele><time>2026-04-25T15:18:58Z</time></trkpt><trkpt lat="46.13234390726902" lon="9.872415576428455"><ele>1453.0</ele><time>2026-04-25T15:18:59Z</time></trkpt><trkpt lat="46.13231569863291" lon="9.872512825200534"><ele>1453.0</ele><time>2026-04-25T15:19:00Z</time></trkpt><trkpt lat="46.13229705538641" lon="9.872642585580198"><ele>1453.0</ele><time>2026-04-25T15:19:01Z</time></trkpt><trkpt lat="46.13226775534299" lon="9.872769693983466"><ele>1453.0</ele><time>2026-04-25T15:19:02Z</time></trkpt><trkpt lat="46.13224645723596" lon="9.872869014835011"><ele>1453.0</ele><time>2026-04-25T15:19:03Z</time></trkpt><trkpt lat="46.13214388965532" lon="9.872990764467184"><ele>1451.2</ele><time>2026-04-25T15:19:05Z</time></trkpt><trkpt lat="46.13209124504222" lon="9.873074423487958"><ele>1449.4</ele><time>2026-04-25T15:19:06Z</time></trkpt><trkpt lat="46.1320312689041" lon="9.873154644050716"><ele>1447.6000000000001</ele><time>2026-04-25T15:19:07Z</time></trkpt><trkpt lat="46.131963957898" lon="9.87322144028089"><ele>1445.8000000000002</ele><time>2026-04-25T15:19:08Z</time></trkpt><trkpt lat="46.13187537895129" lon="9.873304620794496"><ele>1444.0</ele><time>2026-04-25T15:19:09Z</time></trkpt><trkpt lat="46.13179335830956" lon="9.873408315558683"><ele>1442.6666666666665</ele><time>2026-04-25T15:19:10Z</time></trkpt><trkpt lat="46.13172172309751" lon="9.873484870308156"><ele>1441.3333333333333</ele><time>2026-04-25T15:19:11Z</time></trkpt><trkpt lat="46.13164425427861" lon="9.873562480272764"><ele>1440.0</ele><time>2026-04-25T15:19:12Z</time></trkpt><trkpt lat="46.131584689037574" lon="9.873705776277967"><ele>1438.6666666666667</ele><time>2026-04-25T15:19:14Z</time></trkpt><trkpt lat="46.13160770416614" lon="9.873802807937468"><ele>1437.3333333333335</ele><time>2026-04-25T15:19:15Z</time></trkpt><trkpt lat="46.131640509296304" lon="9.87388394391161"><ele>1436.0</ele><time>2026-04-25T15:19:16Z</time></trkpt><trkpt lat="46.13160187032051" lon="9.873977554290757"><ele>1443.8</ele><time>2026-04-25T15:19:20Z</time></trkpt><trkpt lat="46.1315248191119" lon="9.874146470300797"><ele>1451.6</ele><time>2026-04-25T15:19:23Z</time></trkpt><trkpt lat="46.13143710506954" lon="9.87420479624439"><ele>1459.4</ele><time>2026-04-25T15:19:24Z</time></trkpt><trkpt lat="46.131427393993484" lon="9.874304313712521"><ele>1467.2</ele><time>2026-04-25T15:19:26Z</time></trkpt><trkpt lat="46.13148376259553" lon="9.874455124379047"><ele>1475.0</ele><time>2026-04-25T15:19:28Z</time></trkpt><trkpt lat="46.131461378398186" lon="9.874609094464244"><ele>1475.8333333333335</ele><time>2026-04-25T15:19:30Z</time></trkpt><trkpt lat="46.13142343446947" lon="9.87471848125095"><ele>1476.6666666666667</ele><time>2026-04-25T15:19:31Z</time></trkpt><trkpt lat="46.131395811374716" lon="9.874813949359924"><ele>1477.5</ele><time>2026-04-25T15:19:32Z</time></trkpt><trkpt lat="46.131411357831375" lon="9.874917309316292"><ele>1478.3333333333333</ele><time>2026-04-25T15:19:34Z</time></trkpt><trkpt lat="46.131495585494335" lon="9.87492068912327"><ele>1479.1666666666665</ele><time>2026-04-25T15:19:37Z</time></trkpt><trkpt lat="46.13157046097595" lon="9.875032557069824"><ele>1480.0</ele><time>2026-04-25T15:19:41Z</time></trkpt><trkpt lat="46.13160675626629" lon="9.875136035062695"><ele>1474.0</ele><time>2026-04-25T15:19:42Z</time></trkpt><trkpt lat="46.13161066258878" lon="9.875310399622515"><ele>1468.0</ele><time>2026-04-25T15:19:43Z</time></trkpt><trkpt lat="46.13165096226325" lon="9.8754903371508"><ele>1462.0</ele><time>2026-04-25T15:19:44Z</time></trkpt><trkpt lat="46.13170772131974" lon="9.875599543878007"><ele>1456.0</ele><time>2026-04-25T15:19:45Z</time></trkpt><trkpt lat="46.13179283824409" lon="9.87569743476221"><ele>1456.0</ele><time>2026-04-25T15:19:47Z</time></trkpt><trkpt lat="46.131747826362584" lon="9.87587710203259"><ele>1456.0</ele><time>2026-04-25T15:19:49Z</time></trkpt><trkpt lat="46.131737370065515" lon="9.875995095009014"><ele>1456.0</ele><time>2026-04-25T15:19:50Z</time></trkpt><trkpt lat="46.13172661553559" lon="9.87609876561206"><ele>1456.0</ele><time>2026-04-25T15:19:51Z</time></trkpt><trkpt lat="46.13171611175341" lon="9.876200393887004"><ele>1456.0</ele><time>2026-04-25T15:19:52Z</time></trkpt><trkpt lat="46.13170968005302" lon="9.876344209851995"><ele>1455.8</ele><time>2026-04-25T15:19:54Z</time></trkpt><trkpt lat="46.131595569295314" lon="9.876474970865528"><ele>1455.6</ele><time>2026-04-25T15:19:56Z</time></trkpt><trkpt lat="46.1315098896714" lon="9.876576488688883"><ele>1455.4</ele><time>2026-04-25T15:19:57Z</time></trkpt><trkpt lat="46.131471934943896" lon="9.876653290093156"><ele>1455.2</ele><time>2026-04-25T15:19:58Z</time></trkpt><trkpt lat="46.131487627613645" lon="9.876743581792786"><ele>1455.0</ele><time>2026-04-25T15:20:00Z</time></trkpt><trkpt lat="46.13159833220234" lon="9.876871515131063"><ele>1457.1666666666667</ele><time>2026-04-25T15:20:02Z</time></trkpt><trkpt lat="46.131661427773274" lon="9.876933263075367"><ele>1459.3333333333333</ele><time>2026-04-25T15:20:03Z</time></trkpt><trkpt lat="46.13170410320586" lon="9.877019516935638"><ele>1461.5</ele><time>2026-04-25T15:20:04Z</time></trkpt><trkpt lat="46.13171384361097" lon="9.877138880783335"><ele>1463.6666666666665</ele><time>2026-04-25T15:20:05Z</time></trkpt><trkpt lat="46.13171111427148" lon="9.877266536961523"><ele>1465.8333333333333</ele><time>2026-04-25T15:20:06Z</time></trkpt><trkpt lat="46.131781087729024" lon="9.87727290418785"><ele>1468.0</ele><time>2026-04-25T15:20:09Z</time></trkpt><trkpt lat="46.1318788218898" lon="9.877220299102737"><ele>1468.0</ele><time>2026-04-25T15:20:11Z</time></trkpt><trkpt lat="46.13195317623523" lon="9.877266165939986"><ele>1468.0</ele><time>2026-04-25T15:20:14Z</time></trkpt><trkpt lat="46.13207804633474" lon="9.877220622728501"><ele>1468.0</ele><time>2026-04-25T15:20:16Z</time></trkpt><trkpt lat="46.132147677859216" lon="9.87719476150878"><ele>1468.0</ele><time>2026-04-25T15:20:17Z</time></trkpt><trkpt lat="46.13221477943237" lon="9.877127116193416"><ele>1468.0</ele><time>2026-04-25T15:20:18Z</time></trkpt><trkpt lat="46.1322920368155" lon="9.877023226462612"><ele>1467.75</ele><time>2026-04-25T15:20:19Z</time></trkpt><trkpt lat="46.132417015005856" lon="9.87695695273105"><ele>1467.5</ele><time>2026-04-25T15:20:21Z</time></trkpt><trkpt lat="46.132520923224" lon="9.876976398178893"><ele>1467.25</ele><time>2026-04-25T15:20:23Z</time></trkpt><trkpt lat="46.1326304715244" lon="9.877001424042117"><ele>1467.0</ele><time>2026-04-25T15:20:24Z</time></trkpt><trkpt lat="46.1327483936636" lon="9.87702422784313"><ele>1467.0</ele><time>2026-04-25T15:20:25Z</time></trkpt><trkpt lat="46.132845974148694" lon="9.877195406362933"><ele>1467.0</ele><time>2026-04-25T15:20:27Z</time></trkpt><trkpt lat="46.132896634933154" lon="9.877304198027918"><ele>1467.0</ele><time>2026-04-25T15:20:28Z</time></trkpt><trkpt lat="46.13294676576132" lon="9.877386184257704"><ele>1467.0</ele><time>2026-04-25T15:20:29Z</time></trkpt><trkpt lat="46.133030679783786" lon="9.877408049775596"><ele>1467.0</ele><time>2026-04-25T15:20:30Z</time></trkpt><trkpt lat="46.133186168267386" lon="9.87735912632879"><ele>1465.3999999999999</ele><time>2026-04-25T15:20:32Z</time></trkpt><trkpt lat="46.13330175632061" lon="9.87734817145052"><ele>1463.8</ele><time>2026-04-25T15:20:33Z</time></trkpt><trkpt lat="46.13339409090074" lon="9.877334086288238"><ele>1462.2</ele><time>2026-04-25T15:20:34Z</time></trkpt><trkpt lat="46.13346304867618" lon="9.877315027595461"><ele>1460.6</ele><time>2026-04-25T15:20:35Z</time></trkpt><trkpt lat="46.13355731876441" lon="9.877300556624066"><ele>1459.0</ele><time>2026-04-25T15:20:36Z</time></trkpt><trkpt lat="46.13364107057412" lon="9.877342767750813"><ele>1459.0</ele><time>2026-04-25T15:20:37Z</time></trkpt><trkpt lat="46.13372131585231" lon="9.877411861141614"><ele>1459.0</ele><time>2026-04-25T15:20:38Z</time></trkpt><trkpt lat="46.133819310254026" lon="9.87748484266804"><ele>1459.0</ele><time>2026-04-25T15:20:39Z</time></trkpt><trkpt lat="46.133893803172995" lon="9.877529954091626"><ele>1459.0</ele><time>2026-04-25T15:20:40Z</time></trkpt><trkpt lat="46.1339677702758" lon="9.877530760104216"><ele>1459.0</ele><time>2026-04-25T15:20:41.008Z</time></trkpt><trkpt lat="46.134043301201764" lon="9.877502355907138"><ele>1459.0</ele><time>2026-04-25T15:20:42.008Z</time></trkpt><trkpt lat="46.13414432773834" lon="9.8774109437521"><ele>1459.0</ele><time>2026-04-25T15:20:44.008Z</time></trkpt><trkpt lat="46.13421310909481" lon="9.877436712442835"><ele>1459.0</ele><time>2026-04-25T15:20:45.008Z</time></trkpt><trkpt lat="46.13428735534893" lon="9.877475830475994"><ele>1459.0</ele><time>2026-04-25T15:20:46.008Z</time></trkpt><trkpt lat="46.13435643364883" lon="9.877548956644407"><ele>1459.0</ele><time>2026-04-25T15:20:47.008Z</time></trkpt><trkpt lat="46.13441406029219" lon="9.877631787084159"><ele>1459.0</ele><time>2026-04-25T15:20:48.008Z</time></trkpt><trkpt lat="46.13446794484968" lon="9.877699621135474"><ele>1459.0</ele><time>2026-04-25T15:20:49.008Z</time></trkpt><trkpt lat="46.134522114271064" lon="9.877590680547966"><ele>1456.6666666666665</ele><time>2026-04-25T15:20:51.008Z</time></trkpt><trkpt lat="46.13456792687356" lon="9.877456645377166"><ele>1454.3333333333333</ele><time>2026-04-25T15:20:53.008Z</time></trkpt><trkpt lat="46.13459749353187" lon="9.877327013865797"><ele>1452.0</ele><time>2026-04-25T15:20:55.008Z</time></trkpt><trkpt lat="46.134615084948685" lon="9.877222485671101"><ele>1449.6666666666667</ele><time>2026-04-25T15:20:56.008Z</time></trkpt><trkpt lat="46.13460621827274" lon="9.877120247644086"><ele>1447.3333333333335</ele><time>2026-04-25T15:20:57.008Z</time></trkpt><trkpt lat="46.13457167097427" lon="9.876978817867304"><ele>1445.0</ele><time>2026-04-25T15:20:59.008Z</time></trkpt><trkpt lat="46.134523600982405" lon="9.876837267085593"><ele>1445.0</ele><time>2026-04-25T15:21:01.008Z</time></trkpt><trkpt lat="46.13460132494307" lon="9.87683782653215"><ele>1445.0</ele><time>2026-04-25T15:21:04.008Z</time></trkpt><trkpt lat="46.134661996311976" lon="9.876773922341112"><ele>1445.0</ele><time>2026-04-25T15:21:06.008Z</time></trkpt><trkpt lat="46.13472254502598" lon="9.87664504707773"><ele>1445.0</ele><time>2026-04-25T15:21:08.008Z</time></trkpt><trkpt lat="46.13477306238254" lon="9.876542611933884"><ele>1445.0</ele><time>2026-04-25T15:21:10.008Z</time></trkpt><trkpt lat="46.13487351920248" lon="9.876555692116094"><ele>1445.0</ele><time>2026-04-25T15:21:12.008Z</time></trkpt><trkpt lat="46.1349232358417" lon="9.876482378878519"><ele>1436.4</ele><time>2026-04-25T15:21:14.008Z</time></trkpt><trkpt lat="46.13498205909655" lon="9.876374262585895"><ele>1427.8</ele><time>2026-04-25T15:21:16.008Z</time></trkpt><trkpt lat="46.13500136390135" lon="9.876252205821642"><ele>1419.1999999999998</ele><time>2026-04-25T15:21:18.008Z</time></trkpt><trkpt lat="46.13503678753654" lon="9.876112351947166"><ele>1410.6</ele><time>2026-04-25T15:21:20.008Z</time></trkpt><trkpt lat="46.13512692311936" lon="9.876247324382824"><ele>1402.0</ele><time>2026-04-25T15:21:22.008Z</time></trkpt><trkpt lat="46.1351930194499" lon="9.876329643208889"><ele>1402.0</ele><time>2026-04-25T15:21:23.008Z</time></trkpt><trkpt lat="46.13524950832339" lon="9.87641676862252"><ele>1402.0</ele><time>2026-04-25T15:21:24.008Z</time></trkpt><trkpt lat="46.13530660766577" lon="9.876475675754167"><ele>1402.0</ele><time>2026-04-25T15:21:25.008Z</time></trkpt><trkpt lat="46.135354434447834" lon="9.8765537946345"><ele>1402.0</ele><time>2026-04-25T15:21:26.008Z</time></trkpt><trkpt lat="46.13541390230992" lon="9.876681245054916"><ele>1402.0</ele><time>2026-04-25T15:21:28.009Z</time></trkpt><trkpt lat="46.13551621067905" lon="9.876724680163207"><ele>1402.0</ele><time>2026-04-25T15:21:30.009Z</time></trkpt><trkpt lat="46.13554458956219" lon="9.876589349148492"><ele>1402.0</ele><time>2026-04-25T15:21:32.009Z</time></trkpt><trkpt lat="46.13554361083453" lon="9.876495782282214"><ele>1402.0</ele><time>2026-04-25T15:21:33.009Z</time></trkpt><trkpt lat="46.13558423309819" lon="9.876402140653468"><ele>1402.0</ele><time>2026-04-25T15:21:34.009Z</time></trkpt><trkpt lat="46.13560042157258" lon="9.876308485579564"><ele>1402.0</ele><time>2026-04-25T15:21:35.009Z</time></trkpt><trkpt lat="46.135635160581984" lon="9.876220198286786"><ele>1402.0</ele><time>2026-04-25T15:21:36.009Z</time></trkpt><trkpt lat="46.13564551234991" lon="9.876113008106131"><ele>1402.0</ele><time>2026-04-25T15:21:37.009Z</time></trkpt><trkpt lat="46.13564879751465" lon="9.875994519539324"><ele>1402.0</ele><time>2026-04-25T15:21:39.009Z</time></trkpt><trkpt lat="46.135723019581796" lon="9.876134824790164"><ele>1394.1666666666665</ele><time>2026-04-25T15:21:42.009Z</time></trkpt><trkpt lat="46.13576558371802" lon="9.876206364257525"><ele>1386.3333333333333</ele><time>2026-04-25T15:21:43.009Z</time></trkpt><trkpt lat="46.135800347152696" lon="9.876284432417943"><ele>1378.5</ele><time>2026-04-25T15:21:44.009Z</time></trkpt><trkpt lat="46.13583958464638" lon="9.876363259192258"><ele>1370.6666666666667</ele><time>2026-04-25T15:21:45.009Z</time></trkpt><trkpt lat="46.13590305967373" lon="9.876427524115334"><ele>1362.8333333333335</ele><time>2026-04-25T15:21:46.009Z</time></trkpt><trkpt lat="46.1359918846346" lon="9.876560428660014"><ele>1355.0</ele><time>2026-04-25T15:21:48.009Z</time></trkpt><trkpt lat="46.13606232465774" lon="9.87667245465785"><ele>1357.2</ele><time>2026-04-25T15:21:50.009Z</time></trkpt><trkpt lat="46.13614185105908" lon="9.876805446901617"><ele>1359.4</ele><time>2026-04-25T15:21:52.009Z</time></trkpt><trkpt lat="46.13621900799764" lon="9.876922436368483"><ele>1361.6</ele><time>2026-04-25T15:21:54.009Z</time></trkpt><trkpt lat="46.136266398586685" lon="9.876998693023003"><ele>1363.8</ele><time>2026-04-25T15:21:55.009Z</time></trkpt><trkpt lat="46.13632555549842" lon="9.87707516944298"><ele>1366.0</ele><time>2026-04-25T15:21:56.009Z</time></trkpt><trkpt lat="46.1364109228841" lon="9.877203780811982"><ele>1366.0</ele><time>2026-04-25T15:21:58.009Z</time></trkpt><trkpt lat="46.13643845798826" lon="9.877293327251165"><ele>1366.0</ele><time>2026-04-25T15:21:59.009Z</time></trkpt><trkpt lat="46.136493585760576" lon="9.877386744188184"><ele>1366.0</ele><time>2026-04-25T15:22:00.009Z</time></trkpt><trkpt lat="46.1365088086697" lon="9.877476176371731"><ele>1366.0</ele><time>2026-04-25T15:22:01.009Z</time></trkpt><trkpt lat="46.13654833984537" lon="9.877558790170172"><ele>1366.0</ele><time>2026-04-25T15:22:02.009Z</time></trkpt><trkpt lat="46.136641705267614" lon="9.877660273400823"><ele>1366.0</ele><time>2026-04-25T15:22:04.009Z</time></trkpt><trkpt lat="46.13672457400486" lon="9.877698553453078"><ele>1359.3333333333333</ele><time>2026-04-25T15:22:05.009Z</time></trkpt><trkpt lat="46.136796069230776" lon="9.87774484679663"><ele>1352.6666666666665</ele><time>2026-04-25T15:22:06.009Z</time></trkpt><trkpt lat="46.13686073982692" lon="9.877779774511536"><ele>1346.0</ele><time>2026-04-25T15:22:07.009Z</time></trkpt><trkpt lat="46.136926853905884" lon="9.877840212921287"><ele>1339.3333333333333</ele><time>2026-04-25T15:22:08.009Z</time></trkpt><trkpt lat="46.13697597249019" lon="9.877930756098369"><ele>1332.6666666666667</ele><time>2026-04-25T15:22:09.009Z</time></trkpt><trkpt lat="46.137009410456" lon="9.878008250171783"><ele>1326.0</ele><time>2026-04-25T15:22:10.009Z</time></trkpt><trkpt lat="46.137005913647556" lon="9.878163004234185"><ele>1326.0</ele><time>2026-04-25T15:22:12.009Z</time></trkpt><trkpt lat="46.136985347528544" lon="9.878268692530979"><ele>1326.0</ele><time>2026-04-25T15:22:13.009Z</time></trkpt><trkpt lat="46.13699118030878" lon="9.878391925063788"><ele>1326.0</ele><time>2026-04-25T15:22:14.009Z</time></trkpt><trkpt lat="46.13706194957084" lon="9.878517607461376"><ele>1326.0</ele><time>2026-04-25T15:22:16.009Z</time></trkpt><trkpt lat="46.1371508250527" lon="9.878591475502569"><ele>1326.0</ele><time>2026-04-25T15:22:17.009Z</time></trkpt><trkpt lat="46.137232848795904" lon="9.878641552121332"><ele>1326.6</ele><time>2026-04-25T15:22:18.009Z</time></trkpt><trkpt lat="46.137298006176515" lon="9.878820479513484"><ele>1327.1999999999998</ele><time>2026-04-25T15:22:20.009Z</time></trkpt><trkpt lat="46.13732608961413" lon="9.878938630743239"><ele>1327.8000000000002</ele><time>2026-04-25T15:22:21.009Z</time></trkpt><trkpt lat="46.13738609759539" lon="9.879053344276324"><ele>1328.4</ele><time>2026-04-25T15:22:22.009Z</time></trkpt><trkpt lat="46.13738671682053" lon="9.879157326258353"><ele>1329.0</ele><time>2026-04-25T15:22:23.009Z</time></trkpt><trkpt lat="46.13736246605378" lon="9.879263198718018"><ele>1328.8000000000002</ele><time>2026-04-25T15:22:25.009Z</time></trkpt><trkpt lat="46.137385427751674" lon="9.879393277820798"><ele>1328.6000000000001</ele><time>2026-04-25T15:22:27.009Z</time></trkpt><trkpt lat="46.137445004614186" lon="9.879520609187379"><ele>1328.4</ele><time>2026-04-25T15:22:28.009Z</time></trkpt><trkpt lat="46.13749862940696" lon="9.879641652261324"><ele>1328.2</ele><time>2026-04-25T15:22:29.009Z</time></trkpt><trkpt lat="46.13753215502098" lon="9.879742706750498"><ele>1328.0</ele><time>2026-04-25T15:22:30.009Z</time></trkpt><trkpt lat="46.13750309030615" lon="9.879852356367598"><ele>1320.1666666666667</ele><time>2026-04-25T15:22:32.009Z</time></trkpt><trkpt lat="46.137429217413484" lon="9.87994073156105"><ele>1312.3333333333335</ele><time>2026-04-25T15:22:33.009Z</time></trkpt><trkpt lat="46.13739685299497" lon="9.880037526915336"><ele>1304.5</ele><time>2026-04-25T15:22:34.009Z</time></trkpt><trkpt lat="46.137397395372865" lon="9.880141347826282"><ele>1296.6666666666667</ele><time>2026-04-25T15:22:35.009Z</time></trkpt><trkpt lat="46.1374356862447" lon="9.880266573134321"><ele>1288.8333333333333</ele><time>2026-04-25T15:22:36.009Z</time></trkpt><trkpt lat="46.137462680632595" lon="9.880411750173907"><ele>1281.0</ele><time>2026-04-25T15:22:37.009Z</time></trkpt><trkpt lat="46.137475442291546" lon="9.88055114587823"><ele>1280.6</ele><time>2026-04-25T15:22:38.009Z</time></trkpt><trkpt lat="46.13749736319604" lon="9.880663489053951"><ele>1280.1999999999998</ele><time>2026-04-25T15:22:39.009Z</time></trkpt><trkpt lat="46.13755802519175" lon="9.88076422649429"><ele>1279.8000000000002</ele><time>2026-04-25T15:22:40.009Z</time></trkpt><trkpt lat="46.137648269859916" lon="9.880860266499429"><ele>1279.4</ele><time>2026-04-25T15:22:41.009Z</time></trkpt><trkpt lat="46.13771402753833" lon="9.880969662188908"><ele>1279.0</ele><time>2026-04-25T15:22:42.009Z</time></trkpt><trkpt lat="46.137760972374465" lon="9.881063618114473"><ele>1281.2</ele><time>2026-04-25T15:22:43.009Z</time></trkpt><trkpt lat="46.13785725083704" lon="9.881119283703175"><ele>1283.4</ele><time>2026-04-25T15:22:44.009Z</time></trkpt><trkpt lat="46.1379233857848" lon="9.881187237196746"><ele>1285.6</ele><time>2026-04-25T15:22:45.009Z</time></trkpt><trkpt lat="46.13797697053622" lon="9.881337346605036"><ele>1287.8</ele><time>2026-04-25T15:22:47.009Z</time></trkpt><trkpt lat="46.1380769640894" lon="9.881445733511667"><ele>1290.0</ele><time>2026-04-25T15:22:49.009Z</time></trkpt><trkpt lat="46.138141024450434" lon="9.88147405039264"><ele>1290.0</ele><time>2026-04-25T15:22:50.009Z</time></trkpt><trkpt lat="46.138209357902625" lon="9.881530260428965"><ele>1290.0</ele><time>2026-04-25T15:22:51.009Z</time></trkpt><trkpt lat="46.138277371799745" lon="9.881566172026812"><ele>1290.0</ele><time>2026-04-25T15:22:52.009Z</time></trkpt><trkpt lat="46.138343553610035" lon="9.881610601418668"><ele>1290.0</ele><time>2026-04-25T15:22:53.009Z</time></trkpt><trkpt lat="46.138424156457056" lon="9.88165679524221"><ele>1290.0</ele><time>2026-04-25T15:22:54.009Z</time></trkpt><trkpt lat="46.138527598177596" lon="9.881770466100457"><ele>1290.0</ele><time>2026-04-25T15:22:56.009Z</time></trkpt><trkpt lat="46.13860988584102" lon="9.881845285592082"><ele>1287.8333333333333</ele><time>2026-04-25T15:22:57.009Z</time></trkpt><trkpt lat="46.13868405455575" lon="9.881908637935217"><ele>1285.6666666666667</ele><time>2026-04-25T15:22:58.009Z</time></trkpt><trkpt lat="46.13876119838601" lon="9.881983828955859"><ele>1283.5</ele><time>2026-04-25T15:22:59.009Z</time></trkpt><trkpt lat="46.13884907904259" lon="9.88204839315354"><ele>1281.3333333333335</ele><time>2026-04-25T15:23:00.009Z</time></trkpt><trkpt lat="46.13888884458505" lon="9.882134124063978"><ele>1279.1666666666667</ele><time>2026-04-25T15:23:01.009Z</time></trkpt><trkpt lat="46.13892961871761" lon="9.882239242651528"><ele>1277.0</ele><time>2026-04-25T15:23:02.009Z</time></trkpt><trkpt lat="46.138960734796626" lon="9.882318668052775"><ele>1277.0</ele><time>2026-04-25T15:23:03.009Z</time></trkpt><trkpt lat="46.139007053211685" lon="9.882406253730569"><ele>1277.0</ele><time>2026-04-25T15:23:04.009Z</time></trkpt><trkpt lat="46.13907557603147" lon="9.882478343864513"><ele>1277.0</ele><time>2026-04-25T15:23:05.009Z</time></trkpt><trkpt lat="46.13916980660334" lon="9.882516650256134"><ele>1277.0</ele><time>2026-04-25T15:23:06.009Z</time></trkpt><trkpt lat="46.13924635730228" lon="9.8825605967432"><ele>1277.0</ele><time>2026-04-25T15:23:07.009Z</time></trkpt><trkpt lat="46.13930977209083" lon="9.882656306560044"><ele>1277.0</ele><time>2026-04-25T15:23:09.009Z</time></trkpt><trkpt lat="46.13936812449261" lon="9.882760184990778"><ele>1270.6</ele><time>2026-04-25T15:23:11.009Z</time></trkpt><trkpt lat="46.13939360316986" lon="9.882876830756532"><ele>1264.2</ele><time>2026-04-25T15:23:12.009Z</time></trkpt><trkpt lat="46.139425229351815" lon="9.883020498713005"><ele>1257.8</ele><time>2026-04-25T15:23:13.009Z</time></trkpt><trkpt lat="46.139455338505876" lon="9.883150696501087"><ele>1251.4</ele><time>2026-04-25T15:23:14.009Z</time></trkpt><trkpt lat="46.139471354795" lon="9.883272419017013"><ele>1245.0</ele><time>2026-04-25T15:23:15.009Z</time></trkpt><trkpt lat="46.139504994492626" lon="9.883395095121124"><ele>1245.6666666666667</ele><time>2026-04-25T15:23:16.009Z</time></trkpt><trkpt lat="46.13952904182062" lon="9.883487276649738"><ele>1246.3333333333333</ele><time>2026-04-25T15:23:17.009Z</time></trkpt><trkpt lat="46.13955875645657" lon="9.883570283572102"><ele>1247.0</ele><time>2026-04-25T15:23:18.009Z</time></trkpt><trkpt lat="46.13962782896135" lon="9.883637473665765"><ele>1247.6666666666665</ele><time>2026-04-25T15:23:19.009Z</time></trkpt><trkpt lat="46.139717368768714" lon="9.883680606425028"><ele>1248.3333333333333</ele><time>2026-04-25T15:23:20.009Z</time></trkpt><trkpt lat="46.13977667756186" lon="9.883844808725176"><ele>1249.0</ele><time>2026-04-25T15:23:22.009Z</time></trkpt><trkpt lat="46.13975862520749" lon="9.88397041742635"><ele>1249.0</ele><time>2026-04-25T15:23:23.009Z</time></trkpt><trkpt lat="46.13973140030261" lon="9.884106829990266"><ele>1249.0</ele><time>2026-04-25T15:23:24.009Z</time></trkpt><trkpt lat="46.1397194295537" lon="9.884205653009715"><ele>1249.0</ele><time>2026-04-25T15:23:25.009Z</time></trkpt><trkpt lat="46.139639773958365" lon="9.884338827540587"><ele>1249.0</ele><time>2026-04-25T15:23:27.009Z</time></trkpt><trkpt lat="46.139614778265084" lon="9.884436493756528"><ele>1249.0</ele><time>2026-04-25T15:23:28.009Z</time></trkpt><trkpt lat="46.13958135320804" lon="9.884577056698324"><ele>1248.5</ele><time>2026-04-25T15:23:29.009Z</time></trkpt><trkpt lat="46.13957143617099" lon="9.884686113803498"><ele>1248.0</ele><time>2026-04-25T15:23:30.009Z</time></trkpt><trkpt lat="46.13954263925911" lon="9.884769642848926"><ele>1247.5</ele><time>2026-04-25T15:23:31.009Z</time></trkpt><trkpt lat="46.13952387461222" lon="9.884875045289496"><ele>1247.0</ele><time>2026-04-25T15:23:32.009Z</time></trkpt><trkpt lat="46.139493175863855" lon="9.885044363022628"><ele>1246.5</ele><time>2026-04-25T15:23:33.01Z</time></trkpt><trkpt lat="46.13946452308121" lon="9.885188112159003"><ele>1246.0</ele><time>2026-04-25T15:23:34.01Z</time></trkpt><trkpt lat="46.139439761693644" lon="9.885294384143256"><ele>1244.0</ele><time>2026-04-25T15:23:35.01Z</time></trkpt><trkpt lat="46.13937480761861" lon="9.885387518268715"><ele>1242.0</ele><time>2026-04-25T15:23:36.01Z</time></trkpt><trkpt lat="46.13934028486817" lon="9.885473055462814"><ele>1240.0</ele><time>2026-04-25T15:23:37.009Z</time></trkpt><trkpt lat="46.13930675462029" lon="9.885567066551454"><ele>1238.0</ele><time>2026-04-25T15:23:38.009Z</time></trkpt><trkpt lat="46.13927879410838" lon="9.885669877429029"><ele>1236.0</ele><time>2026-04-25T15:23:39.01Z</time></trkpt><trkpt lat="46.139241847254105" lon="9.885745542262505"><ele>1234.0</ele><time>2026-04-25T15:23:40.01Z</time></trkpt><trkpt lat="46.13917866136947" lon="9.885840671468944"><ele>1234.0</ele><time>2026-04-25T15:23:41.01Z</time></trkpt><trkpt lat="46.13911568853516" lon="9.885925213409548"><ele>1234.0</ele><time>2026-04-25T15:23:42.011Z</time></trkpt><trkpt lat="46.13905796233673" lon="9.885981395764267"><ele>1234.0</ele><time>2026-04-25T15:23:43.01Z</time></trkpt><trkpt lat="46.138996282660514" lon="9.886045188849035"><ele>1234.0</ele><time>2026-04-25T15:23:44.01Z</time></trkpt><trkpt lat="46.1389507877862" lon="9.88613313041323"><ele>1234.0</ele><time>2026-04-25T15:23:45.01Z</time></trkpt><trkpt lat="46.13891046135368" lon="9.886223328467821"><ele>1234.0</ele><time>2026-04-25T15:23:46.01Z</time></trkpt><trkpt lat="46.13887720462102" lon="9.886306462315959"><ele>1234.0</ele><time>2026-04-25T15:23:47.01Z</time></trkpt><trkpt lat="46.13882880615169" lon="9.886387346884016"><ele>1239.0</ele><time>2026-04-25T15:23:48.01Z</time></trkpt><trkpt lat="46.13879393824247" lon="9.886489396531207"><ele>1244.0</ele><time>2026-04-25T15:23:49.01Z</time></trkpt><trkpt lat="46.13877590613621" lon="9.886601556288367"><ele>1249.0</ele><time>2026-04-25T15:23:50.01Z</time></trkpt><trkpt lat="46.138746387564474" lon="9.886682704899936"><ele>1254.0</ele><time>2026-04-25T15:23:51.01Z</time></trkpt><trkpt lat="46.13874046224471" lon="9.88679625570556"><ele>1259.0</ele><time>2026-04-25T15:23:52.01Z</time></trkpt><trkpt lat="46.13871670586068" lon="9.886909916575233"><ele>1264.0</ele><time>2026-04-25T15:23:53.01Z</time></trkpt><trkpt lat="46.138706336370284" lon="9.887048495049685"><ele>1264.0</ele><time>2026-04-25T15:23:54.01Z</time></trkpt><trkpt lat="46.138723837497984" lon="9.887170235044229"><ele>1264.0</ele><time>2026-04-25T15:23:55.01Z</time></trkpt><trkpt lat="46.13873309065782" lon="9.887289929946618"><ele>1264.0</ele><time>2026-04-25T15:23:56.01Z</time></trkpt><trkpt lat="46.13875389879269" lon="9.887386921590808"><ele>1264.0</ele><time>2026-04-25T15:23:57.01Z</time></trkpt><trkpt lat="46.138800172035985" lon="9.887501529713402"><ele>1264.0</ele><time>2026-04-25T15:23:58.01Z</time></trkpt><trkpt lat="46.13881481627875" lon="9.887619538853336"><ele>1264.0</ele><time>2026-04-25T15:23:59.01Z</time></trkpt><trkpt lat="46.13880166663988" lon="9.887710351819281"><ele>1261.4</ele><time>2026-04-25T15:24:00.01Z</time></trkpt><trkpt lat="46.1387944526984" lon="9.887884156896591"><ele>1258.8000000000002</ele><time>2026-04-25T15:24:02.01Z</time></trkpt><trkpt lat="46.13880965890131" lon="9.887981135039606"><ele>1256.1999999999998</ele><time>2026-04-25T15:24:03.01Z</time></trkpt><trkpt lat="46.13881406260103" lon="9.888175705957622"><ele>1253.6</ele><time>2026-04-25T15:24:05.01Z</time></trkpt><trkpt lat="46.13879270663714" lon="9.888304958355445"><ele>1251.0</ele><time>2026-04-25T15:24:06.01Z</time></trkpt><trkpt lat="46.13876265911505" lon="9.88843275930473"><ele>1248.3999999999999</ele><time>2026-04-25T15:24:07.01Z</time></trkpt><trkpt lat="46.13876131537937" lon="9.888543881413044"><ele>1245.8</ele><time>2026-04-25T15:24:08.01Z</time></trkpt><trkpt lat="46.138773205923926" lon="9.888691206978836"><ele>1243.1999999999998</ele><time>2026-04-25T15:24:09.01Z</time></trkpt><trkpt lat="46.13875028032405" lon="9.888819066550294"><ele>1240.6</ele><time>2026-04-25T15:24:10.01Z</time></trkpt><trkpt lat="46.13872458205554" lon="9.888962474748435"><ele>1238.0</ele><time>2026-04-25T15:24:11.01Z</time></trkpt><trkpt lat="46.1386854621528" lon="9.88905619521204"><ele>1238.0</ele><time>2026-04-25T15:24:12.01Z</time></trkpt><trkpt lat="46.13864509637273" lon="9.889134957493402"><ele>1238.0</ele><time>2026-04-25T15:24:13.01Z</time></trkpt><trkpt lat="46.138591544979484" lon="9.889215404478799"><ele>1238.0</ele><time>2026-04-25T15:24:14.01Z</time></trkpt><trkpt lat="46.13854085673593" lon="9.889350017178833"><ele>1238.0</ele><time>2026-04-25T15:24:16.01Z</time></trkpt><trkpt lat="46.13855471880165" lon="9.889554425718766"><ele>1238.0</ele><time>2026-04-25T15:24:18.01Z</time></trkpt><trkpt lat="46.13852000557877" lon="9.889647092040251"><ele>1235.1666666666667</ele><time>2026-04-25T15:24:19.01Z</time></trkpt><trkpt lat="46.138510268362346" lon="9.889752002757996"><ele>1232.3333333333335</ele><time>2026-04-25T15:24:20.01Z</time></trkpt><trkpt lat="46.13852834027651" lon="9.889858067932774"><ele>1229.5</ele><time>2026-04-25T15:24:21.01Z</time></trkpt><trkpt lat="46.13855388374877" lon="9.88997122457355"><ele>1226.6666666666667</ele><time>2026-04-25T15:24:22.01Z</time></trkpt><trkpt lat="46.13855101740035" lon="9.890070379185627"><ele>1223.8333333333333</ele><time>2026-04-25T15:24:23.01Z</time></trkpt><trkpt lat="46.138539506880036" lon="9.890177680112895"><ele>1221.0</ele><time>2026-04-25T15:24:24.01Z</time></trkpt><trkpt lat="46.13853511950038" lon="9.89028709239694"><ele>1219.1666666666667</ele><time>2026-04-25T15:24:25.01Z</time></trkpt><trkpt lat="46.13853511763355" lon="9.890397575699645"><ele>1217.3333333333333</ele><time>2026-04-25T15:24:26.01Z</time></trkpt><trkpt lat="46.138548172840395" lon="9.890516053371998"><ele>1215.5</ele><time>2026-04-25T15:24:27.01Z</time></trkpt><trkpt lat="46.13855977552359" lon="9.89064136393896"><ele>1213.6666666666665</ele><time>2026-04-25T15:24:28.01Z</time></trkpt><trkpt lat="46.138583559675894" lon="9.890771311506871"><ele>1211.8333333333333</ele><time>2026-04-25T15:24:30.01Z</time></trkpt><trkpt lat="46.13865604501143" lon="9.890733490816949"><ele>1210.0</ele><time>2026-04-25T15:24:33.01Z</time></trkpt><trkpt lat="46.13870145789091" lon="9.890641484036728"><ele>1210.0</ele><time>2026-04-25T15:24:34.01Z</time></trkpt><trkpt lat="46.138721954224536" lon="9.890538954722677"><ele>1210.0</ele><time>2026-04-25T15:24:35.01Z</time></trkpt><trkpt lat="46.1387625260792" lon="9.890415434343904"><ele>1210.0</ele><time>2026-04-25T15:24:37.01Z</time></trkpt><trkpt lat="46.138819634286826" lon="9.890513693255821"><ele>1210.0</ele><time>2026-04-25T15:24:39.01Z</time></trkpt><trkpt lat="46.13884583534746" lon="9.890636113066552"><ele>1210.0</ele><time>2026-04-25T15:24:40.01Z</time></trkpt><trkpt lat="46.13886855017384" lon="9.890773417114811"><ele>1210.0</ele><time>2026-04-25T15:24:41.01Z</time></trkpt><trkpt lat="46.13888619785349" lon="9.890873788731184"><ele>1208.6666666666665</ele><time>2026-04-25T15:24:42.01Z</time></trkpt><trkpt lat="46.138853917112755" lon="9.890977878602003"><ele>1207.3333333333333</ele><time>2026-04-25T15:24:43.01Z</time></trkpt><trkpt lat="46.13882997445266" lon="9.891088953467378"><ele>1206.0</ele><time>2026-04-25T15:24:44.01Z</time></trkpt><trkpt lat="46.13883167913631" lon="9.891181557404497"><ele>1204.6666666666667</ele><time>2026-04-25T15:24:45.01Z</time></trkpt><trkpt lat="46.13885916352654" lon="9.891340006644297"><ele>1203.3333333333335</ele><time>2026-04-25T15:24:47.01Z</time></trkpt><trkpt lat="46.13892037166047" lon="9.891458101659444"><ele>1202.0</ele><time>2026-04-25T15:24:48.01Z</time></trkpt><trkpt lat="46.13898509542605" lon="9.891514983196105"><ele>1192.4</ele><time>2026-04-25T15:24:50.01Z</time></trkpt><trkpt lat="46.13910188275326" lon="9.891536858295849"><ele>1182.8000000000002</ele><time>2026-04-25T15:24:52.01Z</time></trkpt><trkpt lat="46.139180729716195" lon="9.89156142597116"><ele>1173.2</ele><time>2026-04-25T15:24:53.01Z</time></trkpt><trkpt lat="46.139257599312316" lon="9.89157182981082"><ele>1163.6000000000001</ele><time>2026-04-25T15:24:54.01Z</time></trkpt><trkpt lat="46.139350444133" lon="9.891540177585467"><ele>1154.0</ele><time>2026-04-25T15:24:56.01Z</time></trkpt><trkpt lat="46.13942553395571" lon="9.891574973292448"><ele>1154.0</ele><time>2026-04-25T15:24:58.01Z</time></trkpt><trkpt lat="46.13944905552869" lon="9.891665023681034"><ele>1154.0</ele><time>2026-04-25T15:24:59.01Z</time></trkpt><trkpt lat="46.13943789721752" lon="9.891765067723163"><ele>1154.0</ele><time>2026-04-25T15:25:00.01Z</time></trkpt><trkpt lat="46.13946773549365" lon="9.891881589432938"><ele>1154.0</ele><time>2026-04-25T15:25:02.01Z</time></trkpt><trkpt lat="46.13964539846124" lon="9.891894255099777"><ele>1154.0</ele><time>2026-04-25T15:25:04.01Z</time></trkpt><trkpt lat="46.139749372436256" lon="9.8919794737715"><ele>1156.1666666666667</ele><time>2026-04-25T15:25:06.01Z</time></trkpt><trkpt lat="46.139803410943145" lon="9.892027133168284"><ele>1158.3333333333335</ele><time>2026-04-25T15:25:08.01Z</time></trkpt><trkpt lat="46.13984455804496" lon="9.892101868544575"><ele>1160.5</ele><time>2026-04-25T15:25:11.01Z</time></trkpt><trkpt lat="46.139890439980746" lon="9.892171802983938"><ele>1162.6666666666667</ele><time>2026-04-25T15:25:13.01Z</time></trkpt><trkpt lat="46.13995344817978" lon="9.892251823809241"><ele>1164.8333333333333</ele><time>2026-04-25T15:25:15.01Z</time></trkpt><trkpt lat="46.139977299764155" lon="9.892394064450485"><ele>1167.0</ele><time>2026-04-25T15:25:17.01Z</time></trkpt><trkpt lat="46.14003242717614" lon="9.892463494613626"><ele>1163.3333333333333</ele><time>2026-04-25T15:25:19.01Z</time></trkpt><trkpt lat="46.14013115597241" lon="9.892479995954737"><ele>1159.6666666666667</ele><time>2026-04-25T15:25:20.01Z</time></trkpt><trkpt lat="46.140234337061784" lon="9.89249742536737"><ele>1156.0</ele><time>2026-04-25T15:25:22.01Z</time></trkpt><trkpt lat="46.1402926867055" lon="9.892536988457895"><ele>1152.3333333333335</ele><time>2026-04-25T15:25:23.01Z</time></trkpt><trkpt lat="46.14038880237968" lon="9.892591176082327"><ele>1148.6666666666667</ele><time>2026-04-25T15:25:25.01Z</time></trkpt><trkpt lat="46.14044426662285" lon="9.89265549899465"><ele>1145.0</ele><time>2026-04-25T15:25:26.01Z</time></trkpt><trkpt lat="46.140485750219995" lon="9.892724881484423"><ele>1145.0</ele><time>2026-04-25T15:25:27.01Z</time></trkpt><trkpt lat="46.14055645007435" lon="9.892800024360318"><ele>1145.0</ele><time>2026-04-25T15:25:28.01Z</time></trkpt><trkpt lat="46.14059747859143" lon="9.892872849371956"><ele>1145.0</ele><time>2026-04-25T15:25:29.01Z</time></trkpt><trkpt lat="46.140657962360876" lon="9.892996640462204"><ele>1145.0</ele><time>2026-04-25T15:25:31.01Z</time></trkpt><trkpt lat="46.14073546931058" lon="9.893051157457487"><ele>1145.0</ele><time>2026-04-25T15:25:33.01Z</time></trkpt><trkpt lat="46.140789836373216" lon="9.89312287344491"><ele>1145.0</ele><time>2026-04-25T15:25:35.01Z</time></trkpt><trkpt lat="46.14081813692989" lon="9.893260214260865"><ele>1139.4285714285716</ele><time>2026-04-25T15:25:37.01Z</time></trkpt><trkpt lat="46.140834219939144" lon="9.893356478493002"><ele>1133.857142857143</ele><time>2026-04-25T15:30:12.014Z</time></trkpt><trkpt lat="46.14082023438513" lon="9.893457190144332"><ele>1128.2857142857142</ele><time>2026-04-25T15:30:14.014Z</time></trkpt><trkpt lat="46.140836505410164" lon="9.893568387230037"><ele>1122.7142857142858</ele><time>2026-04-25T15:30:17.014Z</time></trkpt><trkpt lat="46.14088660741792" lon="9.893632316000698"><ele>1117.142857142857</ele><time>2026-04-25T15:30:21.014Z</time></trkpt><trkpt lat="46.140951869436265" lon="9.893649981430102"><ele>1111.5714285714287</ele><time>2026-04-25T15:30:27.014Z</time></trkpt><trkpt lat="46.141034561505265" lon="9.89361179095113"><ele>1106.0</ele><time>2026-04-25T15:30:36.014Z</time></trkpt><trkpt lat="46.141097246734795" lon="9.893656310824637"><ele>1106.0</ele><time>2026-04-25T15:30:38.014Z</time></trkpt><trkpt lat="46.141107861793074" lon="9.893783820679186"><ele>1106.0</ele><time>2026-04-25T15:30:41.014Z</time></trkpt><trkpt lat="46.141118451560914" lon="9.89391787857651"><ele>1106.0</ele><time>2026-04-25T15:30:43.014Z</time></trkpt><trkpt lat="46.141125954854225" lon="9.894015769402092"><ele>1106.0</ele><time>2026-04-25T15:30:44.014Z</time></trkpt><trkpt lat="46.14114512915603" lon="9.894111206294859"><ele>1106.0</ele><time>2026-04-25T15:30:45.014Z</time></trkpt><trkpt lat="46.14117142445804" lon="9.894198260312775"><ele>1106.0</ele><time>2026-04-25T15:30:46.014Z</time></trkpt><trkpt lat="46.14119589150934" lon="9.894361001339442"><ele>1107.0</ele><time>2026-04-25T15:30:48.014Z</time></trkpt><trkpt lat="46.141248914453996" lon="9.89453848736311"><ele>1108.0</ele><time>2026-04-25T15:30:50.014Z</time></trkpt><trkpt lat="46.141278092988514" lon="9.8946368806944"><ele>1109.0</ele><time>2026-04-25T15:30:51.014Z</time></trkpt><trkpt lat="46.14133784151994" lon="9.894770773775445"><ele>1110.0</ele><time>2026-04-25T15:30:53.014Z</time></trkpt><trkpt lat="46.14139427937636" lon="9.894823528335134"><ele>1111.0</ele><time>2026-04-25T15:30:54.014Z</time></trkpt><trkpt lat="46.14146117262882" lon="9.894947467344592"><ele>1111.0</ele><time>2026-04-25T15:30:56.014Z</time></trkpt><trkpt lat="46.141444055151034" lon="9.895049171251138"><ele>1111.0</ele><time>2026-04-25T15:30:57.014Z</time></trkpt><trkpt lat="46.14140287937926" lon="9.895148055784237"><ele>1111.0</ele><time>2026-04-25T15:30:58.014Z</time></trkpt><trkpt lat="46.141371242445096" lon="9.89524565684234"><ele>1111.0</ele><time>2026-04-25T15:30:59.014Z</time></trkpt><trkpt lat="46.14135181431163" lon="9.895361357473744"><ele>1111.0</ele><time>2026-04-25T15:31:00.014Z</time></trkpt><trkpt lat="46.14132290572758" lon="9.895452874317165"><ele>1111.0</ele><time>2026-04-25T15:31:01.014Z</time></trkpt><trkpt lat="46.141290779231326" lon="9.895572201711415"><ele>1110.0</ele><time>2026-04-25T15:31:02.014Z</time></trkpt><trkpt lat="46.141244639029566" lon="9.89569829379711"><ele>1109.0</ele><time>2026-04-25T15:31:03.014Z</time></trkpt><trkpt lat="46.14121123405106" lon="9.895830320239952"><ele>1108.0</ele><time>2026-04-25T15:31:04.014Z</time></trkpt><trkpt lat="46.14119084602199" lon="9.895983400238558"><ele>1107.0</ele><time>2026-04-25T15:31:05.014Z</time></trkpt><trkpt lat="46.14117159204037" lon="9.896168047564327"><ele>1106.0</ele><time>2026-04-25T15:31:06.014Z</time></trkpt><trkpt lat="46.141151816757954" lon="9.896353572122624"><ele>1103.8</ele><time>2026-04-25T15:31:07.014Z</time></trkpt><trkpt lat="46.14113028642299" lon="9.896540223904635"><ele>1101.6</ele><time>2026-04-25T15:31:08.014Z</time></trkpt><trkpt lat="46.14110271656163" lon="9.896695939560457"><ele>1099.4</ele><time>2026-04-25T15:31:09.014Z</time></trkpt><trkpt lat="46.14107527197033" lon="9.896831969968954"><ele>1097.2</ele><time>2026-04-25T15:31:10.014Z</time></trkpt><trkpt lat="46.141069344806105" lon="9.896971074887375"><ele>1095.0</ele><time>2026-04-25T15:31:11.014Z</time></trkpt><trkpt lat="46.14102331178368" lon="9.897155206181456"><ele>1095.0</ele><time>2026-04-25T15:31:12.014Z</time></trkpt><trkpt lat="46.140952412841024" lon="9.89734627162325"><ele>1095.0</ele><time>2026-04-25T15:31:13.014Z</time></trkpt><trkpt lat="46.14087239808489" lon="9.8975306540442"><ele>1095.0</ele><time>2026-04-25T15:31:14.014Z</time></trkpt><trkpt lat="46.14078673554836" lon="9.897692170514054"><ele>1095.0</ele><time>2026-04-25T15:31:15.014Z</time></trkpt><trkpt lat="46.14071302246972" lon="9.89782244814891"><ele>1096.6</ele><time>2026-04-25T15:31:16.014Z</time></trkpt><trkpt lat="46.14065468627274" lon="9.897946387079399"><ele>1098.2</ele><time>2026-04-25T15:31:17.014Z</time></trkpt><trkpt lat="46.14061954740139" lon="9.89808623115359"><ele>1099.8</ele><time>2026-04-25T15:31:18.014Z</time></trkpt><trkpt lat="46.140576995905924" lon="9.898218606978292"><ele>1101.4</ele><time>2026-04-25T15:31:19.014Z</time></trkpt><trkpt lat="46.140536026266886" lon="9.898332155160837"><ele>1103.0</ele><time>2026-04-25T15:31:20.014Z</time></trkpt><trkpt lat="46.14049777551486" lon="9.898441100445682"><ele>1103.0</ele><time>2026-04-25T15:31:21.014Z</time></trkpt><trkpt lat="46.14046437368267" lon="9.898531552855795"><ele>1103.0</ele><time>2026-04-25T15:31:22.014Z</time></trkpt><trkpt lat="46.14041246315701" lon="9.898616508727022"><ele>1103.0</ele><time>2026-04-25T15:31:23.014Z</time></trkpt><trkpt lat="46.14035429086463" lon="9.898677959017547"><ele>1103.0</ele><time>2026-04-25T15:31:24.014Z</time></trkpt><trkpt lat="46.140336105125925" lon="9.898816818246685"><ele>1103.0</ele><time>2026-04-25T15:31:25.014Z</time></trkpt><trkpt lat="46.14032692334064" lon="9.898923226202058"><ele>1103.0</ele><time>2026-04-25T15:31:26.014Z</time></trkpt><trkpt lat="46.140297792653485" lon="9.899035801446077"><ele>1103.0</ele><time>2026-04-25T15:31:27.014Z</time></trkpt><trkpt lat="46.14025046050885" lon="9.899136684358135"><ele>1103.0</ele><time>2026-04-25T15:31:28.014Z</time></trkpt><trkpt lat="46.140196902000284" lon="9.899230134153646"><ele>1103.0</ele><time>2026-04-25T15:31:29.014Z</time></trkpt><trkpt lat="46.1402401557758" lon="9.899379790634752"><ele>1103.0</ele><time>2026-04-25T15:31:30.014Z</time></trkpt><trkpt lat="46.1402599926448" lon="9.899528246594661"><ele>1103.0</ele><time>2026-04-25T15:31:31.014Z</time></trkpt><trkpt lat="46.140237530105686" lon="9.899633232406636"><ele>1101.6</ele><time>2026-04-25T15:31:32.014Z</time></trkpt><trkpt lat="46.14025203299749" lon="9.899742684057285"><ele>1100.1999999999998</ele><time>2026-04-25T15:31:33.014Z</time></trkpt><trkpt lat="46.14025459088699" lon="9.899886107530508"><ele>1098.8</ele><time>2026-04-25T15:31:35.014Z</time></trkpt><trkpt lat="46.140276295485656" lon="9.899994434259915"><ele>1097.3999999999999</ele><time>2026-04-25T15:31:37.014Z</time></trkpt><trkpt lat="46.14033243681963" lon="9.900115536264206"><ele>1096.0</ele><time>2026-04-25T15:31:39.014Z</time></trkpt><trkpt lat="46.140417858594866" lon="9.900238037263072"><ele>1093.3999999999999</ele><time>2026-04-25T15:31:41.014Z</time></trkpt><trkpt lat="46.14047112948581" lon="9.900320111948405"><ele>1090.8</ele><time>2026-04-25T15:31:42.014Z</time></trkpt><trkpt lat="46.14054107485155" lon="9.900381433020677"><ele>1088.1999999999998</ele><time>2026-04-25T15:31:43.014Z</time></trkpt><trkpt lat="46.14063494548112" lon="9.900450877777354"><ele>1085.6</ele><time>2026-04-25T15:31:44.014Z</time></trkpt><trkpt lat="46.140731443773134" lon="9.900526155497374"><ele>1083.0</ele><time>2026-04-25T15:31:45.014Z</time></trkpt><trkpt lat="46.140834230160685" lon="9.900601746762833"><ele>1081.2</ele><time>2026-04-25T15:31:46.014Z</time></trkpt><trkpt lat="46.14095221699209" lon="9.900692735614847"><ele>1079.4</ele><time>2026-04-25T15:31:47.014Z</time></trkpt><trkpt lat="46.1410424038537" lon="9.900786468918245"><ele>1077.6000000000001</ele><time>2026-04-25T15:31:48.014Z</time></trkpt><trkpt lat="46.1411148285047" lon="9.900865886917343"><ele>1075.8</ele><time>2026-04-25T15:31:49.014Z</time></trkpt><trkpt lat="46.141183662017504" lon="9.90093014495532"><ele>1074.0</ele><time>2026-04-25T15:31:50.014Z</time></trkpt><trkpt lat="46.14126131126434" lon="9.90099975655541"><ele>1070.4</ele><time>2026-04-25T15:31:51.014Z</time></trkpt><trkpt lat="46.14134279734143" lon="9.901069567679377"><ele>1066.8000000000002</ele><time>2026-04-25T15:31:52.014Z</time></trkpt><trkpt lat="46.1414175662128" lon="9.901183042380824"><ele>1063.1999999999998</ele><time>2026-04-25T15:31:53.014Z</time></trkpt><trkpt lat="46.14149333570871" lon="9.901283999711422"><ele>1059.6</ele><time>2026-04-25T15:31:54.014Z</time></trkpt><trkpt lat="46.141554943104744" lon="9.90135488602208"><ele>1056.0</ele><time>2026-04-25T15:31:55.014Z</time></trkpt><trkpt lat="46.14162966797831" lon="9.9014081436284"><ele>1055.2</ele><time>2026-04-25T15:31:56.014Z</time></trkpt><trkpt lat="46.141721678936236" lon="9.90145754770544"><ele>1054.3999999999999</ele><time>2026-04-25T15:31:57.014Z</time></trkpt><trkpt lat="46.1418101393825" lon="9.90151525782383"><ele>1053.6</ele><time>2026-04-25T15:31:58.015Z</time></trkpt><trkpt lat="46.14188280969415" lon="9.901579541241443"><ele>1052.8</ele><time>2026-04-25T15:31:59.015Z</time></trkpt><trkpt lat="46.14194737333652" lon="9.901619985110127"><ele>1052.0</ele><time>2026-04-25T15:32:00.014Z</time></trkpt><trkpt lat="46.14205288124551" lon="9.90168229586408"><ele>1052.0</ele><time>2026-04-25T15:32:02.015Z</time></trkpt><trkpt lat="46.14211231675701" lon="9.901712980718198"><ele>1052.0</ele><time>2026-04-25T15:32:03.015Z</time></trkpt><trkpt lat="46.14216886375672" lon="9.901818002763532"><ele>1052.0</ele><time>2026-04-25T15:32:05.014Z</time></trkpt><trkpt lat="46.14214856467437" lon="9.901950555129122"><ele>1052.0</ele><time>2026-04-25T15:32:07.015Z</time></trkpt><trkpt lat="46.1421457963253" lon="9.90205357102"><ele>1052.0</ele><time>2026-04-25T15:32:08.015Z</time></trkpt><trkpt lat="46.14214739688635" lon="9.902201604700885"><ele>1052.0</ele><time>2026-04-25T15:32:10.015Z</time></trkpt><trkpt lat="46.14219581189282" lon="9.902369576658591"><ele>1050.3333333333335</ele><time>2026-04-25T15:32:12.015Z</time></trkpt><trkpt lat="46.142202081658056" lon="9.902481991308823"><ele>1048.6666666666667</ele><time>2026-04-25T15:32:13.015Z</time></trkpt><trkpt lat="46.142232515747715" lon="9.902585156435926"><ele>1047.0</ele><time>2026-04-25T15:32:14.015Z</time></trkpt><trkpt lat="46.142259578409075" lon="9.902688193382808"><ele>1045.3333333333333</ele><time>2026-04-25T15:32:15.015Z</time></trkpt><trkpt lat="46.1422964992432" lon="9.902783575823758"><ele>1043.6666666666665</ele><time>2026-04-25T15:32:16.015Z</time></trkpt><trkpt lat="46.14233088577699" lon="9.902877986437748"><ele>1042.0</ele><time>2026-04-25T15:32:17.015Z</time></trkpt><trkpt lat="46.14235843705542" lon="9.902990731954207"><ele>1040.1666666666665</ele><time>2026-04-25T15:32:18.015Z</time></trkpt><trkpt lat="46.14238409254272" lon="9.90307857359796"><ele>1038.3333333333333</ele><time>2026-04-25T15:32:19.015Z</time></trkpt><trkpt lat="46.142420202091934" lon="9.90322655737331"><ele>1036.5</ele><time>2026-04-25T15:32:21.015Z</time></trkpt><trkpt lat="46.14244753432285" lon="9.903328703198826"><ele>1034.6666666666667</ele><time>2026-04-25T15:32:23.015Z</time></trkpt><trkpt lat="46.14250543374967" lon="9.903392745672376"><ele>1032.8333333333335</ele><time>2026-04-25T15:32:24.015Z</time></trkpt><trkpt lat="46.14258820986236" lon="9.903453177917385"><ele>1031.0</ele><time>2026-04-25T15:32:25.015Z</time></trkpt><trkpt lat="46.14266330768619" lon="9.90353976880098"><ele>1022.4</ele><time>2026-04-25T15:32:26.015Z</time></trkpt><trkpt lat="46.14273786489361" lon="9.903615724958836"><ele>1013.8</ele><time>2026-04-25T15:32:27.015Z</time></trkpt><trkpt lat="46.1427985275108" lon="9.903663823187474"><ele>1005.1999999999999</ele><time>2026-04-25T15:32:28.015Z</time></trkpt><trkpt lat="46.14288358408984" lon="9.903762846230984"><ele>996.5999999999999</ele><time>2026-04-25T15:32:30.015Z</time></trkpt><trkpt lat="46.14300564966111" lon="9.903786537903189"><ele>988.0</ele><time>2026-04-25T15:32:32.015Z</time></trkpt><trkpt lat="46.14310319212503" lon="9.903789082620898"><ele>990.0</ele><time>2026-04-25T15:32:34.015Z</time></trkpt><trkpt lat="46.14323232200954" lon="9.903822059331398"><ele>992.0</ele><time>2026-04-25T15:32:36.015Z</time></trkpt><trkpt lat="46.14330883439056" lon="9.903873369512084"><ele>994.0</ele><time>2026-04-25T15:32:37.015Z</time></trkpt><trkpt lat="46.143397862674256" lon="9.903937505811188"><ele>996.0</ele><time>2026-04-25T15:32:38.015Z</time></trkpt><trkpt lat="46.14343848057618" lon="9.90402005122275"><ele>998.0</ele><time>2026-04-25T15:32:39.015Z</time></trkpt><trkpt lat="46.143532977583476" lon="9.904124385722717"><ele>998.0</ele><time>2026-04-25T15:32:41.015Z</time></trkpt><trkpt lat="46.14351290730817" lon="9.90424331481529"><ele>998.0</ele><time>2026-04-25T15:32:43.015Z</time></trkpt><trkpt lat="46.14353245192474" lon="9.904344495533529"><ele>998.0</ele><time>2026-04-25T15:32:45.015Z</time></trkpt><trkpt lat="46.14364051800282" lon="9.90440048044829"><ele>998.0</ele><time>2026-04-25T15:32:47.015Z</time></trkpt><trkpt lat="46.14376951302858" lon="9.904419184135252"><ele>998.0</ele><time>2026-04-25T15:32:49.015Z</time></trkpt><trkpt lat="46.14383936250651" lon="9.904430328055424"><ele>994.5999999999999</ele><time>2026-04-25T15:32:50.015Z</time></trkpt><trkpt lat="46.143928837514636" lon="9.904406745873327"><ele>991.1999999999999</ele><time>2026-04-25T15:32:52.015Z</time></trkpt><trkpt lat="46.1440629660941" lon="9.904351708909447"><ele>987.8</ele><time>2026-04-25T15:32:54.015Z</time></trkpt><trkpt lat="46.14415443726685" lon="9.9043095002633"><ele>984.4</ele><time>2026-04-25T15:32:56.015Z</time></trkpt><trkpt lat="46.14422022046878" lon="9.904227708016386"><ele>981.0</ele><time>2026-04-25T15:32:58.015Z</time></trkpt><trkpt lat="46.14430026721565" lon="9.904137948632636"><ele>981.0</ele><time>2026-04-25T15:33:00.015Z</time></trkpt><trkpt lat="46.1443585474039" lon="9.904096173723195"><ele>981.0</ele><time>2026-04-25T15:33:01.015Z</time></trkpt><trkpt lat="46.14441594639663" lon="9.904023917207889"><ele>981.0</ele><time>2026-04-25T15:33:02.015Z</time></trkpt><trkpt lat="46.14446025413123" lon="9.903958433077419"><ele>981.0</ele><time>2026-04-25T15:33:03.015Z</time></trkpt><trkpt lat="46.14454041441163" lon="9.903853518189221"><ele>981.0</ele><time>2026-04-25T15:33:05.015Z</time></trkpt><trkpt lat="46.144613491114924" lon="9.903725068892076"><ele>981.0</ele><time>2026-04-25T15:33:07.015Z</time></trkpt><trkpt lat="46.14466421081721" lon="9.903624359541327"><ele>981.0</ele><time>2026-04-25T15:33:09.015Z</time></trkpt><trkpt lat="46.144738663385645" lon="9.903689602678371"><ele>980.9999999999999</ele><time>2026-04-25T15:33:12.015Z</time></trkpt><trkpt lat="46.14480356623824" lon="9.903712238884127"><ele>980.9999999999999</ele><time>2026-04-25T15:33:14.015Z</time></trkpt><trkpt lat="46.14489022619237" lon="9.903826521914535"><ele>981.0</ele><time>2026-04-25T15:33:16.015Z</time></trkpt><trkpt lat="46.14493020952052" lon="9.903991431567622"><ele>981.0</ele><time>2026-04-25T15:33:18.015Z</time></trkpt><trkpt lat="46.14502129958638" lon="9.904079011724207"><ele>975.4</ele><time>2026-04-25T15:33:20.015Z</time></trkpt><trkpt lat="46.1450910766423" lon="9.90416928454802"><ele>969.8</ele><time>2026-04-25T15:33:22.015Z</time></trkpt><trkpt lat="46.14517227269316" lon="9.904208543738061"><ele>964.1999999999999</ele><time>2026-04-25T15:33:24.015Z</time></trkpt><trkpt lat="46.145235106135154" lon="9.90428319993536"><ele>958.5999999999999</ele><time>2026-04-25T15:33:45.015Z</time></trkpt><trkpt lat="46.145326047970435" lon="9.904296295486166"><ele>953.0</ele><time>2026-04-25T15:34:01.015Z</time></trkpt><trkpt lat="46.14543558438097" lon="9.904339282436078"><ele>951.0000000000001</ele><time>2026-04-25T15:34:03.016Z</time></trkpt><trkpt lat="46.145525572368484" lon="9.904432081744424"><ele>949.0</ele><time>2026-04-25T15:34:05.016Z</time></trkpt><trkpt lat="46.145611839009256" lon="9.904477565560944"><ele>947.0</ele><time>2026-04-25T15:34:06.016Z</time></trkpt><trkpt lat="46.14568245889489" lon="9.904510161677454"><ele>945.0</ele><time>2026-04-25T15:34:07.016Z</time></trkpt><trkpt lat="46.14575041387913" lon="9.904572818722198"><ele>943.0000000000001</ele><time>2026-04-25T15:34:08.016Z</time></trkpt><trkpt lat="46.145813262870476" lon="9.904623313433147"><ele>941.0</ele><time>2026-04-25T15:34:09.016Z</time></trkpt><trkpt lat="46.145886631381394" lon="9.904717311477537"><ele>936.8333333333334</ele><time>2026-04-25T15:34:11.016Z</time></trkpt><trkpt lat="46.145940858706766" lon="9.904772403629075"><ele>932.6666666666667</ele><time>2026-04-25T15:34:12.016Z</time></trkpt><trkpt lat="46.14603118462272" lon="9.904876936916928"><ele>928.5</ele><time>2026-04-25T15:34:14.015Z</time></trkpt><trkpt lat="46.14600401095496" lon="9.904972092500625"><ele>924.3333333333333</ele><time>2026-04-25T15:34:16.016Z</time></trkpt><trkpt lat="46.14596283828233" lon="9.905044944374367"><ele>920.1666666666666</ele><time>2026-04-25T15:34:17.016Z</time></trkpt><trkpt lat="46.14591147244259" lon="9.905112221814647"><ele>916.0</ele><time>2026-04-25T15:34:18.016Z</time></trkpt><trkpt lat="46.145873387272935" lon="9.905197749708492"><ele>913.6666666666666</ele><time>2026-04-25T15:34:19.016Z</time></trkpt><trkpt lat="46.14584748253755" lon="9.905309266501224"><ele>911.3333333333333</ele><time>2026-04-25T15:34:20.016Z</time></trkpt><trkpt lat="46.14583383339905" lon="9.90544938958375"><ele>909.0</ele><time>2026-04-25T15:34:22.016Z</time></trkpt><trkpt lat="46.14593173428249" lon="9.905467855839655"><ele>906.6666666666667</ele><time>2026-04-25T15:34:26.016Z</time></trkpt><trkpt lat="46.14597146568927" lon="9.905555589597702"><ele>904.3333333333334</ele><time>2026-04-25T15:34:29.016Z</time></trkpt><trkpt lat="46.14592406335727" lon="9.905615487357727"><ele>902.0</ele><time>2026-04-25T15:34:30.016Z</time></trkpt><trkpt lat="46.145877901265564" lon="9.905761259947212"><ele>902.0000000000001</ele><time>2026-04-25T15:34:32.016Z</time></trkpt><trkpt lat="46.14587686354636" lon="9.905857313794511"><ele>902.0</ele><time>2026-04-25T15:34:33.016Z</time></trkpt><trkpt lat="46.14590492901026" lon="9.905963546875865"><ele>902.0</ele><time>2026-04-25T15:34:34.016Z</time></trkpt><trkpt lat="46.14593673821204" lon="9.906077663703687"><ele>902.0</ele><time>2026-04-25T15:34:35.016Z</time></trkpt><trkpt lat="46.145962755148" lon="9.906177888145175"><ele>902.0000000000001</ele><time>2026-04-25T15:34:36.016Z</time></trkpt><trkpt lat="46.146004778309525" lon="9.906256477884742"><ele>902.0</ele><time>2026-04-25T15:34:37.016Z</time></trkpt><trkpt lat="46.146058206198695" lon="9.906380092333643"><ele>895.8</ele><time>2026-04-25T15:34:39.016Z</time></trkpt><trkpt lat="46.146044731424986" lon="9.906506825413668"><ele>889.6</ele><time>2026-04-25T15:34:41.016Z</time></trkpt><trkpt lat="46.14613322679102" lon="9.906476667968223"><ele>883.3999999999999</ele><time>2026-04-25T15:34:44.016Z</time></trkpt><trkpt lat="46.146192869224805" lon="9.906412974427502"><ele>877.1999999999999</ele><time>2026-04-25T15:34:45.016Z</time></trkpt><trkpt lat="46.1462560965517" lon="9.906332140391067"><ele>871.0</ele><time>2026-04-25T15:34:47.016Z</time></trkpt><trkpt lat="46.14629303657588" lon="9.906511371711815"><ele>870.9999999999999</ele><time>2026-04-25T15:34:50.016Z</time></trkpt><trkpt lat="46.14628428633802" lon="9.90661732158613"><ele>871.0</ele><time>2026-04-25T15:34:52.016Z</time></trkpt><trkpt lat="46.146358171486135" lon="9.906568880868168"><ele>871.0</ele><time>2026-04-25T15:34:57.016Z</time></trkpt><trkpt lat="46.1464142500441" lon="9.906505278018589"><ele>871.0</ele><time>2026-04-25T15:34:58.016Z</time></trkpt><trkpt lat="46.146536673687436" lon="9.906565842715143"><ele>870.9999999999999</ele><time>2026-04-25T15:35:00.016Z</time></trkpt><trkpt lat="46.1466119794729" lon="9.906634209844023"><ele>871.0</ele><time>2026-04-25T15:35:01.016Z</time></trkpt><trkpt lat="46.14669146542102" lon="9.906707089350148"><ele>868.1666666666666</ele><time>2026-04-25T15:35:03.016Z</time></trkpt><trkpt lat="46.14677223309628" lon="9.906720576245299"><ele>865.3333333333333</ele><time>2026-04-25T15:35:05.016Z</time></trkpt><trkpt lat="46.1468382826932" lon="9.90679785780467"><ele>862.5</ele><time>2026-04-25T15:35:07.016Z</time></trkpt><trkpt lat="46.14689625645363" lon="9.906729834530033"><ele>859.6666666666667</ele><time>2026-04-25T15:35:10.016Z</time></trkpt><trkpt lat="46.14696455700958" lon="9.906725493937655"><ele>856.8333333333334</ele><time>2026-04-25T15:35:12.016Z</time></trkpt><trkpt lat="46.14705018393542" lon="9.906805210237405"><ele>854.0</ele><time>2026-04-25T15:35:14.016Z</time></trkpt><trkpt lat="46.1471177210496" lon="9.906941529979623"><ele>847.8000000000001</ele><time>2026-04-25T15:35:16.016Z</time></trkpt><trkpt lat="46.14715999826283" lon="9.907048686191745"><ele>841.6000000000001</ele><time>2026-04-25T15:35:18.016Z</time></trkpt><trkpt lat="46.147068753008256" lon="9.907106593080291"><ele>835.4</ele><time>2026-04-25T15:35:21.016Z</time></trkpt><trkpt lat="46.14700996315916" lon="9.907219654513716"><ele>829.2</ele><time>2026-04-25T15:35:23.016Z</time></trkpt><trkpt lat="46.14699580921834" lon="9.907312977450667"><ele>823.0</ele><time>2026-04-25T15:35:25.016Z</time></trkpt><trkpt lat="46.147073825662325" lon="9.90741993942687"><ele>823.0</ele><time>2026-04-25T15:35:27.016Z</time></trkpt><trkpt lat="46.147161777614166" lon="9.907483795306357"><ele>823.0</ele><time>2026-04-25T15:35:29.016Z</time></trkpt><trkpt lat="46.14725722435972" lon="9.90754634679597"><ele>823.0</ele><time>2026-04-25T15:35:31.016Z</time></trkpt><trkpt lat="46.14731131904022" lon="9.90760592406309"><ele>823.0</ele><time>2026-04-25T15:35:32.016Z</time></trkpt><trkpt lat="46.147399209382854" lon="9.90770469091155"><ele>823.0</ele><time>2026-04-25T15:35:34.016Z</time></trkpt><trkpt lat="46.147479472419" lon="9.907757446726508"><ele>816.0</ele><time>2026-04-25T15:35:36.016Z</time></trkpt><trkpt lat="46.14758216160012" lon="9.90770782902566"><ele>809.0</ele><time>2026-04-25T15:35:38.016Z</time></trkpt><trkpt lat="46.1476550043232" lon="9.907695482052828"><ele>802.0</ele><time>2026-04-25T15:35:40.016Z</time></trkpt><trkpt lat="46.14767250838641" lon="9.907851695086194"><ele>795.0</ele><time>2026-04-25T15:35:42.016Z</time></trkpt><trkpt lat="46.14766302121128" lon="9.907944491945534"><ele>788.0</ele><time>2026-04-25T15:35:43.016Z</time></trkpt><trkpt lat="46.14769515246796" lon="9.90809295514962"><ele>788.0000000000001</ele><time>2026-04-25T15:35:45.016Z</time></trkpt><trkpt lat="46.14774669365289" lon="9.908154013016333"><ele>788.0</ele><time>2026-04-25T15:35:52.016Z</time></trkpt><trkpt lat="46.14773386323462" lon="9.908257454493205"><ele>788.0</ele><time>2026-04-25T15:35:56.016Z</time></trkpt><trkpt lat="46.147684511319326" lon="9.908339532091768"><ele>788.0</ele><time>2026-04-25T15:36:52.017Z</time></trkpt><trkpt lat="46.14771998439453" lon="9.908239287759011"><ele>788.0000000000001</ele><time>2026-04-25T15:36:56.017Z</time></trkpt><trkpt lat="46.14780043262877" lon="9.90810435254406"><ele>788.0</ele><time>2026-04-25T15:36:58.017Z</time></trkpt><trkpt lat="46.147840986033565" lon="9.907963933281895"><ele>788.0000000000001</ele><time>2026-04-25T15:37:00.017Z</time></trkpt><trkpt lat="46.147857158676366" lon="9.90786947248333"><ele>788.0</ele><time>2026-04-25T15:37:01.017Z</time></trkpt><trkpt lat="46.14791933167592" lon="9.907772205122415"><ele>788.0</ele><time>2026-04-25T15:37:03.017Z</time></trkpt><trkpt lat="46.14796154478354" lon="9.907669197163859"><ele>788.0</ele><time>2026-04-25T15:37:05.017Z</time></trkpt><trkpt lat="46.14797637721313" lon="9.907505729340109"><ele>788.0000000000001</ele><time>2026-04-25T15:37:07.017Z</time></trkpt><trkpt lat="46.14796824119456" lon="9.907396094458697"><ele>788.0</ele><time>2026-04-25T15:37:08.017Z</time></trkpt><trkpt lat="46.1479858228605" lon="9.90728876431365"><ele>792.8</ele><time>2026-04-25T15:37:09.017Z</time></trkpt><trkpt lat="46.147979377401505" lon="9.907154754218437"><ele>797.5999999999999</ele><time>2026-04-25T15:37:10.017Z</time></trkpt><trkpt lat="46.14797645858137" lon="9.907040592808437"><ele>802.4000000000001</ele><time>2026-04-25T15:37:11.017Z</time></trkpt><trkpt lat="46.14801123051036" lon="9.9068969714925"><ele>807.2</ele><time>2026-04-25T15:37:12.017Z</time></trkpt><trkpt lat="46.14805920729829" lon="9.90676421210047"><ele>812.0</ele><time>2026-04-25T15:37:13.017Z</time></trkpt><trkpt lat="46.14810463650203" lon="9.906645454874733"><ele>814.8</ele><time>2026-04-25T15:37:14.017Z</time></trkpt><trkpt lat="46.148142383814424" lon="9.906555944115269"><ele>817.6</ele><time>2026-04-25T15:37:15.017Z</time></trkpt><trkpt lat="46.14818876222511" lon="9.906481094101217"><ele>820.4</ele><time>2026-04-25T15:37:16.017Z</time></trkpt><trkpt lat="46.14826380350381" lon="9.906356987851986"><ele>823.1999999999999</ele><time>2026-04-25T15:37:18.017Z</time></trkpt><trkpt lat="46.14831382284947" lon="9.906218635032408"><ele>826.0</ele><time>2026-04-25T15:37:20.017Z</time></trkpt><trkpt lat="46.148268510238275" lon="9.906106486663022"><ele>828.0</ele><time>2026-04-25T15:37:21.017Z</time></trkpt><trkpt lat="46.148223129389706" lon="9.905984583103772"><ele>830.0</ele><time>2026-04-25T15:37:22.017Z</time></trkpt><trkpt lat="46.14818422412393" lon="9.905882757808898"><ele>832.0</ele><time>2026-04-25T15:37:23.017Z</time></trkpt><trkpt lat="46.14811542772232" lon="9.905773562696394"><ele>834.0</ele><time>2026-04-25T15:37:24.017Z</time></trkpt><trkpt lat="46.14806850948254" lon="9.905642678338479"><ele>836.0</ele><time>2026-04-25T15:37:25.017Z</time></trkpt><trkpt lat="46.14803694012808" lon="9.905516079865142"><ele>836.0000000000001</ele><time>2026-04-25T15:37:26.017Z</time></trkpt><trkpt lat="46.14800130287856" lon="9.905399462119838"><ele>836.0</ele><time>2026-04-25T15:37:27.017Z</time></trkpt><trkpt lat="46.14795930551692" lon="9.905303746325151"><ele>836.0</ele><time>2026-04-25T15:37:28.017Z</time></trkpt><trkpt lat="46.147921201447105" lon="9.905206370098696"><ele>836.0</ele><time>2026-04-25T15:37:29.017Z</time></trkpt><trkpt lat="46.147874701473214" lon="9.905114702165314"><ele>836.0000000000001</ele><time>2026-04-25T15:37:30.017Z</time></trkpt><trkpt lat="46.14782580022627" lon="9.905016511295306"><ele>836.0</ele><time>2026-04-25T15:37:31.017Z</time></trkpt><trkpt lat="46.14778893658892" lon="9.904902421668538"><ele>836.4</ele><time>2026-04-25T15:37:32.017Z</time></trkpt><trkpt lat="46.147773076165144" lon="9.90476409802067"><ele>836.8</ele><time>2026-04-25T15:37:33.017Z</time></trkpt><trkpt lat="46.147762598094985" lon="9.904613164362749"><ele>837.1999999999999</ele><time>2026-04-25T15:37:34.017Z</time></trkpt><trkpt lat="46.147763179929186" lon="9.904469299490374"><ele>837.5999999999999</ele><time>2026-04-25T15:37:35.017Z</time></trkpt><trkpt lat="46.14778792755323" lon="9.904330352114522"><ele>838.0</ele><time>2026-04-25T15:37:36.017Z</time></trkpt><trkpt lat="46.147802824422186" lon="9.904174684344756"><ele>838.0</ele><time>2026-04-25T15:37:37.017Z</time></trkpt><trkpt lat="46.14780289070891" lon="9.904016518856752"><ele>838.0</ele><time>2026-04-25T15:37:38.017Z</time></trkpt><trkpt lat="46.14781277986245" lon="9.903874670834263"><ele>838.0</ele><time>2026-04-25T15:37:39.017Z</time></trkpt><trkpt lat="46.14784506629626" lon="9.903712332670647"><ele>838.0</ele><time>2026-04-25T15:37:40.017Z</time></trkpt><trkpt lat="46.14786087883818" lon="9.903582048510847"><ele>838.0</ele><time>2026-04-25T15:37:41.017Z</time></trkpt><trkpt lat="46.14784802991799" lon="9.903451752439336"><ele>837.0</ele><time>2026-04-25T15:37:42.017Z</time></trkpt><trkpt lat="46.14784060108859" lon="9.903350363220813"><ele>836.0</ele><time>2026-04-25T15:37:43.017Z</time></trkpt><trkpt lat="46.147877596568605" lon="9.90316330148412"><ele>835.0</ele><time>2026-04-25T15:37:45.017Z</time></trkpt><trkpt lat="46.14789157203259" lon="9.903058588154119"><ele>834.0</ele><time>2026-04-25T15:37:46.017Z</time></trkpt><trkpt lat="46.14784923718284" lon="9.902879828624553"><ele>833.0</ele><time>2026-04-25T15:37:48.017Z</time></trkpt><trkpt lat="46.14779348864059" lon="9.90279637560813"><ele>833.0</ele><time>2026-04-25T15:37:49.017Z</time></trkpt><trkpt lat="46.14772327286275" lon="9.902719877535851"><ele>833.0</ele><time>2026-04-25T15:37:50.017Z</time></trkpt><trkpt lat="46.14764160614098" lon="9.9026510849442"><ele>833.0</ele><time>2026-04-25T15:37:51.017Z</time></trkpt><trkpt lat="46.1475749853064" lon="9.902570868960352"><ele>833.0</ele><time>2026-04-25T15:37:52.017Z</time></trkpt><trkpt lat="46.147544955762555" lon="9.902445821597007"><ele>833.0</ele><time>2026-04-25T15:37:53.017Z</time></trkpt><trkpt lat="46.14751822049758" lon="9.90229626142205"><ele>830.8</ele><time>2026-04-25T15:37:54.017Z</time></trkpt><trkpt lat="46.147529622266035" lon="9.902131796718166"><ele>828.5999999999999</ele><time>2026-04-25T15:37:55.017Z</time></trkpt><trkpt lat="46.147549711732616" lon="9.901971933821526"><ele>826.4000000000001</ele><time>2026-04-25T15:37:56.017Z</time></trkpt><trkpt lat="46.147543693925606" lon="9.901856330200367"><ele>824.2</ele><time>2026-04-25T15:37:57.017Z</time></trkpt><trkpt lat="46.14754137574387" lon="9.901751680550325"><ele>822.0</ele><time>2026-04-25T15:37:58.017Z</time></trkpt><trkpt lat="46.147550461038975" lon="9.901615436980899"><ele>821.6</ele><time>2026-04-25T15:37:59.017Z</time></trkpt><trkpt lat="46.1475316557409" lon="9.90146210743203"><ele>821.2</ele><time>2026-04-25T15:38:00.017Z</time></trkpt><trkpt lat="46.147519519599186" lon="9.901318496601068"><ele>820.8</ele><time>2026-04-25T15:38:01.017Z</time></trkpt><trkpt lat="46.14751757398018" lon="9.901187534331617"><ele>820.4</ele><time>2026-04-25T15:38:02.017Z</time></trkpt><trkpt lat="46.147526574447404" lon="9.901082032230052"><ele>820.0</ele><time>2026-04-25T15:38:03.017Z</time></trkpt><trkpt lat="46.147522032129274" lon="9.900969939421271"><ele>820.8</ele><time>2026-04-25T15:38:04.017Z</time></trkpt><trkpt lat="46.14754101398179" lon="9.900847964604413"><ele>821.6</ele><time>2026-04-25T15:38:05.017Z</time></trkpt><trkpt lat="46.147559136067265" lon="9.900738811187773"><ele>822.4000000000001</ele><time>2026-04-25T15:38:06.017Z</time></trkpt><trkpt lat="46.14751907708569" lon="9.900533222181922"><ele>823.2</ele><time>2026-04-25T15:38:07.017Z</time></trkpt><trkpt lat="46.147496143422835" lon="9.900385143249014"><ele>824.0</ele><time>2026-04-25T15:38:08.017Z</time></trkpt><trkpt lat="46.147485573621516" lon="9.90023218763029"><ele>824.2</ele><time>2026-04-25T15:38:09.017Z</time></trkpt><trkpt lat="46.14747847231495" lon="9.900077520115943"><ele>824.4000000000001</ele><time>2026-04-25T15:38:10.017Z</time></trkpt><trkpt lat="46.147476135485945" lon="9.899922090854256"><ele>824.6</ele><time>2026-04-25T15:38:11.017Z</time></trkpt><trkpt lat="46.1474685724244" lon="9.899777772529625"><ele>824.8</ele><time>2026-04-25T15:38:12.017Z</time></trkpt><trkpt lat="46.1474505608448" lon="9.89966151429571"><ele>825.0</ele><time>2026-04-25T15:38:13.017Z</time></trkpt><trkpt lat="46.14743696352251" lon="9.899525432454954"><ele>825.0</ele><time>2026-04-25T15:38:14.017Z</time></trkpt><trkpt lat="46.14742579617835" lon="9.899389541073711"><ele>825.0</ele><time>2026-04-25T15:38:15.018Z</time></trkpt><trkpt lat="46.1474423810692" lon="9.899243754234195"><ele>825.0</ele><time>2026-04-25T15:38:16.018Z</time></trkpt><trkpt lat="46.14748078423947" lon="9.899107442165558"><ele>825.0</ele><time>2026-04-25T15:38:17.018Z</time></trkpt><trkpt lat="46.147534246332036" lon="9.898988566286484"><ele>825.0</ele><time>2026-04-25T15:38:18.018Z</time></trkpt><trkpt lat="46.14755967756743" lon="9.898857321632288"><ele>825.4</ele><time>2026-04-25T15:38:19.018Z</time></trkpt><trkpt lat="46.14757327923812" lon="9.89871732754773"><ele>825.8</ele><time>2026-04-25T15:38:20.018Z</time></trkpt><trkpt lat="46.147561298754546" lon="9.898565248341447"><ele>826.2</ele><time>2026-04-25T15:38:21.018Z</time></trkpt><trkpt lat="46.14755136991974" lon="9.898423721816572"><ele>826.6</ele><time>2026-04-25T15:38:22.017Z</time></trkpt><trkpt lat="46.14752395243765" lon="9.898278713349864"><ele>827.0</ele><time>2026-04-25T15:38:23.017Z</time></trkpt><trkpt lat="46.147503568338024" lon="9.898130362327976"><ele>827.0</ele><time>2026-04-25T15:38:24.018Z</time></trkpt><trkpt lat="46.147495996380805" lon="9.898011929433213"><ele>827.0</ele><time>2026-04-25T15:38:25.018Z</time></trkpt><trkpt lat="46.147501176630996" lon="9.897875362475624"><ele>827.0</ele><time>2026-04-25T15:38:26.018Z</time></trkpt><trkpt lat="46.14749480841223" lon="9.897712941503343"><ele>827.0</ele><time>2026-04-25T15:38:27.019Z</time></trkpt><trkpt lat="46.14750577644706" lon="9.897572097888647"><ele>827.0</ele><time>2026-04-25T15:38:28.019Z</time></trkpt><trkpt lat="46.14746144318563" lon="9.897326769038775"><ele>826.0</ele><time>2026-04-25T15:38:30.019Z</time></trkpt><trkpt lat="46.147438471603216" lon="9.897169825547476"><ele>825.0</ele><time>2026-04-25T15:38:31.019Z</time></trkpt><trkpt lat="46.147429781166245" lon="9.897024782460965"><ele>824.0</ele><time>2026-04-25T15:38:32.019Z</time></trkpt><trkpt lat="46.14741229383728" lon="9.896911477103329"><ele>823.0</ele><time>2026-04-25T15:38:33.019Z</time></trkpt><trkpt lat="46.14737900425446" lon="9.896810652040294"><ele>822.0</ele><time>2026-04-25T15:38:34.019Z</time></trkpt><trkpt lat="46.14737559569484" lon="9.896683120706912"><ele>833.0</ele><time>2026-04-25T15:38:35.019Z</time></trkpt><trkpt lat="46.14734017788896" lon="9.896476962146469"><ele>844.0</ele><time>2026-04-25T15:38:36.019Z</time></trkpt><trkpt lat="46.14734688128988" lon="9.896264319113717"><ele>855.0</ele><time>2026-04-25T15:38:37.019Z</time></trkpt><trkpt lat="46.14735334186243" lon="9.896097207675563"><ele>866.0</ele><time>2026-04-25T15:38:38.019Z</time></trkpt><trkpt lat="46.14731592073317" lon="9.895959977018508"><ele>865.25</ele><time>2026-04-25T15:38:39.019Z</time></trkpt><trkpt lat="46.14728997139695" lon="9.895790183325683"><ele>864.5</ele><time>2026-04-25T15:38:41.019Z</time></trkpt><trkpt lat="46.147313354942774" lon="9.895633529626844"><ele>863.75</ele><time>2026-04-25T15:38:43.019Z</time></trkpt><trkpt lat="46.147328824701766" lon="9.895462914263208"><ele>863.0</ele><time>2026-04-25T15:38:45.019Z</time></trkpt><trkpt lat="46.14732362963724" lon="9.895265762891645"><ele>863.0</ele><time>2026-04-25T15:38:47.019Z</time></trkpt><trkpt lat="46.14731846619285" lon="9.895149028262352"><ele>863.0</ele><time>2026-04-25T15:38:48.019Z</time></trkpt><trkpt lat="46.14732277147231" lon="9.895008171206344"><ele>863.0</ele><time>2026-04-25T15:38:49.019Z</time></trkpt><trkpt lat="46.147316000644416" lon="9.894881435217377"><ele>863.0</ele><time>2026-04-25T15:38:50.019Z</time></trkpt><trkpt lat="46.1473171255329" lon="9.894725889659759"><ele>863.0</ele><time>2026-04-25T15:38:51.019Z</time></trkpt><trkpt lat="46.14731611547492" lon="9.894559152615141"><ele>863.25</ele><time>2026-04-25T15:38:52.019Z</time></trkpt><trkpt lat="46.14731617670534" lon="9.894386997078904"><ele>863.5</ele><time>2026-04-25T15:38:53.019Z</time></trkpt><trkpt lat="46.1472977246266" lon="9.894218781099308"><ele>863.75</ele><time>2026-04-25T15:38:54.019Z</time></trkpt><trkpt lat="46.14728878868878" lon="9.894040767394838"><ele>864.0</ele><time>2026-04-25T15:38:55.019Z</time></trkpt><trkpt lat="46.14728667653054" lon="9.89387244080844"><ele>864.0</ele><time>2026-04-25T15:38:56.019Z</time></trkpt><trkpt lat="46.14728940678862" lon="9.893727054140257"><ele>864.0000000000001</ele><time>2026-04-25T15:38:57.019Z</time></trkpt><trkpt lat="46.147278216429946" lon="9.89358192520332"><ele>864.0000000000001</ele><time>2026-04-25T15:38:58.019Z</time></trkpt><trkpt lat="46.14724556252601" lon="9.893446290069496"><ele>864.0</ele><time>2026-04-25T15:38:59.019Z</time></trkpt><trkpt lat="46.14720513650067" lon="9.893280764405166"><ele>864.0</ele><time>2026-04-25T15:39:00.019Z</time></trkpt><trkpt lat="46.14714467595226" lon="9.893142604373734"><ele>860.2</ele><time>2026-04-25T15:39:01.019Z</time></trkpt><trkpt lat="46.1470754235342" lon="9.893001946414744"><ele>856.4000000000001</ele><time>2026-04-25T15:39:02.019Z</time></trkpt><trkpt lat="46.14703324120738" lon="9.892863957480314"><ele>852.6</ele><time>2026-04-25T15:39:03.019Z</time></trkpt><trkpt lat="46.14699855318564" lon="9.89274063721832"><ele>848.8</ele><time>2026-04-25T15:39:04.019Z</time></trkpt><trkpt lat="46.14698324063433" lon="9.892650496973978"><ele>845.0</ele><time>2026-04-25T15:39:05.019Z</time></trkpt><trkpt lat="46.14695153867271" lon="9.892561339483914"><ele>841.8</ele><time>2026-04-25T15:39:07.019Z</time></trkpt><trkpt lat="46.146829449555135" lon="9.892469888775794"><ele>838.6</ele><time>2026-04-25T15:39:09.019Z</time></trkpt><trkpt lat="46.14670018381248" lon="9.892370194542377"><ele>835.4000000000001</ele><time>2026-04-25T15:39:11.019Z</time></trkpt><trkpt lat="46.14664362884995" lon="9.892283775575322"><ele>832.2</ele><time>2026-04-25T15:39:14.019Z</time></trkpt><trkpt lat="46.14657631652674" lon="9.892271723364965"><ele>829.0</ele><time>2026-04-25T15:39:20.019Z</time></trkpt><trkpt lat="46.14659800933996" lon="9.89212529623267"><ele>828.9999999999999</ele><time>2026-04-25T15:39:24.019Z</time></trkpt><trkpt lat="46.14659922753942" lon="9.892027063238752"><ele>829.0</ele><time>2026-04-25T15:39:25.019Z</time></trkpt><trkpt lat="46.146601662688646" lon="9.89191170362423"><ele>829.0</ele><time>2026-04-25T15:39:26.019Z</time></trkpt><trkpt lat="46.146653462235214" lon="9.891780596410882"><ele>829.0</ele><time>2026-04-25T15:39:29.019Z</time></trkpt><trkpt lat="46.146701098770706" lon="9.891692188835544"><ele>828.9999999999999</ele><time>2026-04-25T15:39:31.019Z</time></trkpt><trkpt lat="46.14677708478607" lon="9.89163299180441"><ele>829.0</ele><time>2026-04-25T15:39:32.019Z</time></trkpt><trkpt lat="46.14688328932006" lon="9.89158924341162"><ele>827.6</ele><time>2026-04-25T15:39:33.019Z</time></trkpt><trkpt lat="46.146931799149264" lon="9.8915114949411"><ele>826.2</ele><time>2026-04-25T15:39:34.019Z</time></trkpt><trkpt lat="46.14696271766978" lon="9.89136047254678"><ele>824.8000000000001</ele><time>2026-04-25T15:39:35.019Z</time></trkpt><trkpt lat="46.1469909561917" lon="9.891209303921912"><ele>823.4000000000001</ele><time>2026-04-25T15:39:36.019Z</time></trkpt><trkpt lat="46.14704780466421" lon="9.891080018835378"><ele>822.0</ele><time>2026-04-25T15:39:37.019Z</time></trkpt><trkpt lat="46.14706811056793" lon="9.890962325399618"><ele>821.25</ele><time>2026-04-25T15:39:38.019Z</time></trkpt><trkpt lat="46.147077563571166" lon="9.89083810458879"><ele>820.5</ele><time>2026-04-25T15:39:39.019Z</time></trkpt><trkpt lat="46.147050182873" lon="9.890672179129263"><ele>819.75</ele><time>2026-04-25T15:39:40.019Z</time></trkpt><trkpt lat="46.146982615483324" lon="9.890438683067162"><ele>819.0</ele><time>2026-04-25T15:39:41.019Z</time></trkpt><trkpt lat="46.14694589513528" lon="9.89026423936421"><ele>819.0</ele><time>2026-04-25T15:39:42.019Z</time></trkpt><trkpt lat="46.14692126926894" lon="9.890128436035813"><ele>819.0</ele><time>2026-04-25T15:39:43.019Z</time></trkpt><trkpt lat="46.14691843306012" lon="9.890005049381225"><ele>819.0</ele><time>2026-04-25T15:39:44.019Z</time></trkpt><trkpt lat="46.14692789053317" lon="9.889872436441008"><ele>819.0</ele><time>2026-04-25T15:39:45.019Z</time></trkpt><trkpt lat="46.14693341208705" lon="9.88971889063695"><ele>819.0</ele><time>2026-04-25T15:39:46.019Z</time></trkpt><trkpt lat="46.146936025311234" lon="9.889525082188184"><ele>818.4000000000001</ele><time>2026-04-25T15:39:47.019Z</time></trkpt><trkpt lat="46.146941323077215" lon="9.889363179567518"><ele>817.8</ele><time>2026-04-25T15:39:48.019Z</time></trkpt><trkpt lat="46.14693027992979" lon="9.889192285735447"><ele>817.2</ele><time>2026-04-25T15:39:49.019Z</time></trkpt><trkpt lat="46.146906171762794" lon="9.889029998452555"><ele>816.5999999999999</ele><time>2026-04-25T15:39:50.019Z</time></trkpt><trkpt lat="46.146907130224044" lon="9.888884246963734"><ele>816.0</ele><time>2026-04-25T15:39:51.019Z</time></trkpt><trkpt lat="46.14695161496732" lon="9.888782371497804"><ele>816.0</ele><time>2026-04-25T15:39:52.019Z</time></trkpt><trkpt lat="46.147048670656126" lon="9.888728184607281"><ele>816.0</ele><time>2026-04-25T15:39:54.019Z</time></trkpt><trkpt lat="46.14713304047057" lon="9.888718720845059"><ele>816.0</ele><time>2026-04-25T15:39:55.019Z</time></trkpt><trkpt lat="46.14720559414531" lon="9.88857471118579"><ele>816.0</ele><time>2026-04-25T15:39:57.019Z</time></trkpt><trkpt lat="46.14722558395851" lon="9.888400169000365"><ele>816.0</ele><time>2026-04-25T15:39:58.019Z</time></trkpt><trkpt lat="46.147249441332555" lon="9.8882523626032"><ele>817.25</ele><time>2026-04-25T15:39:59.019Z</time></trkpt><trkpt lat="46.14728213256152" lon="9.888097353442614"><ele>818.5</ele><time>2026-04-25T15:40:00.019Z</time></trkpt><trkpt lat="46.1472753377546" lon="9.88788888569446"><ele>819.75</ele><time>2026-04-25T15:40:01.019Z</time></trkpt><trkpt lat="46.147243672505816" lon="9.887693749254046"><ele>821.0</ele><time>2026-04-25T15:40:02.019Z</time></trkpt><trkpt lat="46.14720286776791" lon="9.887543108646268"><ele>822.1666666666667</ele><time>2026-04-25T15:40:03.019Z</time></trkpt><trkpt lat="46.14720193072209" lon="9.887441618398485"><ele>823.3333333333334</ele><time>2026-04-25T15:40:04.019Z</time></trkpt><trkpt lat="46.14715549111395" lon="9.887303749269787"><ele>824.5</ele><time>2026-04-25T15:40:38.019Z</time></trkpt><trkpt lat="46.14718213031091" lon="9.88720169435242"><ele>825.6666666666667</ele><time>2026-04-25T15:40:40.019Z</time></trkpt><trkpt lat="46.1472108356593" lon="9.887113837954246"><ele>826.8333333333334</ele><time>2026-04-25T15:40:41.019Z</time></trkpt><trkpt lat="46.14720898851803" lon="9.8870201453428"><ele>828.0</ele><time>2026-04-25T15:40:42.019Z</time></trkpt><trkpt lat="46.14719808280135" lon="9.88686771876771"><ele>828.5999999999999</ele><time>2026-04-25T15:40:44.019Z</time></trkpt><trkpt lat="46.147213143666946" lon="9.886754147585753"><ele>829.1999999999999</ele><time>2026-04-25T15:40:45.019Z</time></trkpt><trkpt lat="46.14720696712292" lon="9.88661510571943"><ele>829.8</ele><time>2026-04-25T15:40:46.019Z</time></trkpt><trkpt lat="46.14719743587044" lon="9.886485021489793"><ele>830.4</ele><time>2026-04-25T15:40:47.019Z</time></trkpt><trkpt lat="46.14718131435214" lon="9.886353774798938"><ele>831.0</ele><time>2026-04-25T15:40:48.019Z</time></trkpt><trkpt lat="46.14716668935509" lon="9.886209225737254"><ele>831.0</ele><time>2026-04-25T15:40:49.019Z</time></trkpt><trkpt lat="46.1471628965422" lon="9.886087325514263"><ele>831.0</ele><time>2026-04-25T15:40:50.019Z</time></trkpt><trkpt lat="46.14714179007535" lon="9.885945846386159"><ele>831.0</ele><time>2026-04-25T15:40:51.019Z</time></trkpt><trkpt lat="46.147127363357775" lon="9.885819791388426"><ele>831.0</ele><time>2026-04-25T15:40:52.019Z</time></trkpt><trkpt lat="46.14709743674648" lon="9.885693062706705"><ele>831.0</ele><time>2026-04-25T15:40:53.019Z</time></trkpt><trkpt lat="46.147077283100344" lon="9.885546302206214"><ele>831.0</ele><time>2026-04-25T15:40:54.019Z</time></trkpt><trkpt lat="46.14707586380283" lon="9.885359807527335"><ele>831.0</ele><time>2026-04-25T15:40:55.019Z</time></trkpt><trkpt lat="46.147069218528074" lon="9.885175358938945"><ele>831.0</ele><time>2026-04-25T15:40:56.019Z</time></trkpt><trkpt lat="46.14708740893484" lon="9.88503321709755"><ele>831.0</ele><time>2026-04-25T15:40:57.019Z</time></trkpt><trkpt lat="46.14708566264071" lon="9.88489532655269"><ele>831.0</ele><time>2026-04-25T15:40:58.019Z</time></trkpt><trkpt lat="46.14708472593842" lon="9.884764860413997"><ele>831.0</ele><time>2026-04-25T15:40:59.019Z</time></trkpt><trkpt lat="46.14709881084798" lon="9.88460561656496"><ele>831.0</ele><time>2026-04-25T15:41:00.019Z</time></trkpt><trkpt lat="46.14713703557187" lon="9.88442232173895"><ele>831.0</ele><time>2026-04-25T15:41:01.019Z</time></trkpt><trkpt lat="46.14714441176699" lon="9.88422012643716"><ele>831.25</ele><time>2026-04-25T15:41:02.019Z</time></trkpt><trkpt lat="46.14717457955608" lon="9.884058334669358"><ele>831.5</ele><time>2026-04-25T15:41:03.019Z</time></trkpt><trkpt lat="46.14720533122056" lon="9.883905585386248"><ele>831.75</ele><time>2026-04-25T15:41:04.019Z</time></trkpt><trkpt lat="46.14724844247177" lon="9.883748963101564"><ele>832.0</ele><time>2026-04-25T15:41:05.019Z</time></trkpt><trkpt lat="46.147294008669505" lon="9.883569419720581"><ele>832.4000000000001</ele><time>2026-04-25T15:41:06.019Z</time></trkpt><trkpt lat="46.1473220260958" lon="9.883379854526252"><ele>832.8000000000001</ele><time>2026-04-25T15:41:07.019Z</time></trkpt><trkpt lat="46.147343097112596" lon="9.88321207465881"><ele>833.2</ele><time>2026-04-25T15:41:08.019Z</time></trkpt><trkpt lat="46.14736758671921" lon="9.883070618066913"><ele>833.6</ele><time>2026-04-25T15:41:09.019Z</time></trkpt><trkpt lat="46.1473855953457" lon="9.882944175939288"><ele>834.0</ele><time>2026-04-25T15:41:10.019Z</time></trkpt><trkpt lat="46.147394711652396" lon="9.882818929411304"><ele>821.8000000000001</ele><time>2026-04-25T15:41:11.019Z</time></trkpt><trkpt lat="46.14747156674241" lon="9.882750118172806"><ele>809.6</ele><time>2026-04-25T15:41:12.019Z</time></trkpt><trkpt lat="46.14757742581441" lon="9.882686107506723"><ele>797.4</ele><time>2026-04-25T15:41:13.019Z</time></trkpt><trkpt lat="46.14767678613444" lon="9.88262424899544"><ele>785.2</ele><time>2026-04-25T15:41:14.019Z</time></trkpt><trkpt lat="46.147752638143174" lon="9.882563339723225"><ele>773.0</ele><time>2026-04-25T15:41:15.019Z</time></trkpt><trkpt lat="46.1478096053029" lon="9.882448364702963"><ele>773.0</ele><time>2026-04-25T15:41:16.019Z</time></trkpt><trkpt lat="46.14787560942829" lon="9.882280944657285"><ele>773.0</ele><time>2026-04-25T15:41:17.019Z</time></trkpt><trkpt lat="46.14795011879896" lon="9.88214288313755"><ele>773.0</ele><time>2026-04-25T15:41:18.019Z</time></trkpt><trkpt lat="46.14801574360401" lon="9.881980997198719"><ele>773.0</ele><time>2026-04-25T15:41:19.019Z</time></trkpt><trkpt lat="46.148100178329024" lon="9.881811886927231"><ele>776.6666666666667</ele><time>2026-04-25T15:41:20.019Z</time></trkpt><trkpt lat="46.14815238645036" lon="9.881602141224867"><ele>780.3333333333333</ele><time>2026-04-25T15:41:21.019Z</time></trkpt><trkpt lat="46.148199693818526" lon="9.881404908963589"><ele>784.0</ele><time>2026-04-25T15:41:22.019Z</time></trkpt><trkpt lat="46.14823483892328" lon="9.88119296188885"><ele>772.75</ele><time>2026-04-25T15:41:23.019Z</time></trkpt><trkpt lat="46.14825281773868" lon="9.880987309271674"><ele>761.5</ele><time>2026-04-25T15:41:24.019Z</time></trkpt><trkpt lat="46.14827425095219" lon="9.880770103850143"><ele>750.25</ele><time>2026-04-25T15:41:25.019Z</time></trkpt><trkpt lat="46.148336906864074" lon="9.880609598954239"><ele>739.0</ele><time>2026-04-25T15:41:26.019Z</time></trkpt><trkpt lat="46.148394801260466" lon="9.880472991960751"><ele>739.0</ele><time>2026-04-25T15:41:27.019Z</time></trkpt><trkpt lat="46.14843408221212" lon="9.880328009807988"><ele>739.0</ele><time>2026-04-25T15:41:28.019Z</time></trkpt><trkpt lat="46.1484475474823" lon="9.880141189871885"><ele>739.0</ele><time>2026-04-25T15:41:29.019Z</time></trkpt><trkpt lat="46.14846282536509" lon="9.879956830965158"><ele>739.0</ele><time>2026-04-25T15:41:30.019Z</time></trkpt><trkpt lat="46.14844068888431" lon="9.879738866341793"><ele>739.25</ele><time>2026-04-25T15:41:31.019Z</time></trkpt><trkpt lat="46.1484281118189" lon="9.879538112395108"><ele>739.5</ele><time>2026-04-25T15:41:32.019Z</time></trkpt><trkpt lat="46.148418022085494" lon="9.879350750404157"><ele>739.75</ele><time>2026-04-25T15:41:33.019Z</time></trkpt><trkpt lat="46.14839612809926" lon="9.879157594223592"><ele>740.0</ele><time>2026-04-25T15:41:34.019Z</time></trkpt><trkpt lat="46.14839196131184" lon="9.87896821066246"><ele>740.0</ele><time>2026-04-25T15:41:35.019Z</time></trkpt><trkpt lat="46.14839998698278" lon="9.878822787513414"><ele>740.0</ele><time>2026-04-25T15:41:36.019Z</time></trkpt><trkpt lat="46.14841618578192" lon="9.878710053731188"><ele>740.0</ele><time>2026-04-25T15:41:37.019Z</time></trkpt><trkpt lat="46.148382079541456" lon="9.87856231222365"><ele>740.0</ele><time>2026-04-25T15:41:38.019Z</time></trkpt><trkpt lat="46.148332037436695" lon="9.878426886217374"><ele>740.0</ele><time>2026-04-25T15:41:39.019Z</time></trkpt><trkpt lat="46.148264688080054" lon="9.878255836350355"><ele>748.0</ele><time>2026-04-25T15:41:40.019Z</time></trkpt><trkpt lat="46.148194863142585" lon="9.87806619316919"><ele>756.0</ele><time>2026-04-25T15:41:41.019Z</time></trkpt><trkpt lat="46.14814936008868" lon="9.877865702482204"><ele>764.0</ele><time>2026-04-25T15:41:42.019Z</time></trkpt><trkpt lat="46.14810728316206" lon="9.877723052173337"><ele>772.0</ele><time>2026-04-25T15:41:43.019Z</time></trkpt><trkpt lat="46.148078979212755" lon="9.877595812165607"><ele>772.4000000000001</ele><time>2026-04-25T15:41:44.019Z</time></trkpt><trkpt lat="46.14806011864467" lon="9.877505868367347"><ele>772.8000000000001</ele><time>2026-04-25T15:41:45.019Z</time></trkpt><trkpt lat="46.1481328863663" lon="9.877331083709041"><ele>773.2</ele><time>2026-04-25T15:41:47.019Z</time></trkpt><trkpt lat="46.14817958579852" lon="9.877207426571577"><ele>773.6</ele><time>2026-04-25T15:41:48.019Z</time></trkpt><trkpt lat="46.14821582894844" lon="9.877094055323017"><ele>774.0</ele><time>2026-04-25T15:41:49.019Z</time></trkpt><trkpt lat="46.148259941346716" lon="9.876945444215322"><ele>765.5</ele><time>2026-04-25T15:41:50.019Z</time></trkpt><trkpt lat="46.14828019132593" lon="9.876774928872178"><ele>757.0</ele><time>2026-04-25T15:41:51.019Z</time></trkpt><trkpt lat="46.148291537717995" lon="9.876596467048252"><ele>748.5</ele><time>2026-04-25T15:41:52.019Z</time></trkpt><trkpt lat="46.14829035871928" lon="9.876399075904216"><ele>740.0</ele><time>2026-04-25T15:41:53.019Z</time></trkpt><trkpt lat="46.14831359685532" lon="9.876214450256684"><ele>738.6</ele><time>2026-04-25T15:41:54.019Z</time></trkpt><trkpt lat="46.148348062284285" lon="9.876043571379604"><ele>737.2</ele><time>2026-04-25T15:41:55.019Z</time></trkpt><trkpt lat="46.148369552006535" lon="9.875902955758411"><ele>735.8</ele><time>2026-04-25T15:41:56.019Z</time></trkpt><trkpt lat="46.148392090521476" lon="9.875766300359572"><ele>734.4</ele><time>2026-04-25T15:41:57.019Z</time></trkpt><trkpt lat="46.14840756773825" lon="9.875637560462048"><ele>733.0</ele><time>2026-04-25T15:41:58.019Z</time></trkpt><trkpt lat="46.14843253637863" lon="9.87552005486705"><ele>731.0</ele><time>2026-04-25T15:41:59.019Z</time></trkpt><trkpt lat="46.1484335104215" lon="9.87539566332467"><ele>729.0</ele><time>2026-04-25T15:42:00.019Z</time></trkpt><trkpt lat="46.14842758683346" lon="9.875282508142742"><ele>727.0</ele><time>2026-04-25T15:42:01.019Z</time></trkpt><trkpt lat="46.14842750543126" lon="9.875147173276687"><ele>725.0</ele><time>2026-04-25T15:42:02.019Z</time></trkpt><trkpt lat="46.14841545034147" lon="9.874988647607047"><ele>723.0</ele><time>2026-04-25T15:42:03.019Z</time></trkpt><trkpt lat="46.148381384129124" lon="9.87479862478969"><ele>720.5</ele><time>2026-04-25T15:42:04.019Z</time></trkpt><trkpt lat="46.14833188725779" lon="9.874618529464682"><ele>718.0</ele><time>2026-04-25T15:42:05.019Z</time></trkpt><trkpt lat="46.148305600235645" lon="9.874468602690198"><ele>715.5</ele><time>2026-04-25T15:42:06.019Z</time></trkpt><trkpt lat="46.14828834284082" lon="9.874322446722715"><ele>713.0</ele><time>2026-04-25T15:42:07.019Z</time></trkpt><trkpt lat="46.14825298306386" lon="9.874170863669686"><ele>710.0</ele><time>2026-04-25T15:42:08.019Z</time></trkpt><trkpt lat="46.14821678424311" lon="9.874006719265838"><ele>707.0</ele><time>2026-04-25T15:42:09.019Z</time></trkpt><trkpt lat="46.148178791943025" lon="9.873852371863045"><ele>704.0</ele><time>2026-04-25T15:42:10.019Z</time></trkpt><trkpt lat="46.14816304969864" lon="9.873714949010752"><ele>701.0</ele><time>2026-04-25T15:42:11.019Z</time></trkpt><trkpt lat="46.1481478926407" lon="9.873599114847975"><ele>698.0</ele><time>2026-04-25T15:42:12.019Z</time></trkpt><trkpt lat="46.14809550593115" lon="9.873411120904906"><ele>703.0</ele><time>2026-04-25T15:42:14.019Z</time></trkpt><trkpt lat="46.14808300695068" lon="9.873266618848719"><ele>708.0</ele><time>2026-04-25T15:42:15.019Z</time></trkpt><trkpt lat="46.14807342985513" lon="9.873129423115058"><ele>713.0</ele><time>2026-04-25T15:42:16.019Z</time></trkpt><trkpt lat="46.148084417521126" lon="9.873024956211044"><ele>718.0</ele><time>2026-04-25T15:42:17.019Z</time></trkpt><trkpt lat="46.14806854865346" lon="9.872918586295652"><ele>723.0</ele><time>2026-04-25T15:42:18.019Z</time></trkpt><trkpt lat="46.14804797712491" lon="9.872792815694156"><ele>728.0</ele><time>2026-04-25T15:42:19.019Z</time></trkpt><trkpt lat="46.14801407516347" lon="9.87266162755555"><ele>725.0</ele><time>2026-04-25T15:42:20.019Z</time></trkpt><trkpt lat="46.14798167559834" lon="9.87253922692091"><ele>722.0</ele><time>2026-04-25T15:42:21.019Z</time></trkpt><trkpt lat="46.14794914359642" lon="9.872431454387291"><ele>719.0</ele><time>2026-04-25T15:42:22.019Z</time></trkpt><trkpt lat="46.14789447932513" lon="9.872337761370083"><ele>716.0</ele><time>2026-04-25T15:42:23.019Z</time></trkpt><trkpt lat="46.147852942342446" lon="9.872251760716882"><ele>713.0</ele><time>2026-04-25T15:42:24.019Z</time></trkpt><trkpt lat="46.147834473200874" lon="9.872158504009771"><ele>710.0</ele><time>2026-04-25T15:42:25.019Z</time></trkpt><trkpt lat="46.147893120300004" lon="9.872057861045906"><ele>710.0</ele><time>2026-04-25T15:42:27.02Z</time></trkpt><trkpt lat="46.14783134141602" lon="9.871864354784936"><ele>710.0</ele><time>2026-04-25T15:42:29.02Z</time></trkpt><trkpt lat="46.1478026782457" lon="9.87177952956718"><ele>710.0</ele><time>2026-04-25T15:42:30.021Z</time></trkpt><trkpt lat="46.14775198562025" lon="9.871702226602284"><ele>710.0</ele><time>2026-04-25T15:42:31.02Z</time></trkpt><trkpt lat="46.14765910788145" lon="9.871606101299287"><ele>710.0</ele><time>2026-04-25T15:42:32.02Z</time></trkpt><trkpt lat="46.14756594932229" lon="9.871496290277419"><ele>706.0</ele><time>2026-04-25T15:42:33.02Z</time></trkpt><trkpt lat="46.147470691545216" lon="9.87138795397144"><ele>702.0</ele><time>2026-04-25T15:42:34.02Z</time></trkpt><trkpt lat="46.14740148383859" lon="9.871304131973353"><ele>698.0</ele><time>2026-04-25T15:42:35.02Z</time></trkpt><trkpt lat="46.14732083000992" lon="9.871281117626113"><ele>694.0</ele><time>2026-04-25T15:42:37.02Z</time></trkpt><trkpt lat="46.14720852096561" lon="9.87131380108248"><ele>690.0</ele><time>2026-04-25T15:42:39.021Z</time></trkpt><trkpt lat="46.14714360128079" lon="9.871375597691321"><ele>694.8</ele><time>2026-04-25T15:42:41.02Z</time></trkpt><trkpt lat="46.147080707171924" lon="9.871296250308193"><ele>699.6</ele><time>2026-04-25T15:42:43.02Z</time></trkpt><trkpt lat="46.14712835555026" lon="9.87119784778219"><ele>704.4000000000001</ele><time>2026-04-25T15:42:45.02Z</time></trkpt><trkpt lat="46.14720257810003" lon="9.871080356966045"><ele>709.2</ele><time>2026-04-25T15:42:47.02Z</time></trkpt><trkpt lat="46.147224251127426" lon="9.870977080491919"><ele>714.0</ele><time>2026-04-25T15:42:48.02Z</time></trkpt><trkpt lat="46.14724895827762" lon="9.870835069242473"><ele>714.0</ele><time>2026-04-25T15:42:50.02Z</time></trkpt><trkpt lat="46.14730680400448" lon="9.870790050887877"><ele>714.0</ele><time>2026-04-25T15:42:51.02Z</time></trkpt><trkpt lat="46.14736685996178" lon="9.87068350515674"><ele>714.0</ele><time>2026-04-25T15:42:53.02Z</time></trkpt><trkpt lat="46.14736819993865" lon="9.870549667947214"><ele>714.0</ele><time>2026-04-25T15:42:55.02Z</time></trkpt><trkpt lat="46.1473803523999" lon="9.870424430631525"><ele>714.0</ele><time>2026-04-25T15:42:56.02Z</time></trkpt><trkpt lat="46.147394627344376" lon="9.870303152080172"><ele>714.0</ele><time>2026-04-25T15:42:57.02Z</time></trkpt><trkpt lat="46.147420033952585" lon="9.87021900373061"><ele>711.8000000000001</ele><time>2026-04-25T15:42:58.02Z</time></trkpt><trkpt lat="46.14744844755095" lon="9.870104145321147"><ele>709.6</ele><time>2026-04-25T15:43:00.02Z</time></trkpt><trkpt lat="46.14737477128048" lon="9.870026064513024"><ele>707.4</ele><time>2026-04-25T15:43:01.02Z</time></trkpt><trkpt lat="46.14729378658469" lon="9.869950618867438"><ele>705.2</ele><time>2026-04-25T15:43:02.02Z</time></trkpt><trkpt lat="46.14720866125302" lon="9.869860368187066"><ele>703.0</ele><time>2026-04-25T15:43:03.02Z</time></trkpt><trkpt lat="46.147191227729685" lon="9.869746205825802"><ele>703.0</ele><time>2026-04-25T15:43:04.02Z</time></trkpt><trkpt lat="46.14721744393188" lon="9.869602041345518"><ele>703.0</ele><time>2026-04-25T15:43:05.02Z</time></trkpt><trkpt lat="46.1472377218994" lon="9.86947070573182"><ele>703.0</ele><time>2026-04-25T15:43:06.02Z</time></trkpt><trkpt lat="46.147242539676135" lon="9.86936530575738"><ele>703.0</ele><time>2026-04-25T15:43:07.02Z</time></trkpt><trkpt lat="46.147283359367734" lon="9.869234824404844"><ele>703.0</ele><time>2026-04-25T15:43:09.02Z</time></trkpt><trkpt lat="46.14733768278983" lon="9.869184166998819"><ele>703.0</ele><time>2026-04-25T15:43:10.02Z</time></trkpt><trkpt lat="46.14738863734712" lon="9.869129514933293"><ele>693.8</ele><time>2026-04-25T15:43:11.02Z</time></trkpt><trkpt lat="46.147434175437404" lon="9.869061474536137"><ele>684.5999999999999</ele><time>2026-04-25T15:43:12.02Z</time></trkpt><trkpt lat="46.14749762536034" lon="9.868897128742844"><ele>675.4000000000001</ele><time>2026-04-25T15:43:14.02Z</time></trkpt><trkpt lat="46.1475816409483" lon="9.868788144900392"><ele>666.2</ele><time>2026-04-25T15:43:16.02Z</time></trkpt><trkpt lat="46.14767168520922" lon="9.86876358600778"><ele>657.0</ele><time>2026-04-25T15:43:17.02Z</time></trkpt><trkpt lat="46.14774479505389" lon="9.868744353639835"><ele>657.0</ele><time>2026-04-25T15:43:18.02Z</time></trkpt><trkpt lat="46.14781297143479" lon="9.868723852475116"><ele>657.0</ele><time>2026-04-25T15:43:19.02Z</time></trkpt><trkpt lat="46.1478457517905" lon="9.868645884731466"><ele>657.0</ele><time>2026-04-25T15:43:22.02Z</time></trkpt><trkpt lat="46.14789002536831" lon="9.86855499018399"><ele>657.0</ele><time>2026-04-25T15:43:24.02Z</time></trkpt><trkpt lat="46.14796052534601" lon="9.86850771447649"><ele>657.0</ele><time>2026-04-25T15:43:26.02Z</time></trkpt><trkpt lat="46.14800119332294" lon="9.868438212093192"><ele>657.0</ele><time>2026-04-25T15:43:28.02Z</time></trkpt><trkpt lat="46.148091860373285" lon="9.868404503182349"><ele>657.0</ele><time>2026-04-25T15:43:32.02Z</time></trkpt><trkpt lat="46.14816976461909" lon="9.868346463829852"><ele>652.5</ele><time>2026-04-25T15:43:34.02Z</time></trkpt><trkpt lat="46.14822366787159" lon="9.868180830553715"><ele>648.0</ele><time>2026-04-25T15:43:36.02Z</time></trkpt><trkpt lat="46.14825195184489" lon="9.868093837544665"><ele>643.5</ele><time>2026-04-25T15:43:37.02Z</time></trkpt><trkpt lat="46.148285863974415" lon="9.868001619224135"><ele>639.0</ele><time>2026-04-25T15:43:38.02Z</time></trkpt><trkpt lat="46.148329275517554" lon="9.867923453316804"><ele>634.5</ele><time>2026-04-25T15:43:39.02Z</time></trkpt><trkpt lat="46.148357934569745" lon="9.867791745793312"><ele>630.0</ele><time>2026-04-25T15:43:41.02Z</time></trkpt><trkpt lat="46.14838243455435" lon="9.867627303125499"><ele>629.6</ele><time>2026-04-25T15:43:43.02Z</time></trkpt><trkpt lat="46.14845351373239" lon="9.867506423184118"><ele>629.2</ele><time>2026-04-25T15:43:45.02Z</time></trkpt><trkpt lat="46.14849144900486" lon="9.867428045146324"><ele>628.8</ele><time>2026-04-25T15:43:46.02Z</time></trkpt><trkpt lat="46.14854933295611" lon="9.867331034565415"><ele>628.4</ele><time>2026-04-25T15:43:47.02Z</time></trkpt><trkpt lat="46.148607095311995" lon="9.86721151867866"><ele>628.0</ele><time>2026-04-25T15:43:48.02Z</time></trkpt><trkpt lat="46.14862918896366" lon="9.867085655811483"><ele>628.0</ele><time>2026-04-25T15:43:49.02Z</time></trkpt><trkpt lat="46.14866537577352" lon="9.866978408968933"><ele>628.0</ele><time>2026-04-25T15:43:50.02Z</time></trkpt><trkpt lat="46.14868754035786" lon="9.866889244739697"><ele>628.0</ele><time>2026-04-25T15:43:51.02Z</time></trkpt><trkpt lat="46.148748322357235" lon="9.866778863892756"><ele>628.0</ele><time>2026-04-25T15:43:53.02Z</time></trkpt><trkpt lat="46.14879341828358" lon="9.866659765649931"><ele>628.0</ele><time>2026-04-25T15:43:55.02Z</time></trkpt><trkpt lat="46.14884448037085" lon="9.866514427418087"><ele>627.3333333333334</ele><time>2026-04-25T15:43:57.02Z</time></trkpt><trkpt lat="46.14886662007812" lon="9.866427316674288"><ele>626.6666666666667</ele><time>2026-04-25T15:43:58.02Z</time></trkpt><trkpt lat="46.14889530709742" lon="9.866334490216236"><ele>626.0</ele><time>2026-04-25T15:43:59.02Z</time></trkpt><trkpt lat="46.1489213827924" lon="9.866242068950628"><ele>625.3333333333334</ele><time>2026-04-25T15:44:00.02Z</time></trkpt><trkpt lat="46.148940506218395" lon="9.866107127191642"><ele>624.6666666666666</ele><time>2026-04-25T15:44:02.02Z</time></trkpt><trkpt lat="46.149007299885916" lon="9.865987185776069"><ele>624.0</ele><time>2026-04-25T15:44:04.02Z</time></trkpt><trkpt lat="46.14905221049139" lon="9.865905815245021"><ele>623.0</ele><time>2026-04-25T15:44:05.02Z</time></trkpt><trkpt lat="46.14904827422127" lon="9.86577141760596"><ele>622.0</ele><time>2026-04-25T15:44:07.02Z</time></trkpt><trkpt lat="46.149049504621196" lon="9.865651771878648"><ele>621.0</ele><time>2026-04-25T15:44:08.02Z</time></trkpt><trkpt lat="46.1490320491794" lon="9.865478914621846"><ele>620.0</ele><time>2026-04-25T15:44:10.02Z</time></trkpt><trkpt lat="46.14901006364386" lon="9.86535626208842"><ele>619.0</ele><time>2026-04-25T15:44:11.02Z</time></trkpt><trkpt lat="46.14900713620147" lon="9.865217879907341"><ele>611.4</ele><time>2026-04-25T15:44:12.02Z</time></trkpt><trkpt lat="46.14910178496368" lon="9.865124265950728"><ele>603.8</ele><time>2026-04-25T15:44:14.02Z</time></trkpt><trkpt lat="46.149196894164824" lon="9.865107319421732"><ele>596.2</ele><time>2026-04-25T15:44:16.02Z</time></trkpt><trkpt lat="46.1492360383631" lon="9.864962256548852"><ele>588.6</ele><time>2026-04-25T15:44:18.02Z</time></trkpt><trkpt lat="46.14927006433445" lon="9.864864214841408"><ele>581.0</ele><time>2026-04-25T15:44:19.02Z</time></trkpt><trkpt lat="46.149292690389316" lon="9.86476852413437"><ele>580.2</ele><time>2026-04-25T15:44:20.02Z</time></trkpt><trkpt lat="46.14932628945595" lon="9.864680544470565"><ele>579.4000000000001</ele><time>2026-04-25T15:44:21.02Z</time></trkpt><trkpt lat="46.14942699280163" lon="9.864579599656134"><ele>578.6</ele><time>2026-04-25T15:44:23.02Z</time></trkpt><trkpt lat="46.14952845549581" lon="9.864579466862612"><ele>577.8000000000001</ele><time>2026-04-25T15:44:25.02Z</time></trkpt><trkpt lat="46.1495896609068" lon="9.864662610789196"><ele>577.0</ele><time>2026-04-25T15:44:26.02Z</time></trkpt><trkpt lat="46.149632447329644" lon="9.864751466619886"><ele>577.0</ele><time>2026-04-25T15:44:27.02Z</time></trkpt><trkpt lat="46.14969947307777" lon="9.864811230444422"><ele>577.0</ele><time>2026-04-25T15:44:28.02Z</time></trkpt><trkpt lat="46.14976169789707" lon="9.864829851330569"><ele>577.0</ele><time>2026-04-25T15:44:29.02Z</time></trkpt><trkpt lat="46.14987333150979" lon="9.864837089060638"><ele>577.0</ele><time>2026-04-25T15:44:31.02Z</time></trkpt><trkpt lat="46.14994715736926" lon="9.864979260652397"><ele>577.0</ele><time>2026-04-25T15:44:33.021Z</time></trkpt><trkpt lat="46.14998909596663" lon="9.865082716286908"><ele>572.3333333333334</ele><time>2026-04-25T15:44:34.022Z</time></trkpt><trkpt lat="46.150032067756364" lon="9.865191501399925"><ele>567.6666666666667</ele><time>2026-04-25T15:44:35.022Z</time></trkpt><trkpt lat="46.15006218135546" lon="9.865282737930984"><ele>563.0</ele><time>2026-04-25T15:44:36.021Z</time></trkpt><trkpt lat="46.150107720368624" lon="9.865435511799705"><ele>558.3333333333334</ele><time>2026-04-25T15:44:38.021Z</time></trkpt><trkpt lat="46.15013747974831" lon="9.865524572106219"><ele>553.6666666666666</ele><time>2026-04-25T15:44:39.021Z</time></trkpt><trkpt lat="46.15016053239524" lon="9.865633767563812"><ele>549.0</ele><time>2026-04-25T15:44:40.021Z</time></trkpt><trkpt lat="46.15019079100811" lon="9.865727436390182"><ele>549.0</ele><time>2026-04-25T15:44:41.021Z</time></trkpt><trkpt lat="46.15026426750402" lon="9.865716472747918"><ele>549.0</ele><time>2026-04-25T15:44:47.021Z</time></trkpt><trkpt lat="46.15029465133595" lon="9.865598043761928"><ele>549.0</ele><time>2026-04-25T15:44:48.021Z</time></trkpt><trkpt lat="46.150330776161326" lon="9.86551690958321"><ele>549.0</ele><time>2026-04-25T15:44:49.021Z</time></trkpt><trkpt lat="46.150362516248634" lon="9.865377947149723"><ele>549.0</ele><time>2026-04-25T15:44:51.021Z</time></trkpt><trkpt lat="46.150418146337465" lon="9.865311554160854"><ele>549.0</ele><time>2026-04-25T15:44:53.021Z</time></trkpt><trkpt lat="46.150481566253326" lon="9.865247414609332"><ele>549.0</ele><time>2026-04-25T15:44:56.021Z</time></trkpt><trkpt lat="46.15056605816782" lon="9.865213064547909"><ele>549.0</ele><time>2026-04-25T15:44:58.021Z</time></trkpt><trkpt lat="46.150651098895864" lon="9.865245244740679"><ele>549.0</ele><time>2026-04-25T15:45:00.021Z</time></trkpt><trkpt lat="46.150718151755434" lon="9.86533978212606"><ele>549.0</ele><time>2026-04-25T15:45:02.021Z</time></trkpt><trkpt lat="46.150758502296895" lon="9.865492972866074"><ele>549.0</ele><time>2026-04-25T15:45:04.021Z</time></trkpt><trkpt lat="46.15078604271507" lon="9.865606505390263"><ele>544.3333333333334</ele><time>2026-04-25T15:45:05.021Z</time></trkpt><trkpt lat="46.15081826282531" lon="9.865714383918469"><ele>539.6666666666666</ele><time>2026-04-25T15:45:06.021Z</time></trkpt><trkpt lat="46.15084148664988" lon="9.865884803574145"><ele>535.0</ele><time>2026-04-25T15:45:08.021Z</time></trkpt><trkpt lat="46.15085760330212" lon="9.865993985245753"><ele>530.3333333333333</ele><time>2026-04-25T15:45:09.021Z</time></trkpt><trkpt lat="46.15086483863343" lon="9.866113503923904"><ele>525.6666666666666</ele><time>2026-04-25T15:45:10.021Z</time></trkpt><trkpt lat="46.15085683571055" lon="9.86621495508704"><ele>521.0</ele><time>2026-04-25T15:45:11.021Z</time></trkpt><trkpt lat="46.15085098480907" lon="9.866310053723451"><ele>521.0</ele><time>2026-04-25T15:45:12.021Z</time></trkpt><trkpt lat="46.15079929984032" lon="9.866444426069629"><ele>521.0</ele><time>2026-04-25T15:45:14.021Z</time></trkpt><trkpt lat="46.15088205616539" lon="9.866537434621055"><ele>521.0</ele><time>2026-04-25T15:45:20.021Z</time></trkpt><trkpt lat="46.15096883733905" lon="9.866469823530894"><ele>521.0</ele><time>2026-04-25T15:45:22.021Z</time></trkpt><trkpt lat="46.15106002359993" lon="9.866296994428671"><ele>521.0</ele><time>2026-04-25T15:45:24.021Z</time></trkpt><trkpt lat="46.151123860523015" lon="9.866220201822232"><ele>521.0</ele><time>2026-04-25T15:45:25.021Z</time></trkpt><trkpt lat="46.15117096008454" lon="9.866135229627183"><ele>521.0</ele><time>2026-04-25T15:45:26.021Z</time></trkpt><trkpt lat="46.1512216342626" lon="9.866034392653024"><ele>521.0</ele><time>2026-04-25T15:45:27.021Z</time></trkpt><trkpt lat="46.15127446092886" lon="9.865927834849112"><ele>521.0</ele><time>2026-04-25T15:45:29.021Z</time></trkpt><trkpt lat="46.15129535489059" lon="9.86582716149151"><ele>521.0</ele><time>2026-04-25T15:45:32.021Z</time></trkpt><trkpt lat="46.151350875892966" lon="9.865725715013527"><ele>520.6</ele><time>2026-04-25T15:45:34.021Z</time></trkpt><trkpt lat="46.15139873706707" lon="9.865581107490204"><ele>520.2</ele><time>2026-04-25T15:45:36.021Z</time></trkpt><trkpt lat="46.1514472479788" lon="9.865503480757786"><ele>519.8</ele><time>2026-04-25T15:45:37.021Z</time></trkpt><trkpt lat="46.15147393473716" lon="9.865357597013634"><ele>519.4</ele><time>2026-04-25T15:45:39.021Z</time></trkpt><trkpt lat="46.15147872880997" lon="9.86524472955735"><ele>519.0</ele><time>2026-04-25T15:45:41.021Z</time></trkpt><trkpt lat="46.15143876889627" lon="9.865137035486722"><ele>518.0</ele><time>2026-04-25T15:45:43.021Z</time></trkpt><trkpt lat="46.151388055988015" lon="9.8650446725645"><ele>517.0</ele><time>2026-04-25T15:45:45.021Z</time></trkpt><trkpt lat="46.15133290888629" lon="9.864914450391208"><ele>516.0</ele><time>2026-04-25T15:45:46.021Z</time></trkpt><trkpt lat="46.15129211059067" lon="9.864798417489835"><ele>515.0</ele><time>2026-04-25T15:45:47.021Z</time></trkpt><trkpt lat="46.15126411001182" lon="9.864684542073972"><ele>514.0</ele><time>2026-04-25T15:45:48.021Z</time></trkpt><trkpt lat="46.15123160249237" lon="9.8645810785209"><ele>513.0</ele><time>2026-04-25T15:45:49.021Z</time></trkpt><trkpt lat="46.151210056005546" lon="9.864417079045731"><ele>513.0</ele><time>2026-04-25T15:45:51.021Z</time></trkpt><trkpt lat="46.15116859047331" lon="9.864339518005592"><ele>513.0</ele><time>2026-04-25T15:45:52.021Z</time></trkpt><trkpt lat="46.15110179224026" lon="9.864171763293998"><ele>513.0</ele><time>2026-04-25T15:45:54.021Z</time></trkpt><trkpt lat="46.151086754879444" lon="9.864050980800139"><ele>513.0</ele><time>2026-04-25T15:45:56.021Z</time></trkpt><trkpt lat="46.151123875546645" lon="9.8639069083839"><ele>513.0</ele><time>2026-04-25T15:45:58.021Z</time></trkpt><trkpt lat="46.151148027394605" lon="9.863771152599721"><ele>510.4</ele><time>2026-04-25T15:46:00.021Z</time></trkpt><trkpt lat="46.15116943694931" lon="9.863633658336418"><ele>507.79999999999995</ele><time>2026-04-25T15:46:02.021Z</time></trkpt><trkpt lat="46.151199148938844" lon="9.863544128939802"><ele>505.2</ele><time>2026-04-25T15:46:04.021Z</time></trkpt><trkpt lat="46.15117425408654" lon="9.863382102415947"><ele>502.6</ele><time>2026-04-25T15:46:06.021Z</time></trkpt><trkpt lat="46.15120845489409" lon="9.86324791258987"><ele>500.0</ele><time>2026-04-25T15:46:08.021Z</time></trkpt><trkpt lat="46.15120855387799" lon="9.863119672602709"><ele>497.6</ele><time>2026-04-25T15:46:10.021Z</time></trkpt><trkpt lat="46.151213550238" lon="9.862905464465761"><ele>495.2</ele><time>2026-04-25T15:46:12.021Z</time></trkpt><trkpt lat="46.151212680993545" lon="9.86276696553345"><ele>492.79999999999995</ele><time>2026-04-25T15:46:13.021Z</time></trkpt><trkpt lat="46.151238663184664" lon="9.862643148857417"><ele>490.4</ele><time>2026-04-25T15:46:14.021Z</time></trkpt><trkpt lat="46.15125946761168" lon="9.86254353540314"><ele>488.0</ele><time>2026-04-25T15:46:15.021Z</time></trkpt><trkpt lat="46.15124764551584" lon="9.862421432834406"><ele>486.16666666666663</ele><time>2026-04-25T15:46:16.021Z</time></trkpt><trkpt lat="46.15123063554246" lon="9.862325066450556"><ele>484.3333333333333</ele><time>2026-04-25T15:46:17.021Z</time></trkpt><trkpt lat="46.15121230967154" lon="9.862211062519185"><ele>482.5</ele><time>2026-04-25T15:46:18.021Z</time></trkpt><trkpt lat="46.15117963525484" lon="9.862123914455342"><ele>480.66666666666663</ele><time>2026-04-25T15:46:19.021Z</time></trkpt><trkpt lat="46.15112837748241" lon="9.86206591744085"><ele>478.8333333333333</ele><time>2026-04-25T15:46:25.021Z</time></trkpt><trkpt lat="46.15105431404445" lon="9.861970775978527"><ele>477.0</ele><time>2026-04-25T15:46:28.021Z</time></trkpt><trkpt lat="46.15096999015686" lon="9.861946124551093"><ele>477.0</ele><time>2026-04-25T15:46:34.021Z</time></trkpt><trkpt lat="46.15110859884171" lon="9.861937048555264"><ele>477.00000000000006</ele><time>2026-04-25T15:46:53.023Z</time></trkpt><trkpt lat="46.151128925837334" lon="9.861843204391743"><ele>477.00000000000006</ele><time>2026-04-25T15:46:55.023Z</time></trkpt><trkpt lat="46.151130416342134" lon="9.861748078163636"><ele>477.0</ele><time>2026-04-25T15:46:57.023Z</time></trkpt><trkpt lat="46.15110161675788" lon="9.861613304540679"><ele>477.0</ele><time>2026-04-25T15:46:59.023Z</time></trkpt><trkpt lat="46.15110645994131" lon="9.861440707411148"><ele>474.5</ele><time>2026-04-25T15:47:01.023Z</time></trkpt><trkpt lat="46.15116701869273" lon="9.861391681108246"><ele>472.0</ele><time>2026-04-25T15:47:05.023Z</time></trkpt><trkpt lat="46.15120892752559" lon="9.861316182010563"><ele>469.5</ele><time>2026-04-25T15:47:07.023Z</time></trkpt><trkpt lat="46.15126993485806" lon="9.861245844221667"><ele>467.0</ele><time>2026-04-25T15:47:08.023Z</time></trkpt><trkpt lat="46.15131608046623" lon="9.861113723310238"><ele>464.5</ele><time>2026-04-25T15:47:09.023Z</time></trkpt><trkpt lat="46.15136671531771" lon="9.86101036681255"><ele>462.0</ele><time>2026-04-25T15:47:10.023Z</time></trkpt><trkpt lat="46.15137910601064" lon="9.86085406275883"><ele>459.6666666666667</ele><time>2026-04-25T15:47:12.023Z</time></trkpt><trkpt lat="46.15132656092718" lon="9.860742498581544"><ele>457.33333333333337</ele><time>2026-04-25T15:47:14.023Z</time></trkpt><trkpt lat="46.15126386444606" lon="9.860664502886046"><ele>455.0</ele><time>2026-04-25T15:47:15.023Z</time></trkpt><trkpt lat="46.151288531020015" lon="9.860536813880485"><ele>452.6666666666667</ele><time>2026-04-25T15:47:17.023Z</time></trkpt><trkpt lat="46.1512641136792" lon="9.860435068507913"><ele>450.33333333333337</ele><time>2026-04-25T15:47:20.023Z</time></trkpt><trkpt lat="46.15125496236761" lon="9.86034116250509"><ele>448.0</ele><time>2026-04-25T15:47:21.023Z</time></trkpt><trkpt lat="46.15129052788177" lon="9.860188844172987"><ele>446.4</ele><time>2026-04-25T15:47:23.023Z</time></trkpt><trkpt lat="46.15131980404378" lon="9.860017906185504"><ele>444.79999999999995</ele><time>2026-04-25T15:47:25.023Z</time></trkpt><trkpt lat="46.1513312476642" lon="9.85988073807098"><ele>443.2</ele><time>2026-04-25T15:47:26.023Z</time></trkpt><trkpt lat="46.15133384247391" lon="9.859743011610458"><ele>441.6</ele><time>2026-04-25T15:47:27.023Z</time></trkpt><trkpt lat="46.1513372572899" lon="9.8596197794452"><ele>440.0</ele><time>2026-04-25T15:47:28.023Z</time></trkpt><trkpt lat="46.15135590811342" lon="9.859481851785752"><ele>439.99999999999994</ele><time>2026-04-25T15:47:30.023Z</time></trkpt><trkpt lat="46.15136210231773" lon="9.859380757332797"><ele>440.0</ele><time>2026-04-25T15:47:33.023Z</time></trkpt><trkpt lat="46.15133482019575" lon="9.859277162627745"><ele>440.0</ele><time>2026-04-25T15:47:34.023Z</time></trkpt><trkpt lat="46.15131103913018" lon="9.859142618276517"><ele>440.0</ele><time>2026-04-25T15:47:35.023Z</time></trkpt><trkpt lat="46.1512998058499" lon="9.859016356583421"><ele>439.99999999999994</ele><time>2026-04-25T15:47:36.023Z</time></trkpt><trkpt lat="46.15128943587639" lon="9.858922036259795"><ele>440.0</ele><time>2026-04-25T15:47:37.023Z</time></trkpt><trkpt lat="46.151281508831005" lon="9.858826279502713"><ele>438.57142857142856</ele><time>2026-04-25T15:47:38.023Z</time></trkpt><trkpt lat="46.15127629881912" lon="9.858721974112399"><ele>437.1428571428571</ele><time>2026-04-25T15:47:39.023Z</time></trkpt><trkpt lat="46.15127774174801" lon="9.858619603423431"><ele>435.71428571428567</ele><time>2026-04-25T15:47:40.023Z</time></trkpt><trkpt lat="46.15128146562733" lon="9.858509190493214"><ele>434.2857142857143</ele><time>2026-04-25T15:47:41.023Z</time></trkpt><trkpt lat="46.151286877242384" lon="9.85841522372929"><ele>432.8571428571429</ele><time>2026-04-25T15:47:42.023Z</time></trkpt><trkpt lat="46.1513139189065" lon="9.858318532218906"><ele>431.4285714285714</ele><time>2026-04-25T15:47:43.023Z</time></trkpt><trkpt lat="46.15135230006297" lon="9.858235981288159"><ele>430.0</ele><time>2026-04-25T15:47:45.023Z</time></trkpt><trkpt lat="46.15137259754088" lon="9.858066783894575"><ele>428.4</ele><time>2026-04-25T15:47:47.023Z</time></trkpt><trkpt lat="46.15139563654982" lon="9.857979465964188"><ele>426.8</ele><time>2026-04-25T15:47:48.023Z</time></trkpt><trkpt lat="46.1514195102239" lon="9.857852609976797"><ele>425.20000000000005</ele><time>2026-04-25T15:47:51.023Z</time></trkpt><trkpt lat="46.15141573388912" lon="9.85768452329222"><ele>423.6</ele><time>2026-04-25T15:47:53.023Z</time></trkpt><trkpt lat="46.151395853572865" lon="9.857523878894408"><ele>422.0</ele><time>2026-04-25T15:47:54.023Z</time></trkpt><trkpt lat="46.151375223477906" lon="9.857397975306737"><ele>421.8</ele><time>2026-04-25T15:47:55.023Z</time></trkpt><trkpt lat="46.15134376587536" lon="9.857266762585983"><ele>421.6</ele><time>2026-04-25T15:47:56.023Z</time></trkpt><trkpt lat="46.15133517743997" lon="9.857074333446635"><ele>421.40000000000003</ele><time>2026-04-25T15:47:58.023Z</time></trkpt><trkpt lat="46.151330148302726" lon="9.856980439458942"><ele>421.20000000000005</ele><time>2026-04-25T15:48:00.023Z</time></trkpt><trkpt lat="46.151331711635045" lon="9.856870662861686"><ele>421.0</ele><time>2026-04-25T15:48:01.023Z</time></trkpt><trkpt lat="46.151349784820475" lon="9.856723651063696"><ele>420.20000000000005</ele><time>2026-04-25T15:48:02.023Z</time></trkpt><trkpt lat="46.15135232664232" lon="9.856599045934917"><ele>419.40000000000003</ele><time>2026-04-25T15:48:03.023Z</time></trkpt><trkpt lat="46.15134546229897" lon="9.856483819324358"><ele>418.6</ele><time>2026-04-25T15:48:04.023Z</time></trkpt><trkpt lat="46.15135108272201" lon="9.856379195211453"><ele>417.8</ele><time>2026-04-25T15:48:05.023Z</time></trkpt><trkpt lat="46.15140233541817" lon="9.856241952916605"><ele>417.0</ele><time>2026-04-25T15:48:09.023Z</time></trkpt><trkpt lat="46.15151583433684" lon="9.856313511785823"><ele>413.40000000000003</ele><time>2026-04-25T15:48:11.023Z</time></trkpt><trkpt lat="46.151586533173685" lon="9.856394897492242"><ele>409.8</ele><time>2026-04-25T15:48:12.023Z</time></trkpt><trkpt lat="46.15163456234865" lon="9.85650072419589"><ele>406.2</ele><time>2026-04-25T15:48:13.023Z</time></trkpt><trkpt lat="46.15167863543276" lon="9.856596728626334"><ele>402.6</ele><time>2026-04-25T15:48:14.023Z</time></trkpt><trkpt lat="46.15173697134008" lon="9.856699448467992"><ele>399.0</ele><time>2026-04-25T15:48:16.023Z</time></trkpt><trkpt lat="46.15188180686776" lon="9.856787340740453"><ele>399.0</ele><time>2026-04-25T15:48:18.023Z</time></trkpt><trkpt lat="46.151944013182415" lon="9.856853304955656"><ele>399.0</ele><time>2026-04-25T15:48:19.023Z</time></trkpt><trkpt lat="46.15199113600744" lon="9.856940360253073"><ele>399.0</ele><time>2026-04-25T15:48:20.023Z</time></trkpt><trkpt lat="46.15205307387576" lon="9.857039523659656"><ele>399.0</ele><time>2026-04-25T15:48:22.023Z</time></trkpt><trkpt lat="46.15210054819186" lon="9.857133707782074"><ele>399.0</ele><time>2026-04-25T15:48:24.023Z</time></trkpt><trkpt lat="46.15214902097947" lon="9.857218443028222"><ele>399.0</ele><time>2026-04-25T15:48:25.023Z</time></trkpt><trkpt lat="46.152201117430764" lon="9.85732856425305"><ele>399.0</ele><time>2026-04-25T15:48:26.023Z</time></trkpt><trkpt lat="46.15225739389546" lon="9.857405034614327"><ele>399.0</ele><time>2026-04-25T15:48:27.023Z</time></trkpt><trkpt lat="46.15233031253302" lon="9.857458690183885"><ele>399.0</ele><time>2026-04-25T15:48:28.023Z</time></trkpt><trkpt lat="46.152440224756276" lon="9.857484799768693"><ele>399.0</ele><time>2026-04-25T15:48:29.023Z</time></trkpt><trkpt lat="46.152533334811864" lon="9.857516948388"><ele>399.0</ele><time>2026-04-25T15:48:30.023Z</time></trkpt><trkpt lat="46.15262921885018" lon="9.8575215489565"><ele>394.2</ele><time>2026-04-25T15:48:32.023Z</time></trkpt><trkpt lat="46.15271730875919" lon="9.857384910501576"><ele>389.4</ele><time>2026-04-25T15:48:34.023Z</time></trkpt><trkpt lat="46.15275186535977" lon="9.857301718979564"><ele>384.6</ele><time>2026-04-25T15:48:35.023Z</time></trkpt><trkpt lat="46.152814930603924" lon="9.857154901547835"><ele>379.8</ele><time>2026-04-25T15:48:37.023Z</time></trkpt><trkpt lat="46.15286339653967" lon="9.857096162025972"><ele>375.0</ele><time>2026-04-25T15:48:38.023Z</time></trkpt><trkpt lat="46.15306963601661" lon="9.857061316676734"><ele>375.0</ele><time>2026-04-25T15:48:44.022Z</time></trkpt><trkpt lat="46.15315847598369" lon="9.856971171704084"><ele>375.0</ele><time>2026-04-25T15:48:47.021Z</time></trkpt><trkpt lat="46.153247226056486" lon="9.856939115801794"><ele>375.0</ele><time>2026-04-25T15:48:49.021Z</time></trkpt><trkpt lat="46.15333710131793" lon="9.856940029450442"><ele>375.0</ele><time>2026-04-25T15:48:51.021Z</time></trkpt><trkpt lat="46.15346351675369" lon="9.856946252011486"><ele>375.0</ele><time>2026-04-25T15:48:53.02Z</time></trkpt><trkpt lat="46.15356110954417" lon="9.856989543777097"><ele>372.8333333333333</ele><time>2026-04-25T15:48:55.02Z</time></trkpt><trkpt lat="46.15364051556162" lon="9.857008225028705"><ele>370.6666666666667</ele><time>2026-04-25T15:48:57.02Z</time></trkpt><trkpt lat="46.1537324610986" lon="9.857035822414185"><ele>368.5</ele><time>2026-04-25T15:48:59.019Z</time></trkpt><trkpt lat="46.15382223499791" lon="9.857066671500913"><ele>366.33333333333337</ele><time>2026-04-25T15:49:01.018Z</time></trkpt><trkpt lat="46.15388072472445" lon="9.8571106739044"><ele>364.1666666666667</ele><time>2026-04-25T15:49:03.018Z</time></trkpt><trkpt lat="46.15395379552848" lon="9.857133382465651"><ele>362.0</ele><time>2026-04-25T15:49:05.018Z</time></trkpt><trkpt lat="46.154044766066015" lon="9.857182586078556"><ele>358.40000000000003</ele><time>2026-04-25T15:49:07.018Z</time></trkpt><trkpt lat="46.15414682329435" lon="9.857233131703357"><ele>354.8</ele><time>2026-04-25T15:49:09.018Z</time></trkpt><trkpt lat="46.15424989152694" lon="9.857276399335177"><ele>351.2</ele><time>2026-04-25T15:49:11.018Z</time></trkpt><trkpt lat="46.15435941820606" lon="9.85734005363837"><ele>347.6</ele><time>2026-04-25T15:49:13.017Z</time></trkpt><trkpt lat="46.154437649092834" lon="9.857387752193421"><ele>344.0</ele><time>2026-04-25T15:49:15.017Z</time></trkpt><trkpt lat="46.15450989101357" lon="9.857431950451806"><ele>344.0</ele><time>2026-04-25T15:49:18.017Z</time></trkpt><trkpt lat="46.154610761537775" lon="9.857320438461295"><ele>344.0</ele><time>2026-04-25T15:49:20.017Z</time></trkpt><trkpt lat="46.15467361100482" lon="9.857206395500844"><ele>344.0</ele><time>2026-04-25T15:49:21.017Z</time></trkpt><trkpt lat="46.15472560045518" lon="9.857075538276726"><ele>344.0</ele><time>2026-04-25T15:49:22.017Z</time></trkpt><trkpt lat="46.1547682758888" lon="9.856986873013268"><ele>344.0</ele><time>2026-04-25T15:49:23.017Z</time></trkpt><trkpt lat="46.15480796404927" lon="9.85691627646922"><ele>344.0</ele><time>2026-04-25T15:49:24.017Z</time></trkpt><trkpt lat="46.15485972459204" lon="9.85685458787837"><ele>344.0</ele><time>2026-04-25T15:49:25.017Z</time></trkpt><trkpt lat="46.154918907536505" lon="9.856790020407406"><ele>344.0</ele><time>2026-04-25T15:49:26.017Z</time></trkpt><trkpt lat="46.15498577207297" lon="9.856734735635214"><ele>344.0</ele><time>2026-04-25T15:49:27.017Z</time></trkpt><trkpt lat="46.15504576840358" lon="9.856696382747003"><ele>344.0</ele><time>2026-04-25T15:49:28.017Z</time></trkpt><trkpt lat="46.155110480171096" lon="9.85666096568033"><ele>344.0</ele><time>2026-04-25T15:49:30.017Z</time></trkpt><trkpt lat="46.15522223636421" lon="9.85683575470398"><ele>340.79999999999995</ele><time>2026-04-25T15:49:33.017Z</time></trkpt><trkpt lat="46.155268685430066" lon="9.856963075958934"><ele>337.59999999999997</ele><time>2026-04-25T15:49:34.017Z</time></trkpt><trkpt lat="46.15532753675244" lon="9.857082395537503"><ele>334.4</ele><time>2026-04-25T15:49:35.017Z</time></trkpt><trkpt lat="46.155385241405305" lon="9.857190167396363"><ele>331.2</ele><time>2026-04-25T15:49:36.017Z</time></trkpt><trkpt lat="46.155444580967384" lon="9.85728400543793"><ele>328.0</ele><time>2026-04-25T15:49:37.017Z</time></trkpt><trkpt lat="46.15550188455029" lon="9.857365124405415"><ele>328.0</ele><time>2026-04-25T15:49:38.017Z</time></trkpt><trkpt lat="46.15558513604078" lon="9.85740812948199"><ele>328.0</ele><time>2026-04-25T15:49:40.017Z</time></trkpt><trkpt lat="46.1556291935887" lon="9.857289997405124"><ele>328.0</ele><time>2026-04-25T15:49:43.017Z</time></trkpt><trkpt lat="46.15562041908665" lon="9.857199560117088"><ele>328.0</ele><time>2026-04-25T15:49:44.017Z</time></trkpt><trkpt lat="46.15560052349654" lon="9.857081933899611"><ele>328.0</ele><time>2026-04-25T15:49:45.017Z</time></trkpt><trkpt lat="46.15558341225217" lon="9.85697299719882"><ele>328.0</ele><time>2026-04-25T15:49:46.017Z</time></trkpt><trkpt lat="46.155573010561426" lon="9.856868789926338"><ele>328.5</ele><time>2026-04-25T15:49:47.017Z</time></trkpt><trkpt lat="46.15556842988013" lon="9.856767426983676"><ele>329.0</ele><time>2026-04-25T15:49:48.017Z</time></trkpt><trkpt lat="46.15557906877892" lon="9.856550510626642"><ele>329.5</ele><time>2026-04-25T15:49:50.017Z</time></trkpt><trkpt lat="46.155599272145075" lon="9.856392701186687"><ele>330.0</ele><time>2026-04-25T15:49:51.017Z</time></trkpt><trkpt lat="46.15563723597884" lon="9.856224224563709"><ele>330.0</ele><time>2026-04-25T15:49:52.017Z</time></trkpt><trkpt lat="46.15567929058218" lon="9.856025545411828"><ele>330.0</ele><time>2026-04-25T15:49:53.017Z</time></trkpt><trkpt lat="46.155728496827" lon="9.85581808682945"><ele>330.0</ele><time>2026-04-25T15:49:54.017Z</time></trkpt><trkpt lat="46.155768969476014" lon="9.855623423430927"><ele>330.0</ele><time>2026-04-25T15:49:55.017Z</time></trkpt><trkpt lat="46.15580818759743" lon="9.855437615942366"><ele>329.0</ele><time>2026-04-25T15:49:56.017Z</time></trkpt><trkpt lat="46.15585174800121" lon="9.85524502494598"><ele>328.0</ele><time>2026-04-25T15:49:57.017Z</time></trkpt><trkpt lat="46.15590129166448" lon="9.855062166485263"><ele>327.0</ele><time>2026-04-25T15:49:58.017Z</time></trkpt><trkpt lat="46.15594845929996" lon="9.85487396655617"><ele>326.0</ele><time>2026-04-25T15:49:59.017Z</time></trkpt><trkpt lat="46.15598816227948" lon="9.854686944881637"><ele>326.0</ele><time>2026-04-25T15:50:00.017Z</time></trkpt><trkpt lat="46.1560351270518" lon="9.85451932906607"><ele>326.0</ele><time>2026-04-25T15:50:01.017Z</time></trkpt><trkpt lat="46.156087655351634" lon="9.854371468854051"><ele>326.0</ele><time>2026-04-25T15:50:02.017Z</time></trkpt><trkpt lat="46.156134575787995" lon="9.854222671673451"><ele>326.0</ele><time>2026-04-25T15:50:03.016Z</time></trkpt><trkpt lat="46.156189846431666" lon="9.854053441093022"><ele>328.0</ele><time>2026-04-25T15:50:04.016Z</time></trkpt><trkpt lat="46.15626309068814" lon="9.85387036175758"><ele>330.0</ele><time>2026-04-25T15:50:05.016Z</time></trkpt><trkpt lat="46.15634021693297" lon="9.853685694231638"><ele>332.0</ele><time>2026-04-25T15:50:06.016Z</time></trkpt><trkpt lat="46.15640778839214" lon="9.853500154996194"><ele>334.0</ele><time>2026-04-25T15:50:07.016Z</time></trkpt><trkpt lat="46.15646332143902" lon="9.853275352297409"><ele>335.0</ele><time>2026-04-25T15:50:08.016Z</time></trkpt><trkpt lat="46.156498036455794" lon="9.85300105129049"><ele>336.0</ele><time>2026-04-25T15:50:09.016Z</time></trkpt><trkpt lat="46.156536689110915" lon="9.852763910477453"><ele>337.0</ele><time>2026-04-25T15:50:10.016Z</time></trkpt><trkpt lat="46.15656663153505" lon="9.852553753044283"><ele>335.5</ele><time>2026-04-25T15:50:11.016Z</time></trkpt><trkpt lat="46.156597487810934" lon="9.852370433832471"><ele>334.0</ele><time>2026-04-25T15:50:12.016Z</time></trkpt><trkpt lat="46.15660039880009" lon="9.852169771828159"><ele>332.5</ele><time>2026-04-25T15:50:13.016Z</time></trkpt><trkpt lat="46.15658354733873" lon="9.85195221421208"><ele>331.0</ele><time>2026-04-25T15:50:14.016Z</time></trkpt><trkpt lat="46.15655740233009" lon="9.851725580884029"><ele>333.25</ele><time>2026-04-25T15:50:15.016Z</time></trkpt><trkpt lat="46.15652944087403" lon="9.851507898590453"><ele>335.5</ele><time>2026-04-25T15:50:16.016Z</time></trkpt><trkpt lat="46.15651334756547" lon="9.85131848092423"><ele>337.75</ele><time>2026-04-25T15:50:17.016Z</time></trkpt><trkpt lat="46.15650056521206" lon="9.85112499464077"><ele>340.0</ele><time>2026-04-25T15:50:18.016Z</time></trkpt><trkpt lat="46.15648484002968" lon="9.85093505328171"><ele>340.0</ele><time>2026-04-25T15:50:19.016Z</time></trkpt><trkpt lat="46.15646102075766" lon="9.850731904897218"><ele>340.0</ele><time>2026-04-25T15:50:20.016Z</time></trkpt><trkpt lat="46.15643985042234" lon="9.850518068998262"><ele>340.0</ele><time>2026-04-25T15:50:21.016Z</time></trkpt><trkpt lat="46.15640016774471" lon="9.850315960573303"><ele>340.0</ele><time>2026-04-25T15:50:22.016Z</time></trkpt><trkpt lat="46.15634077241932" lon="9.850118756413496"><ele>339.75</ele><time>2026-04-25T15:50:23.016Z</time></trkpt><trkpt lat="46.15625467073069" lon="9.8499347549676"><ele>339.5</ele><time>2026-04-25T15:50:24.016Z</time></trkpt><trkpt lat="46.15616292612946" lon="9.849767769671061"><ele>339.25</ele><time>2026-04-25T15:50:25.016Z</time></trkpt><trkpt lat="46.15609415068229" lon="9.849591460528446"><ele>339.0</ele><time>2026-04-25T15:50:26.016Z</time></trkpt><trkpt lat="46.156067461639424" lon="9.849372972299955"><ele>339.6666666666667</ele><time>2026-04-25T15:50:27.016Z</time></trkpt><trkpt lat="46.15603427307962" lon="9.849131158878588"><ele>340.33333333333337</ele><time>2026-04-25T15:50:28.016Z</time></trkpt><trkpt lat="46.15599239725236" lon="9.84890696002425"><ele>341.0</ele><time>2026-04-25T15:50:29.016Z</time></trkpt><trkpt lat="46.155962350749434" lon="9.84871209342161"><ele>341.0</ele><time>2026-04-25T15:50:30.016Z</time></trkpt><trkpt lat="46.15591340132693" lon="9.848535835484022"><ele>341.0</ele><time>2026-04-25T15:50:31.016Z</time></trkpt><trkpt lat="46.15583582238716" lon="9.84836556555022"><ele>341.0</ele><time>2026-04-25T15:50:32.016Z</time></trkpt><trkpt lat="46.155747153961315" lon="9.848210634974853"><ele>341.0</ele><time>2026-04-25T15:50:33.016Z</time></trkpt><trkpt lat="46.15567269595433" lon="9.848020998002267"><ele>343.5</ele><time>2026-04-25T15:50:34.016Z</time></trkpt><trkpt lat="46.1555944836967" lon="9.847846634644231"><ele>346.0</ele><time>2026-04-25T15:50:35.016Z</time></trkpt><trkpt lat="46.15554475955197" lon="9.847684192680049"><ele>348.5</ele><time>2026-04-25T15:50:36.016Z</time></trkpt><trkpt lat="46.155505007202805" lon="9.847517231813413"><ele>351.0</ele><time>2026-04-25T15:50:37.016Z</time></trkpt><trkpt lat="46.15546652092517" lon="9.847392438677844"><ele>351.25</ele><time>2026-04-25T15:50:38.016Z</time></trkpt><trkpt lat="46.15542190966419" lon="9.847253569509487"><ele>351.5</ele><time>2026-04-25T15:50:39.016Z</time></trkpt><trkpt lat="46.1554139847704" lon="9.847094623933174"><ele>351.75</ele><time>2026-04-25T15:50:40.016Z</time></trkpt><trkpt lat="46.15542287017335" lon="9.8469137237596"><ele>352.0</ele><time>2026-04-25T15:50:41.016Z</time></trkpt><trkpt lat="46.15542988600366" lon="9.846704930865622"><ele>352.0</ele><time>2026-04-25T15:50:42.016Z</time></trkpt><trkpt lat="46.155421238484735" lon="9.846514788403693"><ele>352.0</ele><time>2026-04-25T15:50:43.016Z</time></trkpt><trkpt lat="46.15539252172275" lon="9.846349832973543"><ele>352.0</ele><time>2026-04-25T15:50:44.016Z</time></trkpt><trkpt lat="46.15535988021679" lon="9.8461812955101"><ele>352.0</ele><time>2026-04-25T15:50:45.016Z</time></trkpt><trkpt lat="46.1553207306336" lon="9.846001743579604"><ele>351.5</ele><time>2026-04-25T15:50:46.016Z</time></trkpt><trkpt lat="46.15528440740289" lon="9.845831631237905"><ele>351.0</ele><time>2026-04-25T15:50:47.016Z</time></trkpt><trkpt lat="46.15524628592974" lon="9.845667538945527"><ele>350.5</ele><time>2026-04-25T15:50:48.016Z</time></trkpt><trkpt lat="46.15519930159698" lon="9.845503062801978"><ele>350.0</ele><time>2026-04-25T15:50:49.016Z</time></trkpt><trkpt lat="46.15513350530372" lon="9.84534278350383"><ele>350.0</ele><time>2026-04-25T15:50:50.016Z</time></trkpt><trkpt lat="46.15506360200959" lon="9.845184697054938"><ele>350.0</ele><time>2026-04-25T15:50:51.018Z</time></trkpt><trkpt lat="46.15497200973671" lon="9.845035387350423"><ele>350.0</ele><time>2026-04-25T15:50:52.018Z</time></trkpt><trkpt lat="46.15489133420767" lon="9.84489665835538"><ele>350.0</ele><time>2026-04-25T15:50:53.018Z</time></trkpt><trkpt lat="46.15482421539539" lon="9.844760339969291"><ele>351.0</ele><time>2026-04-25T15:50:54.018Z</time></trkpt><trkpt lat="46.15475350012105" lon="9.844617434518264"><ele>352.0</ele><time>2026-04-25T15:50:55.018Z</time></trkpt><trkpt lat="46.15467262360212" lon="9.844457173453788"><ele>353.0</ele><time>2026-04-25T15:50:56.018Z</time></trkpt><trkpt lat="46.15459929559715" lon="9.844293268087407"><ele>354.0</ele><time>2026-04-25T15:50:57.018Z</time></trkpt><trkpt lat="46.15451656537409" lon="9.844150495130403"><ele>354.0</ele><time>2026-04-25T15:50:58.018Z</time></trkpt><trkpt lat="46.15443198644822" lon="9.844012691235314"><ele>354.0</ele><time>2026-04-25T15:50:59.018Z</time></trkpt><trkpt lat="46.15435004267943" lon="9.843878371440434"><ele>354.0</ele><time>2026-04-25T15:51:00.018Z</time></trkpt><trkpt lat="46.15426039422837" lon="9.843746943621834"><ele>354.0</ele><time>2026-04-25T15:51:01.018Z</time></trkpt><trkpt lat="46.15415194133074" lon="9.8436289235471"><ele>354.6666666666667</ele><time>2026-04-25T15:51:02.018Z</time></trkpt><trkpt lat="46.15403091127728" lon="9.843507325096267"><ele>355.33333333333337</ele><time>2026-04-25T15:51:03.017Z</time></trkpt><trkpt lat="46.15389720086578" lon="9.843400352641265"><ele>356.0</ele><time>2026-04-25T15:51:04.018Z</time></trkpt><trkpt lat="46.15375449500883" lon="9.843309399389623"><ele>356.0</ele><time>2026-04-25T15:51:05.018Z</time></trkpt><trkpt lat="46.15362743792443" lon="9.843213729256208"><ele>356.0</ele><time>2026-04-25T15:51:06.018Z</time></trkpt><trkpt lat="46.153516411123405" lon="9.843111929994292"><ele>356.0</ele><time>2026-04-25T15:51:07.018Z</time></trkpt><trkpt lat="46.15340545824685" lon="9.842972265587873"><ele>356.0</ele><time>2026-04-25T15:51:08.018Z</time></trkpt><trkpt lat="46.15329126777627" lon="9.842806152600943"><ele>357.25</ele><time>2026-04-25T15:51:09.018Z</time></trkpt><trkpt lat="46.153175117775696" lon="9.842641620412959"><ele>358.5</ele><time>2026-04-25T15:51:10.018Z</time></trkpt><trkpt lat="46.153067915087995" lon="9.842507044672091"><ele>359.75</ele><time>2026-04-25T15:51:11.018Z</time></trkpt><trkpt lat="46.15297036937549" lon="9.842377544425126"><ele>361.0</ele><time>2026-04-25T15:51:12.018Z</time></trkpt><trkpt lat="46.1528734944625" lon="9.842243264300203"><ele>361.0</ele><time>2026-04-25T15:51:13.018Z</time></trkpt><trkpt lat="46.15277615989826" lon="9.842102384665306"><ele>361.0</ele><time>2026-04-25T15:51:14.018Z</time></trkpt><trkpt lat="46.15267231017151" lon="9.84195765910758"><ele>361.0</ele><time>2026-04-25T15:51:15.018Z</time></trkpt><trkpt lat="46.15256041087571" lon="9.841800967960305"><ele>361.0</ele><time>2026-04-25T15:51:16.018Z</time></trkpt><trkpt lat="46.15244921990689" lon="9.841648702694913"><ele>361.0</ele><time>2026-04-25T15:51:17.018Z</time></trkpt><trkpt lat="46.15232438822065" lon="9.841506034858918"><ele>361.0</ele><time>2026-04-25T15:51:18.018Z</time></trkpt><trkpt lat="46.152188263828776" lon="9.841357838922852"><ele>361.0</ele><time>2026-04-25T15:51:19.018Z</time></trkpt><trkpt lat="46.15207242879507" lon="9.841252006921346"><ele>361.0</ele><time>2026-04-25T15:51:20.018Z</time></trkpt><trkpt lat="46.15197830047337" lon="9.841163251197164"><ele>361.0</ele><time>2026-04-25T15:51:21.018Z</time></trkpt><trkpt lat="46.15189534406744" lon="9.84106480727027"><ele>361.0</ele><time>2026-04-25T15:51:22.018Z</time></trkpt><trkpt lat="46.15181203324324" lon="9.84098949167843"><ele>361.0</ele><time>2026-04-25T15:51:23.018Z</time></trkpt><trkpt lat="46.15171736036489" lon="9.840939371548831"><ele>361.0</ele><time>2026-04-25T15:51:24.018Z</time></trkpt><trkpt lat="46.151621465381986" lon="9.840921207747995"><ele>361.4</ele><time>2026-04-25T15:51:25.018Z</time></trkpt><trkpt lat="46.151541643101794" lon="9.840890696799681"><ele>361.8</ele><time>2026-04-25T15:51:26.018Z</time></trkpt><trkpt lat="46.15147497771737" lon="9.840848693957671"><ele>362.2</ele><time>2026-04-25T15:51:27.018Z</time></trkpt><trkpt lat="46.15142850847005" lon="9.840774888255963"><ele>362.59999999999997</ele><time>2026-04-25T15:51:30.018Z</time></trkpt><trkpt lat="46.151338763255346" lon="9.840662818684734"><ele>363.0</ele><time>2026-04-25T15:51:36.018Z</time></trkpt><trkpt lat="46.151285097993544" lon="9.84052844035722"><ele>363.0</ele><time>2026-04-25T15:51:37.018Z</time></trkpt><trkpt lat="46.15123473504707" lon="9.840382658443087"><ele>363.0</ele><time>2026-04-25T15:51:38.018Z</time></trkpt><trkpt lat="46.15117109655177" lon="9.840246456692638"><ele>363.0</ele><time>2026-04-25T15:51:39.018Z</time></trkpt><trkpt lat="46.151113463636705" lon="9.840106134425485"><ele>363.0</ele><time>2026-04-25T15:51:40.018Z</time></trkpt><trkpt lat="46.1510548794896" lon="9.839961586143373"><ele>361.79999999999995</ele><time>2026-04-25T15:51:41.018Z</time></trkpt><trkpt lat="46.15100839547102" lon="9.839824933729135"><ele>360.6</ele><time>2026-04-25T15:51:42.018Z</time></trkpt><trkpt lat="46.15095873713709" lon="9.839683264645739"><ele>359.4</ele><time>2026-04-25T15:51:43.018Z</time></trkpt><trkpt lat="46.15090470362084" lon="9.839554351444148"><ele>358.20000000000005</ele><time>2026-04-25T15:51:44.018Z</time></trkpt><trkpt lat="46.1508324936356" lon="9.839445948370317"><ele>357.0</ele><time>2026-04-25T15:51:45.018Z</time></trkpt><trkpt lat="46.15074879218797" lon="9.839380628148147"><ele>356.25</ele><time>2026-04-25T15:51:46.018Z</time></trkpt><trkpt lat="46.15064421370898" lon="9.839316616910072"><ele>355.5</ele><time>2026-04-25T15:51:47.018Z</time></trkpt><trkpt lat="46.15052621495768" lon="9.839272398541015"><ele>354.75</ele><time>2026-04-25T15:51:48.018Z</time></trkpt><trkpt lat="46.150419036523644" lon="9.839215300291412"><ele>354.0</ele><time>2026-04-25T15:51:49.018Z</time></trkpt><trkpt lat="46.15032462467078" lon="9.839089308588175"><ele>354.0</ele><time>2026-04-25T15:51:50.018Z</time></trkpt><trkpt lat="46.150258899539615" lon="9.838916523549319"><ele>354.0</ele><time>2026-04-25T15:51:51.018Z</time></trkpt><trkpt lat="46.15019348607497" lon="9.838714980309259"><ele>354.0</ele><time>2026-04-25T15:51:52.018Z</time></trkpt><trkpt lat="46.15012675634593" lon="9.838515448470389"><ele>354.0</ele><time>2026-04-25T15:51:53.018Z</time></trkpt><trkpt lat="46.150066938214735" lon="9.838347502621065"><ele>352.5</ele><time>2026-04-25T15:51:54.018Z</time></trkpt><trkpt lat="46.15000589139505" lon="9.838182148983849"><ele>351.0</ele><time>2026-04-25T15:51:55.018Z</time></trkpt><trkpt lat="46.14994836658273" lon="9.83802414253549"><ele>349.5</ele><time>2026-04-25T15:51:56.018Z</time></trkpt><trkpt lat="46.14989161528801" lon="9.837885159741502"><ele>348.0</ele><time>2026-04-25T15:51:57.018Z</time></trkpt><trkpt lat="46.1498161186099" lon="9.837769266024832"><ele>349.59999999999997</ele><time>2026-04-25T15:51:58.018Z</time></trkpt><trkpt lat="46.149720342764624" lon="9.837669920144892"><ele>351.2</ele><time>2026-04-25T15:51:59.018Z</time></trkpt><trkpt lat="46.149615587057994" lon="9.83761062767459"><ele>352.8</ele><time>2026-04-25T15:52:00.018Z</time></trkpt><trkpt lat="46.149507909429985" lon="9.837565160267191"><ele>354.4</ele><time>2026-04-25T15:52:01.018Z</time></trkpt><trkpt lat="46.14942875353122" lon="9.837523511589369"><ele>356.0</ele><time>2026-04-25T15:52:02.018Z</time></trkpt><trkpt lat="46.149382358415856" lon="9.837457893396298"><ele>356.0</ele><time>2026-04-25T15:52:03.018Z</time></trkpt><trkpt lat="46.14936463733032" lon="9.837322997686725"><ele>356.0</ele><time>2026-04-25T15:52:04.018Z</time></trkpt><trkpt lat="46.149374337111794" lon="9.837178369311154"><ele>356.0</ele><time>2026-04-25T15:52:05.018Z</time></trkpt><trkpt lat="46.14942036609204" lon="9.837026665448105"><ele>356.0</ele><time>2026-04-25T15:52:06.018Z</time></trkpt><trkpt lat="46.14946021558119" lon="9.836867059098182"><ele>356.0</ele><time>2026-04-25T15:52:07.018Z</time></trkpt><trkpt lat="46.14949248617188" lon="9.836700962043379"><ele>355.5</ele><time>2026-04-25T15:52:08.018Z</time></trkpt><trkpt lat="46.14952037081898" lon="9.836534347387943"><ele>355.0</ele><time>2026-04-25T15:52:09.018Z</time></trkpt><trkpt lat="46.149545395643116" lon="9.836357871741829"><ele>354.5</ele><time>2026-04-25T15:52:10.018Z</time></trkpt><trkpt lat="46.14956981834932" lon="9.836163728561916"><ele>354.0</ele><time>2026-04-25T15:52:11.018Z</time></trkpt><trkpt lat="46.149594616490475" lon="9.835953482963475"><ele>355.75</ele><time>2026-04-25T15:52:12.018Z</time></trkpt><trkpt lat="46.149633089651786" lon="9.835732433746482"><ele>357.5</ele><time>2026-04-25T15:52:13.018Z</time></trkpt><trkpt lat="46.14966538155836" lon="9.835539732280305"><ele>359.25</ele><time>2026-04-25T15:52:14.018Z</time></trkpt><trkpt lat="46.1496930285042" lon="9.835355135982022"><ele>361.0</ele><time>2026-04-25T15:52:15.018Z</time></trkpt><trkpt lat="46.149741553226626" lon="9.835175780003503"><ele>363.75</ele><time>2026-04-25T15:52:16.018Z</time></trkpt><trkpt lat="46.14981200981708" lon="9.835022524056269"><ele>366.5</ele><time>2026-04-25T15:52:17.018Z</time></trkpt><trkpt lat="46.14988104769686" lon="9.834850124913482"><ele>369.25</ele><time>2026-04-25T15:52:18.018Z</time></trkpt><trkpt lat="46.149952296369705" lon="9.83467775900205"><ele>372.0</ele><time>2026-04-25T15:52:19.018Z</time></trkpt><trkpt lat="46.15000972530731" lon="9.834482219781027"><ele>361.25</ele><time>2026-04-25T15:52:20.018Z</time></trkpt><trkpt lat="46.150050084665395" lon="9.834293389029469"><ele>350.5</ele><time>2026-04-25T15:52:21.018Z</time></trkpt><trkpt lat="46.15008107004985" lon="9.834119763505372"><ele>339.75</ele><time>2026-04-25T15:52:22.018Z</time></trkpt><trkpt lat="46.15008255703417" lon="9.833931876983508"><ele>329.0</ele><time>2026-04-25T15:52:23.018Z</time></trkpt><trkpt lat="46.15008700624524" lon="9.833735295806786"><ele>329.0</ele><time>2026-04-25T15:52:24.018Z</time></trkpt><trkpt lat="46.15009898759672" lon="9.833509036025603"><ele>329.0</ele><time>2026-04-25T15:52:25.018Z</time></trkpt><trkpt lat="46.15011428106202" lon="9.833291270445656"><ele>329.0</ele><time>2026-04-25T15:52:26.018Z</time></trkpt><trkpt lat="46.15011805978121" lon="9.833067193823375"><ele>329.5</ele><time>2026-04-25T15:52:27.018Z</time></trkpt><trkpt lat="46.15013100265391" lon="9.832855458372437"><ele>330.0</ele><time>2026-04-25T15:52:28.018Z</time></trkpt><trkpt lat="46.15014541728066" lon="9.832647738436807"><ele>330.5</ele><time>2026-04-25T15:52:29.018Z</time></trkpt><trkpt lat="46.150170295861834" lon="9.832450226354476"><ele>331.0</ele><time>2026-04-25T15:52:30.018Z</time></trkpt><trkpt lat="46.150202152599995" lon="9.832260780834556"><ele>330.5</ele><time>2026-04-25T15:52:31.018Z</time></trkpt><trkpt lat="46.1502421322064" lon="9.832064829418028"><ele>330.0</ele><time>2026-04-25T15:52:32.018Z</time></trkpt><trkpt lat="46.150265327204714" lon="9.83184739202181"><ele>329.5</ele><time>2026-04-25T15:52:33.018Z</time></trkpt><trkpt lat="46.15031140888596" lon="9.831647328979674"><ele>329.0</ele><time>2026-04-25T15:52:34.018Z</time></trkpt><trkpt lat="46.150388516180236" lon="9.831467465030423"><ele>329.0</ele><time>2026-04-25T15:52:35.018Z</time></trkpt><trkpt lat="46.150464847913554" lon="9.83129773168779"><ele>329.0</ele><time>2026-04-25T15:52:36.018Z</time></trkpt><trkpt lat="46.15051202087719" lon="9.831116969280368"><ele>329.0</ele><time>2026-04-25T15:52:37.018Z</time></trkpt><trkpt lat="46.15053633807676" lon="9.830940354401433"><ele>329.0</ele><time>2026-04-25T15:52:38.018Z</time></trkpt><trkpt lat="46.150549916501916" lon="9.830747506341055"><ele>328.5</ele><time>2026-04-25T15:52:39.018Z</time></trkpt><trkpt lat="46.150580792972605" lon="9.830570019924032"><ele>328.0</ele><time>2026-04-25T15:52:40.018Z</time></trkpt><trkpt lat="46.15062635407551" lon="9.830412862119543"><ele>327.5</ele><time>2026-04-25T15:52:41.018Z</time></trkpt><trkpt lat="46.15071494096341" lon="9.830309395893659"><ele>327.0</ele><time>2026-04-25T15:52:42.018Z</time></trkpt><trkpt lat="46.1508164489625" lon="9.830279642525563"><ele>320.6</ele><time>2026-04-25T15:52:43.018Z</time></trkpt><trkpt lat="46.15092078780516" lon="9.830241542315319"><ele>314.20000000000005</ele><time>2026-04-25T15:52:45.018Z</time></trkpt><trkpt lat="46.15098593804248" lon="9.83009515731759"><ele>307.8</ele><time>2026-04-25T15:52:47.018Z</time></trkpt><trkpt lat="46.15102547363413" lon="9.829957649499475"><ele>301.4</ele><time>2026-04-25T15:52:48.018Z</time></trkpt><trkpt lat="46.15104769813889" lon="9.829791304404996"><ele>295.0</ele><time>2026-04-25T15:52:49.018Z</time></trkpt><trkpt lat="46.15108258339004" lon="9.829653190947532"><ele>295.0</ele><time>2026-04-25T15:52:50.018Z</time></trkpt><trkpt lat="46.151107494987905" lon="9.82953770194259"><ele>295.0</ele><time>2026-04-25T15:52:51.018Z</time></trkpt><trkpt lat="46.15113557497919" lon="9.829405527652725"><ele>295.0</ele><time>2026-04-25T15:52:52.018Z</time></trkpt><trkpt lat="46.15115765340101" lon="9.829258675107637"><ele>295.0</ele><time>2026-04-25T15:52:53.018Z</time></trkpt><trkpt lat="46.15118221776947" lon="9.829107882467698"><ele>295.0</ele><time>2026-04-25T15:52:54.018Z</time></trkpt><trkpt lat="46.15121155716059" lon="9.828981574653387"><ele>295.4</ele><time>2026-04-25T15:52:55.018Z</time></trkpt><trkpt lat="46.151239574101254" lon="9.828849766269897"><ele>295.8</ele><time>2026-04-25T15:52:56.018Z</time></trkpt><trkpt lat="46.151271577844945" lon="9.828708962822816"><ele>296.2</ele><time>2026-04-25T15:52:57.018Z</time></trkpt><trkpt lat="46.15128755313116" lon="9.828564892515901"><ele>296.6</ele><time>2026-04-25T15:52:58.019Z</time></trkpt><trkpt lat="46.151310392798955" lon="9.8284293810553"><ele>297.0</ele><time>2026-04-25T15:52:59.019Z</time></trkpt><trkpt lat="46.1513341818778" lon="9.828299859098875"><ele>297.5</ele><time>2026-04-25T15:53:00.018Z</time></trkpt><trkpt lat="46.151360126155645" lon="9.828190941117798"><ele>298.0</ele><time>2026-04-25T15:53:01.018Z</time></trkpt><trkpt lat="46.1513916263753" lon="9.82808877764511"><ele>298.5</ele><time>2026-04-25T15:53:02.018Z</time></trkpt><trkpt lat="46.15142685805754" lon="9.827996394246094"><ele>299.0</ele><time>2026-04-25T15:53:03.019Z</time></trkpt><trkpt lat="46.15146807282571" lon="9.827899913387025"><ele>299.5</ele><time>2026-04-25T15:53:04.019Z</time></trkpt><trkpt lat="46.15149809222823" lon="9.827805218837135"><ele>300.0</ele><time>2026-04-25T15:53:05.019Z</time></trkpt><trkpt lat="46.151505220515595" lon="9.827655180255919"><ele>300.0</ele><time>2026-04-25T15:53:06.019Z</time></trkpt><trkpt lat="46.15151918525652" lon="9.827473981844202"><ele>300.0</ele><time>2026-04-25T15:53:07.018Z</time></trkpt><trkpt lat="46.15154598890595" lon="9.827343129796315"><ele>300.0</ele><time>2026-04-25T15:53:08.018Z</time></trkpt><trkpt lat="46.15158578545766" lon="9.827247142132618"><ele>300.0</ele><time>2026-04-25T15:53:09.019Z</time></trkpt><trkpt lat="46.15168206187403" lon="9.827242876124272"><ele>300.0</ele><time>2026-04-25T15:53:11.018Z</time></trkpt><trkpt lat="46.15174641999947" lon="9.827276312783487"><ele>300.0</ele><time>2026-04-25T15:53:13.018Z</time></trkpt><trkpt lat="46.15172355861194" lon="9.827143174898309"><ele>300.0</ele><time>2026-04-25T15:53:16.018Z</time></trkpt><trkpt lat="46.15166604911079" lon="9.827079083960447"><ele>300.0</ele><time>2026-04-25T15:53:17.018Z</time></trkpt><trkpt lat="46.15157089943286" lon="9.826965876367813"><ele>300.0</ele><time>2026-04-25T15:53:18.018Z</time></trkpt><trkpt lat="46.15147195652718" lon="9.826830084253269"><ele>300.0</ele><time>2026-04-25T15:53:19.018Z</time></trkpt><trkpt lat="46.151359707658294" lon="9.826668370417762"><ele>306.75</ele><time>2026-04-25T15:53:20.018Z</time></trkpt><trkpt lat="46.15127510459786" lon="9.826520585024463"><ele>313.5</ele><time>2026-04-25T15:53:21.018Z</time></trkpt><trkpt lat="46.15119321859539" lon="9.826342397795964"><ele>320.25</ele><time>2026-04-25T15:53:22.018Z</time></trkpt><trkpt lat="46.15113923610996" lon="9.826135947695008"><ele>327.0</ele><time>2026-04-25T15:53:23.018Z</time></trkpt><trkpt lat="46.15110806111026" lon="9.825950275722148"><ele>328.25</ele><time>2026-04-25T15:53:24.018Z</time></trkpt><trkpt lat="46.1510775109668" lon="9.825753050355075"><ele>329.5</ele><time>2026-04-25T15:53:25.018Z</time></trkpt><trkpt lat="46.15105606695676" lon="9.825560386257782"><ele>330.75</ele><time>2026-04-25T15:53:26.018Z</time></trkpt><trkpt lat="46.15102999246504" lon="9.825367606772062"><ele>332.0</ele><time>2026-04-25T15:53:27.018Z</time></trkpt><trkpt lat="46.15099344541423" lon="9.825156968204997"><ele>331.75</ele><time>2026-04-25T15:53:28.018Z</time></trkpt><trkpt lat="46.15097130398997" lon="9.824969822084288"><ele>331.5</ele><time>2026-04-25T15:53:29.018Z</time></trkpt><trkpt lat="46.15094499786787" lon="9.824779429627775"><ele>331.25</ele><time>2026-04-25T15:53:30.018Z</time></trkpt><trkpt lat="46.150930342988914" lon="9.8246032938394"><ele>331.0</ele><time>2026-04-25T15:53:31.018Z</time></trkpt><trkpt lat="46.15089964734277" lon="9.824411754102034"><ele>328.3333333333333</ele><time>2026-04-25T15:53:32.018Z</time></trkpt><trkpt lat="46.15085723974658" lon="9.82421035090713"><ele>325.6666666666667</ele><time>2026-04-25T15:53:33.018Z</time></trkpt><trkpt lat="46.15083877321929" lon="9.82400149129358"><ele>323.0</ele><time>2026-04-25T15:53:34.018Z</time></trkpt><trkpt lat="46.15080586897097" lon="9.823774768006377"><ele>323.0</ele><time>2026-04-25T15:53:35.018Z</time></trkpt><trkpt lat="46.150775304801144" lon="9.823550481895209"><ele>323.0</ele><time>2026-04-25T15:53:36.018Z</time></trkpt><trkpt lat="46.15073386487028" lon="9.823328269782326"><ele>323.0</ele><time>2026-04-25T15:53:37.018Z</time></trkpt><trkpt lat="46.15070283559579" lon="9.823151930674301"><ele>323.0</ele><time>2026-04-25T15:53:38.018Z</time></trkpt><trkpt lat="46.150665390852325" lon="9.822968797674994"><ele>332.0</ele><time>2026-04-25T15:53:39.018Z</time></trkpt><trkpt lat="46.150628926005744" lon="9.822786935431443"><ele>341.0</ele><time>2026-04-25T15:53:40.018Z</time></trkpt><trkpt lat="46.15060567960174" lon="9.822604628469836"><ele>350.0</ele><time>2026-04-25T15:53:41.018Z</time></trkpt><trkpt lat="46.15058047204704" lon="9.822405208367654"><ele>359.0</ele><time>2026-04-25T15:53:42.018Z</time></trkpt><trkpt lat="46.150550680532426" lon="9.822208463294896"><ele>359.0</ele><time>2026-04-25T15:53:43.018Z</time></trkpt><trkpt lat="46.15052422025027" lon="9.822016962616186"><ele>359.0</ele><time>2026-04-25T15:53:44.018Z</time></trkpt><trkpt lat="46.15048657877115" lon="9.821809262186386"><ele>359.0</ele><time>2026-04-25T15:53:45.018Z</time></trkpt><trkpt lat="46.150464802404414" lon="9.82161473546668"><ele>359.0</ele><time>2026-04-25T15:53:46.018Z</time></trkpt><trkpt lat="46.150459912717324" lon="9.82139143924331"><ele>355.33333333333337</ele><time>2026-04-25T15:53:47.018Z</time></trkpt><trkpt lat="46.15047785271909" lon="9.821169706933295"><ele>351.6666666666667</ele><time>2026-04-25T15:53:48.018Z</time></trkpt><trkpt lat="46.150509186701264" lon="9.820950037327751"><ele>348.0</ele><time>2026-04-25T15:53:49.018Z</time></trkpt><trkpt lat="46.15055099184627" lon="9.820748849981536"><ele>346.0</ele><time>2026-04-25T15:53:50.018Z</time></trkpt><trkpt lat="46.15058693358403" lon="9.82056272403572"><ele>344.0</ele><time>2026-04-25T15:53:51.018Z</time></trkpt><trkpt lat="46.150612547668835" lon="9.82040630020615"><ele>342.0</ele><time>2026-04-25T15:53:52.018Z</time></trkpt><trkpt lat="46.15063666433786" lon="9.820298351225475"><ele>340.0</ele><time>2026-04-25T15:53:53.018Z</time></trkpt><trkpt lat="46.15064096529318" lon="9.82012440048852"><ele>338.0</ele><time>2026-04-25T15:53:55.018Z</time></trkpt><trkpt lat="46.150590793095866" lon="9.820057398872502"><ele>336.83333333333337</ele><time>2026-04-25T15:53:56.018Z</time></trkpt><trkpt lat="46.150506678882195" lon="9.820005763502184"><ele>335.6666666666667</ele><time>2026-04-25T15:53:57.018Z</time></trkpt><trkpt lat="46.150424185446" lon="9.819970526915155"><ele>334.5</ele><time>2026-04-25T15:53:58.018Z</time></trkpt><trkpt lat="46.150345523105315" lon="9.819902351099447"><ele>333.3333333333333</ele><time>2026-04-25T15:53:59.018Z</time></trkpt><trkpt lat="46.150280055091564" lon="9.819820307215572"><ele>332.16666666666663</ele><time>2026-04-25T15:54:00.018Z</time></trkpt><trkpt lat="46.150210957918596" lon="9.819739042598979"><ele>331.0</ele><time>2026-04-25T15:54:01.018Z</time></trkpt><trkpt lat="46.150146106451295" lon="9.819670974996422"><ele>331.0</ele><time>2026-04-25T15:54:02.018Z</time></trkpt><trkpt lat="46.15008550508641" lon="9.819599878935325"><ele>331.0</ele><time>2026-04-25T15:54:03.018Z</time></trkpt><trkpt lat="46.15002902921255" lon="9.819517671993637"><ele>331.0</ele><time>2026-04-25T15:54:04.018Z</time></trkpt><trkpt lat="46.14999147130183" lon="9.819418484778378"><ele>331.0</ele><time>2026-04-25T15:54:05.018Z</time></trkpt><trkpt lat="46.14994982000961" lon="9.819306772051688"><ele>331.0</ele><time>2026-04-25T15:54:06.018Z</time></trkpt><trkpt lat="46.14993457408331" lon="9.81919909814906"><ele>331.0</ele><time>2026-04-25T15:54:07.018Z</time></trkpt><trkpt lat="46.149940092746405" lon="9.819062341345042"><ele>331.0</ele><time>2026-04-25T15:54:08.018Z</time></trkpt><trkpt lat="46.14995114014217" lon="9.818926074208916"><ele>331.0</ele><time>2026-04-25T15:54:09.018Z</time></trkpt><trkpt lat="46.14996037823649" lon="9.818805784241496"><ele>331.0</ele><time>2026-04-25T15:54:10.018Z</time></trkpt><trkpt lat="46.14996935168686" lon="9.818681233307363"><ele>331.0</ele><time>2026-04-25T15:54:11.018Z</time></trkpt><trkpt lat="46.149970139494116" lon="9.818529457811563"><ele>331.0</ele><time>2026-04-25T15:54:12.018Z</time></trkpt><trkpt lat="46.14994903870721" lon="9.818374393117576"><ele>332.0</ele><time>2026-04-25T15:54:13.018Z</time></trkpt><trkpt lat="46.14993484736046" lon="9.818238159772523"><ele>333.0</ele><time>2026-04-25T15:54:14.018Z</time></trkpt><trkpt lat="46.14992250880223" lon="9.818112970849885"><ele>334.0</ele><time>2026-04-25T15:54:15.018Z</time></trkpt><trkpt lat="46.149963591352574" lon="9.817979198842846"><ele>335.0</ele><time>2026-04-25T15:54:16.018Z</time></trkpt><trkpt lat="46.15000375930771" lon="9.817870931436032"><ele>336.0</ele><time>2026-04-25T15:54:17.018Z</time></trkpt><trkpt lat="46.15006085460604" lon="9.817782378422589"><ele>336.0</ele><time>2026-04-25T15:54:18.018Z</time></trkpt><trkpt lat="46.15013101184688" lon="9.817683295626694"><ele>336.0</ele><time>2026-04-25T15:54:19.018Z</time></trkpt><trkpt lat="46.15019966947838" lon="9.817577109593655"><ele>336.0</ele><time>2026-04-25T15:54:20.018Z</time></trkpt><trkpt lat="46.150285756768845" lon="9.817509323957932"><ele>336.0</ele><time>2026-04-25T15:54:21.018Z</time></trkpt><trkpt lat="46.15032073401748" lon="9.817384424008585"><ele>336.0</ele><time>2026-04-25T15:54:22.018Z</time></trkpt><trkpt lat="46.15036428572737" lon="9.817260734175832"><ele>338.0</ele><time>2026-04-25T15:54:23.018Z</time></trkpt><trkpt lat="46.15038314379337" lon="9.817137158860424"><ele>340.0</ele><time>2026-04-25T15:54:24.018Z</time></trkpt><trkpt lat="46.15040443699531" lon="9.817001629795511"><ele>342.0</ele><time>2026-04-25T15:54:25.018Z</time></trkpt><trkpt lat="46.15042762984696" lon="9.816874397372892"><ele>344.0</ele><time>2026-04-25T15:54:26.018Z</time></trkpt><trkpt lat="46.15044898964904" lon="9.816739949916846"><ele>346.0</ele><time>2026-04-25T15:54:27.018Z</time></trkpt><trkpt lat="46.15038483939861" lon="9.816552955235272"><ele>347.5</ele><time>2026-04-25T15:54:28.018Z</time></trkpt><trkpt lat="46.15039304847422" lon="9.81638145210044"><ele>349.0</ele><time>2026-04-25T15:54:29.018Z</time></trkpt><trkpt lat="46.15043662389645" lon="9.816230950337442"><ele>350.5</ele><time>2026-04-25T15:54:30.018Z</time></trkpt><trkpt lat="46.15047135891925" lon="9.81605587747976"><ele>352.0</ele><time>2026-04-25T15:54:31.018Z</time></trkpt><trkpt lat="46.15050766420651" lon="9.815889677587828"><ele>352.25</ele><time>2026-04-25T15:54:32.018Z</time></trkpt><trkpt lat="46.15052367313017" lon="9.81571485045504"><ele>352.5</ele><time>2026-04-25T15:54:33.018Z</time></trkpt><trkpt lat="46.15053830419988" lon="9.815547233703642"><ele>352.75</ele><time>2026-04-25T15:54:34.018Z</time></trkpt><trkpt lat="46.150543188438995" lon="9.815371671886968"><ele>353.0</ele><time>2026-04-25T15:54:35.018Z</time></trkpt><trkpt lat="46.15052866966008" lon="9.81517728419721"><ele>351.75</ele><time>2026-04-25T15:54:36.018Z</time></trkpt><trkpt lat="46.150516103856425" lon="9.814991991877688"><ele>350.5</ele><time>2026-04-25T15:54:37.018Z</time></trkpt><trkpt lat="46.15049174370593" lon="9.814824397706516"><ele>349.25</ele><time>2026-04-25T15:54:38.018Z</time></trkpt><trkpt lat="46.15047185946584" lon="9.814659876507395"><ele>348.0</ele><time>2026-04-25T15:54:39.018Z</time></trkpt><trkpt lat="46.150457474575795" lon="9.814490833028453"><ele>347.25</ele><time>2026-04-25T15:54:40.018Z</time></trkpt><trkpt lat="46.15044821448962" lon="9.814298110454507"><ele>346.5</ele><time>2026-04-25T15:54:41.018Z</time></trkpt><trkpt lat="46.150443256413716" lon="9.814124131263219"><ele>345.75</ele><time>2026-04-25T15:54:42.018Z</time></trkpt><trkpt lat="46.15045424090681" lon="9.813969954654327"><ele>345.0</ele><time>2026-04-25T15:54:43.018Z</time></trkpt><trkpt lat="46.150473800204324" lon="9.81382389452528"><ele>345.0</ele><time>2026-04-25T15:54:44.018Z</time></trkpt><trkpt lat="46.15049454713228" lon="9.813700175090885"><ele>345.0</ele><time>2026-04-25T15:54:45.018Z</time></trkpt><trkpt lat="46.15047853163585" lon="9.813598414681024"><ele>345.0</ele><time>2026-04-25T15:54:46.018Z</time></trkpt><trkpt lat="46.150433372557146" lon="9.813515415168881"><ele>345.0</ele><time>2026-04-25T15:54:47.018Z</time></trkpt><trkpt lat="46.150363008446064" lon="9.813456668950407"><ele>345.0</ele><time>2026-04-25T15:54:48.018Z</time></trkpt><trkpt lat="46.1502860230249" lon="9.813434914678385"><ele>345.0</ele><time>2026-04-25T15:54:49.018Z</time></trkpt><trkpt lat="46.15021184494949" lon="9.813449227155315"><ele>345.0</ele><time>2026-04-25T15:54:50.018Z</time></trkpt><trkpt lat="46.15013396844849" lon="9.81351802788862"><ele>345.0</ele><time>2026-04-25T15:54:51.018Z</time></trkpt><trkpt lat="46.15008614286281" lon="9.813603024691316"><ele>345.0</ele><time>2026-04-25T15:54:52.018Z</time></trkpt><trkpt lat="46.15008712760691" lon="9.813734696432526"><ele>345.0</ele><time>2026-04-25T15:54:53.018Z</time></trkpt><trkpt lat="46.150098994704784" lon="9.813885535407348"><ele>345.0</ele><time>2026-04-25T15:54:54.018Z</time></trkpt><trkpt lat="46.15010962452926" lon="9.814054983106377"><ele>345.0</ele><time>2026-04-25T15:54:55.018Z</time></trkpt><trkpt lat="46.150118581513844" lon="9.814237464807235"><ele>345.0</ele><time>2026-04-25T15:54:56.018Z</time></trkpt><trkpt lat="46.15012254007935" lon="9.814411924864064"><ele>345.0</ele><time>2026-04-25T15:54:57.018Z</time></trkpt><trkpt lat="46.150122067216074" lon="9.814589026336538"><ele>345.0</ele><time>2026-04-25T15:54:58.018Z</time></trkpt><trkpt lat="46.15013841580247" lon="9.81476959551989"><ele>345.6</ele><time>2026-04-25T15:54:59.018Z</time></trkpt><trkpt lat="46.15014777783765" lon="9.81492827285449"><ele>346.2</ele><time>2026-04-25T15:55:00.018Z</time></trkpt><trkpt lat="46.15016277712996" lon="9.815073636998624"><ele>346.79999999999995</ele><time>2026-04-25T15:55:01.018Z</time></trkpt><trkpt lat="46.150137163506386" lon="9.815186198733782"><ele>347.4</ele><time>2026-04-25T15:55:02.018Z</time></trkpt><trkpt lat="46.15008541271871" lon="9.815263846222772"><ele>348.0</ele><time>2026-04-25T15:55:03.018Z</time></trkpt><trkpt lat="46.15000564288322" lon="9.81530805480645"><ele>349.25</ele><time>2026-04-25T15:55:04.019Z</time></trkpt><trkpt lat="46.14990602989795" lon="9.81529479864201"><ele>350.5</ele><time>2026-04-25T15:55:05.019Z</time></trkpt><trkpt lat="46.14981982877927" lon="9.815232357357187"><ele>351.75</ele><time>2026-04-25T15:55:06.019Z</time></trkpt><trkpt lat="46.14976182536415" lon="9.81509339487305"><ele>353.0</ele><time>2026-04-25T15:55:07.019Z</time></trkpt><trkpt lat="46.14976244443508" lon="9.814884840883055"><ele>356.25</ele><time>2026-04-25T15:55:08.019Z</time></trkpt><trkpt lat="46.14974417669031" lon="9.814690473396556"><ele>359.5</ele><time>2026-04-25T15:55:09.019Z</time></trkpt><trkpt lat="46.14972005169683" lon="9.81450378834335"><ele>362.75</ele><time>2026-04-25T15:55:10.019Z</time></trkpt><trkpt lat="46.14969487242514" lon="9.814349286908653"><ele>366.0</ele><time>2026-04-25T15:55:11.019Z</time></trkpt><trkpt lat="46.149660688339566" lon="9.814220978532617"><ele>366.0</ele><time>2026-04-25T15:55:12.019Z</time></trkpt><trkpt lat="46.14959929333807" lon="9.814100657797558"><ele>366.0</ele><time>2026-04-25T15:55:13.019Z</time></trkpt><trkpt lat="46.14948395110887" lon="9.81402845964528"><ele>366.0</ele><time>2026-04-25T15:55:14.019Z</time></trkpt><trkpt lat="46.149387076317446" lon="9.81395665917032"><ele>366.0</ele><time>2026-04-25T15:55:15.019Z</time></trkpt><trkpt lat="46.149310298753505" lon="9.813872302113047"><ele>366.0</ele><time>2026-04-25T15:55:16.018Z</time></trkpt><trkpt lat="46.14923231061179" lon="9.813767174557494"><ele>366.0</ele><time>2026-04-25T15:55:17.018Z</time></trkpt><trkpt lat="46.149150643201196" lon="9.813707901704946"><ele>366.0</ele><time>2026-04-25T15:55:18.018Z</time></trkpt><trkpt lat="46.14907886991941" lon="9.813647441168714"><ele>366.0</ele><time>2026-04-25T15:55:19.018Z</time></trkpt><trkpt lat="46.14903151201938" lon="9.813535014134823"><ele>366.0</ele><time>2026-04-25T15:55:20.018Z</time></trkpt><trkpt lat="46.14902412167022" lon="9.813415490926197"><ele>366.0</ele><time>2026-04-25T15:55:21.018Z</time></trkpt><trkpt lat="46.14897131098831" lon="9.813546076682565"><ele>373.4</ele><time>2026-04-25T15:55:25.018Z</time></trkpt><trkpt lat="46.1489783665758" lon="9.813693522446021"><ele>380.8</ele><time>2026-04-25T15:55:26.018Z</time></trkpt><trkpt lat="46.148993804753964" lon="9.813856377063164"><ele>388.2</ele><time>2026-04-25T15:55:27.018Z</time></trkpt><trkpt lat="46.148969749354386" lon="9.814013523947892"><ele>395.59999999999997</ele><time>2026-04-25T15:55:28.018Z</time></trkpt><trkpt lat="46.14894018572514" lon="9.814125007433399"><ele>403.0</ele><time>2026-04-25T15:55:29.018Z</time></trkpt><trkpt lat="46.14887629068234" lon="9.81420919455386"><ele>403.00000000000006</ele><time>2026-04-25T15:55:30.018Z</time></trkpt><trkpt lat="46.148803165626994" lon="9.814238738717192"><ele>403.0</ele><time>2026-04-25T15:55:31.018Z</time></trkpt><trkpt lat="46.14873144410901" lon="9.814227701417314"><ele>403.0</ele><time>2026-04-25T15:55:32.018Z</time></trkpt><trkpt lat="46.14869551581349" lon="9.814142157827561"><ele>403.0</ele><time>2026-04-25T15:55:33.018Z</time></trkpt><trkpt lat="46.14870350083939" lon="9.813999191123257"><ele>403.00000000000006</ele><time>2026-04-25T15:55:34.018Z</time></trkpt><trkpt lat="46.14873530325986" lon="9.813837290289896"><ele>403.0</ele><time>2026-04-25T15:55:35.018Z</time></trkpt><trkpt lat="46.14876801064546" lon="9.81367166242938"><ele>403.0</ele><time>2026-04-25T15:55:36.018Z</time></trkpt><trkpt lat="46.148775978020026" lon="9.813489383706326"><ele>403.0</ele><time>2026-04-25T15:55:37.018Z</time></trkpt><trkpt lat="46.148763510902704" lon="9.813340434316373"><ele>403.0</ele><time>2026-04-25T15:55:38.018Z</time></trkpt><trkpt lat="46.1487327399106" lon="9.81323891408678"><ele>403.0</ele><time>2026-04-25T15:55:39.018Z</time></trkpt><trkpt lat="46.148610770357486" lon="9.813176297518615"><ele>403.0</ele><time>2026-04-25T15:55:41.018Z</time></trkpt><trkpt lat="46.14850657369453" lon="9.813177900044073"><ele>402.4</ele><time>2026-04-25T15:55:42.018Z</time></trkpt><trkpt lat="46.148385758616364" lon="9.813185775468709"><ele>401.79999999999995</ele><time>2026-04-25T15:55:43.018Z</time></trkpt><trkpt lat="46.148297384131986" lon="9.81313284556149"><ele>401.2</ele><time>2026-04-25T15:55:44.018Z</time></trkpt><trkpt lat="46.14828078851283" lon="9.813002226800846"><ele>400.6</ele><time>2026-04-25T15:55:45.018Z</time></trkpt><trkpt lat="46.14826900649263" lon="9.812901895491907"><ele>400.0</ele><time>2026-04-25T15:55:47.018Z</time></trkpt><trkpt lat="46.14822882216844" lon="9.81303041327254"><ele>400.0</ele><time>2026-04-25T15:55:49.018Z</time></trkpt><trkpt lat="46.14821131768492" lon="9.813139143153665"><ele>400.0</ele><time>2026-04-25T15:55:50.018Z</time></trkpt><trkpt lat="46.14818644712889" lon="9.81302450748268"><ele>400.0</ele><time>2026-04-25T15:55:54.018Z</time></trkpt><trkpt lat="46.14813178687687" lon="9.812955723082897"><ele>400.0</ele><time>2026-04-25T15:55:55.018Z</time></trkpt><trkpt lat="46.14810746889899" lon="9.81277660389835"><ele>400.0</ele><time>2026-04-25T15:55:57.018Z</time></trkpt><trkpt lat="46.14816027261665" lon="9.812645763469137"><ele>400.8</ele><time>2026-04-25T15:55:58.018Z</time></trkpt><trkpt lat="46.148205537781855" lon="9.812527461335467"><ele>401.6</ele><time>2026-04-25T15:55:59.018Z</time></trkpt><trkpt lat="46.14820854221654" lon="9.812410092416565"><ele>402.4</ele><time>2026-04-25T15:56:00.018Z</time></trkpt><trkpt lat="46.14821955852517" lon="9.812258563644907"><ele>403.2</ele><time>2026-04-25T15:56:01.018Z</time></trkpt><trkpt lat="46.148197304148596" lon="9.812108284904214"><ele>404.0</ele><time>2026-04-25T15:56:02.018Z</time></trkpt><trkpt lat="46.148197575351226" lon="9.811975737404532"><ele>408.66666666666663</ele><time>2026-04-25T15:56:03.018Z</time></trkpt><trkpt lat="46.148174807972325" lon="9.811856226781972"><ele>413.3333333333333</ele><time>2026-04-25T15:56:04.018Z</time></trkpt><trkpt lat="46.14815813100973" lon="9.811761826748514"><ele>418.0</ele><time>2026-04-25T15:56:05.018Z</time></trkpt><trkpt lat="46.14813784599914" lon="9.811664861879464"><ele>422.66666666666663</ele><time>2026-04-25T15:56:06.018Z</time></trkpt><trkpt lat="46.14810606958475" lon="9.811557712068899"><ele>427.3333333333333</ele><time>2026-04-25T15:56:07.018Z</time></trkpt><trkpt lat="46.148069849083825" lon="9.811470634470515"><ele>432.0</ele><time>2026-04-25T15:56:08.018Z</time></trkpt><trkpt lat="46.147985484019856" lon="9.811328425481141"><ele>432.0</ele><time>2026-04-25T15:56:10.018Z</time></trkpt><trkpt lat="46.147893651130964" lon="9.811284732303623"><ele>432.0</ele><time>2026-04-25T15:56:12.018Z</time></trkpt><trkpt lat="46.14776558712914" lon="9.81119325066139"><ele>432.0</ele><time>2026-04-25T15:56:14.018Z</time></trkpt><trkpt lat="46.147710659011885" lon="9.811143940416338"><ele>432.0</ele><time>2026-04-25T15:56:15.018Z</time></trkpt><trkpt lat="46.14764824477408" lon="9.811164518303025"><ele>432.0</ele><time>2026-04-25T15:56:16.018Z</time></trkpt><trkpt lat="46.14757206138228" lon="9.811192684849871"><ele>432.0</ele><time>2026-04-25T15:56:17.018Z</time></trkpt><trkpt lat="46.14746658473564" lon="9.811176823195364"><ele>437.6</ele><time>2026-04-25T15:56:18.018Z</time></trkpt><trkpt lat="46.14735948252259" lon="9.81113925619685"><ele>443.20000000000005</ele><time>2026-04-25T15:56:19.018Z</time></trkpt><trkpt lat="46.14724970074681" lon="9.811080886190453"><ele>448.8</ele><time>2026-04-25T15:56:20.018Z</time></trkpt><trkpt lat="46.147162161818514" lon="9.811038541379084"><ele>454.4</ele><time>2026-04-25T15:56:21.018Z</time></trkpt><trkpt lat="46.14708756787236" lon="9.810990255778814"><ele>460.0</ele><time>2026-04-25T15:56:22.018Z</time></trkpt><trkpt lat="46.147057751741116" lon="9.810903145123886"><ele>460.6666666666667</ele><time>2026-04-25T15:56:23.018Z</time></trkpt><trkpt lat="46.14701860211675" lon="9.810809441678492"><ele>461.33333333333337</ele><time>2026-04-25T15:56:24.018Z</time></trkpt><trkpt lat="46.14699965778166" lon="9.810676284584144"><ele>462.0</ele><time>2026-04-25T15:56:25.018Z</time></trkpt><trkpt lat="46.14698006232458" lon="9.810535176316073"><ele>462.66666666666663</ele><time>2026-04-25T15:56:26.018Z</time></trkpt><trkpt lat="46.146975430893015" lon="9.810410141630175"><ele>463.3333333333333</ele><time>2026-04-25T15:56:27.018Z</time></trkpt><trkpt lat="46.14698749354609" lon="9.81030501091442"><ele>464.0</ele><time>2026-04-25T15:56:28.018Z</time></trkpt><trkpt lat="46.14688837831536" lon="9.810152050109611"><ele>465.79999999999995</ele><time>2026-04-25T15:56:31.018Z</time></trkpt><trkpt lat="46.14682167595678" lon="9.810039504484836"><ele>467.59999999999997</ele><time>2026-04-25T15:56:32.018Z</time></trkpt><trkpt lat="46.14676546383363" lon="9.809923587811873"><ele>469.4</ele><time>2026-04-25T15:56:33.018Z</time></trkpt><trkpt lat="46.146713910245175" lon="9.80979207888944"><ele>471.2</ele><time>2026-04-25T15:56:34.018Z</time></trkpt><trkpt lat="46.14667795325615" lon="9.809673155424612"><ele>473.0</ele><time>2026-04-25T15:56:35.018Z</time></trkpt><trkpt lat="46.146681155473125" lon="9.809545796288731"><ele>473.0</ele><time>2026-04-25T15:56:36.018Z</time></trkpt><trkpt lat="46.14673649558316" lon="9.809416945973535"><ele>472.99999999999994</ele><time>2026-04-25T15:56:37.018Z</time></trkpt><trkpt lat="46.14676296481714" lon="9.809256170978248"><ele>472.99999999999994</ele><time>2026-04-25T15:56:38.018Z</time></trkpt><trkpt lat="46.14678373865991" lon="9.809110225260097"><ele>473.0</ele><time>2026-04-25T15:56:39.018Z</time></trkpt><trkpt lat="46.146862997820286" lon="9.808991143243272"><ele>473.0</ele><time>2026-04-25T15:56:41.018Z</time></trkpt><trkpt lat="46.14686723024135" lon="9.808876705561907"><ele>474.99999999999994</ele><time>2026-04-25T15:56:42.018Z</time></trkpt><trkpt lat="46.14690246792512" lon="9.80879862612775"><ele>477.0</ele><time>2026-04-25T15:56:43.018Z</time></trkpt><trkpt lat="46.14687953725034" lon="9.80869349860063"><ele>479.0</ele><time>2026-04-25T15:56:44.018Z</time></trkpt><trkpt lat="46.14686012839354" lon="9.808574583043189"><ele>481.0</ele><time>2026-04-25T15:56:45.018Z</time></trkpt><trkpt lat="46.14686256808588" lon="9.80846710492341"><ele>482.99999999999994</ele><time>2026-04-25T15:56:46.018Z</time></trkpt><trkpt lat="46.14684737074268" lon="9.808353786015168"><ele>485.0</ele><time>2026-04-25T15:56:47.018Z</time></trkpt><trkpt lat="46.14684058203388" lon="9.808245175357634"><ele>487.16666666666663</ele><time>2026-04-25T15:56:48.018Z</time></trkpt><trkpt lat="46.14681559913625" lon="9.808144310942714"><ele>489.3333333333333</ele><time>2026-04-25T15:56:49.018Z</time></trkpt><trkpt lat="46.146757357012774" lon="9.80808536849594"><ele>491.5</ele><time>2026-04-25T15:56:51.018Z</time></trkpt><trkpt lat="46.146683331130916" lon="9.808113548013763"><ele>493.66666666666663</ele><time>2026-04-25T15:56:52.018Z</time></trkpt><trkpt lat="46.1465708244977" lon="9.808203405090744"><ele>495.8333333333333</ele><time>2026-04-25T15:56:54.018Z</time></trkpt><trkpt lat="46.14650585500093" lon="9.808265884503845"><ele>498.0</ele><time>2026-04-25T15:56:55.018Z</time></trkpt><trkpt lat="46.1464318223438" lon="9.808293986485285"><ele>502.6666666666667</ele><time>2026-04-25T15:56:56.018Z</time></trkpt><trkpt lat="46.14636750206535" lon="9.808315177062868"><ele>507.33333333333337</ele><time>2026-04-25T15:56:57.018Z</time></trkpt><trkpt lat="46.14629643893476" lon="9.808366608930543"><ele>512.0</ele><time>2026-04-25T15:56:58.018Z</time></trkpt><trkpt lat="46.14623810140573" lon="9.808435003048471"><ele>516.6666666666667</ele><time>2026-04-25T15:56:59.018Z</time></trkpt><trkpt lat="46.146156910728145" lon="9.808462711304605"><ele>521.3333333333334</ele><time>2026-04-25T15:57:00.018Z</time></trkpt><trkpt lat="46.14606051167082" lon="9.80852275475951"><ele>526.0</ele><time>2026-04-25T15:57:02.018Z</time></trkpt><trkpt lat="46.14596600882313" lon="9.808574410089003"><ele>527.4</ele><time>2026-04-25T15:57:04.018Z</time></trkpt><trkpt lat="46.14591484627623" lon="9.808489282230392"><ele>528.8</ele><time>2026-04-25T15:57:06.018Z</time></trkpt><trkpt lat="46.14588490572596" lon="9.808298974925544"><ele>530.1999999999999</ele><time>2026-04-25T15:57:08.018Z</time></trkpt><trkpt lat="46.14586800741393" lon="9.808132006685438"><ele>531.6</ele><time>2026-04-25T15:57:10.019Z</time></trkpt><trkpt lat="46.145808819887016" lon="9.808170352485822"><ele>533.0</ele><time>2026-04-25T15:57:12.019Z</time></trkpt><trkpt lat="46.145714356739646" lon="9.808284494380835"><ele>538.3333333333333</ele><time>2026-04-25T15:57:14.018Z</time></trkpt><trkpt lat="46.14565205191245" lon="9.808321804173499"><ele>543.6666666666666</ele><time>2026-04-25T15:57:15.019Z</time></trkpt><trkpt lat="46.14558240363329" lon="9.808376131014034"><ele>549.0</ele><time>2026-04-25T15:57:17.019Z</time></trkpt><trkpt lat="46.14545624562519" lon="9.808379283137938"><ele>554.3333333333334</ele><time>2026-04-25T15:57:19.019Z</time></trkpt><trkpt lat="46.14537193080325" lon="9.808410628159065"><ele>559.6666666666667</ele><time>2026-04-25T15:57:20.019Z</time></trkpt><trkpt lat="46.14532741418501" lon="9.808488807459398"><ele>565.0</ele><time>2026-04-25T15:57:21.019Z</time></trkpt><trkpt lat="46.145303794115044" lon="9.808592019414643"><ele>565.0</ele><time>2026-04-25T15:57:22.019Z</time></trkpt><trkpt lat="46.14525062843188" lon="9.80867163957384"><ele>565.0</ele><time>2026-04-25T15:57:23.019Z</time></trkpt><trkpt lat="46.14516702948584" lon="9.808830637590045"><ele>565.0</ele><time>2026-04-25T15:57:25.019Z</time></trkpt><trkpt lat="46.14512259606371" lon="9.808931281473328"><ele>565.0</ele><time>2026-04-25T15:57:26.019Z</time></trkpt><trkpt lat="46.145044224706" lon="9.809042434914824"><ele>565.0</ele><time>2026-04-25T15:57:28.019Z</time></trkpt><trkpt lat="46.144981505201216" lon="9.808940993445031"><ele>565.0</ele><time>2026-04-25T15:57:30.019Z</time></trkpt><trkpt lat="46.14494569560344" lon="9.808833744846767"><ele>565.0</ele><time>2026-04-25T15:57:32.019Z</time></trkpt><trkpt lat="46.14493378321722" lon="9.808692847975072"><ele>565.0</ele><time>2026-04-25T15:57:36.019Z</time></trkpt><trkpt lat="46.144897809894786" lon="9.808565240495502"><ele>565.0</ele><time>2026-04-25T15:57:37.019Z</time></trkpt><trkpt lat="46.14489295465809" lon="9.808448936098156"><ele>565.0</ele><time>2026-04-25T15:57:39.019Z</time></trkpt><trkpt lat="46.14482999808222" lon="9.808460125567867"><ele>565.0</ele><time>2026-04-25T15:57:42.019Z</time></trkpt><trkpt lat="46.14475566959111" lon="9.808538609109439"><ele>573.6666666666667</ele><time>2026-04-25T15:57:44.019Z</time></trkpt><trkpt lat="46.144695315114575" lon="9.808618307088238"><ele>582.3333333333334</ele><time>2026-04-25T15:57:46.019Z</time></trkpt><trkpt lat="46.144644851642134" lon="9.808729355886733"><ele>591.0</ele><time>2026-04-25T15:57:48.019Z</time></trkpt><trkpt lat="46.14460097438725" lon="9.808844331237944"><ele>599.6666666666666</ele><time>2026-04-25T15:57:50.019Z</time></trkpt><trkpt lat="46.14454785727044" lon="9.808926109674179"><ele>608.3333333333333</ele><time>2026-04-25T15:57:53.019Z</time></trkpt><trkpt lat="46.14450130075583" lon="9.809020320607138"><ele>617.0</ele><time>2026-04-25T15:57:54.019Z</time></trkpt><trkpt lat="46.14446038723322" lon="9.809106909880157"><ele>617.0</ele><time>2026-04-25T15:57:55.019Z</time></trkpt><trkpt lat="46.144389634395054" lon="9.809138297648579"><ele>617.0</ele><time>2026-04-25T15:57:57.019Z</time></trkpt><trkpt lat="46.14436063288765" lon="9.80899726423566"><ele>617.0</ele><time>2026-04-25T15:57:59.019Z</time></trkpt><trkpt lat="46.14435527024588" lon="9.808872541497523"><ele>617.0</ele><time>2026-04-25T15:58:01.019Z</time></trkpt><trkpt lat="46.14433335671883" lon="9.808768231271829"><ele>617.0</ele><time>2026-04-25T15:58:04.019Z</time></trkpt><trkpt lat="46.144280532945835" lon="9.808712201301498"><ele>617.0</ele><time>2026-04-25T15:58:10.019Z</time></trkpt><trkpt lat="46.14422901939952" lon="9.80877482048126"><ele>617.0</ele><time>2026-04-25T15:58:13.019Z</time></trkpt><trkpt lat="46.14417454722448" lon="9.808666955620083"><ele>617.0</ele><time>2026-04-25T15:58:39.019Z</time></trkpt><trkpt lat="46.14412124985052" lon="9.80860074259567"><ele>617.0</ele><time>2026-04-25T15:58:55.018Z</time></trkpt><trkpt lat="46.14417768767639" lon="9.808651795604522"><ele>617.0</ele><time>2026-04-25T15:59:54.019Z</time></trkpt><trkpt lat="46.14424675100918" lon="9.808613593687635"><ele>617.0</ele><time>2026-04-25T16:00:31.019Z</time></trkpt><trkpt lat="46.14419179907139" lon="9.808680872488488"><ele>617.0</ele><time>2026-04-25T16:01:04.019Z</time></trkpt><trkpt lat="46.14411928737109" lon="9.808538194804619"><ele>617.0</ele><time>2026-04-25T16:01:38.02Z</time></trkpt><trkpt lat="46.144127601112665" lon="9.808630218667384"><ele>617.0</ele><time>2026-04-25T16:03:45.018Z</time></trkpt><trkpt lat="46.1442146193453" lon="9.808603977278329"><ele>617.0</ele><time>2026-04-25T16:04:10.018Z</time></trkpt><trkpt lat="46.14423053925468" lon="9.808492398655742"><ele>617.0</ele><time>2026-04-25T16:04:12.018Z</time></trkpt><trkpt lat="46.14424922102348" lon="9.808352959098722"><ele>617.0</ele><time>2026-04-25T16:04:14.018Z</time></trkpt><trkpt lat="46.144262641418955" lon="9.80816256703659"><ele>619.6666666666666</ele><time>2026-04-25T16:04:16.018Z</time></trkpt><trkpt lat="46.14425391078751" lon="9.808057791759959"><ele>622.3333333333333</ele><time>2026-04-25T16:04:17.018Z</time></trkpt><trkpt lat="46.14426709199218" lon="9.807952564783063"><ele>625.0</ele><time>2026-04-25T16:04:18.018Z</time></trkpt><trkpt lat="46.14428735448062" lon="9.807859371149055"><ele>627.6666666666666</ele><time>2026-04-25T16:04:19.018Z</time></trkpt><trkpt lat="46.14428690541829" lon="9.807747725350007"><ele>630.3333333333334</ele><time>2026-04-25T16:04:20.018Z</time></trkpt><trkpt lat="46.144314998713625" lon="9.807603166356001"><ele>633.0</ele><time>2026-04-25T16:04:22.018Z</time></trkpt><trkpt lat="46.14431314177843" lon="9.807482499045655"><ele>635.5999999999999</ele><time>2026-04-25T16:04:24.018Z</time></trkpt><trkpt lat="46.14433196024014" lon="9.80730490254193"><ele>638.1999999999999</ele><time>2026-04-25T16:04:26.018Z</time></trkpt><trkpt lat="46.14436759359437" lon="9.807184791129774"><ele>640.8</ele><time>2026-04-25T16:04:27.018Z</time></trkpt><trkpt lat="46.14440722281701" lon="9.807075499949665"><ele>643.4</ele><time>2026-04-25T16:04:28.018Z</time></trkpt><trkpt lat="46.14446941255963" lon="9.806991342113662"><ele>646.0</ele><time>2026-04-25T16:04:29.018Z</time></trkpt><trkpt lat="46.14449346480652" lon="9.806904466595107"><ele>647.1666666666667</ele><time>2026-04-25T16:04:30.018Z</time></trkpt><trkpt lat="46.14450462810074" lon="9.806808655293018"><ele>648.3333333333334</ele><time>2026-04-25T16:04:31.018Z</time></trkpt><trkpt lat="46.14446623878085" lon="9.806654292408659"><ele>649.5</ele><time>2026-04-25T16:04:32.018Z</time></trkpt><trkpt lat="46.14444847802873" lon="9.806515925946663"><ele>650.6666666666666</ele><time>2026-04-25T16:04:33.018Z</time></trkpt><trkpt lat="46.14444927683138" lon="9.806401411612205"><ele>651.8333333333333</ele><time>2026-04-25T16:04:34.018Z</time></trkpt><trkpt lat="46.14443676115018" lon="9.806305505991373"><ele>653.0</ele><time>2026-04-25T16:04:35.018Z</time></trkpt><trkpt lat="46.14440000483164" lon="9.806162658747532"><ele>653.0</ele><time>2026-04-25T16:04:37.018Z</time></trkpt><trkpt lat="46.14432722894376" lon="9.806099179913815"><ele>653.0</ele><time>2026-04-25T16:04:39.018Z</time></trkpt><trkpt lat="46.14426437699131" lon="9.80617775055515"><ele>653.0</ele><time>2026-04-25T16:04:41.018Z</time></trkpt><trkpt lat="46.1442255219611" lon="9.806345419890532"><ele>653.0</ele><time>2026-04-25T16:04:43.018Z</time></trkpt><trkpt lat="46.14417905068066" lon="9.806438684847162"><ele>653.0</ele><time>2026-04-25T16:04:44.018Z</time></trkpt><trkpt lat="46.14413512590569" lon="9.806539775372643"><ele>653.0</ele><time>2026-04-25T16:04:45.018Z</time></trkpt><trkpt lat="46.1440675711505" lon="9.806632879347438"><ele>653.0</ele><time>2026-04-25T16:04:46.018Z</time></trkpt><trkpt lat="46.14399215250627" lon="9.806712031889592"><ele>653.0</ele><time>2026-04-25T16:04:47.018Z</time></trkpt><trkpt lat="46.14394932714842" lon="9.80680882825356"><ele>653.0</ele><time>2026-04-25T16:04:48.018Z</time></trkpt><trkpt lat="46.14392345845935" lon="9.80692754735047"><ele>653.0</ele><time>2026-04-25T16:04:49.018Z</time></trkpt><trkpt lat="46.14389240706188" lon="9.807060201097354"><ele>653.0</ele><time>2026-04-25T16:04:50.018Z</time></trkpt><trkpt lat="46.14385946092935" lon="9.80720486121459"><ele>662.0</ele><time>2026-04-25T16:04:51.018Z</time></trkpt><trkpt lat="46.143836336863835" lon="9.807368735232489"><ele>671.0</ele><time>2026-04-25T16:04:52.018Z</time></trkpt><trkpt lat="46.14380061114756" lon="9.807532241759676"><ele>680.0</ele><time>2026-04-25T16:04:53.018Z</time></trkpt><trkpt lat="46.1437645393747" lon="9.807683165975579"><ele>689.0</ele><time>2026-04-25T16:04:54.018Z</time></trkpt><trkpt lat="46.143737445226705" lon="9.807839998354337"><ele>689.0</ele><time>2026-04-25T16:04:55.018Z</time></trkpt><trkpt lat="46.14367634458648" lon="9.807980441331747"><ele>689.0</ele><time>2026-04-25T16:04:56.018Z</time></trkpt><trkpt lat="46.14362494200217" lon="9.808139328677967"><ele>689.0</ele><time>2026-04-25T16:04:57.018Z</time></trkpt><trkpt lat="46.14357445892931" lon="9.808291117253738"><ele>689.0</ele><time>2026-04-25T16:04:58.018Z</time></trkpt><trkpt lat="46.14356006322792" lon="9.808454607796659"><ele>689.0</ele><time>2026-04-25T16:04:59.018Z</time></trkpt><trkpt lat="46.143532261396665" lon="9.808580286644236"><ele>689.0</ele><time>2026-04-25T16:05:00.018Z</time></trkpt><trkpt lat="46.14351214891207" lon="9.808681488110462"><ele>689.0</ele><time>2026-04-25T16:05:01.018Z</time></trkpt><trkpt lat="46.143452752971136" lon="9.80875573414984"><ele>689.0</ele><time>2026-04-25T16:05:03.018Z</time></trkpt><trkpt lat="46.14341181675339" lon="9.808652631953386"><ele>689.0</ele><time>2026-04-25T16:05:05.018Z</time></trkpt><trkpt lat="46.143435216627" lon="9.808483947985426"><ele>689.0</ele><time>2026-04-25T16:05:07.018Z</time></trkpt><trkpt lat="46.143474214479006" lon="9.80834807329012"><ele>689.0</ele><time>2026-04-25T16:05:08.018Z</time></trkpt><trkpt lat="46.14350141838125" lon="9.80821582063856"><ele>689.0</ele><time>2026-04-25T16:05:09.018Z</time></trkpt><trkpt lat="46.14352556623384" lon="9.808104009910808"><ele>689.0</ele><time>2026-04-25T16:05:10.018Z</time></trkpt><trkpt lat="46.14352481040465" lon="9.807933248177624"><ele>689.0</ele><time>2026-04-25T16:05:11.018Z</time></trkpt><trkpt lat="46.14353294233702" lon="9.807769572613633"><ele>689.0</ele><time>2026-04-25T16:05:12.018Z</time></trkpt><trkpt lat="46.14354235135659" lon="9.807611744123502"><ele>690.8000000000001</ele><time>2026-04-25T16:05:13.018Z</time></trkpt><trkpt lat="46.14355053195896" lon="9.807486602252244"><ele>692.6</ele><time>2026-04-25T16:05:14.018Z</time></trkpt><trkpt lat="46.1435654358029" lon="9.807354640343467"><ele>694.4</ele><time>2026-04-25T16:05:15.018Z</time></trkpt><trkpt lat="46.143602316124564" lon="9.807225168730643"><ele>696.2</ele><time>2026-04-25T16:05:16.018Z</time></trkpt><trkpt lat="46.14361720859334" lon="9.807096183134309"><ele>698.0</ele><time>2026-04-25T16:05:17.018Z</time></trkpt><trkpt lat="46.14358445452088" lon="9.806928360084425"><ele>698.5999999999999</ele><time>2026-04-25T16:05:18.018Z</time></trkpt><trkpt lat="46.14354910412625" lon="9.806748331095932"><ele>699.1999999999999</ele><time>2026-04-25T16:05:19.018Z</time></trkpt><trkpt lat="46.1435361359585" lon="9.806606749159517"><ele>699.8</ele><time>2026-04-25T16:05:20.018Z</time></trkpt><trkpt lat="46.14352875706926" lon="9.806471680506457"><ele>700.4</ele><time>2026-04-25T16:05:21.018Z</time></trkpt><trkpt lat="46.14353079914656" lon="9.806326535468797"><ele>701.0</ele><time>2026-04-25T16:05:22.018Z</time></trkpt><trkpt lat="46.143513370597226" lon="9.806176306577171"><ele>699.5</ele><time>2026-04-25T16:05:23.018Z</time></trkpt><trkpt lat="46.14342247393049" lon="9.805961693970708"><ele>698.0</ele><time>2026-04-25T16:05:24.018Z</time></trkpt><trkpt lat="46.143344100629996" lon="9.805818951257672"><ele>696.5</ele><time>2026-04-25T16:05:25.018Z</time></trkpt><trkpt lat="46.143280332005396" lon="9.805684457007333"><ele>695.0</ele><time>2026-04-25T16:05:26.018Z</time></trkpt><trkpt lat="46.143243325305036" lon="9.805531713242214"><ele>698.0</ele><time>2026-04-25T16:05:27.018Z</time></trkpt><trkpt lat="46.14320941555616" lon="9.805378980989579"><ele>701.0</ele><time>2026-04-25T16:05:28.018Z</time></trkpt><trkpt lat="46.143168708780635" lon="9.805241985617405"><ele>704.0</ele><time>2026-04-25T16:05:29.018Z</time></trkpt><trkpt lat="46.14314391393774" lon="9.805133079938965"><ele>707.0</ele><time>2026-04-25T16:05:30.018Z</time></trkpt><trkpt lat="46.143107760513324" lon="9.805040705050956"><ele>710.0</ele><time>2026-04-25T16:05:31.018Z</time></trkpt><trkpt lat="46.14304780963979" lon="9.805004852915733"><ele>713.0</ele><time>2026-04-25T16:05:33.018Z</time></trkpt><trkpt lat="46.143020998651714" lon="9.804891782311572"><ele>713.0</ele><time>2026-04-25T16:05:35.018Z</time></trkpt><trkpt lat="46.14295340449557" lon="9.80481694837442"><ele>713.0</ele><time>2026-04-25T16:05:37.018Z</time></trkpt><trkpt lat="46.14287721740247" lon="9.80493986204165"><ele>713.0</ele><time>2026-04-25T16:05:39.019Z</time></trkpt><trkpt lat="46.14288449726042" lon="9.805037841189073"><ele>713.0</ele><time>2026-04-25T16:05:40.019Z</time></trkpt><trkpt lat="46.1428884039813" lon="9.805163173282823"><ele>713.0</ele><time>2026-04-25T16:05:41.019Z</time></trkpt><trkpt lat="46.142879612744544" lon="9.80528614146772"><ele>713.0</ele><time>2026-04-25T16:05:42.018Z</time></trkpt><trkpt lat="46.142888684594595" lon="9.805395304615267"><ele>713.5</ele><time>2026-04-25T16:05:43.018Z</time></trkpt><trkpt lat="46.14291940840818" lon="9.805497168752572"><ele>714.0</ele><time>2026-04-25T16:05:44.018Z</time></trkpt><trkpt lat="46.142959793391945" lon="9.805603714730742"><ele>714.5</ele><time>2026-04-25T16:05:45.018Z</time></trkpt><trkpt lat="46.14300292185528" lon="9.80572576742933"><ele>715.0</ele><time>2026-04-25T16:05:46.019Z</time></trkpt><trkpt lat="46.143038685398736" lon="9.805840298455433"><ele>715.5</ele><time>2026-04-25T16:05:47.019Z</time></trkpt><trkpt lat="46.14304850903821" lon="9.805957223907479"><ele>716.0</ele><time>2026-04-25T16:05:48.019Z</time></trkpt><trkpt lat="46.14304461926642" lon="9.80604961215986"><ele>716.6666666666666</ele><time>2026-04-25T16:05:49.019Z</time></trkpt><trkpt lat="46.14306653308161" lon="9.806144452923293"><ele>717.3333333333333</ele><time>2026-04-25T16:05:50.019Z</time></trkpt><trkpt lat="46.14307759554149" lon="9.80624953038424"><ele>718.0</ele><time>2026-04-25T16:05:51.019Z</time></trkpt><trkpt lat="46.143088593475376" lon="9.806364765276664"><ele>718.6666666666666</ele><time>2026-04-25T16:05:52.019Z</time></trkpt><trkpt lat="46.143085401831634" lon="9.806494008361168"><ele>719.3333333333334</ele><time>2026-04-25T16:05:53.019Z</time></trkpt><trkpt lat="46.14308705906861" lon="9.80660155591317"><ele>720.0</ele><time>2026-04-25T16:05:54.019Z</time></trkpt><trkpt lat="46.14304413410942" lon="9.806737588325097"><ele>722.4</ele><time>2026-04-25T16:05:56.019Z</time></trkpt><trkpt lat="46.142993182237554" lon="9.806846185979271"><ele>724.8</ele><time>2026-04-25T16:05:58.019Z</time></trkpt><trkpt lat="46.142973311365765" lon="9.807041951905664"><ele>727.2</ele><time>2026-04-25T16:06:00.019Z</time></trkpt><trkpt lat="46.14294623511903" lon="9.807165576448288"><ele>729.6</ele><time>2026-04-25T16:06:01.019Z</time></trkpt><trkpt lat="46.142911174003935" lon="9.80724483646891"><ele>732.0</ele><time>2026-04-25T16:06:02.019Z</time></trkpt><trkpt lat="46.1427891132617" lon="9.80734356880577"><ele>732.0</ele><time>2026-04-25T16:06:04.019Z</time></trkpt><trkpt lat="46.14273054930605" lon="9.807399171613369"><ele>732.0</ele><time>2026-04-25T16:06:05.019Z</time></trkpt><trkpt lat="46.14268078421416" lon="9.807539482929975"><ele>732.0</ele><time>2026-04-25T16:06:07.019Z</time></trkpt><trkpt lat="46.14264061294462" lon="9.807653009344763"><ele>732.0</ele><time>2026-04-25T16:06:09.019Z</time></trkpt><trkpt lat="46.142590468816834" lon="9.807771229473953"><ele>732.0</ele><time>2026-04-25T16:06:11.019Z</time></trkpt><trkpt lat="46.14252987735642" lon="9.80782869913473"><ele>732.0</ele><time>2026-04-25T16:06:12.019Z</time></trkpt><trkpt lat="46.142470481645965" lon="9.807866697084757"><ele>732.8</ele><time>2026-04-25T16:06:13.019Z</time></trkpt><trkpt lat="46.1424116917853" lon="9.807900200917583"><ele>733.6</ele><time>2026-04-25T16:06:14.019Z</time></trkpt><trkpt lat="46.14229873201956" lon="9.807927615564374"><ele>734.4</ele><time>2026-04-25T16:06:16.018Z</time></trkpt><trkpt lat="46.142202433795106" lon="9.807919631027918"><ele>735.1999999999999</ele><time>2026-04-25T16:06:17.018Z</time></trkpt><trkpt lat="46.142097471487915" lon="9.807875959042057"><ele>736.0</ele><time>2026-04-25T16:06:18.018Z</time></trkpt><trkpt lat="46.1419673789887" lon="9.807835398360337"><ele>741.4</ele><time>2026-04-25T16:06:19.018Z</time></trkpt><trkpt lat="46.14186348256155" lon="9.807804464234314"><ele>746.8</ele><time>2026-04-25T16:06:20.018Z</time></trkpt><trkpt lat="46.14178113738196" lon="9.80781806687974"><ele>752.1999999999999</ele><time>2026-04-25T16:06:21.018Z</time></trkpt><trkpt lat="46.14169733432906" lon="9.807836247638429"><ele>757.5999999999999</ele><time>2026-04-25T16:06:22.018Z</time></trkpt><trkpt lat="46.14159356934927" lon="9.807886886567754"><ele>763.0</ele><time>2026-04-25T16:06:24.018Z</time></trkpt><trkpt lat="46.14147167500975" lon="9.807930842504831"><ele>765.5</ele><time>2026-04-25T16:06:26.018Z</time></trkpt><trkpt lat="46.141410767433854" lon="9.807972095109262"><ele>768.0</ele><time>2026-04-25T16:06:27.018Z</time></trkpt><trkpt lat="46.14135237537899" lon="9.808010066631951"><ele>770.5</ele><time>2026-04-25T16:06:28.018Z</time></trkpt><trkpt lat="46.141346652080735" lon="9.808150555766828"><ele>773.0</ele><time>2026-04-25T16:06:30.018Z</time></trkpt><trkpt lat="46.141325620139796" lon="9.80830018026932"><ele>775.4999999999999</ele><time>2026-04-25T16:06:32.018Z</time></trkpt><trkpt lat="46.14127070899982" lon="9.808438068447973"><ele>778.0</ele><time>2026-04-25T16:06:34.018Z</time></trkpt><trkpt lat="46.14120764946699" lon="9.808563193009203"><ele>778.0</ele><time>2026-04-25T16:06:36.018Z</time></trkpt><trkpt lat="46.141171282760325" lon="9.808644217752537"><ele>778.0</ele><time>2026-04-25T16:06:37.018Z</time></trkpt><trkpt lat="46.141132223588414" lon="9.80874371295383"><ele>778.0</ele><time>2026-04-25T16:06:38.018Z</time></trkpt><trkpt lat="46.14107393526642" lon="9.808870266837907"><ele>778.0</ele><time>2026-04-25T16:06:39.018Z</time></trkpt><trkpt lat="46.140998861841034" lon="9.809009144162035"><ele>778.0</ele><time>2026-04-25T16:06:40.018Z</time></trkpt><trkpt lat="46.14093684937834" lon="9.809165386169807"><ele>777.4</ele><time>2026-04-25T16:06:41.018Z</time></trkpt><trkpt lat="46.140873902786595" lon="9.809334436794872"><ele>776.8</ele><time>2026-04-25T16:06:42.018Z</time></trkpt><trkpt lat="46.140840219517365" lon="9.809447715196322"><ele>776.2</ele><time>2026-04-25T16:06:43.018Z</time></trkpt><trkpt lat="46.14086350728706" lon="9.8095662291418"><ele>775.6</ele><time>2026-04-25T16:06:44.018Z</time></trkpt><trkpt lat="46.140884238217424" lon="9.809679655013118"><ele>775.0</ele><time>2026-04-25T16:06:45.018Z</time></trkpt><trkpt lat="46.14088191283733" lon="9.809806337127046"><ele>775.0</ele><time>2026-04-25T16:06:46.018Z</time></trkpt><trkpt lat="46.14085092633106" lon="9.809925581453822"><ele>775.0</ele><time>2026-04-25T16:06:47.018Z</time></trkpt><trkpt lat="46.14075636485323" lon="9.810037239122204"><ele>775.0</ele><time>2026-04-25T16:06:49.018Z</time></trkpt><trkpt lat="46.14068037906264" lon="9.81002988750988"><ele>775.0</ele><time>2026-04-25T16:06:50.018Z</time></trkpt><trkpt lat="46.14060667053205" lon="9.810018735018488"><ele>775.0</ele><time>2026-04-25T16:06:51.018Z</time></trkpt><trkpt lat="46.14051548098068" lon="9.809991540145225"><ele>775.2</ele><time>2026-04-25T16:06:52.018Z</time></trkpt><trkpt lat="46.140421480544376" lon="9.809998662194179"><ele>775.4</ele><time>2026-04-25T16:06:53.018Z</time></trkpt><trkpt lat="46.14031649602473" lon="9.809986506254218"><ele>775.5999999999999</ele><time>2026-04-25T16:06:54.018Z</time></trkpt><trkpt lat="46.14022195613424" lon="9.810025920176223"><ele>775.8</ele><time>2026-04-25T16:06:55.018Z</time></trkpt><trkpt lat="46.14015508693085" lon="9.810138306474345"><ele>776.0</ele><time>2026-04-25T16:06:56.018Z</time></trkpt><trkpt lat="46.140096474183686" lon="9.81024007913432"><ele>776.0</ele><time>2026-04-25T16:06:57.018Z</time></trkpt><trkpt lat="46.139971046575596" lon="9.810295824745088"><ele>776.0</ele><time>2026-04-25T16:06:59.018Z</time></trkpt><trkpt lat="46.13988688318921" lon="9.810305401103268"><ele>776.0</ele><time>2026-04-25T16:07:00.018Z</time></trkpt><trkpt lat="46.1397826514098" lon="9.810286076315652"><ele>776.0</ele><time>2026-04-25T16:07:01.018Z</time></trkpt><trkpt lat="46.13970392692369" lon="9.81024449821872"><ele>776.0</ele><time>2026-04-25T16:07:02.018Z</time></trkpt><trkpt lat="46.13966172506103" lon="9.810141116199963"><ele>790.5</ele><time>2026-04-25T16:07:04.018Z</time></trkpt><trkpt lat="46.13962790160129" lon="9.809975682166396"><ele>805.0</ele><time>2026-04-25T16:07:06.018Z</time></trkpt><trkpt lat="46.139516793534185" lon="9.809825378983234"><ele>819.5</ele><time>2026-04-25T16:07:08.018Z</time></trkpt><trkpt lat="46.1394458076612" lon="9.809726140581372"><ele>834.0</ele><time>2026-04-25T16:07:09.018Z</time></trkpt><trkpt lat="46.139388688050104" lon="9.809612453352994"><ele>834.0</ele><time>2026-04-25T16:07:10.018Z</time></trkpt><trkpt lat="46.139367106254554" lon="9.809483623211008"><ele>834.0</ele><time>2026-04-25T16:07:11.018Z</time></trkpt><trkpt lat="46.139356415607885" lon="9.809384442865218"><ele>834.0</ele><time>2026-04-25T16:07:12.018Z</time></trkpt><trkpt lat="46.13936070955077" lon="9.809260935378077"><ele>834.0</ele><time>2026-04-25T16:07:14.018Z</time></trkpt><trkpt lat="46.139253329272506" lon="9.809230397094995"><ele>834.0</ele><time>2026-04-25T16:07:16.018Z</time></trkpt><trkpt lat="46.139184841679594" lon="9.80925775726324"><ele>834.0</ele><time>2026-04-25T16:07:17.018Z</time></trkpt><trkpt lat="46.13909652134812" lon="9.809266653190598"><ele>838.4000000000001</ele><time>2026-04-25T16:07:18.018Z</time></trkpt><trkpt lat="46.13900929815343" lon="9.809376527689158"><ele>842.8</ele><time>2026-04-25T16:07:19.018Z</time></trkpt><trkpt lat="46.13896718470505" lon="9.809515926252189"><ele>847.1999999999999</ele><time>2026-04-25T16:07:20.018Z</time></trkpt><trkpt lat="46.13892610661645" lon="9.809663204242378"><ele>851.5999999999999</ele><time>2026-04-25T16:07:22.018Z</time></trkpt><trkpt lat="46.1389183225498" lon="9.809790400573773"><ele>856.0</ele><time>2026-04-25T16:07:24.018Z</time></trkpt><trkpt lat="46.13888514909856" lon="9.809940223422641"><ele>855.9999999999999</ele><time>2026-04-25T16:07:26.018Z</time></trkpt><trkpt lat="46.138824273247025" lon="9.809976909155548"><ele>856.0</ele><time>2026-04-25T16:07:27.018Z</time></trkpt><trkpt lat="46.138761066242026" lon="9.809951634810725"><ele>856.0</ele><time>2026-04-25T16:07:28.018Z</time></trkpt><trkpt lat="46.13870176809303" lon="9.809885688458907"><ele>856.0</ele><time>2026-04-25T16:07:29.018Z</time></trkpt><trkpt lat="46.1386571684888" lon="9.809782429774522"><ele>855.9999999999999</ele><time>2026-04-25T16:07:30.018Z</time></trkpt><trkpt lat="46.13862401351846" lon="9.80967468431385"><ele>856.0</ele><time>2026-04-25T16:07:31.018Z</time></trkpt><trkpt lat="46.13857195470739" lon="9.809569766995521"><ele>856.0</ele><time>2026-04-25T16:07:32.018Z</time></trkpt><trkpt lat="46.13849717528759" lon="9.809463942571941"><ele>855.9999999999999</ele><time>2026-04-25T16:07:33.018Z</time></trkpt><trkpt lat="46.13842363011155" lon="9.809388456777576"><ele>855.9999999999999</ele><time>2026-04-25T16:07:34.018Z</time></trkpt><trkpt lat="46.138295810531666" lon="9.80935996271886"><ele>856.0</ele><time>2026-04-25T16:07:36.018Z</time></trkpt><trkpt lat="46.1381962561256" lon="9.80930865331905"><ele>856.0</ele><time>2026-04-25T16:07:38.018Z</time></trkpt><trkpt lat="46.13814461739559" lon="9.809243103411728"><ele>867.4</ele><time>2026-04-25T16:07:40.019Z</time></trkpt><trkpt lat="46.13815774164067" lon="9.809126773921323"><ele>878.8</ele><time>2026-04-25T16:07:44.018Z</time></trkpt><trkpt lat="46.13816916603872" lon="9.809034362491804"><ele>890.1999999999999</ele><time>2026-04-25T16:07:46.019Z</time></trkpt><trkpt lat="46.138095090543736" lon="9.808869720380601"><ele>901.5999999999999</ele><time>2026-04-25T16:07:48.018Z</time></trkpt><trkpt lat="46.13801522554166" lon="9.808711695645608"><ele>913.0</ele><time>2026-04-25T16:07:50.018Z</time></trkpt><trkpt lat="46.137970998402515" lon="9.80857341328162"><ele>915.0</ele><time>2026-04-25T16:07:52.018Z</time></trkpt><trkpt lat="46.13790652619886" lon="9.808450056808242"><ele>917.0</ele><time>2026-04-25T16:07:54.018Z</time></trkpt><trkpt lat="46.13788420766431" lon="9.808359044748897"><ele>919.0</ele><time>2026-04-25T16:07:56.018Z</time></trkpt><trkpt lat="46.13782062019422" lon="9.808281500665455"><ele>921.0</ele><time>2026-04-25T16:07:58.018Z</time></trkpt><trkpt lat="46.13782730883393" lon="9.808146322161994"><ele>923.0</ele><time>2026-04-25T16:08:00.018Z</time></trkpt><trkpt lat="46.13783790768711" lon="9.807994133517807"><ele>923.0</ele><time>2026-04-25T16:08:02.018Z</time></trkpt><trkpt lat="46.137822561413564" lon="9.807830320812656"><ele>923.0</ele><time>2026-04-25T16:08:04.018Z</time></trkpt><trkpt lat="46.13779352802279" lon="9.807734723654832"><ele>923.0</ele><time>2026-04-25T16:08:05.018Z</time></trkpt><trkpt lat="46.13772121894866" lon="9.80753441718046"><ele>923.0</ele><time>2026-04-25T16:08:07.018Z</time></trkpt><trkpt lat="46.13766528936952" lon="9.807401325693167"><ele>923.0000000000001</ele><time>2026-04-25T16:08:08.018Z</time></trkpt><trkpt lat="46.13762311719171" lon="9.80728893396769"><ele>923.0</ele><time>2026-04-25T16:08:10.018Z</time></trkpt><trkpt lat="46.13758984419665" lon="9.807374404865696"><ele>923.0</ele><time>2026-04-25T16:08:12.018Z</time></trkpt><trkpt lat="46.13758397965217" lon="9.807480892662213"><ele>923.0</ele><time>2026-04-25T16:08:13.018Z</time></trkpt><trkpt lat="46.13756041419203" lon="9.807631380649983"><ele>923.0000000000001</ele><time>2026-04-25T16:08:14.018Z</time></trkpt><trkpt lat="46.137532106893985" lon="9.807773579657498"><ele>923.0</ele><time>2026-04-25T16:08:15.018Z</time></trkpt><trkpt lat="46.13748719783395" lon="9.80785796973827"><ele>923.0</ele><time>2026-04-25T16:08:16.018Z</time></trkpt><trkpt lat="46.13741822259743" lon="9.80779539366433"><ele>923.0</ele><time>2026-04-25T16:08:18.018Z</time></trkpt><trkpt lat="46.13738704203595" lon="9.807590821472512"><ele>923.0</ele><time>2026-04-25T16:08:20.018Z</time></trkpt><trkpt lat="46.13737626987024" lon="9.807445235667807"><ele>923.0</ele><time>2026-04-25T16:08:21.018Z</time></trkpt><trkpt lat="46.1373295472721" lon="9.80728520299913"><ele>923.0</ele><time>2026-04-25T16:08:22.018Z</time></trkpt><trkpt lat="46.1372838591383" lon="9.807181858449935"><ele>934.3333333333334</ele><time>2026-04-25T16:08:23.018Z</time></trkpt><trkpt lat="46.13723879236861" lon="9.807086179427602"><ele>945.6666666666667</ele><time>2026-04-25T16:08:24.018Z</time></trkpt><trkpt lat="46.137205742870236" lon="9.806997428457601"><ele>957.0</ele><time>2026-04-25T16:08:25.018Z</time></trkpt><trkpt lat="46.13715847806737" lon="9.806873547487884"><ele>968.3333333333333</ele><time>2026-04-25T16:08:27.018Z</time></trkpt><trkpt lat="46.13711192293828" lon="9.806738568552204"><ele>979.6666666666666</ele><time>2026-04-25T16:08:29.018Z</time></trkpt><trkpt lat="46.13708254495844" lon="9.806644810875168"><ele>991.0</ele><time>2026-04-25T16:08:30.018Z</time></trkpt><trkpt lat="46.137025124102195" lon="9.806522972434289"><ele>990.9999999999999</ele><time>2026-04-25T16:08:32.018Z</time></trkpt><trkpt lat="46.13700126924993" lon="9.806410878430631"><ele>991.0</ele><time>2026-04-25T16:08:34.018Z</time></trkpt><trkpt lat="46.13703563311165" lon="9.806490311879003"><ele>991.0</ele><time>2026-04-25T16:08:37.018Z</time></trkpt><trkpt lat="46.137020456300874" lon="9.80658911256626"><ele>991.0</ele><time>2026-04-25T16:08:44.018Z</time></trkpt><trkpt lat="46.136991466670786" lon="9.806711772714108"><ele>990.9999999999999</ele><time>2026-04-25T16:08:55.018Z</time></trkpt><trkpt lat="46.13691831584323" lon="9.806807926607293"><ele>991.0</ele><time>2026-04-25T16:08:57.018Z</time></trkpt><trkpt lat="46.13686520533708" lon="9.80692774109154"><ele>990.9999999999999</ele><time>2026-04-25T16:08:59.018Z</time></trkpt><trkpt lat="46.13677228725253" lon="9.806963766186545"><ele>991.0</ele><time>2026-04-25T16:09:02.018Z</time></trkpt><trkpt lat="46.13670024323672" lon="9.807010209900215"><ele>991.0</ele><time>2026-04-25T16:09:05.018Z</time></trkpt><trkpt lat="46.136672874780224" lon="9.80709914911919"><ele>991.0</ele><time>2026-04-25T16:09:13.018Z</time></trkpt><trkpt lat="46.13660390727733" lon="9.80710210595973"><ele>990.9999999999999</ele><time>2026-04-25T16:09:21.018Z</time></trkpt><trkpt lat="46.13655374673018" lon="9.807175698125729"><ele>991.0</ele><time>2026-04-25T16:09:37.018Z</time></trkpt><trkpt lat="46.136521855569" lon="9.807266683076733"><ele>996.6666666666666</ele><time>2026-04-25T16:09:42.018Z</time></trkpt><trkpt lat="46.136515421274964" lon="9.807390288410916"><ele>1002.3333333333333</ele><time>2026-04-25T16:09:45.019Z</time></trkpt><trkpt lat="46.136502989184194" lon="9.80751177868615"><ele>1008.0</ele><time>2026-04-25T16:09:47.019Z</time></trkpt><trkpt lat="46.136469020225036" lon="9.807605049071126"><ele>1013.6666666666667</ele><time>2026-04-25T16:09:49.018Z</time></trkpt><trkpt lat="46.136460479478096" lon="9.807704450505705"><ele>1019.3333333333334</ele><time>2026-04-25T16:09:52.019Z</time></trkpt><trkpt lat="46.13646313869068" lon="9.807819112214629"><ele>1025.0</ele><time>2026-04-25T16:09:57.019Z</time></trkpt><trkpt lat="46.13643029159056" lon="9.807916037600522"><ele>1025.0</ele><time>2026-04-25T16:10:00.019Z</time></trkpt><trkpt lat="46.136375611149816" lon="9.807976264761564"><ele>1025.0</ele><time>2026-04-25T16:10:02.019Z</time></trkpt><trkpt lat="46.136350309800584" lon="9.808108755921609"><ele>1025.0</ele><time>2026-04-25T16:10:04.018Z</time></trkpt><trkpt lat="46.13632524226007" lon="9.808003335802798"><ele>1025.0</ele><time>2026-04-25T16:10:08.018Z</time></trkpt><trkpt lat="46.13630123913308" lon="9.807833031812134"><ele>1025.0</ele><time>2026-04-25T16:10:10.018Z</time></trkpt><trkpt lat="46.13623098229936" lon="9.807723675942988"><ele>1025.0</ele><time>2026-04-25T16:10:12.018Z</time></trkpt><trkpt lat="46.136179197551485" lon="9.807588734872551"><ele>1025.0</ele><time>2026-04-25T16:10:14.018Z</time></trkpt><trkpt lat="46.13614692855743" lon="9.807723924613018"><ele>1025.0</ele><time>2026-04-25T16:10:20.018Z</time></trkpt><trkpt lat="46.13612605316216" lon="9.80784477877648"><ele>1025.0</ele><time>2026-04-25T16:10:22.018Z</time></trkpt><trkpt lat="46.136120736839445" lon="9.807976302383436"><ele>1025.0</ele><time>2026-04-25T16:10:24.018Z</time></trkpt><trkpt lat="46.13607241298394" lon="9.808040943262462"><ele>1025.0</ele><time>2026-04-25T16:10:27.018Z</time></trkpt><trkpt lat="46.136021982331634" lon="9.808120287031466"><ele>1025.0</ele><time>2026-04-25T16:11:14.018Z</time></trkpt><trkpt lat="46.13597002285659" lon="9.807927713170095"><ele>1025.0</ele><time>2026-04-25T16:11:18.018Z</time></trkpt><trkpt lat="46.13597494565375" lon="9.807804019528044"><ele>1025.0</ele><time>2026-04-25T16:11:19.018Z</time></trkpt><trkpt lat="46.135974593790074" lon="9.807681101317979"><ele>1025.0</ele><time>2026-04-25T16:11:20.018Z</time></trkpt><trkpt lat="46.135989493491195" lon="9.807575301804867"><ele>1025.0</ele><time>2026-04-25T16:11:22.018Z</time></trkpt><trkpt lat="46.13591189670966" lon="9.80753444282975"><ele>1026.7142857142856</ele><time>2026-04-25T16:11:45.018Z</time></trkpt><trkpt lat="46.13583607384501" lon="9.807562255909414"><ele>1028.4285714285713</ele><time>2026-04-25T16:11:47.018Z</time></trkpt><trkpt lat="46.13590116395849" lon="9.807547069694262"><ele>1030.142857142857</ele><time>2026-04-25T16:12:29.018Z</time></trkpt><trkpt lat="46.135965912067995" lon="9.807570264899429"><ele>1031.8571428571427</ele><time>2026-04-25T16:12:32.018Z</time></trkpt><trkpt lat="46.136015947504276" lon="9.80748553781351"><ele>1033.5714285714284</ele><time>2026-04-25T16:12:35.018Z</time></trkpt><trkpt lat="46.136017452679894" lon="9.80738872491515"><ele>1035.2857142857142</ele><time>2026-04-25T16:12:37.018Z</time></trkpt><trkpt lat="46.13602777598894" lon="9.80728186360496"><ele>1037.0</ele><time>2026-04-25T16:12:39.018Z</time></trkpt><trkpt lat="46.13604255400159" lon="9.807183025249545"><ele>1037.0</ele><time>2026-04-25T16:12:41.018Z</time></trkpt><trkpt lat="46.13606026042348" lon="9.807076741803577"><ele>1037.0</ele><time>2026-04-25T16:12:43.018Z</time></trkpt><trkpt lat="46.13611290812556" lon="9.80702544948225"><ele>1037.0</ele><time>2026-04-25T16:12:45.018Z</time></trkpt><trkpt lat="46.136151813545276" lon="9.806915623465846"><ele>1037.0</ele><time>2026-04-25T16:12:47.018Z</time></trkpt><trkpt lat="46.13617329622077" lon="9.806770799921912"><ele>1037.0</ele><time>2026-04-25T16:12:49.018Z</time></trkpt><trkpt lat="46.13619409341181" lon="9.80662972844402"><ele>1037.0</ele><time>2026-04-25T16:12:51.018Z</time></trkpt><trkpt lat="46.13616925827195" lon="9.806443285800547"><ele>1039.6</ele><time>2026-04-25T16:12:53.018Z</time></trkpt><trkpt lat="46.13610895666321" lon="9.80634124964802"><ele>1042.2</ele><time>2026-04-25T16:12:54.018Z</time></trkpt><trkpt lat="46.136051219727825" lon="9.806224278475842"><ele>1044.8</ele><time>2026-04-25T16:12:56.018Z</time></trkpt><trkpt lat="46.13601741616105" lon="9.806077876318835"><ele>1047.4</ele><time>2026-04-25T16:12:58.018Z</time></trkpt><trkpt lat="46.13595087846699" lon="9.805940781450344"><ele>1050.0</ele><time>2026-04-25T16:13:00.018Z</time></trkpt><trkpt lat="46.13590857914345" lon="9.805863481661842"><ele>1051.8</ele><time>2026-04-25T16:13:01.018Z</time></trkpt><trkpt lat="46.13589488152081" lon="9.805652517543791"><ele>1053.6</ele><time>2026-04-25T16:13:03.018Z</time></trkpt><trkpt lat="46.135900379737365" lon="9.805488211615598"><ele>1055.4</ele><time>2026-04-25T16:13:04.018Z</time></trkpt><trkpt lat="46.13591045376584" lon="9.805321378899334"><ele>1057.2</ele><time>2026-04-25T16:13:05.018Z</time></trkpt><trkpt lat="46.13589873699711" lon="9.805227957813898"><ele>1059.0</ele><time>2026-04-25T16:13:06.018Z</time></trkpt><trkpt lat="46.1358537858469" lon="9.805368985943543"><ele>1059.0</ele><time>2026-04-25T16:13:10.018Z</time></trkpt><trkpt lat="46.13585162319718" lon="9.805492964835587"><ele>1059.0</ele><time>2026-04-25T16:13:11.018Z</time></trkpt><trkpt lat="46.13581795522302" lon="9.805616332678543"><ele>1059.0</ele><time>2026-04-25T16:13:12.018Z</time></trkpt><trkpt lat="46.13579074449854" lon="9.805770936461467"><ele>1059.0</ele><time>2026-04-25T16:13:13.018Z</time></trkpt><trkpt lat="46.13575226448998" lon="9.805918383467906"><ele>1059.0</ele><time>2026-04-25T16:13:14.018Z</time></trkpt><trkpt lat="46.135710418456064" lon="9.806036782836912"><ele>1065.8</ele><time>2026-04-25T16:13:15.018Z</time></trkpt><trkpt lat="46.135685191556604" lon="9.806151402277147"><ele>1072.6000000000001</ele><time>2026-04-25T16:13:16.018Z</time></trkpt><trkpt lat="46.13567051960015" lon="9.806287074226047"><ele>1079.4</ele><time>2026-04-25T16:13:17.018Z</time></trkpt><trkpt lat="46.13564252388484" lon="9.806423727668673"><ele>1086.2</ele><time>2026-04-25T16:13:18.018Z</time></trkpt><trkpt lat="46.13561448210756" lon="9.80654941353645"><ele>1093.0</ele><time>2026-04-25T16:13:19.018Z</time></trkpt><trkpt lat="46.13557092803055" lon="9.806689995452091"><ele>1088.25</ele><time>2026-04-25T16:13:20.018Z</time></trkpt><trkpt lat="46.135526845803064" lon="9.806838932088214"><ele>1083.5</ele><time>2026-04-25T16:13:21.018Z</time></trkpt><trkpt lat="46.135449783281935" lon="9.807002617559762"><ele>1078.75</ele><time>2026-04-25T16:13:22.018Z</time></trkpt><trkpt lat="46.13538059541917" lon="9.807153597031196"><ele>1074.0</ele><time>2026-04-25T16:13:23.018Z</time></trkpt><trkpt lat="46.13531623329239" lon="9.807301198975152"><ele>1074.0</ele><time>2026-04-25T16:13:24.018Z</time></trkpt><trkpt lat="46.13524012006223" lon="9.807412064091091"><ele>1074.0</ele><time>2026-04-25T16:13:25.018Z</time></trkpt><trkpt lat="46.1351533045004" lon="9.807484431288167"><ele>1074.0</ele><time>2026-04-25T16:13:26.018Z</time></trkpt><trkpt lat="46.13506142204307" lon="9.807529105898311"><ele>1074.0</ele><time>2026-04-25T16:13:27.018Z</time></trkpt><trkpt lat="46.1349545906288" lon="9.807565825888668"><ele>1074.0</ele><time>2026-04-25T16:13:28.018Z</time></trkpt><trkpt lat="46.134851231905195" lon="9.80759823941771"><ele>1076.3333333333333</ele><time>2026-04-25T16:13:29.018Z</time></trkpt><trkpt lat="46.13476751805533" lon="9.807629942605075"><ele>1078.6666666666667</ele><time>2026-04-25T16:13:30.018Z</time></trkpt><trkpt lat="46.13468755653458" lon="9.807641596499856"><ele>1081.0</ele><time>2026-04-25T16:13:31.018Z</time></trkpt><trkpt lat="46.13461415692098" lon="9.807629383901324"><ele>1083.3333333333335</ele><time>2026-04-25T16:13:32.018Z</time></trkpt><trkpt lat="46.13454852820591" lon="9.80758791075403"><ele>1085.6666666666667</ele><time>2026-04-25T16:13:33.018Z</time></trkpt><trkpt lat="46.1344690999312" lon="9.807548479948181"><ele>1088.0</ele><time>2026-04-25T16:13:34.018Z</time></trkpt><trkpt lat="46.13439026491436" lon="9.807490777099652"><ele>1088.0</ele><time>2026-04-25T16:13:35.018Z</time></trkpt><trkpt lat="46.134313181906585" lon="9.80742993626709"><ele>1088.0</ele><time>2026-04-25T16:13:36.018Z</time></trkpt><trkpt lat="46.13423182896063" lon="9.807359174812957"><ele>1088.0</ele><time>2026-04-25T16:13:37.018Z</time></trkpt><trkpt lat="46.134163753147824" lon="9.807309269957866"><ele>1088.0</ele><time>2026-04-25T16:13:38.018Z</time></trkpt><trkpt lat="46.13408506679387" lon="9.807263449723449"><ele>1088.0</ele><time>2026-04-25T16:13:39.018Z</time></trkpt><trkpt lat="46.13400434414407" lon="9.807195455940814"><ele>1088.0</ele><time>2026-04-25T16:13:40.018Z</time></trkpt><trkpt lat="46.13391490390157" lon="9.8071115559982"><ele>1088.2</ele><time>2026-04-25T16:13:41.018Z</time></trkpt><trkpt lat="46.13383329852273" lon="9.807009042359622"><ele>1088.4</ele><time>2026-04-25T16:13:42.018Z</time></trkpt><trkpt lat="46.133764736407564" lon="9.806911954017915"><ele>1088.6000000000001</ele><time>2026-04-25T16:13:43.018Z</time></trkpt><trkpt lat="46.13370600265471" lon="9.80684391994201"><ele>1088.8</ele><time>2026-04-25T16:13:44.018Z</time></trkpt><trkpt lat="46.133621696092106" lon="9.806777768837044"><ele>1089.0</ele><time>2026-04-25T16:13:46.018Z</time></trkpt><trkpt lat="46.133663724581" lon="9.806676312193721"><ele>1093.3333333333333</ele><time>2026-04-25T16:13:48.018Z</time></trkpt><trkpt lat="46.133747783671836" lon="9.806640609478892"><ele>1097.6666666666667</ele><time>2026-04-25T16:13:49.018Z</time></trkpt><trkpt lat="46.1338309948348" lon="9.806628598942858"><ele>1102.0</ele><time>2026-04-25T16:13:50.018Z</time></trkpt><trkpt lat="46.13392504046922" lon="9.806644934148668"><ele>1106.3333333333335</ele><time>2026-04-25T16:13:51.018Z</time></trkpt><trkpt lat="46.13401634506219" lon="9.8066723072614"><ele>1110.6666666666667</ele><time>2026-04-25T16:13:52.018Z</time></trkpt><trkpt lat="46.13409445980329" lon="9.806713800960665"><ele>1115.0</ele><time>2026-04-25T16:13:53.018Z</time></trkpt><trkpt lat="46.13415867115759" lon="9.80674538528921"><ele>1115.0</ele><time>2026-04-25T16:13:54.018Z</time></trkpt><trkpt lat="46.13423407585823" lon="9.806701410867745"><ele>1115.0</ele><time>2026-04-25T16:13:55.018Z</time></trkpt><trkpt lat="46.134330335013466" lon="9.806647476367829"><ele>1115.0</ele><time>2026-04-25T16:13:56.018Z</time></trkpt><trkpt lat="46.13438242476373" lon="9.806561792470719"><ele>1115.0</ele><time>2026-04-25T16:13:58.018Z</time></trkpt><trkpt lat="46.13434577403736" lon="9.806337087878592"><ele>1115.0</ele><time>2026-04-25T16:14:00.018Z</time></trkpt><trkpt lat="46.134309597244986" lon="9.806190875034618"><ele>1115.0</ele><time>2026-04-25T16:14:01.018Z</time></trkpt><trkpt lat="46.134343184855126" lon="9.806084406669207"><ele>1115.0</ele><time>2026-04-25T16:14:02.018Z</time></trkpt><trkpt lat="46.13442336574864" lon="9.805993882177132"><ele>1115.0</ele><time>2026-04-25T16:14:03.018Z</time></trkpt><trkpt lat="46.134502312768994" lon="9.805874521033896"><ele>1115.0</ele><time>2026-04-25T16:14:04.018Z</time></trkpt><trkpt lat="46.13455078961285" lon="9.805747669520391"><ele>1115.0</ele><time>2026-04-25T16:14:05.018Z</time></trkpt><trkpt lat="46.13456638489693" lon="9.805599905667147"><ele>1120.2</ele><time>2026-04-25T16:14:06.019Z</time></trkpt><trkpt lat="46.13455761660299" lon="9.80543359865148"><ele>1125.4</ele><time>2026-04-25T16:14:07.018Z</time></trkpt><trkpt lat="46.13453647859064" lon="9.80531287243484"><ele>1130.6</ele><time>2026-04-25T16:14:08.018Z</time></trkpt><trkpt lat="46.13446969820604" lon="9.805200248455613"><ele>1135.8</ele><time>2026-04-25T16:14:09.018Z</time></trkpt><trkpt lat="46.13437936569862" lon="9.805064438820537"><ele>1141.0</ele><time>2026-04-25T16:14:10.018Z</time></trkpt><trkpt lat="46.13429943041122" lon="9.804914237978736"><ele>1144.1666666666665</ele><time>2026-04-25T16:14:11.018Z</time></trkpt><trkpt lat="46.13425434039525" lon="9.804768076018702"><ele>1147.3333333333333</ele><time>2026-04-25T16:14:12.018Z</time></trkpt><trkpt lat="46.1342273686801" lon="9.804664927975722"><ele>1150.5</ele><time>2026-04-25T16:14:13.018Z</time></trkpt><trkpt lat="46.134199679771335" lon="9.804579274307603"><ele>1153.6666666666667</ele><time>2026-04-25T16:14:15.018Z</time></trkpt><trkpt lat="46.13418006992826" lon="9.804474574611525"><ele>1156.8333333333335</ele><time>2026-04-25T16:14:35.018Z</time></trkpt><trkpt lat="46.13417058017553" lon="9.804344139353825"><ele>1160.0</ele><time>2026-04-25T16:14:36.018Z</time></trkpt><trkpt lat="46.134153024683556" lon="9.804191601602401"><ele>1163.25</ele><time>2026-04-25T16:14:37.018Z</time></trkpt><trkpt lat="46.13412851432757" lon="9.804024410243533"><ele>1166.5</ele><time>2026-04-25T16:14:38.018Z</time></trkpt><trkpt lat="46.134109948166646" lon="9.803862657056591"><ele>1169.75</ele><time>2026-04-25T16:14:39.018Z</time></trkpt><trkpt lat="46.13410747296465" lon="9.803681933573259"><ele>1173.0</ele><time>2026-04-25T16:14:40.018Z</time></trkpt><trkpt lat="46.134104493796315" lon="9.8035081399976"><ele>1175.5</ele><time>2026-04-25T16:14:41.018Z</time></trkpt><trkpt lat="46.13412599881676" lon="9.803343314438367"><ele>1178.0</ele><time>2026-04-25T16:14:42.018Z</time></trkpt><trkpt lat="46.13412573446235" lon="9.803136284755658"><ele>1180.5</ele><time>2026-04-25T16:14:43.018Z</time></trkpt><trkpt lat="46.134116642857094" lon="9.802920782901955"><ele>1183.0</ele><time>2026-04-25T16:14:44.018Z</time></trkpt><trkpt lat="46.13412745557357" lon="9.802728244597128"><ele>1184.25</ele><time>2026-04-25T16:14:45.018Z</time></trkpt><trkpt lat="46.134127460355025" lon="9.802521446233117"><ele>1185.5</ele><time>2026-04-25T16:14:46.018Z</time></trkpt><trkpt lat="46.1341288798808" lon="9.802369817866351"><ele>1186.75</ele><time>2026-04-25T16:14:47.018Z</time></trkpt><trkpt lat="46.13412548139369" lon="9.802234678710489"><ele>1188.0</ele><time>2026-04-25T16:14:48.018Z</time></trkpt><trkpt lat="46.134112717938805" lon="9.802077899399528"><ele>1188.0</ele><time>2026-04-25T16:14:49.018Z</time></trkpt><trkpt lat="46.1340947984169" lon="9.801916089614346"><ele>1188.0</ele><time>2026-04-25T16:14:50.018Z</time></trkpt><trkpt lat="46.13407447190762" lon="9.80171822534014"><ele>1188.0</ele><time>2026-04-25T16:14:51.018Z</time></trkpt><trkpt lat="46.1340510714155" lon="9.801537998850403"><ele>1188.0</ele><time>2026-04-25T16:14:52.018Z</time></trkpt><trkpt lat="46.13401889612677" lon="9.80138176683342"><ele>1197.0</ele><time>2026-04-25T16:14:53.018Z</time></trkpt><trkpt lat="46.13397398083316" lon="9.801268511750898"><ele>1206.0</ele><time>2026-04-25T16:14:54.018Z</time></trkpt><trkpt lat="46.13392779163646" lon="9.80119898996341"><ele>1215.0</ele><time>2026-04-25T16:14:55.018Z</time></trkpt><trkpt lat="46.13384007595343" lon="9.801096497470931"><ele>1224.0</ele><time>2026-04-25T16:14:57.018Z</time></trkpt><trkpt lat="46.13383564660046" lon="9.800994403773387"><ele>1233.0</ele><time>2026-04-25T16:14:58.018Z</time></trkpt><trkpt lat="46.13390350241393" lon="9.800911681984573"><ele>1242.0</ele><time>2026-04-25T16:14:59.018Z</time></trkpt><trkpt lat="46.13394359320529" lon="9.800826935705379"><ele>1242.0</ele><time>2026-04-25T16:15:00.018Z</time></trkpt><trkpt lat="46.133901103362355" lon="9.800729878941127"><ele>1242.0</ele><time>2026-04-25T16:15:01.018Z</time></trkpt><trkpt lat="46.13383970247846" lon="9.800664996261725"><ele>1242.0</ele><time>2026-04-25T16:15:03.018Z</time></trkpt><trkpt lat="46.133805137904766" lon="9.80051294265069"><ele>1242.0</ele><time>2026-04-25T16:15:04.018Z</time></trkpt><trkpt lat="46.133807815765024" lon="9.800354257202038"><ele>1242.0</ele><time>2026-04-25T16:15:05.018Z</time></trkpt><trkpt lat="46.133871685387845" lon="9.80023781648118"><ele>1241.8</ele><time>2026-04-25T16:15:06.018Z</time></trkpt><trkpt lat="46.13392784966358" lon="9.80010661847072"><ele>1241.6</ele><time>2026-04-25T16:15:07.018Z</time></trkpt><trkpt lat="46.13396326538118" lon="9.799999877812887"><ele>1241.3999999999999</ele><time>2026-04-25T16:15:08.018Z</time></trkpt><trkpt lat="46.133980478214575" lon="9.799849805512743"><ele>1241.2</ele><time>2026-04-25T16:15:09.018Z</time></trkpt><trkpt lat="46.13398825739365" lon="9.799717125958908"><ele>1241.0</ele><time>2026-04-25T16:15:10.018Z</time></trkpt><trkpt lat="46.133993621150424" lon="9.79959177884618"><ele>1241.0</ele><time>2026-04-25T16:15:11.018Z</time></trkpt><trkpt lat="46.13397988595423" lon="9.799421756988814"><ele>1241.0</ele><time>2026-04-25T16:15:12.018Z</time></trkpt><trkpt lat="46.133967475233355" lon="9.799286022572563"><ele>1241.0</ele><time>2026-04-25T16:15:13.018Z</time></trkpt><trkpt lat="46.13395984482423" lon="9.799148098003004"><ele>1241.0</ele><time>2026-04-25T16:15:14.018Z</time></trkpt><trkpt lat="46.133942844485375" lon="9.799009829569188"><ele>1241.0</ele><time>2026-04-25T16:15:15.018Z</time></trkpt><trkpt lat="46.133921542991814" lon="9.798876450224418"><ele>1238.6</ele><time>2026-04-25T16:15:16.018Z</time></trkpt><trkpt lat="46.1338747953107" lon="9.798772455773653"><ele>1236.1999999999998</ele><time>2026-04-25T16:15:17.018Z</time></trkpt><trkpt lat="46.133829138602486" lon="9.79869746941469"><ele>1233.8000000000002</ele><time>2026-04-25T16:15:18.018Z</time></trkpt><trkpt lat="46.133755196489474" lon="9.798617048455602"><ele>1231.4</ele><time>2026-04-25T16:15:19.018Z</time></trkpt><trkpt lat="46.13364180894291" lon="9.798511990340828"><ele>1229.0</ele><time>2026-04-25T16:15:20.018Z</time></trkpt><trkpt lat="46.1335584887013" lon="9.798409126644138"><ele>1226.6000000000001</ele><time>2026-04-25T16:15:21.018Z</time></trkpt><trkpt lat="46.13347448737767" lon="9.798280300033628"><ele>1224.2</ele><time>2026-04-25T16:15:22.018Z</time></trkpt><trkpt lat="46.13342309371387" lon="9.798160371069235"><ele>1221.8000000000002</ele><time>2026-04-25T16:15:23.018Z</time></trkpt><trkpt lat="46.13341764122179" lon="9.798061836133868"><ele>1219.4</ele><time>2026-04-25T16:15:24.018Z</time></trkpt><trkpt lat="46.13344017904253" lon="9.797940227459236"><ele>1217.0</ele><time>2026-04-25T16:15:25.018Z</time></trkpt><trkpt lat="46.13349843222193" lon="9.79781643265062"><ele>1217.0</ele><time>2026-04-25T16:15:26.018Z</time></trkpt><trkpt lat="46.133580177532366" lon="9.797695359442697"><ele>1217.0</ele><time>2026-04-25T16:15:27.018Z</time></trkpt><trkpt lat="46.133606397074544" lon="9.797591558877832"><ele>1217.0</ele><time>2026-04-25T16:15:28.018Z</time></trkpt><trkpt lat="46.13360878880164" lon="9.797496500836676"><ele>1217.0</ele><time>2026-04-25T16:15:29.018Z</time></trkpt><trkpt lat="46.133580805202214" lon="9.79739048889467"><ele>1217.0</ele><time>2026-04-25T16:15:30.018Z</time></trkpt><trkpt lat="46.13352577735557" lon="9.797298349911447"><ele>1217.0</ele><time>2026-04-25T16:15:31.018Z</time></trkpt><trkpt lat="46.13346249446872" lon="9.7972215341777"><ele>1215.4</ele><time>2026-04-25T16:15:32.018Z</time></trkpt><trkpt lat="46.13338520106944" lon="9.797143255311994"><ele>1213.8000000000002</ele><time>2026-04-25T16:15:33.018Z</time></trkpt><trkpt lat="46.13330005086164" lon="9.797058510276633"><ele>1212.2</ele><time>2026-04-25T16:15:34.018Z</time></trkpt><trkpt lat="46.13321162839817" lon="9.79698546372151"><ele>1210.6000000000001</ele><time>2026-04-25T16:15:35.018Z</time></trkpt><trkpt lat="46.13313429934859" lon="9.796910972846232"><ele>1209.0</ele><time>2026-04-25T16:15:36.018Z</time></trkpt><trkpt lat="46.133086560207886" lon="9.796839023404145"><ele>1209.8</ele><time>2026-04-25T16:15:37.018Z</time></trkpt><trkpt lat="46.13304434427579" lon="9.796770785712782"><ele>1210.6000000000001</ele><time>2026-04-25T16:15:38.017Z</time></trkpt><trkpt lat="46.13312933449369" lon="9.796604067265926"><ele>1211.4</ele><time>2026-04-25T16:15:40.017Z</time></trkpt><trkpt lat="46.13322391465708" lon="9.796523798972256"><ele>1212.2</ele><time>2026-04-25T16:15:41.017Z</time></trkpt><trkpt lat="46.13333209493846" lon="9.796500007725772"><ele>1213.0</ele><time>2026-04-25T16:15:42.017Z</time></trkpt><trkpt lat="46.133425415712814" lon="9.796420747952727"><ele>1213.0</ele><time>2026-04-25T16:15:43.017Z</time></trkpt><trkpt lat="46.13353088334698" lon="9.796341372018059"><ele>1213.0</ele><time>2026-04-25T16:15:44.017Z</time></trkpt><trkpt lat="46.133645673792124" lon="9.796246059369945"><ele>1213.0</ele><time>2026-04-25T16:15:45.017Z</time></trkpt><trkpt lat="46.13371871616776" lon="9.796179041471838"><ele>1213.0</ele><time>2026-04-25T16:15:46.017Z</time></trkpt><trkpt lat="46.13378120903622" lon="9.79612541857446"><ele>1213.0</ele><time>2026-04-25T16:15:47.017Z</time></trkpt><trkpt lat="46.13382897585182" lon="9.79597749420221"><ele>1218.2</ele><time>2026-04-25T16:15:49.017Z</time></trkpt><trkpt lat="46.13387293385948" lon="9.79575748926674"><ele>1223.4</ele><time>2026-04-25T16:15:51.017Z</time></trkpt><trkpt lat="46.133943257790165" lon="9.795693772478494"><ele>1228.6000000000001</ele><time>2026-04-25T16:15:52.017Z</time></trkpt><trkpt lat="46.134014195792254" lon="9.795571805142623"><ele>1233.8</ele><time>2026-04-25T16:15:54.017Z</time></trkpt><trkpt lat="46.134025464028525" lon="9.795459315359144"><ele>1239.0</ele><time>2026-04-25T16:15:55.017Z</time></trkpt><trkpt lat="46.1340674643944" lon="9.795353276010703"><ele>1234.1666666666667</ele><time>2026-04-25T16:15:56.017Z</time></trkpt><trkpt lat="46.13411534949768" lon="9.795256198735006"><ele>1229.3333333333333</ele><time>2026-04-25T16:15:57.017Z</time></trkpt><trkpt lat="46.13416284071011" lon="9.795169853545831"><ele>1224.5</ele><time>2026-04-25T16:15:58.017Z</time></trkpt><trkpt lat="46.13421112315496" lon="9.795084301820678"><ele>1219.6666666666665</ele><time>2026-04-25T16:15:59.017Z</time></trkpt><trkpt lat="46.13425362334266" lon="9.7949479579799"><ele>1214.8333333333333</ele><time>2026-04-25T16:16:00.017Z</time></trkpt><trkpt lat="46.13430623844011" lon="9.794821598844933"><ele>1210.0</ele><time>2026-04-25T16:16:01.017Z</time></trkpt><trkpt lat="46.134347339823705" lon="9.794717864758013"><ele>1210.0</ele><time>2026-04-25T16:16:02.017Z</time></trkpt><trkpt lat="46.134396670785456" lon="9.794610789313927"><ele>1210.0</ele><time>2026-04-25T16:16:03.018Z</time></trkpt><trkpt lat="46.134444806494635" lon="9.794520657828299"><ele>1210.0</ele><time>2026-04-25T16:16:04.019Z</time></trkpt><trkpt lat="46.13449350143212" lon="9.794451950978052"><ele>1210.0</ele><time>2026-04-25T16:16:05.019Z</time></trkpt><trkpt lat="46.13454475740479" lon="9.794386482968264"><ele>1210.0</ele><time>2026-04-25T16:16:06.019Z</time></trkpt><trkpt lat="46.13463237148115" lon="9.794264083332795"><ele>1210.0</ele><time>2026-04-25T16:16:08.018Z</time></trkpt><trkpt lat="46.134673234810656" lon="9.79415000251462"><ele>1214.4</ele><time>2026-04-25T16:16:09.019Z</time></trkpt><trkpt lat="46.13471325068276" lon="9.794033452506262"><ele>1218.8</ele><time>2026-04-25T16:16:10.018Z</time></trkpt><trkpt lat="46.13472550119877" lon="9.79389038532814"><ele>1223.2</ele><time>2026-04-25T16:16:11.018Z</time></trkpt><trkpt lat="46.13471271581504" lon="9.79374899046214"><ele>1227.6</ele><time>2026-04-25T16:16:12.018Z</time></trkpt><trkpt lat="46.134685006447015" lon="9.793588287248959"><ele>1232.0</ele><time>2026-04-25T16:16:13.019Z</time></trkpt><trkpt lat="46.1346737958733" lon="9.793416670264833"><ele>1235.25</ele><time>2026-04-25T16:16:14.019Z</time></trkpt><trkpt lat="46.134700150746575" lon="9.79322167209182"><ele>1238.5</ele><time>2026-04-25T16:16:15.018Z</time></trkpt><trkpt lat="46.13471990469984" lon="9.793040144258114"><ele>1241.75</ele><time>2026-04-25T16:16:16.019Z</time></trkpt><trkpt lat="46.13473908180696" lon="9.792865686688135"><ele>1245.0</ele><time>2026-04-25T16:16:17.019Z</time></trkpt><trkpt lat="46.13475613786424" lon="9.792756000380352"><ele>1246.1666666666667</ele><time>2026-04-25T16:16:18.019Z</time></trkpt><trkpt lat="46.13478024925283" lon="9.792648935559043"><ele>1247.3333333333333</ele><time>2026-04-25T16:16:19.019Z</time></trkpt><trkpt lat="46.134814696346325" lon="9.792519470110408"><ele>1248.5</ele><time>2026-04-25T16:16:20.019Z</time></trkpt><trkpt lat="46.134865256077006" lon="9.792405163572612"><ele>1249.6666666666665</ele><time>2026-04-25T16:16:21.019Z</time></trkpt><trkpt lat="46.13492010452127" lon="9.792287020801306"><ele>1250.8333333333333</ele><time>2026-04-25T16:16:22.019Z</time></trkpt><trkpt lat="46.13493344687186" lon="9.79217247054404"><ele>1252.0</ele><time>2026-04-25T16:16:23.019Z</time></trkpt><trkpt lat="46.13493342644861" lon="9.792064154629383"><ele>1253.4</ele><time>2026-04-25T16:16:24.019Z</time></trkpt><trkpt lat="46.13490728971822" lon="9.791923704653403"><ele>1254.8000000000002</ele><time>2026-04-25T16:16:25.019Z</time></trkpt><trkpt lat="46.13488166412858" lon="9.791762579399872"><ele>1256.2</ele><time>2026-04-25T16:16:26.019Z</time></trkpt><trkpt lat="46.13484680822059" lon="9.791618731754873"><ele>1257.6000000000001</ele><time>2026-04-25T16:16:27.019Z</time></trkpt><trkpt lat="46.134824525530284" lon="9.791499384542249"><ele>1259.0</ele><time>2026-04-25T16:16:28.019Z</time></trkpt><trkpt lat="46.13483023848703" lon="9.791388822532108"><ele>1259.0</ele><time>2026-04-25T16:16:29.019Z</time></trkpt><trkpt lat="46.134831287843646" lon="9.791242504747169"><ele>1259.0</ele><time>2026-04-25T16:16:30.019Z</time></trkpt><trkpt lat="46.1348409957666" lon="9.791090099336722"><ele>1259.0</ele><time>2026-04-25T16:16:31.019Z</time></trkpt><trkpt lat="46.13483396822849" lon="9.790956345164698"><ele>1259.0</ele><time>2026-04-25T16:16:32.019Z</time></trkpt><trkpt lat="46.13482665078124" lon="9.790853656487712"><ele>1259.0</ele><time>2026-04-25T16:16:33.019Z</time></trkpt><trkpt lat="46.13477357220334" lon="9.790660952361057"><ele>1263.0</ele><time>2026-04-25T16:16:35.019Z</time></trkpt><trkpt lat="46.134715288674705" lon="9.790541466663095"><ele>1267.0</ele><time>2026-04-25T16:16:36.019Z</time></trkpt><trkpt lat="46.13466943839787" lon="9.790387872520554"><ele>1271.0</ele><time>2026-04-25T16:16:37.019Z</time></trkpt><trkpt lat="46.13463909245705" lon="9.79022702952763"><ele>1275.0</ele><time>2026-04-25T16:16:38.019Z</time></trkpt><trkpt lat="46.1345928953819" lon="9.790068835372296"><ele>1275.6</ele><time>2026-04-25T16:16:39.019Z</time></trkpt><trkpt lat="46.134548294878314" lon="9.78994035840237"><ele>1276.2</ele><time>2026-04-25T16:16:40.019Z</time></trkpt><trkpt lat="46.134507292034336" lon="9.789860080163207"><ele>1276.8</ele><time>2026-04-25T16:16:41.019Z</time></trkpt><trkpt lat="46.13442873285229" lon="9.789756996420463"><ele>1277.4</ele><time>2026-04-25T16:16:42.019Z</time></trkpt><trkpt lat="46.13433997238996" lon="9.78964384847613"><ele>1278.0</ele><time>2026-04-25T16:16:43.019Z</time></trkpt><trkpt lat="46.13425744055282" lon="9.789569094594386"><ele>1278.0</ele><time>2026-04-25T16:16:44.019Z</time></trkpt><trkpt lat="46.13415098990819" lon="9.789503798844244"><ele>1278.0</ele><time>2026-04-25T16:16:45.019Z</time></trkpt><trkpt lat="46.13404712731401" lon="9.78942677401917"><ele>1278.0</ele><time>2026-04-25T16:16:46.019Z</time></trkpt><trkpt lat="46.133970245771174" lon="9.789303029247938"><ele>1278.0</ele><time>2026-04-25T16:16:47.019Z</time></trkpt><trkpt lat="46.13393610471005" lon="9.78917391838627"><ele>1278.0</ele><time>2026-04-25T16:16:48.019Z</time></trkpt><trkpt lat="46.13394314577847" lon="9.789018644454286"><ele>1290.4</ele><time>2026-04-25T16:16:49.019Z</time></trkpt><trkpt lat="46.13397904322853" lon="9.78883811536067"><ele>1302.8</ele><time>2026-04-25T16:16:50.019Z</time></trkpt><trkpt lat="46.13404242951931" lon="9.788705604483752"><ele>1315.2</ele><time>2026-04-25T16:16:51.019Z</time></trkpt><trkpt lat="46.13404911906047" lon="9.788569998391585"><ele>1327.6</ele><time>2026-04-25T16:16:52.019Z</time></trkpt><trkpt lat="46.13404185810862" lon="9.78846860128258"><ele>1340.0</ele><time>2026-04-25T16:16:53.019Z</time></trkpt><trkpt lat="46.13402664625419" lon="9.788337764164092"><ele>1348.75</ele><time>2026-04-25T16:16:54.019Z</time></trkpt><trkpt lat="46.13403644464999" lon="9.788185656634793"><ele>1357.5</ele><time>2026-04-25T16:16:55.019Z</time></trkpt><trkpt lat="46.13406530244348" lon="9.7880268100367"><ele>1366.25</ele><time>2026-04-25T16:16:56.019Z</time></trkpt><trkpt lat="46.13412913576807" lon="9.787871631519787"><ele>1375.0</ele><time>2026-04-25T16:16:57.019Z</time></trkpt><trkpt lat="46.13419275336681" lon="9.787711481100724"><ele>1361.5</ele><time>2026-04-25T16:16:58.019Z</time></trkpt><trkpt lat="46.13425425117774" lon="9.787542089984013"><ele>1348.0</ele><time>2026-04-25T16:16:59.019Z</time></trkpt><trkpt lat="46.1343502796322" lon="9.787370251641331"><ele>1334.5</ele><time>2026-04-25T16:17:00.019Z</time></trkpt><trkpt lat="46.13443131634932" lon="9.787222797334408"><ele>1321.0</ele><time>2026-04-25T16:17:01.019Z</time></trkpt><trkpt lat="46.13452786314952" lon="9.78707035227272"><ele>1321.0</ele><time>2026-04-25T16:17:02.019Z</time></trkpt><trkpt lat="46.134637406692214" lon="9.786949688651502"><ele>1321.0</ele><time>2026-04-25T16:17:03.019Z</time></trkpt><trkpt lat="46.13473780428879" lon="9.786860911094774"><ele>1321.0</ele><time>2026-04-25T16:17:04.019Z</time></trkpt><trkpt lat="46.13484729628938" lon="9.786805875888716"><ele>1321.0</ele><time>2026-04-25T16:17:05.019Z</time></trkpt><trkpt lat="46.134907711291206" lon="9.786732468687719"><ele>1315.75</ele><time>2026-04-25T16:17:06.019Z</time></trkpt><trkpt lat="46.134930854085795" lon="9.786551282427912"><ele>1310.5</ele><time>2026-04-25T16:17:07.019Z</time></trkpt><trkpt lat="46.134976587421505" lon="9.78637486453871"><ele>1305.25</ele><time>2026-04-25T16:17:08.019Z</time></trkpt><trkpt lat="46.134998138930904" lon="9.786214921602353"><ele>1300.0</ele><time>2026-04-25T16:17:09.019Z</time></trkpt><trkpt lat="46.135001061229204" lon="9.786090276930063"><ele>1305.5</ele><time>2026-04-25T16:17:10.019Z</time></trkpt><trkpt lat="46.135028771902945" lon="9.785998582939332"><ele>1311.0</ele><time>2026-04-25T16:17:11.019Z</time></trkpt><trkpt lat="46.13509501235026" lon="9.785926048090962"><ele>1316.5</ele><time>2026-04-25T16:17:12.019Z</time></trkpt><trkpt lat="46.135141881142516" lon="9.785812906347587"><ele>1322.0</ele><time>2026-04-25T16:17:13.019Z</time></trkpt><trkpt lat="46.13516659562843" lon="9.785683972761651"><ele>1327.5</ele><time>2026-04-25T16:17:14.019Z</time></trkpt><trkpt lat="46.13519149612185" lon="9.78555070492351"><ele>1333.0</ele><time>2026-04-25T16:17:15.019Z</time></trkpt><trkpt lat="46.13523889808493" lon="9.78538133878156"><ele>1333.0</ele><time>2026-04-25T16:17:16.019Z</time></trkpt><trkpt lat="46.135261385879346" lon="9.785221437477373"><ele>1333.0</ele><time>2026-04-25T16:17:17.019Z</time></trkpt><trkpt lat="46.13529075314377" lon="9.78508585312184"><ele>1333.0</ele><time>2026-04-25T16:17:18.019Z</time></trkpt><trkpt lat="46.13528176439125" lon="9.784935974157065"><ele>1333.0</ele><time>2026-04-25T16:17:19.019Z</time></trkpt><trkpt lat="46.13525964136341" lon="9.78477233646624"><ele>1333.0</ele><time>2026-04-25T16:17:20.019Z</time></trkpt><trkpt lat="46.13526408911226" lon="9.784647016464188"><ele>1336.0</ele><time>2026-04-25T16:17:21.019Z</time></trkpt><trkpt lat="46.135281812427465" lon="9.784535008042507"><ele>1339.0</ele><time>2026-04-25T16:17:22.019Z</time></trkpt><trkpt lat="46.135264987742154" lon="9.784422307102167"><ele>1342.0</ele><time>2026-04-25T16:17:23.019Z</time></trkpt><trkpt lat="46.135234125987026" lon="9.78433674077549"><ele>1345.0</ele><time>2026-04-25T16:17:24.019Z</time></trkpt><trkpt lat="46.13517600728972" lon="9.78424861092682"><ele>1348.0</ele><time>2026-04-25T16:17:25.019Z</time></trkpt><trkpt lat="46.13507998931233" lon="9.784188786438703"><ele>1351.0</ele><time>2026-04-25T16:17:26.019Z</time></trkpt><trkpt lat="46.134995740257615" lon="9.784109469425458"><ele>1351.0</ele><time>2026-04-25T16:17:27.019Z</time></trkpt><trkpt lat="46.1349227290559" lon="9.78396606142636"><ele>1351.0</ele><time>2026-04-25T16:17:28.019Z</time></trkpt><trkpt lat="46.1348512605335" lon="9.783807947157229"><ele>1351.0</ele><time>2026-04-25T16:17:29.019Z</time></trkpt><trkpt lat="46.13479215665871" lon="9.78360558167379"><ele>1351.0</ele><time>2026-04-25T16:17:30.019Z</time></trkpt><trkpt lat="46.13472679927383" lon="9.783463803982453"><ele>1351.6666666666665</ele><time>2026-04-25T16:17:31.019Z</time></trkpt><trkpt lat="46.134682048380654" lon="9.783336696280102"><ele>1352.3333333333333</ele><time>2026-04-25T16:17:32.019Z</time></trkpt><trkpt lat="46.13462346241742" lon="9.783256679346032"><ele>1353.0</ele><time>2026-04-25T16:17:33.019Z</time></trkpt><trkpt lat="46.134577012177786" lon="9.783177498473462"><ele>1353.6666666666667</ele><time>2026-04-25T16:17:34.019Z</time></trkpt><trkpt lat="46.13451002029018" lon="9.783108400518094"><ele>1354.3333333333335</ele><time>2026-04-25T16:17:35.019Z</time></trkpt><trkpt lat="46.13443458300894" lon="9.78301737690517"><ele>1355.0</ele><time>2026-04-25T16:17:36.019Z</time></trkpt><trkpt lat="46.13438279285565" lon="9.782921277750537"><ele>1355.0</ele><time>2026-04-25T16:17:37.019Z</time></trkpt><trkpt lat="46.13432355057061" lon="9.782879705028384"><ele>1355.0</ele><time>2026-04-25T16:17:38.019Z</time></trkpt><trkpt lat="46.13427994867894" lon="9.782812138949756"><ele>1355.0</ele><time>2026-04-25T16:17:39.019Z</time></trkpt><trkpt lat="46.13423400786372" lon="9.782728555936727"><ele>1355.0</ele><time>2026-04-25T16:17:43.019Z</time></trkpt><trkpt lat="46.13429418929168" lon="9.782501538576664"><ele>1355.0</ele><time>2026-04-25T16:17:45.019Z</time></trkpt><trkpt lat="46.13432753528192" lon="9.782418105374704"><ele>1355.0</ele><time>2026-04-25T16:17:47.019Z</time></trkpt><trkpt lat="46.13439734209247" lon="9.78233441885839"><ele>1349.3333333333335</ele><time>2026-04-25T16:17:50.019Z</time></trkpt><trkpt lat="46.13443822247475" lon="9.78222794245343"><ele>1343.6666666666667</ele><time>2026-04-25T16:17:52.019Z</time></trkpt><trkpt lat="46.134494407430104" lon="9.78211575437497"><ele>1338.0</ele><time>2026-04-25T16:17:54.019Z</time></trkpt><trkpt lat="46.13454745525767" lon="9.782034706132174"><ele>1332.3333333333333</ele><time>2026-04-25T16:17:56.019Z</time></trkpt><trkpt lat="46.13463527171161" lon="9.782022743029843"><ele>1326.6666666666665</ele><time>2026-04-25T16:17:58.019Z</time></trkpt><trkpt lat="46.134733478439834" lon="9.782015995199862"><ele>1321.0</ele><time>2026-04-25T16:18:00.019Z</time></trkpt><trkpt lat="46.13482560674785" lon="9.782015254075155"><ele>1321.0</ele><time>2026-04-25T16:18:02.019Z</time></trkpt><trkpt lat="46.13487434843641" lon="9.782104691407593"><ele>1321.0</ele><time>2026-04-25T16:18:04.019Z</time></trkpt><trkpt lat="46.13493177107589" lon="9.782034075590866"><ele>1321.0</ele><time>2026-04-25T16:18:08.019Z</time></trkpt><trkpt lat="46.13498007864165" lon="9.781970475735692"><ele>1321.0</ele><time>2026-04-25T16:18:10.019Z</time></trkpt><trkpt lat="46.13503784767582" lon="9.781927457371111"><ele>1321.0</ele><time>2026-04-25T16:18:12.019Z</time></trkpt><trkpt lat="46.13512016267474" lon="9.781923524284487"><ele>1321.0</ele><time>2026-04-25T16:18:14.019Z</time></trkpt><trkpt lat="46.13522100522876" lon="9.78191478856573"><ele>1318.8333333333333</ele><time>2026-04-25T16:18:16.019Z</time></trkpt><trkpt lat="46.13530275778762" lon="9.781909509829033"><ele>1316.6666666666665</ele><time>2026-04-25T16:18:17.019Z</time></trkpt><trkpt lat="46.13539766093739" lon="9.781904213593535"><ele>1314.5</ele><time>2026-04-25T16:18:18.019Z</time></trkpt><trkpt lat="46.135478848148864" lon="9.781862431497755"><ele>1312.3333333333333</ele><time>2026-04-25T16:18:19.019Z</time></trkpt><trkpt lat="46.13555685420195" lon="9.781806591622761"><ele>1310.1666666666667</ele><time>2026-04-25T16:18:20.019Z</time></trkpt><trkpt lat="46.13562395579569" lon="9.781722388395385"><ele>1308.0</ele><time>2026-04-25T16:18:21.018Z</time></trkpt><trkpt lat="46.13568933924791" lon="9.7816610482942"><ele>1302.0</ele><time>2026-04-25T16:18:23.018Z</time></trkpt><trkpt lat="46.135685277781995" lon="9.78155357935499"><ele>1296.0</ele><time>2026-04-25T16:19:16.012Z</time></trkpt><trkpt lat="46.135662191836374" lon="9.781421328564356"><ele>1290.0</ele><time>2026-04-25T16:19:20.012Z</time></trkpt><trkpt lat="46.13554812260689" lon="9.781330650614642"><ele>1284.0</ele><time>2026-04-25T16:19:22.012Z</time></trkpt><trkpt lat="46.13546973481885" lon="9.781291358933258"><ele>1278.0</ele><time>2026-04-25T16:19:23.012Z</time></trkpt><trkpt lat="46.13537350472041" lon="9.781245210313795"><ele>1278.0</ele><time>2026-04-25T16:19:25.012Z</time></trkpt><trkpt lat="46.13537535264701" lon="9.781083584280362"><ele>1278.0</ele><time>2026-04-25T16:19:27.012Z</time></trkpt><trkpt lat="46.13541910195581" lon="9.780972151257451"><ele>1278.0</ele><time>2026-04-25T16:19:29.012Z</time></trkpt><trkpt lat="46.135420502469195" lon="9.780831492053826"><ele>1278.0</ele><time>2026-04-25T16:19:32.011Z</time></trkpt><trkpt lat="46.13536905720514" lon="9.780737527840797"><ele>1278.0</ele><time>2026-04-25T16:19:34.011Z</time></trkpt><trkpt lat="46.135427262011305" lon="9.780694342581"><ele>1278.0</ele><time>2026-04-25T16:19:37.011Z</time></trkpt><trkpt lat="46.13549744488482" lon="9.780742894509034"><ele>1272.6</ele><time>2026-04-25T16:19:39.011Z</time></trkpt><trkpt lat="46.13558100171937" lon="9.780789886674818"><ele>1267.1999999999998</ele><time>2026-04-25T16:19:41.011Z</time></trkpt><trkpt lat="46.13568630590123" lon="9.780799622120384"><ele>1261.8</ele><time>2026-04-25T16:19:43.011Z</time></trkpt><trkpt lat="46.13579512414704" lon="9.780764740146996"><ele>1256.3999999999999</ele><time>2026-04-25T16:19:45.011Z</time></trkpt><trkpt lat="46.13586364256252" lon="9.780692312826783"><ele>1251.0</ele><time>2026-04-25T16:19:47.011Z</time></trkpt><trkpt lat="46.13589888474629" lon="9.780600812877163"><ele>1248.8333333333333</ele><time>2026-04-25T16:19:49.011Z</time></trkpt><trkpt lat="46.13584870499361" lon="9.780488783750922"><ele>1246.6666666666667</ele><time>2026-04-25T16:19:53.011Z</time></trkpt><trkpt lat="46.13575817703869" lon="9.780454860268096"><ele>1244.5</ele><time>2026-04-25T16:19:55.011Z</time></trkpt><trkpt lat="46.13583621452543" lon="9.780387461013868"><ele>1242.3333333333335</ele><time>2026-04-25T16:19:58.011Z</time></trkpt><trkpt lat="46.135904765640575" lon="9.78041239824728"><ele>1240.1666666666667</ele><time>2026-04-25T16:19:59.011Z</time></trkpt><trkpt lat="46.135976350017934" lon="9.780406632541688"><ele>1238.0</ele><time>2026-04-25T16:20:00.011Z</time></trkpt><trkpt lat="46.13610198295895" lon="9.78044163705951"><ele>1238.0</ele><time>2026-04-25T16:20:02.011Z</time></trkpt><trkpt lat="46.1361782001146" lon="9.78046355296427"><ele>1238.0</ele><time>2026-04-25T16:20:03.011Z</time></trkpt><trkpt lat="46.13626884881349" lon="9.780471849707801"><ele>1238.0</ele><time>2026-04-25T16:20:04.011Z</time></trkpt><trkpt lat="46.13636282454472" lon="9.780468016398588"><ele>1238.0</ele><time>2026-04-25T16:20:05.011Z</time></trkpt><trkpt lat="46.13642960293482" lon="9.780466154930128"><ele>1238.0</ele><time>2026-04-25T16:20:06.011Z</time></trkpt><trkpt lat="46.136514817848365" lon="9.780501535513347"><ele>1238.0</ele><time>2026-04-25T16:20:08.011Z</time></trkpt><trkpt lat="46.13656334270348" lon="9.780643958452785"><ele>1238.4</ele><time>2026-04-25T16:20:10.011Z</time></trkpt><trkpt lat="46.13656391434232" lon="9.780761221740324"><ele>1238.8</ele><time>2026-04-25T16:20:12.011Z</time></trkpt><trkpt lat="46.13663474690646" lon="9.780755865914145"><ele>1239.2</ele><time>2026-04-25T16:21:48.011Z</time></trkpt><trkpt lat="46.13662883354299" lon="9.78092734803084"><ele>1239.6</ele><time>2026-04-25T16:21:49.011Z</time></trkpt><trkpt lat="46.13670707003668" lon="9.781001553344556"><ele>1240.0</ele><time>2026-04-25T16:21:51.011Z</time></trkpt><trkpt lat="46.136785867818816" lon="9.781069303526957"><ele>1240.0</ele><time>2026-04-25T16:21:53.011Z</time></trkpt><trkpt lat="46.13685405741577" lon="9.781088501118585"><ele>1240.0</ele><time>2026-04-25T16:21:55.011Z</time></trkpt><trkpt lat="46.13695624088107" lon="9.781145440345696"><ele>1240.0</ele><time>2026-04-25T16:21:57.011Z</time></trkpt><trkpt lat="46.13710136751593" lon="9.78105548445666"><ele>1240.0</ele><time>2026-04-25T16:21:58.011Z</time></trkpt><trkpt lat="46.13721407016487" lon="9.781051679351572"><ele>1240.0</ele><time>2026-04-25T16:22:00.011Z</time></trkpt><trkpt lat="46.13731393212203" lon="9.781078767002597"><ele>1240.0</ele><time>2026-04-25T16:22:02.011Z</time></trkpt><trkpt lat="46.13740379842792" lon="9.781130655049134"><ele>1240.0</ele><time>2026-04-25T16:22:04.011Z</time></trkpt><trkpt lat="46.13747474652229" lon="9.781132676361517"><ele>1240.0</ele><time>2026-04-25T16:22:07.011Z</time></trkpt><trkpt lat="46.137530359627945" lon="9.781205816172536"><ele>1240.0</ele><time>2026-04-25T16:22:10.011Z</time></trkpt><trkpt lat="46.13762770819257" lon="9.781201050229965"><ele>1240.0</ele><time>2026-04-25T16:22:13.011Z</time></trkpt><trkpt lat="46.1376953623877" lon="9.78119551587984"><ele>1236.857142857143</ele><time>2026-04-25T16:22:15.011Z</time></trkpt><trkpt lat="46.137714295166084" lon="9.7812842922357"><ele>1233.7142857142858</ele><time>2026-04-25T16:22:16.011Z</time></trkpt><trkpt lat="46.1377225411577" lon="9.78139277379761"><ele>1230.5714285714284</ele><time>2026-04-25T16:22:17.011Z</time></trkpt><trkpt lat="46.1377364179195" lon="9.781488272411034"><ele>1227.4285714285716</ele><time>2026-04-25T16:22:18.011Z</time></trkpt><trkpt lat="46.13776444145902" lon="9.781573061764773"><ele>1224.2857142857142</ele><time>2026-04-25T16:22:19.011Z</time></trkpt><trkpt lat="46.1377939051693" lon="9.781662311764144"><ele>1221.142857142857</ele><time>2026-04-25T16:22:20.012Z</time></trkpt><trkpt lat="46.137838431162734" lon="9.781738803681845"><ele>1218.0</ele><time>2026-04-25T16:22:21.012Z</time></trkpt><trkpt lat="46.13788253350944" lon="9.781826591594049"><ele>1218.0</ele><time>2026-04-25T16:22:22.012Z</time></trkpt><trkpt lat="46.13794488489485" lon="9.781893971763319"><ele>1218.0</ele><time>2026-04-25T16:22:23.013Z</time></trkpt><trkpt lat="46.13804991893288" lon="9.781872631208445"><ele>1218.0</ele><time>2026-04-25T16:22:25.012Z</time></trkpt><trkpt lat="46.138112830769415" lon="9.781688267216424"><ele>1218.0</ele><time>2026-04-25T16:22:27.012Z</time></trkpt><trkpt lat="46.138158455253304" lon="9.781549243493812"><ele>1218.0</ele><time>2026-04-25T16:22:29.012Z</time></trkpt><trkpt lat="46.13820990982339" lon="9.781446675289457"><ele>1218.0</ele><time>2026-04-25T16:22:31.013Z</time></trkpt><trkpt lat="46.138215456241745" lon="9.781318680085194"><ele>1218.0</ele><time>2026-04-25T16:22:33.012Z</time></trkpt><trkpt lat="46.13821055261693" lon="9.781207488544574"><ele>1218.0</ele><time>2026-04-25T16:22:35.012Z</time></trkpt><trkpt lat="46.13820355903032" lon="9.781112431811023"><ele>1218.0</ele><time>2026-04-25T16:22:37.012Z</time></trkpt><trkpt lat="46.138142352438834" lon="9.781060948740878"><ele>1218.0</ele><time>2026-04-25T16:22:39.012Z</time></trkpt><trkpt lat="46.138080580801486" lon="9.781016420133373"><ele>1218.0</ele><time>2026-04-25T16:22:41.012Z</time></trkpt><trkpt lat="46.13801008420827" lon="9.780972212580805"><ele>1218.0</ele><time>2026-04-25T16:22:44.012Z</time></trkpt><trkpt lat="46.13807999532674" lon="9.780889099901849"><ele>1216.2</ele><time>2026-04-25T16:23:02.012Z</time></trkpt><trkpt lat="46.13800087789322" lon="9.780841475174135"><ele>1214.4</ele><time>2026-04-25T16:23:05.012Z</time></trkpt><trkpt lat="46.13799851931137" lon="9.780655684227465"><ele>1212.6000000000001</ele><time>2026-04-25T16:23:07.012Z</time></trkpt><trkpt lat="46.138003414350074" lon="9.780554206759874"><ele>1210.8</ele><time>2026-04-25T16:23:08.012Z</time></trkpt><trkpt lat="46.1379651467199" lon="9.780417508362646"><ele>1209.0</ele><time>2026-04-25T16:23:10.012Z</time></trkpt><trkpt lat="46.13801197124246" lon="9.780348178559974"><ele>1209.0</ele><time>2026-04-25T16:23:12.012Z</time></trkpt><trkpt lat="46.13813261732497" lon="9.780262125835964"><ele>1209.0</ele><time>2026-04-25T16:23:14.012Z</time></trkpt><trkpt lat="46.13818231980081" lon="9.780177516634371"><ele>1209.0</ele><time>2026-04-25T16:23:15.012Z</time></trkpt><trkpt lat="46.13823198459897" lon="9.780090806350698"><ele>1209.0</ele><time>2026-04-25T16:23:16.012Z</time></trkpt><trkpt lat="46.13828748831478" lon="9.779959789996381"><ele>1209.0</ele><time>2026-04-25T16:23:18.012Z</time></trkpt><trkpt lat="46.13840704292696" lon="9.780036382140281"><ele>1205.5</ele><time>2026-04-25T16:23:20.012Z</time></trkpt><trkpt lat="46.13846606102595" lon="9.780129481723552"><ele>1202.0</ele><time>2026-04-25T16:23:21.012Z</time></trkpt><trkpt lat="46.13853625892858" lon="9.780195937283514"><ele>1198.5</ele><time>2026-04-25T16:23:22.012Z</time></trkpt><trkpt lat="46.13860147118787" lon="9.780258657108764"><ele>1195.0</ele><time>2026-04-25T16:23:23.012Z</time></trkpt><trkpt lat="46.13869618995026" lon="9.780257965806689"><ele>1191.5</ele><time>2026-04-25T16:23:25.012Z</time></trkpt><trkpt lat="46.138787163492545" lon="9.780196049629492"><ele>1188.0</ele><time>2026-04-25T16:23:27.012Z</time></trkpt><trkpt lat="46.138835232086265" lon="9.780119967526232"><ele>1184.8333333333333</ele><time>2026-04-25T16:23:30.012Z</time></trkpt><trkpt lat="46.138797174487785" lon="9.780019181112088"><ele>1181.6666666666667</ele><time>2026-04-25T16:23:32.012Z</time></trkpt><trkpt lat="46.13872477910595" lon="9.77993276647968"><ele>1178.5</ele><time>2026-04-25T16:23:34.012Z</time></trkpt><trkpt lat="46.13865265547229" lon="9.77984434409141"><ele>1175.3333333333335</ele><time>2026-04-25T16:23:36.012Z</time></trkpt><trkpt lat="46.13861873182419" lon="9.779733044812062"><ele>1172.1666666666667</ele><time>2026-04-25T16:23:38.012Z</time></trkpt><trkpt lat="46.13858033735728" lon="9.779642830996078"><ele>1169.0</ele><time>2026-04-25T16:23:39.012Z</time></trkpt><trkpt lat="46.13853540238159" lon="9.779544809360047"><ele>1169.0</ele><time>2026-04-25T16:23:40.012Z</time></trkpt><trkpt lat="46.13849086192833" lon="9.779470970337417"><ele>1169.0</ele><time>2026-04-25T16:23:41.012Z</time></trkpt><trkpt lat="46.138460606258214" lon="9.779382337505911"><ele>1169.0</ele><time>2026-04-25T16:23:43.012Z</time></trkpt><trkpt lat="46.13841918924008" lon="9.779232287471148"><ele>1169.0</ele><time>2026-04-25T16:23:47.012Z</time></trkpt><trkpt lat="46.13845996982515" lon="9.779122145389705"><ele>1169.0</ele><time>2026-04-25T16:23:49.012Z</time></trkpt><trkpt lat="46.13852318737184" lon="9.77909582397954"><ele>1169.0</ele><time>2026-04-25T16:23:51.012Z</time></trkpt><trkpt lat="46.13864031407814" lon="9.779111242124799"><ele>1163.6000000000001</ele><time>2026-04-25T16:23:53.012Z</time></trkpt><trkpt lat="46.1387472015417" lon="9.77911110106066"><ele>1158.2</ele><time>2026-04-25T16:23:54.012Z</time></trkpt><trkpt lat="46.13883898020186" lon="9.779111154182019"><ele>1152.8000000000002</ele><time>2026-04-25T16:23:56.012Z</time></trkpt><trkpt lat="46.13892277103981" lon="9.779118804664712"><ele>1147.4</ele><time>2026-04-25T16:23:59.012Z</time></trkpt><trkpt lat="46.13898882711131" lon="9.779178435866905"><ele>1142.0</ele><time>2026-04-25T16:24:01.012Z</time></trkpt><trkpt lat="46.139110764448674" lon="9.77925837227493"><ele>1141.2857142857142</ele><time>2026-04-25T16:24:03.012Z</time></trkpt><trkpt lat="46.13918217932737" lon="9.779308394288341"><ele>1140.5714285714284</ele><time>2026-04-25T16:24:04.012Z</time></trkpt><trkpt lat="46.139250108631366" lon="9.779351962676603"><ele>1139.8571428571427</ele><time>2026-04-25T16:24:05.012Z</time></trkpt><trkpt lat="46.13931519291498" lon="9.779386019695433"><ele>1139.142857142857</ele><time>2026-04-25T16:24:06.012Z</time></trkpt><trkpt lat="46.13938727582327" lon="9.779416145693329"><ele>1138.4285714285713</ele><time>2026-04-25T16:24:07.012Z</time></trkpt><trkpt lat="46.13944320207314" lon="9.779461835237703"><ele>1137.7142857142856</ele><time>2026-04-25T16:24:08.012Z</time></trkpt><trkpt lat="46.13950334190258" lon="9.779493817586319"><ele>1137.0</ele><time>2026-04-25T16:24:09.012Z</time></trkpt><trkpt lat="46.13957585988535" lon="9.779533503486668"><ele>1137.0</ele><time>2026-04-25T16:24:11.012Z</time></trkpt><trkpt lat="46.139638123700166" lon="9.779482059942625"><ele>1137.0</ele><time>2026-04-25T16:24:13.012Z</time></trkpt><trkpt lat="46.1396694763633" lon="9.779564601147628"><ele>1137.0</ele><time>2026-04-25T16:24:17.012Z</time></trkpt><trkpt lat="46.13973632976287" lon="9.779651059448932"><ele>1137.0</ele><time>2026-04-25T16:24:19.012Z</time></trkpt><trkpt lat="46.13977709395828" lon="9.77975677759052"><ele>1137.0</ele><time>2026-04-25T16:24:21.012Z</time></trkpt><trkpt lat="46.13979801380036" lon="9.779897928509834"><ele>1137.0</ele><time>2026-04-25T16:24:23.012Z</time></trkpt><trkpt lat="46.13982944039817" lon="9.779979126783463"><ele>1127.6666666666667</ele><time>2026-04-25T16:24:25.012Z</time></trkpt><trkpt lat="46.13988786770305" lon="9.779934475556047"><ele>1118.3333333333333</ele><time>2026-04-25T16:24:27.013Z</time></trkpt><trkpt lat="46.139969880429625" lon="9.779827229411504"><ele>1109.0</ele><time>2026-04-25T16:24:29.012Z</time></trkpt><trkpt lat="46.13998838158568" lon="9.779731311118432"><ele>1099.6666666666665</ele><time>2026-04-25T16:24:30.012Z</time></trkpt><trkpt lat="46.14000959983506" lon="9.779633272352191"><ele>1090.3333333333333</ele><time>2026-04-25T16:24:31.012Z</time></trkpt><trkpt lat="46.140017907820294" lon="9.779521492863525"><ele>1081.0</ele><time>2026-04-25T16:24:32.013Z</time></trkpt><trkpt lat="46.14002292320557" lon="9.779425435664352"><ele>1078.6666666666665</ele><time>2026-04-25T16:24:33.012Z</time></trkpt><trkpt lat="46.1400314634367" lon="9.779323411962366"><ele>1076.3333333333333</ele><time>2026-04-25T16:24:34.012Z</time></trkpt><trkpt lat="46.140039933120356" lon="9.779229434147739"><ele>1074.0</ele><time>2026-04-25T16:24:35.013Z</time></trkpt><trkpt lat="46.140073719942436" lon="9.779084846155362"><ele>1071.6666666666667</ele><time>2026-04-25T16:24:37.012Z</time></trkpt><trkpt lat="46.14010065920635" lon="9.77890955752481"><ele>1069.3333333333335</ele><time>2026-04-25T16:24:39.012Z</time></trkpt><trkpt lat="46.14014452247388" lon="9.77881329883486"><ele>1067.0</ele><time>2026-04-25T16:24:40.012Z</time></trkpt><trkpt lat="46.14018169296766" lon="9.778711083455105"><ele>1067.0</ele><time>2026-04-25T16:24:41.012Z</time></trkpt><trkpt lat="46.140202456383946" lon="9.77860543237744"><ele>1067.0</ele><time>2026-04-25T16:24:42.012Z</time></trkpt><trkpt lat="46.140189872154984" lon="9.778452722249124"><ele>1067.0</ele><time>2026-04-25T16:24:44.012Z</time></trkpt><trkpt lat="46.14015383827963" lon="9.778360349602968"><ele>1067.0</ele><time>2026-04-25T16:24:45.012Z</time></trkpt><trkpt lat="46.140110543253385" lon="9.778234160679016"><ele>1067.0</ele><time>2026-04-25T16:24:46.012Z</time></trkpt><trkpt lat="46.140072512393125" lon="9.778104885604101"><ele>1066.5</ele><time>2026-04-25T16:24:47.012Z</time></trkpt><trkpt lat="46.1400744453492" lon="9.77795768805893"><ele>1066.0</ele><time>2026-04-25T16:24:48.012Z</time></trkpt><trkpt lat="46.140057354303806" lon="9.7778690496936"><ele>1065.5</ele><time>2026-04-25T16:24:49.012Z</time></trkpt><trkpt lat="46.14004065643723" lon="9.777771961469977"><ele>1065.0</ele><time>2026-04-25T16:24:50.012Z</time></trkpt><trkpt lat="46.13998921944854" lon="9.777708184983451"><ele>1064.5</ele><time>2026-04-25T16:24:51.012Z</time></trkpt><trkpt lat="46.139910239202166" lon="9.777623333173858"><ele>1064.0</ele><time>2026-04-25T16:24:52.012Z</time></trkpt><trkpt lat="46.13983220168854" lon="9.77752766826014"><ele>1064.0</ele><time>2026-04-25T16:24:53.012Z</time></trkpt><trkpt lat="46.13976063377111" lon="9.777432065118946"><ele>1064.0</ele><time>2026-04-25T16:24:54.012Z</time></trkpt><trkpt lat="46.139712302974914" lon="9.777319200733949"><ele>1064.0</ele><time>2026-04-25T16:24:55.012Z</time></trkpt><trkpt lat="46.13971281945408" lon="9.777202180010852"><ele>1064.0</ele><time>2026-04-25T16:24:56.012Z</time></trkpt><trkpt lat="46.139704336550466" lon="9.777093234347458"><ele>1064.0</ele><time>2026-04-25T16:24:57.012Z</time></trkpt><trkpt lat="46.1396733840963" lon="9.777004761802623"><ele>1064.0</ele><time>2026-04-25T16:24:58.012Z</time></trkpt><trkpt lat="46.13963922024285" lon="9.776924623323193"><ele>1064.0</ele><time>2026-04-25T16:24:59.012Z</time></trkpt><trkpt lat="46.13965986193993" lon="9.77681884136832"><ele>1064.0</ele><time>2026-04-25T16:25:02.012Z</time></trkpt><trkpt lat="46.13973632946456" lon="9.776854017861956"><ele>1064.0</ele><time>2026-04-25T16:25:04.012Z</time></trkpt><trkpt lat="46.139719314862155" lon="9.776751405816992"><ele>1064.0</ele><time>2026-04-25T16:25:07.012Z</time></trkpt><trkpt lat="46.139672794139" lon="9.77667026353578"><ele>1064.0</ele><time>2026-04-25T16:25:08.012Z</time></trkpt><trkpt lat="46.13961444932374" lon="9.776580036425006"><ele>1064.0</ele><time>2026-04-25T16:25:09.012Z</time></trkpt><trkpt lat="46.1395550495016" lon="9.776500792114257"><ele>1060.142857142857</ele><time>2026-04-25T16:25:10.012Z</time></trkpt><trkpt lat="46.13951681251971" lon="9.776411847385084"><ele>1056.2857142857142</ele><time>2026-04-25T16:25:11.012Z</time></trkpt><trkpt lat="46.139510243897654" lon="9.776278022858177"><ele>1052.4285714285716</ele><time>2026-04-25T16:25:12.012Z</time></trkpt><trkpt lat="46.1395068587712" lon="9.776175062478247"><ele>1048.5714285714284</ele><time>2026-04-25T16:25:13.012Z</time></trkpt><trkpt lat="46.139491803262594" lon="9.776084556135123"><ele>1044.7142857142858</ele><time>2026-04-25T16:25:14.012Z</time></trkpt><trkpt lat="46.139462717621406" lon="9.77599685012736"><ele>1040.857142857143</ele><time>2026-04-25T16:25:15.012Z</time></trkpt><trkpt lat="46.13941974913156" lon="9.775929894930442"><ele>1037.0</ele><time>2026-04-25T16:25:16.012Z</time></trkpt><trkpt lat="46.13934381932961" lon="9.775891136656586"><ele>1030.1666666666667</ele><time>2026-04-25T16:25:17.012Z</time></trkpt><trkpt lat="46.13926766598194" lon="9.775822518225437"><ele>1023.3333333333334</ele><time>2026-04-25T16:25:18.012Z</time></trkpt><trkpt lat="46.13917478290543" lon="9.775745149541459"><ele>1016.5</ele><time>2026-04-25T16:25:19.012Z</time></trkpt><trkpt lat="46.13909305151521" lon="9.775680183576036"><ele>1009.6666666666667</ele><time>2026-04-25T16:25:20.012Z</time></trkpt><trkpt lat="46.139016889081304" lon="9.775631772061093"><ele>1002.8333333333334</ele><time>2026-04-25T16:25:21.012Z</time></trkpt><trkpt lat="46.138949813468464" lon="9.775612171188575"><ele>996.0</ele><time>2026-04-25T16:25:22.012Z</time></trkpt><trkpt lat="46.13883359389218" lon="9.77551833186287"><ele>995.8333333333334</ele><time>2026-04-25T16:25:24.012Z</time></trkpt><trkpt lat="46.13877257399942" lon="9.775486485974465"><ele>995.6666666666667</ele><time>2026-04-25T16:25:25.012Z</time></trkpt><trkpt lat="46.13871292337317" lon="9.775519432594322"><ele>995.5</ele><time>2026-04-25T16:25:27.011Z</time></trkpt><trkpt lat="46.13875825510642" lon="9.775392679244217"><ele>995.3333333333334</ele><time>2026-04-25T16:25:29.011Z</time></trkpt><trkpt lat="46.138831894350396" lon="9.77530172778551"><ele>995.1666666666667</ele><time>2026-04-25T16:25:30.011Z</time></trkpt><trkpt lat="46.13891646123371" lon="9.77520603121621"><ele>995.0</ele><time>2026-04-25T16:25:31.011Z</time></trkpt><trkpt lat="46.13901015841475" lon="9.775119638490713"><ele>995.1666666666667</ele><time>2026-04-25T16:25:32.011Z</time></trkpt><trkpt lat="46.13908820917938" lon="9.77513837960177"><ele>995.3333333333334</ele><time>2026-04-25T16:25:33.011Z</time></trkpt><trkpt lat="46.13917280892993" lon="9.775199602290915"><ele>995.5</ele><time>2026-04-25T16:25:34.011Z</time></trkpt><trkpt lat="46.139243515976304" lon="9.775227906051239"><ele>995.6666666666667</ele><time>2026-04-25T16:25:35.011Z</time></trkpt><trkpt lat="46.139316195107284" lon="9.775235261038835"><ele>995.8333333333334</ele><time>2026-04-25T16:25:36.011Z</time></trkpt><trkpt lat="46.13937970711364" lon="9.775224422614388"><ele>996.0</ele><time>2026-04-25T16:25:37.011Z</time></trkpt><trkpt lat="46.13945423780681" lon="9.775249500825147"><ele>996.0</ele><time>2026-04-25T16:25:38.011Z</time></trkpt><trkpt lat="46.139525878237514" lon="9.77530643188822"><ele>996.0</ele><time>2026-04-25T16:25:39.011Z</time></trkpt><trkpt lat="46.13960082436826" lon="9.77539206414714"><ele>996.0</ele><time>2026-04-25T16:25:40.011Z</time></trkpt><trkpt lat="46.13967296992103" lon="9.775433600814301"><ele>996.0</ele><time>2026-04-25T16:25:41.011Z</time></trkpt><trkpt lat="46.13975069271909" lon="9.775463025098508"><ele>996.0</ele><time>2026-04-25T16:25:42.011Z</time></trkpt><trkpt lat="46.13981905733573" lon="9.775467216987305"><ele>996.0</ele><time>2026-04-25T16:25:43.011Z</time></trkpt><trkpt lat="46.13983305360462" lon="9.775341120809744"><ele>996.0</ele><time>2026-04-25T16:25:45.011Z</time></trkpt><trkpt lat="46.139727264122726" lon="9.775283721272494"><ele>995.9999999999999</ele><time>2026-04-25T16:25:47.011Z</time></trkpt><trkpt lat="46.13962638896422" lon="9.775231692931708"><ele>995.9999999999999</ele><time>2026-04-25T16:25:48.011Z</time></trkpt><trkpt lat="46.139517584730086" lon="9.775170205864892"><ele>996.0</ele><time>2026-04-25T16:25:49.011Z</time></trkpt><trkpt lat="46.1394454604818" lon="9.775077605297824"><ele>996.0</ele><time>2026-04-25T16:25:50.011Z</time></trkpt><trkpt lat="46.13937673041027" lon="9.774977557132447"><ele>988.6666666666666</ele><time>2026-04-25T16:25:51.011Z</time></trkpt><trkpt lat="46.139317296401" lon="9.77490642953361"><ele>981.3333333333333</ele><time>2026-04-25T16:25:52.011Z</time></trkpt><trkpt lat="46.13919394575937" lon="9.774916545940645"><ele>974.0</ele><time>2026-04-25T16:25:54.011Z</time></trkpt><trkpt lat="46.13925012446801" lon="9.774839405884693"><ele>966.6666666666666</ele><time>2026-04-25T16:25:56.011Z</time></trkpt><trkpt lat="46.1393257468276" lon="9.774827796898888"><ele>959.3333333333333</ele><time>2026-04-25T16:25:57.011Z</time></trkpt><trkpt lat="46.1394077500459" lon="9.774808967771651"><ele>952.0</ele><time>2026-04-25T16:25:58.011Z</time></trkpt><trkpt lat="46.139503583408384" lon="9.774826526147722"><ele>952.0</ele><time>2026-04-25T16:25:59.011Z</time></trkpt><trkpt lat="46.13961930512441" lon="9.7748607457607"><ele>952.0</ele><time>2026-04-25T16:26:00.011Z</time></trkpt><trkpt lat="46.13968370154172" lon="9.774914654789194"><ele>952.0</ele><time>2026-04-25T16:26:01.011Z</time></trkpt><trkpt lat="46.1397420435747" lon="9.774962318232179"><ele>952.0</ele><time>2026-04-25T16:26:03.011Z</time></trkpt><trkpt lat="46.139720307821804" lon="9.77482302522466"><ele>952.0</ele><time>2026-04-25T16:26:06.011Z</time></trkpt><trkpt lat="46.13966424870148" lon="9.774655085202722"><ele>952.0</ele><time>2026-04-25T16:26:08.011Z</time></trkpt><trkpt lat="46.139683245921226" lon="9.774522813307915"><ele>952.0</ele><time>2026-04-25T16:26:10.011Z</time></trkpt><trkpt lat="46.13980422319193" lon="9.774457486367156"><ele>952.0</ele><time>2026-04-25T16:26:12.011Z</time></trkpt><trkpt lat="46.13991569133006" lon="9.774408522701773"><ele>952.0</ele><time>2026-04-25T16:26:14.011Z</time></trkpt><trkpt lat="46.139920877786814" lon="9.774241625526093"><ele>950.8333333333333</ele><time>2026-04-25T16:26:17.011Z</time></trkpt><trkpt lat="46.13989543444011" lon="9.774134342592081"><ele>949.6666666666666</ele><time>2026-04-25T16:26:18.011Z</time></trkpt><trkpt lat="46.13994957528657" lon="9.774020141776802"><ele>948.5</ele><time>2026-04-25T16:26:20.011Z</time></trkpt><trkpt lat="46.140034367872346" lon="9.774109133852718"><ele>947.3333333333333</ele><time>2026-04-25T16:26:22.011Z</time></trkpt><trkpt lat="46.14006269140159" lon="9.774195492811947"><ele>946.1666666666666</ele><time>2026-04-25T16:26:23.011Z</time></trkpt><trkpt lat="46.14010449624001" lon="9.77431610694748"><ele>945.0</ele><time>2026-04-25T16:26:24.011Z</time></trkpt><trkpt lat="46.140157922468624" lon="9.774387957247335"><ele>945.0</ele><time>2026-04-25T16:26:25.011Z</time></trkpt><trkpt lat="46.14020482950507" lon="9.77444972861067"><ele>945.0</ele><time>2026-04-25T16:26:26.011Z</time></trkpt><trkpt lat="46.14029591681374" lon="9.774442889712779"><ele>945.0</ele><time>2026-04-25T16:26:28.011Z</time></trkpt><trkpt lat="46.1403240013561" lon="9.774349384791776"><ele>945.0</ele><time>2026-04-25T16:26:29.011Z</time></trkpt><trkpt lat="46.14042766065794" lon="9.774254558944227"><ele>945.0</ele><time>2026-04-25T16:26:31.011Z</time></trkpt><trkpt lat="46.14047226222158" lon="9.774176982741354"><ele>945.0</ele><time>2026-04-25T16:26:32.013Z</time></trkpt><trkpt lat="46.14053781547174" lon="9.774090240403462"><ele>939.5</ele><time>2026-04-25T16:26:33.012Z</time></trkpt><trkpt lat="46.14058166357772" lon="9.774016554667362"><ele>934.0</ele><time>2026-04-25T16:26:34.012Z</time></trkpt><trkpt lat="46.14065626499444" lon="9.773920023957173"><ele>928.5</ele><time>2026-04-25T16:26:36.012Z</time></trkpt><trkpt lat="46.140746334452245" lon="9.773789905854208"><ele>923.0</ele><time>2026-04-25T16:26:39.013Z</time></trkpt><trkpt lat="46.14079243329704" lon="9.773724836926107"><ele>917.5</ele><time>2026-04-25T16:26:40.013Z</time></trkpt><trkpt lat="46.14085046829449" lon="9.773684683611698"><ele>912.0</ele><time>2026-04-25T16:26:41.013Z</time></trkpt><trkpt lat="46.14091447701023" lon="9.77360438494686"><ele>906.0</ele><time>2026-04-25T16:26:42.012Z</time></trkpt><trkpt lat="46.14096573482019" lon="9.773542911507294"><ele>900.0</ele><time>2026-04-25T16:26:43.012Z</time></trkpt><trkpt lat="46.141088043302354" lon="9.773600119902037"><ele>894.0</ele><time>2026-04-25T16:26:45.013Z</time></trkpt><trkpt lat="46.141158081318636" lon="9.773682462854822"><ele>888.0</ele><time>2026-04-25T16:26:46.013Z</time></trkpt><trkpt lat="46.14120958908045" lon="9.773786727035533"><ele>882.0</ele><time>2026-04-25T16:26:47.013Z</time></trkpt><trkpt lat="46.14127541324482" lon="9.773884511020743"><ele>882.0</ele><time>2026-04-25T16:26:49.013Z</time></trkpt><trkpt lat="46.14124007372431" lon="9.77397085424006"><ele>882.0</ele><time>2026-04-25T16:26:50.013Z</time></trkpt><trkpt lat="46.14124604703971" lon="9.774108380254166"><ele>882.0</ele><time>2026-04-25T16:26:52.013Z</time></trkpt><trkpt lat="46.14127996062552" lon="9.774191093905948"><ele>882.0</ele><time>2026-04-25T16:26:53.012Z</time></trkpt><trkpt lat="46.14136989266193" lon="9.774296161397741"><ele>882.0</ele><time>2026-04-25T16:26:54.012Z</time></trkpt><trkpt lat="46.14143439000681" lon="9.774371098677054"><ele>882.0</ele><time>2026-04-25T16:26:55.012Z</time></trkpt><trkpt lat="46.14146061245434" lon="9.774476142276132"><ele>876.6</ele><time>2026-04-25T16:26:57.012Z</time></trkpt><trkpt lat="46.14156764609699" lon="9.774423425038405"><ele>871.2</ele><time>2026-04-25T16:27:00.012Z</time></trkpt><trkpt lat="46.14160070712603" lon="9.77434353284726"><ele>865.8</ele><time>2026-04-25T16:27:01.012Z</time></trkpt><trkpt lat="46.14165907365073" lon="9.77424305475675"><ele>860.4</ele><time>2026-04-25T16:27:02.012Z</time></trkpt><trkpt lat="46.141705133923566" lon="9.774154425468847"><ele>855.0</ele><time>2026-04-25T16:27:03.012Z</time></trkpt><trkpt lat="46.14177936132839" lon="9.774033445975434"><ele>853.3333333333334</ele><time>2026-04-25T16:27:05.012Z</time></trkpt><trkpt lat="46.1417387422726" lon="9.773892707511306"><ele>851.6666666666667</ele><time>2026-04-25T16:27:07.012Z</time></trkpt><trkpt lat="46.14170710134273" lon="9.773790739757722"><ele>850.0</ele><time>2026-04-25T16:27:08.012Z</time></trkpt><trkpt lat="46.14168137871743" lon="9.773695175287108"><ele>848.3333333333334</ele><time>2026-04-25T16:27:09.012Z</time></trkpt><trkpt lat="46.141624143941115" lon="9.773595607686637"><ele>846.6666666666667</ele><time>2026-04-25T16:27:11.012Z</time></trkpt><trkpt lat="46.14170577242852" lon="9.773592617765003"><ele>845.0</ele><time>2026-04-25T16:27:14.012Z</time></trkpt><trkpt lat="46.14176928879069" lon="9.773652610143866"><ele>845.0000000000001</ele><time>2026-04-25T16:27:15.012Z</time></trkpt><trkpt lat="46.14183073065272" lon="9.773750518279433"><ele>845.0</ele><time>2026-04-25T16:27:16.012Z</time></trkpt><trkpt lat="46.14190278609481" lon="9.773851400916136"><ele>845.0</ele><time>2026-04-25T16:27:17.012Z</time></trkpt><trkpt lat="46.14196933080935" lon="9.773934297734138"><ele>845.0</ele><time>2026-04-25T16:27:18.012Z</time></trkpt><trkpt lat="46.14200206593369" lon="9.77403746490195"><ele>845.0000000000001</ele><time>2026-04-25T16:27:19.012Z</time></trkpt><trkpt lat="46.142012822843675" lon="9.77414216796731"><ele>845.0</ele><time>2026-04-25T16:27:20.012Z</time></trkpt><trkpt lat="46.141987610838235" lon="9.774268376332799"><ele>846.6666666666667</ele><time>2026-04-25T16:27:21.012Z</time></trkpt><trkpt lat="46.141986278366666" lon="9.774399776492837"><ele>848.3333333333334</ele><time>2026-04-25T16:27:22.012Z</time></trkpt><trkpt lat="46.14198414517501" lon="9.774526352288323"><ele>850.0</ele><time>2026-04-25T16:27:23.012Z</time></trkpt><trkpt lat="46.141991729685174" lon="9.774633445038539"><ele>851.6666666666667</ele><time>2026-04-25T16:27:24.012Z</time></trkpt><trkpt lat="46.1420382820609" lon="9.774732407601492"><ele>853.3333333333334</ele><time>2026-04-25T16:27:25.012Z</time></trkpt><trkpt lat="46.14212163966981" lon="9.774826003902144"><ele>855.0</ele><time>2026-04-25T16:27:26.012Z</time></trkpt><trkpt lat="46.14220962915933" lon="9.774884888598187"><ele>855.0</ele><time>2026-04-25T16:27:27.012Z</time></trkpt><trkpt lat="46.14228785230325" lon="9.774965457970259"><ele>855.0</ele><time>2026-04-25T16:27:28.012Z</time></trkpt><trkpt lat="46.14232502572493" lon="9.775060248569153"><ele>855.0</ele><time>2026-04-25T16:27:29.012Z</time></trkpt><trkpt lat="46.14238340283497" lon="9.775104201192839"><ele>855.0</ele><time>2026-04-25T16:27:31.012Z</time></trkpt><trkpt lat="46.14242288883415" lon="9.775015541305313"><ele>855.0</ele><time>2026-04-25T16:27:32.012Z</time></trkpt><trkpt lat="46.14240588195003" lon="9.774884914844556"><ele>855.0</ele><time>2026-04-25T16:27:33.012Z</time></trkpt><trkpt lat="46.14237590049468" lon="9.774714568611248"><ele>855.0</ele><time>2026-04-25T16:27:34.012Z</time></trkpt><trkpt lat="46.14233800840942" lon="9.77454908964076"><ele>855.0</ele><time>2026-04-25T16:27:35.012Z</time></trkpt><trkpt lat="46.142317990940306" lon="9.774416100535976"><ele>855.0</ele><time>2026-04-25T16:27:36.012Z</time></trkpt><trkpt lat="46.142252253250454" lon="9.774276559667896"><ele>855.0</ele><time>2026-04-25T16:27:38.012Z</time></trkpt><trkpt lat="46.142338056920906" lon="9.774272016019562"><ele>855.0</ele><time>2026-04-25T16:27:41.012Z</time></trkpt><trkpt lat="46.1424024254074" lon="9.774366051153203"><ele>844.8</ele><time>2026-04-25T16:27:42.012Z</time></trkpt><trkpt lat="46.14247873356191" lon="9.774515508206594"><ele>834.6</ele><time>2026-04-25T16:27:43.012Z</time></trkpt><trkpt lat="46.14252757952412" lon="9.774647844599787"><ele>824.4000000000001</ele><time>2026-04-25T16:27:44.012Z</time></trkpt><trkpt lat="46.14254400184422" lon="9.774785646494244"><ele>814.2</ele><time>2026-04-25T16:27:45.012Z</time></trkpt><trkpt lat="46.14256352931347" lon="9.774930270967324"><ele>804.0</ele><time>2026-04-25T16:27:46.012Z</time></trkpt><trkpt lat="46.142630028332924" lon="9.775053839983965"><ele>804.0</ele><time>2026-04-25T16:27:47.012Z</time></trkpt><trkpt lat="46.142710181967274" lon="9.775182995329567"><ele>804.0</ele><time>2026-04-25T16:27:48.012Z</time></trkpt><trkpt lat="46.142775474360036" lon="9.775327864242081"><ele>804.0</ele><time>2026-04-25T16:27:49.012Z</time></trkpt><trkpt lat="46.14283673889696" lon="9.775490356902928"><ele>804.0</ele><time>2026-04-25T16:27:50.012Z</time></trkpt><trkpt lat="46.14286559782988" lon="9.775660986094664"><ele>807.0</ele><time>2026-04-25T16:27:51.012Z</time></trkpt><trkpt lat="46.1429213704246" lon="9.775840413061168"><ele>810.0</ele><time>2026-04-25T16:27:52.012Z</time></trkpt><trkpt lat="46.143005274257995" lon="9.776009636559676"><ele>813.0</ele><time>2026-04-25T16:27:53.012Z</time></trkpt><trkpt lat="46.14307986344588" lon="9.776187986374227"><ele>816.0</ele><time>2026-04-25T16:27:54.012Z</time></trkpt><trkpt lat="46.143141237619744" lon="9.77636382597845"><ele>819.5</ele><time>2026-04-25T16:27:55.012Z</time></trkpt><trkpt lat="46.14320342856046" lon="9.776566105820258"><ele>823.0</ele><time>2026-04-25T16:27:56.012Z</time></trkpt><trkpt lat="46.14327963976536" lon="9.776755857290414"><ele>826.5</ele><time>2026-04-25T16:27:57.012Z</time></trkpt><trkpt lat="46.143309716800005" lon="9.776935400061216"><ele>830.0</ele><time>2026-04-25T16:27:58.012Z</time></trkpt><trkpt lat="46.1433438578271" lon="9.77712304688412"><ele>821.0</ele><time>2026-04-25T16:27:59.012Z</time></trkpt><trkpt lat="46.14335301464242" lon="9.777299996590793"><ele>812.0</ele><time>2026-04-25T16:28:00.012Z</time></trkpt><trkpt lat="46.14339012412135" lon="9.777459160511402"><ele>803.0</ele><time>2026-04-25T16:28:01.012Z</time></trkpt><trkpt lat="46.14343210353677" lon="9.777603950991503"><ele>794.0</ele><time>2026-04-25T16:28:02.012Z</time></trkpt><trkpt lat="46.14350524543044" lon="9.777740614098203"><ele>794.0</ele><time>2026-04-25T16:28:03.012Z</time></trkpt><trkpt lat="46.143609345544846" lon="9.777823668906318"><ele>794.0</ele><time>2026-04-25T16:28:04.012Z</time></trkpt><trkpt lat="46.143697728749" lon="9.777904571355103"><ele>794.0</ele><time>2026-04-25T16:28:05.012Z</time></trkpt><trkpt lat="46.14377342808772" lon="9.778014571873637"><ele>794.0</ele><time>2026-04-25T16:28:06.012Z</time></trkpt><trkpt lat="46.1438232147953" lon="9.7781359232707"><ele>794.0</ele><time>2026-04-25T16:28:07.012Z</time></trkpt><trkpt lat="46.14385922829287" lon="9.778278954487307"><ele>794.0</ele><time>2026-04-25T16:28:08.012Z</time></trkpt><trkpt lat="46.143903679340454" lon="9.77840421833081"><ele>794.0</ele><time>2026-04-25T16:28:09.012Z</time></trkpt><trkpt lat="46.143939569687916" lon="9.778531018739166"><ele>794.0</ele><time>2026-04-25T16:28:10.012Z</time></trkpt><trkpt lat="46.14397736617585" lon="9.778640069442728"><ele>794.0</ele><time>2026-04-25T16:28:11.012Z</time></trkpt><trkpt lat="46.14401916932472" lon="9.77874424119573"><ele>794.0</ele><time>2026-04-25T16:28:12.012Z</time></trkpt><trkpt lat="46.144095265655345" lon="9.778827244781796"><ele>785.3333333333334</ele><time>2026-04-25T16:28:13.012Z</time></trkpt><trkpt lat="46.14415694491993" lon="9.778922288017244"><ele>776.6666666666667</ele><time>2026-04-25T16:28:14.012Z</time></trkpt><trkpt lat="46.14421663582974" lon="9.779028445911829"><ele>768.0</ele><time>2026-04-25T16:28:15.012Z</time></trkpt><trkpt lat="46.144250131235104" lon="9.779137060562928"><ele>759.3333333333334</ele><time>2026-04-25T16:28:16.012Z</time></trkpt><trkpt lat="46.14426769145656" lon="9.779246686570115"><ele>750.6666666666667</ele><time>2026-04-25T16:28:17.012Z</time></trkpt><trkpt lat="46.14427540186169" lon="9.779348447754236"><ele>742.0</ele><time>2026-04-25T16:28:18.012Z</time></trkpt><trkpt lat="46.144284434351846" lon="9.779499903680572"><ele>741.0</ele><time>2026-04-25T16:28:20.012Z</time></trkpt><trkpt lat="46.14426931148613" lon="9.779629139724424"><ele>740.0</ele><time>2026-04-25T16:28:22.012Z</time></trkpt><trkpt lat="46.1442346431823" lon="9.779760871015826"><ele>739.0</ele><time>2026-04-25T16:28:24.012Z</time></trkpt><trkpt lat="46.14419219528012" lon="9.779880037181542"><ele>738.0</ele><time>2026-04-25T16:28:26.012Z</time></trkpt><trkpt lat="46.14410705520163" lon="9.779999760363141"><ele>737.0</ele><time>2026-04-25T16:28:28.012Z</time></trkpt><trkpt lat="46.14408475021166" lon="9.780119634733241"><ele>734.0</ele><time>2026-04-25T16:28:31.012Z</time></trkpt><trkpt lat="46.1440780169087" lon="9.780254476911418"><ele>731.0</ele><time>2026-04-25T16:28:33.012Z</time></trkpt><trkpt lat="46.14403952947122" lon="9.780358134700702"><ele>728.0</ele><time>2026-04-25T16:28:34.012Z</time></trkpt><trkpt lat="46.14398988290927" lon="9.780450046361123"><ele>725.0</ele><time>2026-04-25T16:28:35.012Z</time></trkpt><trkpt lat="46.14396939755461" lon="9.780581823157625"><ele>722.0</ele><time>2026-04-25T16:28:36.012Z</time></trkpt><trkpt lat="46.143982647590754" lon="9.780711445842911"><ele>719.0</ele><time>2026-04-25T16:28:38.013Z</time></trkpt><trkpt lat="46.14405529370664" lon="9.780829021108017"><ele>719.0</ele><time>2026-04-25T16:28:40.013Z</time></trkpt><trkpt lat="46.14404526791827" lon="9.78092735364981"><ele>719.0</ele><time>2026-04-25T16:28:41.012Z</time></trkpt><trkpt lat="46.14400911713905" lon="9.78103904876702"><ele>719.0</ele><time>2026-04-25T16:28:43.012Z</time></trkpt><trkpt lat="46.1441032541227" lon="9.781007917803306"><ele>719.0</ele><time>2026-04-25T16:28:52.012Z</time></trkpt><trkpt lat="46.14416640400746" lon="9.780904975766566"><ele>719.0</ele><time>2026-04-25T16:28:54.012Z</time></trkpt><trkpt lat="46.1442075102596" lon="9.780756761201664"><ele>719.0</ele><time>2026-04-25T16:28:56.012Z</time></trkpt><trkpt lat="46.144242387488255" lon="9.780676530883767"><ele>719.0</ele><time>2026-04-25T16:29:00.012Z</time></trkpt><trkpt lat="46.14431358055033" lon="9.780761296826615"><ele>719.0</ele><time>2026-04-25T16:29:02.012Z</time></trkpt><trkpt lat="46.144335039827716" lon="9.780859327916875"><ele>719.0</ele><time>2026-04-25T16:29:04.012Z</time></trkpt><trkpt lat="46.144368067615815" lon="9.780960045553371"><ele>719.0</ele><time>2026-04-25T16:29:07.012Z</time></trkpt><trkpt lat="46.14444050224881" lon="9.781018755812404"><ele>719.0</ele><time>2026-04-25T16:29:10.012Z</time></trkpt><trkpt lat="46.14444235323336" lon="9.781140225057849"><ele>716.6</ele><time>2026-04-25T16:29:12.012Z</time></trkpt><trkpt lat="46.1444672718652" lon="9.78127221548671"><ele>714.2</ele><time>2026-04-25T16:29:14.012Z</time></trkpt><trkpt lat="46.14454378322789" lon="9.781304357809164"><ele>711.8000000000001</ele><time>2026-04-25T16:29:22.012Z</time></trkpt><trkpt lat="46.144564761809576" lon="9.78144220375412"><ele>709.4000000000001</ele><time>2026-04-25T16:29:26.012Z</time></trkpt><trkpt lat="46.14456001399045" lon="9.781541968289844"><ele>707.0</ele><time>2026-04-25T16:29:28.012Z</time></trkpt><trkpt lat="46.14466011601898" lon="9.781629232564999"><ele>707.0</ele><time>2026-04-25T16:29:54.012Z</time></trkpt><trkpt lat="46.144749383783235" lon="9.781609149245932"><ele>707.0</ele><time>2026-04-25T16:30:04.012Z</time></trkpt><trkpt lat="46.14480408128868" lon="9.781516753526706"><ele>707.0</ele><time>2026-04-25T16:30:06.012Z</time></trkpt><trkpt lat="46.14486321761761" lon="9.781550967244497"><ele>707.0</ele><time>2026-04-25T16:30:09.012Z</time></trkpt><trkpt lat="46.1448736244367" lon="9.781655383324969"><ele>707.0</ele><time>2026-04-25T16:30:12.012Z</time></trkpt><trkpt lat="46.144940653007914" lon="9.781687720977786"><ele>707.0</ele><time>2026-04-25T16:30:29.012Z</time></trkpt><trkpt lat="46.145014480525795" lon="9.781603775335496"><ele>697.6666666666666</ele><time>2026-04-25T16:30:32.012Z</time></trkpt><trkpt lat="46.14503704188137" lon="9.78148333548436"><ele>688.3333333333333</ele><time>2026-04-25T16:30:34.012Z</time></trkpt><trkpt lat="46.14502991716291" lon="9.781585870553272"><ele>679.0</ele><time>2026-04-25T16:30:41.011Z</time></trkpt><trkpt lat="46.145097900258776" lon="9.781569038973682"><ele>669.6666666666666</ele><time>2026-04-25T16:30:51.013Z</time></trkpt><trkpt lat="46.14506052172312" lon="9.781438305865704"><ele>660.3333333333334</ele><time>2026-04-25T16:31:13.012Z</time></trkpt><trkpt lat="46.145138086706496" lon="9.781393922083492"><ele>651.0</ele><time>2026-04-25T16:31:30.012Z</time></trkpt><trkpt lat="46.14516442720601" lon="9.781293375272845"><ele>651.0</ele><time>2026-04-25T16:31:32.012Z</time></trkpt><trkpt lat="46.14521310326525" lon="9.78118320974396"><ele>651.0</ele><time>2026-04-25T16:31:34.012Z</time></trkpt><trkpt lat="46.14527638267227" lon="9.781052602894533"><ele>651.0</ele><time>2026-04-25T16:31:36.012Z</time></trkpt><trkpt lat="46.14530915935803" lon="9.780944560291815"><ele>651.0</ele><time>2026-04-25T16:31:38.012Z</time></trkpt><trkpt lat="46.145316686857555" lon="9.780795054074552"><ele>651.0</ele><time>2026-04-25T16:31:40.012Z</time></trkpt><trkpt lat="46.14536605854854" lon="9.780721711088562"><ele>653.4</ele><time>2026-04-25T16:31:42.012Z</time></trkpt><trkpt lat="46.14543992465133" lon="9.7806455115392"><ele>655.8</ele><time>2026-04-25T16:31:44.012Z</time></trkpt><trkpt lat="46.14547230181156" lon="9.780538526998205"><ele>658.1999999999999</ele><time>2026-04-25T16:31:54.012Z</time></trkpt><trkpt lat="46.14550474097736" lon="9.780432163828937"><ele>660.5999999999999</ele><time>2026-04-25T16:31:57.012Z</time></trkpt><trkpt lat="46.14552497856976" lon="9.780277743642772"><ele>663.0</ele><time>2026-04-25T16:31:59.012Z</time></trkpt><trkpt lat="46.14559537803602" lon="9.780172143348889"><ele>665.2</ele><time>2026-04-25T16:32:01.012Z</time></trkpt><trkpt lat="46.14566663569865" lon="9.780140951992363"><ele>667.4</ele><time>2026-04-25T16:32:03.012Z</time></trkpt><trkpt lat="46.14571297608615" lon="9.779993415503835"><ele>669.6</ele><time>2026-04-25T16:32:06.012Z</time></trkpt><trkpt lat="46.145768885919075" lon="9.779886123847625"><ele>671.8000000000001</ele><time>2026-04-25T16:32:08.012Z</time></trkpt><trkpt lat="46.14580088914231" lon="9.779787268265517"><ele>674.0</ele><time>2026-04-25T16:32:10.012Z</time></trkpt><trkpt lat="46.14584511707013" lon="9.779665662495695"><ele>662.5</ele><time>2026-04-25T16:32:13.012Z</time></trkpt><trkpt lat="46.145863764166926" lon="9.779534817704278"><ele>651.0</ele><time>2026-04-25T16:32:15.012Z</time></trkpt><trkpt lat="46.14587477048531" lon="9.779430879600387"><ele>639.5</ele><time>2026-04-25T16:32:17.012Z</time></trkpt><trkpt lat="46.14579578168491" lon="9.779361316981289"><ele>628.0</ele><time>2026-04-25T16:32:20.012Z</time></trkpt><trkpt lat="46.14573281060619" lon="9.77931627881159"><ele>616.5</ele><time>2026-04-25T16:32:22.012Z</time></trkpt><trkpt lat="46.14573568266753" lon="9.779221373608628"><ele>605.0</ele><time>2026-04-25T16:32:24.012Z</time></trkpt><trkpt lat="46.1457265690803" lon="9.779100294525502"><ele>603.5</ele><time>2026-04-25T16:32:26.012Z</time></trkpt><trkpt lat="46.14571350241081" lon="9.779007883191118"><ele>602.0</ele><time>2026-04-25T16:32:28.012Z</time></trkpt><trkpt lat="46.145731641207895" lon="9.778904219814969"><ele>600.5</ele><time>2026-04-25T16:32:30.012Z</time></trkpt><trkpt lat="46.14574202316403" lon="9.778724983219867"><ele>599.0</ele><time>2026-04-25T16:32:32.012Z</time></trkpt><trkpt lat="46.145753692255035" lon="9.778600420414328"><ele>597.5</ele><time>2026-04-25T16:32:34.012Z</time></trkpt><trkpt lat="46.14574172315402" lon="9.778489622634764"><ele>596.0</ele><time>2026-04-25T16:32:37.012Z</time></trkpt><trkpt lat="46.145826576650634" lon="9.778424068228311"><ele>593.0</ele><time>2026-04-25T16:32:41.012Z</time></trkpt><trkpt lat="46.14584535745865" lon="9.778322091849576"><ele>590.0</ele><time>2026-04-25T16:32:43.012Z</time></trkpt><trkpt lat="46.14589932883392" lon="9.778191768711977"><ele>587.0</ele><time>2026-04-25T16:32:45.012Z</time></trkpt><trkpt lat="46.145913289993395" lon="9.778075505590293"><ele>584.0</ele><time>2026-04-25T16:32:47.012Z</time></trkpt><trkpt lat="46.145962559981854" lon="9.77795422078539"><ele>581.0</ele><time>2026-04-25T16:32:49.012Z</time></trkpt><trkpt lat="46.145940457543794" lon="9.777805362935352"><ele>581.0</ele><time>2026-04-25T16:32:51.013Z</time></trkpt><trkpt lat="46.145929151708046" lon="9.777708802813079"><ele>581.0</ele><time>2026-04-25T16:32:53.013Z</time></trkpt><trkpt lat="46.1459254923666" lon="9.777607644870871"><ele>581.0</ele><time>2026-04-25T16:32:57.013Z</time></trkpt><trkpt lat="46.14596030759535" lon="9.777498646649297"><ele>581.0</ele><time>2026-04-25T16:33:00.013Z</time></trkpt><trkpt lat="46.146034871587005" lon="9.777494318936213"><ele>581.0</ele><time>2026-04-25T16:33:07.013Z</time></trkpt><trkpt lat="46.146161848980235" lon="9.77752681329218"><ele>581.0</ele><time>2026-04-25T16:33:09.012Z</time></trkpt><trkpt lat="46.14622741329259" lon="9.777642319572847"><ele>581.0</ele><time>2026-04-25T16:33:11.012Z</time></trkpt><trkpt lat="46.14619071553843" lon="9.777766058453661"><ele>581.0</ele><time>2026-04-25T16:33:13.012Z</time></trkpt><trkpt lat="46.14617511549219" lon="9.777859633725356"><ele>581.0</ele><time>2026-04-25T16:33:16.012Z</time></trkpt><trkpt lat="46.146211261065424" lon="9.77778163140272"><ele>581.0</ele><time>2026-04-25T16:33:20.012Z</time></trkpt><trkpt lat="46.14628564880222" lon="9.777685116625042"><ele>581.0</ele><time>2026-04-25T16:33:23.012Z</time></trkpt><trkpt lat="46.14632505574025" lon="9.777588629659316"><ele>581.0</ele><time>2026-04-25T16:33:25.012Z</time></trkpt><trkpt lat="46.14634049554661" lon="9.777458285949956"><ele>579.0</ele><time>2026-04-25T16:33:27.012Z</time></trkpt><trkpt lat="46.14635049377897" lon="9.777272140949373"><ele>577.0</ele><time>2026-04-25T16:33:29.012Z</time></trkpt><trkpt lat="46.14634459311872" lon="9.777136847625393"><ele>575.0</ele><time>2026-04-25T16:33:31.012Z</time></trkpt><trkpt lat="46.14632799430791" lon="9.777049158196453"><ele>573.0</ele><time>2026-04-25T16:33:33.012Z</time></trkpt><trkpt lat="46.146326596781215" lon="9.776872344732247"><ele>571.0</ele><time>2026-04-25T16:33:35.012Z</time></trkpt><trkpt lat="46.14628814940337" lon="9.776746844754165"><ele>568.5</ele><time>2026-04-25T16:33:37.012Z</time></trkpt><trkpt lat="46.14625566599821" lon="9.776668506508946"><ele>566.0</ele><time>2026-04-25T16:33:38.012Z</time></trkpt><trkpt lat="46.14619887846397" lon="9.776540325830075"><ele>563.5</ele><time>2026-04-25T16:33:40.012Z</time></trkpt><trkpt lat="46.146165279533214" lon="9.776402879672403"><ele>561.0</ele><time>2026-04-25T16:33:42.012Z</time></trkpt><trkpt lat="46.14616212435654" lon="9.776275149606247"><ele>558.5</ele><time>2026-04-25T16:33:44.012Z</time></trkpt><trkpt lat="46.146171223016886" lon="9.776155682327946"><ele>556.0</ele><time>2026-04-25T16:33:49.012Z</time></trkpt><trkpt lat="46.14621774083471" lon="9.77608460301219"><ele>553.8333333333334</ele><time>2026-04-25T16:33:51.012Z</time></trkpt><trkpt lat="46.146221603744" lon="9.775945678574308"><ele>551.6666666666667</ele><time>2026-04-25T16:33:53.012Z</time></trkpt><trkpt lat="46.146216658260094" lon="9.775823346712771"><ele>549.5</ele><time>2026-04-25T16:33:55.012Z</time></trkpt><trkpt lat="46.146203618507705" lon="9.775682112735579"><ele>547.3333333333334</ele><time>2026-04-25T16:33:57.012Z</time></trkpt><trkpt lat="46.14616345299561" lon="9.775592808275748"><ele>545.1666666666666</ele><time>2026-04-25T16:33:59.012Z</time></trkpt><trkpt lat="46.14615186489384" lon="9.775493348724691"><ele>543.0</ele><time>2026-04-25T16:34:01.012Z</time></trkpt><trkpt lat="46.14622096802105" lon="9.775577306275439"><ele>543.0</ele><time>2026-04-25T16:34:04.012Z</time></trkpt><trkpt lat="46.146243016490544" lon="9.775765615125824"><ele>543.0</ele><time>2026-04-25T16:34:06.012Z</time></trkpt><trkpt lat="46.14626938547716" lon="9.77590911754133"><ele>543.0</ele><time>2026-04-25T16:34:08.012Z</time></trkpt><trkpt lat="46.146301175389645" lon="9.776024755750017"><ele>543.0</ele><time>2026-04-25T16:34:10.012Z</time></trkpt><trkpt lat="46.14637903755407" lon="9.775978129045434"><ele>543.0</ele><time>2026-04-25T16:34:12.012Z</time></trkpt><trkpt lat="46.146394792420644" lon="9.775827126366323"><ele>543.0</ele><time>2026-04-25T16:34:14.012Z</time></trkpt><trkpt lat="46.14638201729263" lon="9.775690562997386"><ele>543.0</ele><time>2026-04-25T16:34:16.012Z</time></trkpt><trkpt lat="46.14636534977491" lon="9.775508960628734"><ele>543.0</ele><time>2026-04-25T16:34:18.012Z</time></trkpt><trkpt lat="46.146350357286686" lon="9.775410374411244"><ele>543.0</ele><time>2026-04-25T16:34:19.012Z</time></trkpt><trkpt lat="46.14632836402962" lon="9.775317731773857"><ele>543.0</ele><time>2026-04-25T16:34:20.012Z</time></trkpt><trkpt lat="46.14631683161618" lon="9.77522516180184"><ele>543.0</ele><time>2026-04-25T16:34:21.012Z</time></trkpt><trkpt lat="46.14631381816577" lon="9.775132218585775"><ele>541.8333333333334</ele><time>2026-04-25T16:34:22.012Z</time></trkpt><trkpt lat="46.1463240669922" lon="9.775026888339118"><ele>540.6666666666666</ele><time>2026-04-25T16:34:23.012Z</time></trkpt><trkpt lat="46.14634852737801" lon="9.774915294145046"><ele>539.5</ele><time>2026-04-25T16:34:24.012Z</time></trkpt><trkpt lat="46.14635990079871" lon="9.774808657718282"><ele>538.3333333333333</ele><time>2026-04-25T16:34:25.012Z</time></trkpt><trkpt lat="46.146367157067154" lon="9.774709864663894"><ele>537.1666666666666</ele><time>2026-04-25T16:34:26.012Z</time></trkpt><trkpt lat="46.14636012527619" lon="9.774604627057673"><ele>536.0</ele><time>2026-04-25T16:34:27.012Z</time></trkpt><trkpt lat="46.14633946595837" lon="9.774489290646422"><ele>536.0</ele><time>2026-04-25T16:34:28.012Z</time></trkpt><trkpt lat="46.146304631009755" lon="9.774380959434524"><ele>536.0</ele><time>2026-04-25T16:34:29.012Z</time></trkpt><trkpt lat="46.146276594947594" lon="9.774290463338042"><ele>536.0</ele><time>2026-04-25T16:34:30.012Z</time></trkpt><trkpt lat="46.146239472094656" lon="9.77418654035132"><ele>536.0</ele><time>2026-04-25T16:34:31.012Z</time></trkpt><trkpt lat="46.14621850720653" lon="9.77408200029158"><ele>536.0</ele><time>2026-04-25T16:34:32.012Z</time></trkpt><trkpt lat="46.14618991102261" lon="9.773911360084897"><ele>536.0</ele><time>2026-04-25T16:34:34.012Z</time></trkpt><trkpt lat="46.146195069656926" lon="9.773805786254753"><ele>534.1666666666666</ele><time>2026-04-25T16:34:36.012Z</time></trkpt><trkpt lat="46.1462596329677" lon="9.7738148296027"><ele>532.3333333333333</ele><time>2026-04-25T16:34:37.012Z</time></trkpt><trkpt lat="46.14633733331343" lon="9.773944982501867"><ele>530.5</ele><time>2026-04-25T16:34:39.012Z</time></trkpt><trkpt lat="46.14634701428345" lon="9.774043803711008"><ele>528.6666666666666</ele><time>2026-04-25T16:34:40.012Z</time></trkpt><trkpt lat="46.1463680888447" lon="9.77413791807622"><ele>526.8333333333334</ele><time>2026-04-25T16:34:41.012Z</time></trkpt><trkpt lat="46.1464183032234" lon="9.774219451652389"><ele>525.0</ele><time>2026-04-25T16:34:42.012Z</time></trkpt><trkpt lat="46.14649976747063" lon="9.7742891646456"><ele>517.1666666666666</ele><time>2026-04-25T16:34:43.012Z</time></trkpt><trkpt lat="46.146595789605016" lon="9.774335860593034"><ele>509.33333333333337</ele><time>2026-04-25T16:34:44.012Z</time></trkpt><trkpt lat="46.14667526563675" lon="9.77437425475268"><ele>501.5</ele><time>2026-04-25T16:34:45.012Z</time></trkpt><trkpt lat="46.14674771980232" lon="9.774439461047914"><ele>493.6666666666667</ele><time>2026-04-25T16:34:46.012Z</time></trkpt><trkpt lat="46.14679737501952" lon="9.774523222855647"><ele>485.83333333333337</ele><time>2026-04-25T16:34:47.012Z</time></trkpt><trkpt lat="46.14686001692831" lon="9.774581455366947"><ele>478.0</ele><time>2026-04-25T16:34:49.012Z</time></trkpt><trkpt lat="46.14689441138257" lon="9.7744843738154"><ele>478.0</ele><time>2026-04-25T16:34:50.012Z</time></trkpt><trkpt lat="46.14685290375681" lon="9.774374632384868"><ele>477.99999999999994</ele><time>2026-04-25T16:34:51.012Z</time></trkpt><trkpt lat="46.14678860321462" lon="9.774237742514625"><ele>477.99999999999994</ele><time>2026-04-25T16:34:52.012Z</time></trkpt><trkpt lat="46.14672064677601" lon="9.774110787958906"><ele>478.0</ele><time>2026-04-25T16:34:53.012Z</time></trkpt><trkpt lat="46.146669977210024" lon="9.773991983992524"><ele>478.0</ele><time>2026-04-25T16:34:54.012Z</time></trkpt><trkpt lat="46.146617300279345" lon="9.77389339839083"><ele>476.2</ele><time>2026-04-25T16:34:55.012Z</time></trkpt><trkpt lat="46.14658897937873" lon="9.773766748485869"><ele>474.4</ele><time>2026-04-25T16:34:56.014Z</time></trkpt><trkpt lat="46.146599049266335" lon="9.773612842640864"><ele>472.59999999999997</ele><time>2026-04-25T16:34:57.013Z</time></trkpt><trkpt lat="46.14664594341318" lon="9.77348011198263"><ele>470.79999999999995</ele><time>2026-04-25T16:34:58.013Z</time></trkpt><trkpt lat="46.146679300596475" lon="9.773395384607337"><ele>469.0</ele><time>2026-04-25T16:34:59.014Z</time></trkpt><trkpt lat="46.14664544935447" lon="9.773269659472273"><ele>466.0</ele><time>2026-04-25T16:35:00.013Z</time></trkpt><trkpt lat="46.14658298172192" lon="9.773160766688882"><ele>463.0</ele><time>2026-04-25T16:35:01.013Z</time></trkpt><trkpt lat="46.14652436176061" lon="9.772989540953377"><ele>460.0</ele><time>2026-04-25T16:35:02.014Z</time></trkpt><trkpt lat="46.14651137385306" lon="9.772807032828515"><ele>457.0</ele><time>2026-04-25T16:35:03.014Z</time></trkpt><trkpt lat="46.14650642119611" lon="9.772618071222098"><ele>464.5</ele><time>2026-04-25T16:35:04.014Z</time></trkpt><trkpt lat="46.14651120099203" lon="9.772424905785893"><ele>472.0</ele><time>2026-04-25T16:35:05.013Z</time></trkpt><trkpt lat="46.14651762923642" lon="9.77222855255121"><ele>479.5</ele><time>2026-04-25T16:35:06.013Z</time></trkpt><trkpt lat="46.146498879319495" lon="9.772032414359973"><ele>487.0</ele><time>2026-04-25T16:35:07.013Z</time></trkpt><trkpt lat="46.146482041141525" lon="9.771836976055079"><ele>487.0</ele><time>2026-04-25T16:35:08.014Z</time></trkpt><trkpt lat="46.14647067801942" lon="9.771657703397619"><ele>487.0</ele><time>2026-04-25T16:35:09.013Z</time></trkpt><trkpt lat="46.14645564533255" lon="9.771488501654824"><ele>487.0</ele><time>2026-04-25T16:35:10.013Z</time></trkpt><trkpt lat="46.14644814911301" lon="9.771335865734573"><ele>487.0</ele><time>2026-04-25T16:35:11.013Z</time></trkpt><trkpt lat="46.14642019450242" lon="9.77119298485202"><ele>487.0</ele><time>2026-04-25T16:35:12.013Z</time></trkpt><trkpt lat="46.14638374338716" lon="9.771051341807189"><ele>487.0</ele><time>2026-04-25T16:35:13.013Z</time></trkpt><trkpt lat="46.14633723594717" lon="9.7708834386124"><ele>487.0</ele><time>2026-04-25T16:35:14.013Z</time></trkpt><trkpt lat="46.14632326823204" lon="9.770721180980289"><ele>487.0</ele><time>2026-04-25T16:35:15.013Z</time></trkpt><trkpt lat="46.14631669396443" lon="9.770565896290172"><ele>485.33333333333337</ele><time>2026-04-25T16:35:16.013Z</time></trkpt><trkpt lat="46.14630144293678" lon="9.770454968600452"><ele>483.6666666666667</ele><time>2026-04-25T16:35:17.013Z</time></trkpt><trkpt lat="46.14629585578849" lon="9.770343143397069"><ele>482.0</ele><time>2026-04-25T16:35:19.013Z</time></trkpt><trkpt lat="46.14639800758881" lon="9.770392057474831"><ele>480.33333333333337</ele><time>2026-04-25T16:35:21.013Z</time></trkpt><trkpt lat="46.14642971664461" lon="9.770505614090258"><ele>478.6666666666667</ele><time>2026-04-25T16:35:22.013Z</time></trkpt><trkpt lat="46.146449725251216" lon="9.770613881801085"><ele>477.0</ele><time>2026-04-25T16:35:23.013Z</time></trkpt><trkpt lat="46.14646801900677" lon="9.770706114558738"><ele>477.0</ele><time>2026-04-25T16:35:24.013Z</time></trkpt><trkpt lat="46.14650458996588" lon="9.770839871654525"><ele>477.00000000000006</ele><time>2026-04-25T16:35:26.013Z</time></trkpt><trkpt lat="46.14655214425684" lon="9.770996877713513"><ele>477.00000000000006</ele><time>2026-04-25T16:35:28.013Z</time></trkpt><trkpt lat="46.14663055595964" lon="9.77111211097999"><ele>477.0</ele><time>2026-04-25T16:35:30.013Z</time></trkpt><trkpt lat="46.14669922386534" lon="9.77123926562824"><ele>477.0</ele><time>2026-04-25T16:35:32.013Z</time></trkpt><trkpt lat="46.146727443342606" lon="9.771391703065326"><ele>470.6666666666667</ele><time>2026-04-25T16:35:34.013Z</time></trkpt><trkpt lat="46.14673476738018" lon="9.771488118152307"><ele>464.33333333333337</ele><time>2026-04-25T16:35:35.013Z</time></trkpt><trkpt lat="46.14675517411905" lon="9.771585221677432"><ele>458.0</ele><time>2026-04-25T16:35:36.013Z</time></trkpt><trkpt lat="46.146805127707154" lon="9.771720515659934"><ele>451.6666666666667</ele><time>2026-04-25T16:35:38.013Z</time></trkpt><trkpt lat="46.14683354251529" lon="9.771869616201318"><ele>445.33333333333337</ele><time>2026-04-25T16:35:40.013Z</time></trkpt><trkpt lat="46.146855781269444" lon="9.77195609028202"><ele>439.0</ele><time>2026-04-25T16:35:41.013Z</time></trkpt><trkpt lat="46.14688735502589" lon="9.77204101387724"><ele>439.0</ele><time>2026-04-25T16:35:42.013Z</time></trkpt><trkpt lat="46.14694477427034" lon="9.77220089023547"><ele>439.0</ele><time>2026-04-25T16:35:44.013Z</time></trkpt><trkpt lat="46.14697019251805" lon="9.77228469238314"><ele>439.0</ele><time>2026-04-25T16:35:45.013Z</time></trkpt><trkpt lat="46.147023582723364" lon="9.77246193146815"><ele>439.0</ele><time>2026-04-25T16:35:47.013Z</time></trkpt><trkpt lat="46.1470545900688" lon="9.772552705752089"><ele>439.0</ele><time>2026-04-25T16:35:48.013Z</time></trkpt><trkpt lat="46.14713182656595" lon="9.772651185909636"><ele>439.0</ele><time>2026-04-25T16:35:50.013Z</time></trkpt><trkpt lat="46.14715868512593" lon="9.772501865838246"><ele>439.0</ele><time>2026-04-25T16:35:52.013Z</time></trkpt><trkpt lat="46.1471339572668" lon="9.772415603259965"><ele>439.0</ele><time>2026-04-25T16:35:53.013Z</time></trkpt><trkpt lat="46.14707799031271" lon="9.772333370846882"><ele>439.0</ele><time>2026-04-25T16:35:54.013Z</time></trkpt><trkpt lat="46.147056015784926" lon="9.772199475418638"><ele>439.0</ele><time>2026-04-25T16:35:55.013Z</time></trkpt><trkpt lat="46.14703999374261" lon="9.772044686610508"><ele>439.0</ele><time>2026-04-25T16:35:56.013Z</time></trkpt><trkpt lat="46.14703694346935" lon="9.771886830498463"><ele>439.0</ele><time>2026-04-25T16:35:57.013Z</time></trkpt><trkpt lat="46.14704059285885" lon="9.771732979056"><ele>439.0</ele><time>2026-04-25T16:35:58.013Z</time></trkpt><trkpt lat="46.1470280001058" lon="9.771612848826381"><ele>439.0</ele><time>2026-04-25T16:35:59.013Z</time></trkpt><trkpt lat="46.147011012311715" lon="9.771478424032018"><ele>439.0</ele><time>2026-04-25T16:36:00.013Z</time></trkpt><trkpt lat="46.14701110660803" lon="9.771368015713081"><ele>436.6666666666667</ele><time>2026-04-25T16:36:01.013Z</time></trkpt><trkpt lat="46.14700722457172" lon="9.771233888646906"><ele>434.33333333333337</ele><time>2026-04-25T16:36:02.013Z</time></trkpt><trkpt lat="46.14701922726948" lon="9.77112806197301"><ele>432.0</ele><time>2026-04-25T16:36:03.013Z</time></trkpt><trkpt lat="46.14701306919887" lon="9.771009982589607"><ele>429.66666666666663</ele><time>2026-04-25T16:36:04.013Z</time></trkpt><trkpt lat="46.14699688465371" lon="9.770895031196572"><ele>427.3333333333333</ele><time>2026-04-25T16:36:05.013Z</time></trkpt><trkpt lat="46.14696238536504" lon="9.77078222587466"><ele>425.0</ele><time>2026-04-25T16:36:06.013Z</time></trkpt><trkpt lat="46.14694399943066" lon="9.770678074362506"><ele>423.2</ele><time>2026-04-25T16:36:07.013Z</time></trkpt><trkpt lat="46.146927615181745" lon="9.770561543047899"><ele>421.4</ele><time>2026-04-25T16:36:08.013Z</time></trkpt><trkpt lat="46.14691580078137" lon="9.770438682617149"><ele>419.6</ele><time>2026-04-25T16:36:09.013Z</time></trkpt><trkpt lat="46.146884278198215" lon="9.770289899456683"><ele>417.8</ele><time>2026-04-25T16:36:10.013Z</time></trkpt><trkpt lat="46.14683475079241" lon="9.77017745867666"><ele>416.0</ele><time>2026-04-25T16:36:11.013Z</time></trkpt><trkpt lat="46.146793589245135" lon="9.770053941788486"><ele>413.66666666666663</ele><time>2026-04-25T16:36:12.013Z</time></trkpt><trkpt lat="46.14678148003577" lon="9.769938499870468"><ele>411.3333333333333</ele><time>2026-04-25T16:36:13.013Z</time></trkpt><trkpt lat="46.14676548614498" lon="9.769812266938906"><ele>409.0</ele><time>2026-04-25T16:36:14.013Z</time></trkpt><trkpt lat="46.146770237653485" lon="9.769707727127471"><ele>406.66666666666663</ele><time>2026-04-25T16:36:15.013Z</time></trkpt><trkpt lat="46.146776419894" lon="9.769591349053465"><ele>404.3333333333333</ele><time>2026-04-25T16:36:16.013Z</time></trkpt><trkpt lat="46.14677927875256" lon="9.769463225075004"><ele>402.0</ele><time>2026-04-25T16:36:17.013Z</time></trkpt><trkpt lat="46.14676179264845" lon="9.769324239018479"><ele>399.6</ele><time>2026-04-25T16:36:18.013Z</time></trkpt><trkpt lat="46.14673170902046" lon="9.769178564354005"><ele>397.20000000000005</ele><time>2026-04-25T16:36:19.013Z</time></trkpt><trkpt lat="46.146717356717446" lon="9.769020355413838"><ele>394.8</ele><time>2026-04-25T16:36:20.013Z</time></trkpt><trkpt lat="46.14673385955163" lon="9.768872950830675"><ele>392.4</ele><time>2026-04-25T16:36:21.013Z</time></trkpt><trkpt lat="46.14676645563669" lon="9.7687014217339"><ele>390.0</ele><time>2026-04-25T16:36:22.013Z</time></trkpt><trkpt lat="46.146796712046005" lon="9.768539323611733"><ele>388.0</ele><time>2026-04-25T16:36:23.013Z</time></trkpt><trkpt lat="46.14680072606414" lon="9.768364692788507"><ele>386.0</ele><time>2026-04-25T16:36:24.013Z</time></trkpt><trkpt lat="46.14680346344547" lon="9.76821091868652"><ele>384.0</ele><time>2026-04-25T16:36:25.013Z</time></trkpt><trkpt lat="46.14682372176516" lon="9.768087054809007"><ele>382.0</ele><time>2026-04-25T16:36:26.013Z</time></trkpt><trkpt lat="46.14683908124988" lon="9.767957737404062"><ele>380.0</ele><time>2026-04-25T16:36:27.013Z</time></trkpt><trkpt lat="46.14682406259972" lon="9.76783324030491"><ele>380.0</ele><time>2026-04-25T16:36:28.013Z</time></trkpt><trkpt lat="46.14679860371748" lon="9.76772136924987"><ele>380.0</ele><time>2026-04-25T16:36:29.013Z</time></trkpt><trkpt lat="46.14677162388882" lon="9.767591082049186"><ele>380.0</ele><time>2026-04-25T16:36:30.013Z</time></trkpt><trkpt lat="46.14676413138405" lon="9.767465905786986"><ele>380.0</ele><time>2026-04-25T16:36:31.013Z</time></trkpt><trkpt lat="46.14674128705499" lon="9.76733870374356"><ele>380.0</ele><time>2026-04-25T16:36:32.013Z</time></trkpt><trkpt lat="46.14673922118449" lon="9.76723719779277"><ele>380.0</ele><time>2026-04-25T16:36:33.013Z</time></trkpt><trkpt lat="46.14680303133699" lon="9.767199685104917"><ele>380.0</ele><time>2026-04-25T16:36:35.013Z</time></trkpt><trkpt lat="46.146881409493886" lon="9.767289831731441"><ele>380.0</ele><time>2026-04-25T16:36:36.013Z</time></trkpt><trkpt lat="46.146925336850806" lon="9.767431359584497"><ele>380.0</ele><time>2026-04-25T16:36:37.013Z</time></trkpt><trkpt lat="46.146941601391774" lon="9.767603439666042"><ele>380.0</ele><time>2026-04-25T16:36:38.013Z</time></trkpt><trkpt lat="46.146993130366454" lon="9.76776331233617"><ele>380.0</ele><time>2026-04-25T16:36:39.013Z</time></trkpt><trkpt lat="46.14705231273773" lon="9.767897954716707"><ele>380.0</ele><time>2026-04-25T16:36:40.013Z</time></trkpt><trkpt lat="46.14709360056628" lon="9.768026902254055"><ele>380.0</ele><time>2026-04-25T16:36:41.013Z</time></trkpt><trkpt lat="46.147119677590496" lon="9.76816660782964"><ele>380.0</ele><time>2026-04-25T16:36:42.013Z</time></trkpt><trkpt lat="46.14713557302915" lon="9.768312166565089"><ele>380.0</ele><time>2026-04-25T16:36:43.013Z</time></trkpt><trkpt lat="46.147158581056516" lon="9.76841575291418"><ele>380.0</ele><time>2026-04-25T16:36:44.013Z</time></trkpt><trkpt lat="46.147223691163845" lon="9.768490082434027"><ele>380.0</ele><time>2026-04-25T16:36:46.013Z</time></trkpt><trkpt lat="46.14726562229384" lon="9.768298027974877"><ele>380.0</ele><time>2026-04-25T16:36:48.013Z</time></trkpt><trkpt lat="46.147264149559234" lon="9.768155377496594"><ele>380.0</ele><time>2026-04-25T16:36:49.013Z</time></trkpt><trkpt lat="46.14725099871802" lon="9.768015455393426"><ele>380.0</ele><time>2026-04-25T16:36:50.013Z</time></trkpt><trkpt lat="46.14725070082219" lon="9.76786525049298"><ele>380.0</ele><time>2026-04-25T16:36:51.013Z</time></trkpt><trkpt lat="46.14724635256725" lon="9.767712405632427"><ele>380.0</ele><time>2026-04-25T16:36:52.013Z</time></trkpt><trkpt lat="46.147245720085564" lon="9.767579439403834"><ele>380.0</ele><time>2026-04-25T16:36:53.013Z</time></trkpt><trkpt lat="46.147253898329446" lon="9.767454236867227"><ele>380.0</ele><time>2026-04-25T16:36:54.013Z</time></trkpt><trkpt lat="46.147250879300245" lon="9.76733767219576"><ele>380.0</ele><time>2026-04-25T16:36:55.013Z</time></trkpt><trkpt lat="46.14723941489235" lon="9.767194930540322"><ele>376.4</ele><time>2026-04-25T16:36:56.013Z</time></trkpt><trkpt lat="46.14723447105271" lon="9.767046426572639"><ele>372.8</ele><time>2026-04-25T16:36:57.013Z</time></trkpt><trkpt lat="46.147242857198215" lon="9.766897097213654"><ele>369.20000000000005</ele><time>2026-04-25T16:36:58.013Z</time></trkpt><trkpt lat="46.14724824740635" lon="9.766770178808553"><ele>365.6</ele><time>2026-04-25T16:36:59.013Z</time></trkpt><trkpt lat="46.14723725211804" lon="9.76664693288926"><ele>362.0</ele><time>2026-04-25T16:37:00.013Z</time></trkpt><trkpt lat="46.14724015950533" lon="9.766538088609868"><ele>357.6666666666667</ele><time>2026-04-25T16:37:01.013Z</time></trkpt><trkpt lat="46.14724825859848" lon="9.76644526207331"><ele>353.33333333333337</ele><time>2026-04-25T16:37:02.014Z</time></trkpt><trkpt lat="46.14728723779511" lon="9.76632692250831"><ele>349.0</ele><time>2026-04-25T16:37:04.013Z</time></trkpt><trkpt lat="46.147350692795584" lon="9.766298030345553"><ele>344.6666666666667</ele><time>2026-04-25T16:37:05.014Z</time></trkpt><trkpt lat="46.14743726912732" lon="9.766301288152437"><ele>340.3333333333333</ele><time>2026-04-25T16:37:06.013Z</time></trkpt><trkpt lat="46.1475177211622" lon="9.766291025066279"><ele>336.0</ele><time>2026-04-25T16:37:07.013Z</time></trkpt><trkpt lat="46.14759371161012" lon="9.766247276915408"><ele>331.8333333333333</ele><time>2026-04-25T16:37:08.014Z</time></trkpt><trkpt lat="46.14768311845277" lon="9.766253296977933"><ele>327.6666666666667</ele><time>2026-04-25T16:37:09.014Z</time></trkpt><trkpt lat="46.14776378030312" lon="9.766309267354165"><ele>323.5</ele><time>2026-04-25T16:37:10.014Z</time></trkpt><trkpt lat="46.147855233879625" lon="9.766324579026369"><ele>319.33333333333337</ele><time>2026-04-25T16:37:11.014Z</time></trkpt><trkpt lat="46.14792753967967" lon="9.766349510176951"><ele>315.1666666666667</ele><time>2026-04-25T16:37:12.014Z</time></trkpt><trkpt lat="46.14800527290468" lon="9.766311963776868"><ele>311.0</ele><time>2026-04-25T16:37:14.014Z</time></trkpt><trkpt lat="46.14808093767777" lon="9.766167807272412"><ele>311.0</ele><time>2026-04-25T16:37:16.014Z</time></trkpt><trkpt lat="46.1481213408896" lon="9.766035319863947"><ele>311.0</ele><time>2026-04-25T16:37:17.014Z</time></trkpt><trkpt lat="46.1481754340708" lon="9.765933101234605"><ele>311.0</ele><time>2026-04-25T16:37:18.014Z</time></trkpt><trkpt lat="46.14821017056783" lon="9.765840374232747"><ele>311.0</ele><time>2026-04-25T16:37:19.014Z</time></trkpt><trkpt lat="46.14825949857177" lon="9.765727263824267"><ele>311.0</ele><time>2026-04-25T16:37:20.014Z</time></trkpt><trkpt lat="46.14831942125602" lon="9.765615527192763"><ele>309.2</ele><time>2026-04-25T16:37:21.014Z</time></trkpt><trkpt lat="46.148384054678544" lon="9.76553099305152"><ele>307.40000000000003</ele><time>2026-04-25T16:37:22.014Z</time></trkpt><trkpt lat="46.14846492915925" lon="9.765457516410086"><ele>305.6</ele><time>2026-04-25T16:37:23.014Z</time></trkpt><trkpt lat="46.148570219660535" lon="9.76539549617348"><ele>303.8</ele><time>2026-04-25T16:37:24.014Z</time></trkpt><trkpt lat="46.14869027762483" lon="9.765335272660504"><ele>302.0</ele><time>2026-04-25T16:37:25.014Z</time></trkpt><trkpt lat="46.14879952980487" lon="9.765286219294074"><ele>302.0</ele><time>2026-04-25T16:37:26.014Z</time></trkpt><trkpt lat="46.148913081358344" lon="9.765234040011213"><ele>302.0</ele><time>2026-04-25T16:37:27.014Z</time></trkpt><trkpt lat="46.14901061851519" lon="9.765177303841918"><ele>302.0</ele><time>2026-04-25T16:37:28.014Z</time></trkpt><trkpt lat="46.14911237028421" lon="9.765119056526826"><ele>302.0</ele><time>2026-04-25T16:37:29.014Z</time></trkpt><trkpt lat="46.14921046229444" lon="9.76506908052371"><ele>302.0</ele><time>2026-04-25T16:37:30.014Z</time></trkpt><trkpt lat="46.14930023386098" lon="9.76501595584231"><ele>300.4</ele><time>2026-04-25T16:37:31.014Z</time></trkpt><trkpt lat="46.14939206547564" lon="9.764972377008377"><ele>298.79999999999995</ele><time>2026-04-25T16:37:32.014Z</time></trkpt><trkpt lat="46.14948329639742" lon="9.764927857284292"><ele>297.2</ele><time>2026-04-25T16:37:33.014Z</time></trkpt><trkpt lat="46.149581293004815" lon="9.764873600097632"><ele>295.59999999999997</ele><time>2026-04-25T16:37:34.014Z</time></trkpt><trkpt lat="46.14968385104379" lon="9.764827500305143"><ele>294.0</ele><time>2026-04-25T16:37:35.014Z</time></trkpt><trkpt lat="46.1497889096595" lon="9.764777101563833"><ele>294.0</ele><time>2026-04-25T16:37:36.014Z</time></trkpt><trkpt lat="46.14987159564978" lon="9.764730177156261"><ele>294.0</ele><time>2026-04-25T16:37:37.014Z</time></trkpt><trkpt lat="46.14995743022267" lon="9.764693472139482"><ele>294.0</ele><time>2026-04-25T16:37:38.014Z</time></trkpt><trkpt lat="46.15004478259917" lon="9.7646621982351"><ele>294.0</ele><time>2026-04-25T16:37:39.014Z</time></trkpt><trkpt lat="46.15012801521967" lon="9.764627806369225"><ele>294.0</ele><time>2026-04-25T16:37:40.013Z</time></trkpt><trkpt lat="46.15020783321728" lon="9.764598377932277"><ele>294.0</ele><time>2026-04-25T16:37:41.012Z</time></trkpt><trkpt lat="46.150300108788315" lon="9.764564705844254"><ele>293.0</ele><time>2026-04-25T16:37:42.011Z</time></trkpt><trkpt lat="46.15037213406621" lon="9.764530733566385"><ele>292.0</ele><time>2026-04-25T16:37:43.011Z</time></trkpt><trkpt lat="46.1504376012022" lon="9.764501952824565"><ele>291.0</ele><time>2026-04-25T16:37:45.009Z</time></trkpt><trkpt lat="46.150438652101485" lon="9.764301957537679"><ele>290.0</ele><time>2026-04-25T16:37:47.008Z</time></trkpt><trkpt lat="46.150409892774" lon="9.764133651523965"><ele>289.0</ele><time>2026-04-25T16:37:48.007Z</time></trkpt><trkpt lat="46.150383856447256" lon="9.763973719993155"><ele>288.59999999999997</ele><time>2026-04-25T16:37:49.007Z</time></trkpt><trkpt lat="46.15037325877932" lon="9.763872164086903"><ele>288.2</ele><time>2026-04-25T16:37:50.006Z</time></trkpt><trkpt lat="46.15050772263516" lon="9.763863268742552"><ele>287.79999999999995</ele><time>2026-04-25T16:37:52.005Z</time></trkpt><trkpt lat="46.15059649481687" lon="9.763894963711873"><ele>287.4</ele><time>2026-04-25T16:37:53.005Z</time></trkpt><trkpt lat="46.15067802394431" lon="9.763878966539057"><ele>287.0</ele><time>2026-04-25T16:37:54.004Z</time></trkpt><trkpt lat="46.150770794375916" lon="9.763840672015915"><ele>286.4</ele><time>2026-04-25T16:37:55.004Z</time></trkpt><trkpt lat="46.150863228531946" lon="9.763818175215013"><ele>285.79999999999995</ele><time>2026-04-25T16:37:56.004Z</time></trkpt><trkpt lat="46.15095193531557" lon="9.763814761137796"><ele>285.2</ele><time>2026-04-25T16:37:57.003Z</time></trkpt><trkpt lat="46.15104911085678" lon="9.763813673875129"><ele>284.59999999999997</ele><time>2026-04-25T16:37:58.003Z</time></trkpt><trkpt lat="46.15115072164062" lon="9.763812317737012"><ele>284.0</ele><time>2026-04-25T16:37:59.003Z</time></trkpt><trkpt lat="46.15125899217789" lon="9.763814733877567"><ele>284.0</ele><time>2026-04-25T16:38:00.002Z</time></trkpt><trkpt lat="46.15137188617071" lon="9.763823721207862"><ele>284.0</ele><time>2026-04-25T16:38:01.002Z</time></trkpt><trkpt lat="46.151478650538316" lon="9.763821968041654"><ele>284.0</ele><time>2026-04-25T16:38:02.002Z</time></trkpt><trkpt lat="46.15159293116988" lon="9.763819201702246"><ele>284.0</ele><time>2026-04-25T16:38:03.002Z</time></trkpt><trkpt lat="46.15171118527575" lon="9.763825998054301"><ele>283.25</ele><time>2026-04-25T16:38:04.001Z</time></trkpt><trkpt lat="46.1518351594558" lon="9.763829321431189"><ele>282.5</ele><time>2026-04-25T16:38:05.001Z</time></trkpt><trkpt lat="46.15196798566889" lon="9.763834005074"><ele>281.75</ele><time>2026-04-25T16:38:06.001Z</time></trkpt><trkpt lat="46.15210475805953" lon="9.76384750073142"><ele>281.0</ele><time>2026-04-25T16:38:07.001Z</time></trkpt><trkpt lat="46.15224847358896" lon="9.763869784828872"><ele>280.5</ele><time>2026-04-25T16:38:08.001Z</time></trkpt><trkpt lat="46.15239232527469" lon="9.763911903276576"><ele>280.0</ele><time>2026-04-25T16:38:09.001Z</time></trkpt><trkpt lat="46.15252127188513" lon="9.763951356252191"><ele>279.5</ele><time>2026-04-25T16:38:10Z</time></trkpt><trkpt lat="46.15265657571038" lon="9.763997129627137"><ele>279.0</ele><time>2026-04-25T16:38:11Z</time></trkpt><trkpt lat="46.15278195153032" lon="9.764043790561631"><ele>279.0</ele><time>2026-04-25T16:38:12Z</time></trkpt><trkpt lat="46.15290510392583" lon="9.764088120739668"><ele>279.0</ele><time>2026-04-25T16:38:13Z</time></trkpt><trkpt lat="46.15302193196759" lon="9.76413061281596"><ele>279.0</ele><time>2026-04-25T16:38:14Z</time></trkpt><trkpt lat="46.1531416839746" lon="9.764160895320977"><ele>279.0</ele><time>2026-04-25T16:38:15Z</time></trkpt><trkpt lat="46.153247648453856" lon="9.764188147486902"><ele>278.59999999999997</ele><time>2026-04-25T16:38:16Z</time></trkpt><trkpt lat="46.153355112809145" lon="9.764218804530369"><ele>278.2</ele><time>2026-04-25T16:38:17Z</time></trkpt><trkpt lat="46.15345335622755" lon="9.76423997618799"><ele>277.79999999999995</ele><time>2026-04-25T16:38:18Z</time></trkpt><trkpt lat="46.15354262637659" lon="9.764257581252677"><ele>277.4</ele><time>2026-04-25T16:38:18.999Z</time></trkpt><trkpt lat="46.15362501211228" lon="9.764270221297972"><ele>277.0</ele><time>2026-04-25T16:38:19.999Z</time></trkpt><trkpt lat="46.15369382541209" lon="9.764276092613137"><ele>277.0</ele><time>2026-04-25T16:38:20.999Z</time></trkpt><trkpt lat="46.15376997185679" lon="9.764216514336722"><ele>277.0</ele><time>2026-04-25T16:38:22.999Z</time></trkpt><trkpt lat="46.15372851318008" lon="9.764130281710418"><ele>277.0</ele><time>2026-04-25T16:41:52.998Z</time></trkpt><trkpt lat="46.15374230383054" lon="9.763993435995076"><ele>277.0</ele><time>2026-04-25T16:41:53.998Z</time></trkpt><trkpt lat="46.153760943966816" lon="9.763849105034234"><ele>277.0</ele><time>2026-04-25T16:41:54.997Z</time></trkpt><trkpt lat="46.15376374581199" lon="9.763713902882682"><ele>277.0</ele><time>2026-04-25T16:41:55.997Z</time></trkpt><trkpt lat="46.153770628092985" lon="9.763552786193559"><ele>277.0</ele><time>2026-04-25T16:41:56.997Z</time></trkpt><trkpt lat="46.15378546858386" lon="9.763390470246154"><ele>277.0</ele><time>2026-04-25T16:41:57.997Z</time></trkpt><trkpt lat="46.15379207479493" lon="9.763223429048443"><ele>277.0</ele><time>2026-04-25T16:41:58.997Z</time></trkpt><trkpt lat="46.15379310520571" lon="9.76306088458211"><ele>277.0</ele><time>2026-04-25T16:41:59.997Z</time></trkpt><trkpt lat="46.153790222015076" lon="9.762896518269326"><ele>277.0</ele><time>2026-04-25T16:42:00.997Z</time></trkpt><trkpt lat="46.153791080317" lon="9.76271722255272"><ele>277.0</ele><time>2026-04-25T16:42:01.997Z</time></trkpt><trkpt lat="46.15379997297832" lon="9.762545327682911"><ele>277.0</ele><time>2026-04-25T16:42:02.997Z</time></trkpt><trkpt lat="46.15380573483902" lon="9.762395162295999"><ele>276.66666666666663</ele><time>2026-04-25T16:42:03.997Z</time></trkpt><trkpt lat="46.15381256040568" lon="9.762264402744924"><ele>276.3333333333333</ele><time>2026-04-25T16:42:04.997Z</time></trkpt><trkpt lat="46.15381305842903" lon="9.762147608202055"><ele>276.0</ele><time>2026-04-25T16:42:05.997Z</time></trkpt><trkpt lat="46.1538090091582" lon="9.762025058124781"><ele>275.6666666666667</ele><time>2026-04-25T16:42:06.997Z</time></trkpt><trkpt lat="46.15381466835273" lon="9.76192785171674"><ele>275.33333333333337</ele><time>2026-04-25T16:42:07.997Z</time></trkpt><trkpt lat="46.15382318321491" lon="9.761768851526673"><ele>275.0</ele><time>2026-04-25T16:42:09.997Z</time></trkpt><trkpt lat="46.15391516679467" lon="9.761718513184762"><ele>274.6666666666667</ele><time>2026-04-25T16:42:11.997Z</time></trkpt><trkpt lat="46.154001511086" lon="9.76175498747343"><ele>274.33333333333337</ele><time>2026-04-25T16:42:12.997Z</time></trkpt><trkpt lat="46.15408401300075" lon="9.761780317757019"><ele>274.0</ele><time>2026-04-25T16:42:13.997Z</time></trkpt><trkpt lat="46.15416646465654" lon="9.761784705799952"><ele>273.6666666666667</ele><time>2026-04-25T16:42:14.997Z</time></trkpt><trkpt lat="46.15424965016746" lon="9.761785684671706"><ele>273.3333333333333</ele><time>2026-04-25T16:42:15.997Z</time></trkpt><trkpt lat="46.15432949722954" lon="9.761788060023173"><ele>273.0</ele><time>2026-04-25T16:42:16.997Z</time></trkpt><trkpt lat="46.154412400602695" lon="9.761793061435819"><ele>272.6666666666667</ele><time>2026-04-25T16:42:17.997Z</time></trkpt><trkpt lat="46.154497510620764" lon="9.761798161196332"><ele>272.3333333333333</ele><time>2026-04-25T16:42:18.997Z</time></trkpt><trkpt lat="46.15456163495803" lon="9.761798022945309"><ele>272.0</ele><time>2026-04-25T16:42:19.997Z</time></trkpt><trkpt lat="46.15465852187023" lon="9.761790736758057"><ele>271.66666666666663</ele><time>2026-04-25T16:42:21.997Z</time></trkpt><trkpt lat="46.15473260076683" lon="9.761789300963938"><ele>271.3333333333333</ele><time>2026-04-25T16:42:23.997Z</time></trkpt><trkpt lat="46.15479645481596" lon="9.761814979130179"><ele>271.0</ele><time>2026-04-25T16:42:25.997Z</time></trkpt><trkpt lat="46.15483565436304" lon="9.761726529031058"><ele>271.0</ele><time>2026-04-25T16:42:27.997Z</time></trkpt><trkpt lat="46.154791559192034" lon="9.761808967768944"><ele>271.0</ele><time>2026-04-25T16:42:36.997Z</time></trkpt><trkpt lat="46.15481658634698" lon="9.761712068986311"><ele>271.0</ele><time>2026-04-25T16:43:20.997Z</time></trkpt><trkpt lat="46.15487186512021" lon="9.761653425028308"><ele>270.0</ele><time>2026-04-25T16:43:34.997Z</time></trkpt></trkseg></trk></gpx>